# Wetter Temperatur Luftdruck Luftfeuchtigkeit Sichtweite Windgeschwindigkeit Windrichtung Zeit
1 Clouds 18 1016 82 10000 9.8 10 22:25 24.01.2020
2 Clouds 18 1015 77 10000 9.3 10 21:56 24.01.2020
3 Clouds 18 1015 77 10000 9.8 10 21:37 24.01.2020
4 Clouds 18 1015 77 10000 9.8 10 21:18 24.01.2020
5 Clouds 17 1015 77 10000 9.8 10 20:42 24.01.2020
6 Clouds 17 1014 77 10000 9.3 10 20:21 24.01.2020
7 Clouds 17 1015 77 10000 9.3 10 19:57 24.01.2020
8 Clouds 17 1015 82 10000 8.7 10 19:39 24.01.2020
9 Clouds 17 1015 82 10000 8.7 10 19:21 24.01.2020
10 Clouds 17 1015 82 10000 8.7 10 18:43 24.01.2020
11 Clouds 17 1014 77 10000 8.7 20 18:24 24.01.2020
12 Clouds 17 1014 77 10000 11.8 10 17:56 24.01.2020
13 Clouds 17 1014 77 10000 9.8 10 17:38 24.01.2020
14 Clear 17 1014 77 10000 9.8 10 17:18 24.01.2020
15 Clear 16 1015 77 10000 9.3 10 16:39 24.01.2020
16 Clear 16 1015 77 10000 9.3 10 16:20 24.01.2020
17 Clear 16 1015 77 10000 9.3 20 15:43 24.01.2020
18 Clear 16 1015 77 10000 9.3 20 15:23 24.01.2020
19 Clear 16 1015 77 10000 9.3 20 14:58 24.01.2020
20 Clear 16 1015 77 10000 9.3 10 14:40 24.01.2020
21 Clear 16 1015 77 10000 9.3 10 14:21 24.01.2020
22 Clear 17 1015 82 10000 8.2 20 13:43 24.01.2020
23 Clear 17 1015 77 10000 8.7 20 13:23 24.01.2020
24 Clear 16 1015 77 10000 9.3 10 12:45 24.01.2020
25 Clear 16 1015 77 10000 9.3 10 12:45 24.01.2020
26 Clear 16 1016 77 10000 9.3 30 12:23 24.01.2020
27 Clear 16 1016 77 10000 8.2 20 11:57 24.01.2020
28 Clear 16 1016 82 10000 7.7 20 11:39 24.01.2020
29 Clear 16 1016 82 10000 7.7 20 11:18 24.01.2020
30 Clear 16 1016 82 10000 8.2 20 10:42 24.01.2020
31 Clear 16 1016 82 10000 8.2 20 10:42 24.01.2020
32 Clear 16 1016 82 10000 8.2 20 10:42 24.01.2020
33 Clear 16 1016 82 10000 8.7 20 10:21 24.01.2020
34 Clear 17 1016 77 10000 8.7 20 09:55 24.01.2020
35 Clear 17 1015 77 10000 10.3 360 09:37 24.01.2020
36 Clear 17 1015 77 10000 10.3 360 09:18 24.01.2020
37 Clear 17 1015 77 10000 10.3 10 08:39 24.01.2020
38 Clear 18 1015 77 10000 10.3 10 08:19 24.01.2020
39 Clear 19 1014 77 10000 10.3 10 07:48 24.01.2020
40 Clear 19 1014 77 10000 9.8 360 07:22 24.01.2020
41 Clear 19 1015 77 10000 10.3 360 06:45 24.01.2020
42 Clear 19 1015 77 10000 10.3 360 06:24 24.01.2020
43 Clear 20 1014 60 10000 11.3 360 05:33 24.01.2020
44 Clear 22 1016 60 10000 8.2 360 03:36 24.01.2020
45 Clear 21 1016 68 10000 8.2 350 02:40 24.01.2020
46 Clouds 21 1016 68 10000 8.2 350 02:21 24.01.2020
47 Clouds 21 1016 73 10000 9.8 10 01:39 24.01.2020
48 Clouds 21 1017 77 10000 8.7 10 00:52 24.01.2020
49 Clouds 20 1017 77 10000 7.2 10 00:19 24.01.2020
50 Clouds 20 1017 73 10000 6.2 360 23:42 23.01.2020
51 Rain 19 1017 77 10000 5.7 350 23:23 23.01.2020
52 Rain 18 1017 82 10000 4.6 350 22:58 23.01.2020
53 Rain 18 1017 82 10000 5.7 360 22:37 23.01.2020
54 Rain 18 1017 82 10000 5.7 360 22:37 23.01.2020
55 Rain 18 1017 82 10000 5.7 360 22:37 23.01.2020
56 Clouds 18 1017 82 10000 5.7 360 22:18 23.01.2020
57 Clouds 18 1018 93 10000 3.6 10 21:55 23.01.2020
58 Clouds 17 1017 93 10000 3.1 10 21:37 23.01.2020
59 Clouds 17 1017 93 10000 3.1 10 21:19 23.01.2020
60 Clouds 17 1017 93 10000 3.1 10 21:19 23.01.2020
61 Clouds 17 1017 93 10000 1 350 20:55 23.01.2020
62 Clouds 17 1017 100 10000 1 320 20:37 23.01.2020
63 Clouds 17 1017 100 10000 1 320 20:18 23.01.2020
64 Clouds 17 1017 93 10000 1.5 10 19:42 23.01.2020
65 Clouds 16 1017 100 10000 1 160 19:23 23.01.2020
66 Clouds 16 1017 100 10000 0.5 220 18:58 23.01.2020
67 Clouds 16 1017 100 10000 1.5 200 18:38 23.01.2020
68 Clouds 16 1017 100 10000 1.5 200 18:20 23.01.2020
69 Clouds 16 1017 100 10000 1.5 230 17:55 23.01.2020
70 Clouds 16 1017 100 10000 1 220 17:37 23.01.2020
71 Rain 16 1017 100 10000 1 220 17:18 23.01.2020
72 Rain 16 1017 100 3000 1.5 250 16:39 23.01.2020
73 Rain 16 1017 100 3000 1.5 250 16:20 23.01.2020
74 Drizzle 16 1017 100 3700 2.1 230 15:58 23.01.2020
75 Drizzle 16 1017 100 3600 1.5 210 15:39 23.01.2020
76 Drizzle 17 1017 100 3600 1.5 210 15:19 23.01.2020
77 Drizzle 17 1017 100 2900 1.5 210 14:59 23.01.2020
78 Drizzle 17 1017 100 2900 1.5 210 14:41 23.01.2020
79 Drizzle 17 1017 100 2700 2.6 200 14:22 23.01.2020
80 Drizzle 17 1017 100 2500 3.1 200 13:56 23.01.2020
81 Rain 17 1017 100 2400 3.1 190 13:37 23.01.2020
82 Rain 17 1017 100 2400 3.1 190 13:18 23.01.2020
83 Rain 17 1017 93 2700 3.6 190 12:43 23.01.2020
84 Rain 17 1017 93 4000 5.1 200 12:24 23.01.2020
85 Rain 18 1017 100 8000 4.6 220 11:56 23.01.2020
86 Rain 18 1017 93 6000 1 320 11:37 23.01.2020
87 Rain 18 1017 93 6000 1 320 11:37 23.01.2020
88 Rain 18 1017 93 6000 1 320 11:18 23.01.2020
89 Clear 18 1017 100 10000 3.1 360 10:43 23.01.2020
90 Clear 19 1016 88 10000 4.6 360 10:19 23.01.2020
91 Clear 19 1015 88 10000 5.1 360 09:43 23.01.2020
92 Clear 19 1015 82 10000 6.7 360 09:25 23.01.2020
93 Clear 19 1014 82 10000 7.2 360 08:58 23.01.2020
94 Clear 19 1014 82 10000 7.2 360 08:40 23.01.2020
95 Clear 19 1014 82 10000 7.7 360 08:21 23.01.2020
96 Clear 19 1014 82 10000 8.7 10 07:44 23.01.2020
97 Clear 20 1014 82 10000 8.2 10 07:24 23.01.2020
98 Clear 20 1013 77 10000 8.7 10 06:51 23.01.2020
99 Clear 20 1013 83 10000 8.7 360 06:22 23.01.2020
100 Clear 20 1014 82 10000 9.3 360 05:44 23.01.2020
101 Clear 20 1014 77 10000 9.3 10 04:24 23.01.2020
102 Clear 22 1014 64 10000 10.3 10 02:34 23.01.2020
103 Clear 22 1014 64 10000 10.3 10 01:19 23.01.2020
104 Clear 20 1014 73 10000 10.8 10 00:27 23.01.2020
105 Clear 21 1014 73 10000 10.8 10 23:48 22.01.2020
106 Clear 20 1014 73 10000 11.3 10 23:29 22.01.2020
107 Clear 20 1014 73 10000 10.8 10 22:59 22.01.2020
108 Clear 19 1014 72 10000 11.3 10 22:40 22.01.2020
109 Clear 19 1014 72 10000 11.3 10 22:22 22.01.2020
110 Clear 19 1014 77 10000 11.3 10 21:40 22.01.2020
111 Clear 19 1014 77 10000 11.3 10 21:22 22.01.2020
112 Clear 19 1014 82 10000 10.8 10 20:57 22.01.2020
113 Clear 19 1013 82 10000 11.3 10 20:38 22.01.2020
114 Clear 19 1013 82 10000 11.3 10 20:38 22.01.2020
115 Clouds 18 1013 82 10000 11.3 10 20:20 22.01.2020
116 Clouds 18 1013 82 10000 10.8 10 19:56 22.01.2020
117 Clouds 17 1013 82 10000 10.3 10 19:38 22.01.2020
118 Clouds 17 1013 82 10000 10.3 10 19:18 22.01.2020
119 Clouds 17 1013 82 10000 11.3 10 18:56 22.01.2020
120 Clouds 17 1013 82 10000 11.3 10 18:38 22.01.2020
121 Clouds 17 1013 82 10000 11.3 10 18:19 22.01.2020
122 Clouds 17 1013 82 10000 11.3 10 18:19 22.01.2020
123 Clouds 17 1013 82 10000 11.8 10 17:54 22.01.2020
124 Clouds 17 1013 82 10000 11.3 10 17:36 22.01.2020
125 Clouds 17 1013 82 10000 11.3 10 17:18 22.01.2020
126 Clouds 17 1013 82 10000 11.8 10 16:42 22.01.2020
127 Clouds 17 1013 82 10000 9.3 20 16:22 22.01.2020
128 Clouds 17 1013 82 10000 10.8 20 15:58 22.01.2020
129 Clouds 17 1013 82 10000 11.3 10 15:38 22.01.2020
130 Clouds 17 1013 82 10000 11.3 10 15:20 22.01.2020
131 Clouds 17 1014 82 10000 11.3 10 14:40 22.01.2020
132 Clouds 17 1014 82 10000 11.3 10 14:21 22.01.2020
133 Clouds 17 1014 82 10000 12.3 10 13:59 22.01.2020
134 Clouds 17 1014 82 10000 12.3 10 13:38 22.01.2020
135 Clouds 17 1014 82 10000 12.3 10 13:20 22.01.2020
136 Clouds 17 1014 82 10000 11.3 10 12:58 22.01.2020
137 Clouds 17 1014 82 10000 11.8 360 12:40 22.01.2020
138 Clouds 17 1014 82 10000 11.8 360 12:20 22.01.2020
139 Clouds 17 1014 82 10000 12.3 360 11:58 22.01.2020
140 Clouds 17 1013 82 10000 12.3 10 11:40 22.01.2020
141 Clouds 17 1013 82 10000 12.3 10 11:19 22.01.2020
142 Clouds 17 1013 82 10000 12.3 10 11:19 22.01.2020
143 Clouds 17 1013 82 10000 10.3 10 10:59 22.01.2020
144 Clouds 17 1013 82 10000 10.3 10 10:41 22.01.2020
145 Clouds 17 1013 82 10000 11.8 10 10:18 22.01.2020
146 Clouds 17 1013 82 10000 12.3 360 09:42 22.01.2020
147 Clouds 17 1013 82 10000 11.8 10 09:24 22.01.2020
148 Clouds 17 1013 82 10000 10.8 10 08:57 22.01.2020
149 Clouds 17 1013 82 10000 11.3 10 08:38 22.01.2020
150 Clouds 17 1013 82 10000 11.3 10 08:20 22.01.2020
151 Rain 18 1013 82 10000 11.8 360 07:46 22.01.2020
152 Clouds 18 1013 82 10000 13.4 360 07:27 22.01.2020
153 Clouds 18 1013 77 10000 12.3 360 06:38 22.01.2020
154 Clouds 19 1013 77 10000 12.3 360 06:20 22.01.2020
155 Clouds 19 1013 77 10000 12.9 360 05:19 22.01.2020
156 Clouds 20 1014 72 10000 12.3 10 03:29 22.01.2020
157 Clouds 20 1014 72 10000 12.9 10 02:50 22.01.2020
158 Clouds 19 1014 77 10000 11.8 10 01:42 22.01.2020
159 Clouds 19 1015 72 10000 11.3 10 00:43 22.01.2020
160 Clouds 18 1015 72 10000 12.3 10 00:25 22.01.2020
161 Clouds 18 1015 72 10000 9.8 20 23:38 21.01.2020
162 Clouds 18 1015 72 10000 9.8 20 23:38 21.01.2020
163 Clouds 18 1015 72 10000 9.8 20 23:20 21.01.2020
164 Clouds 18 1015 72 10000 11.8 10 22:55 21.01.2020
165 Clouds 18 1015 68 10000 10.3 10 22:36 21.01.2020
166 Clouds 18 1015 68 10000 10.3 10 22:18 21.01.2020
167 Clouds 17 1015 68 10000 9.8 360 21:55 21.01.2020
168 Clouds 17 1015 77 10000 10.3 10 21:36 21.01.2020
169 Clouds 18 1015 77 10000 10.3 10 21:18 21.01.2020
170 Clouds 17 1014 77 10000 8.7 360 20:39 21.01.2020
171 Clouds 16 1014 77 10000 8.7 360 20:20 21.01.2020
172 Clouds 16 1014 82 10000 8.2 10 19:59 21.01.2020
173 Clouds 16 1014 82 10000 8.2 10 19:40 21.01.2020
174 Clouds 16 1014 82 10000 8.2 10 19:21 21.01.2020
175 Clouds 16 1014 87 10000 7.7 360 18:57 21.01.2020
176 Clouds 16 1014 87 10000 7.7 360 18:39 21.01.2020
177 Clouds 16 1014 87 10000 7.7 360 18:21 21.01.2020
178 Clouds 16 1014 82 10000 7.7 350 17:59 21.01.2020
179 Clouds 16 1014 82 10000 7.7 350 17:40 21.01.2020
180 Clouds 16 1014 82 10000 7.2 350 17:18 21.01.2020
181 Clouds 16 1014 82 10000 7.2 350 17:18 21.01.2020
182 Clouds 16 1014 82 10000 6.7 350 16:55 21.01.2020
183 Clouds 16 1014 88 10000 7.2 360 16:36 21.01.2020
184 Clouds 16 1014 88 10000 7.2 360 16:18 21.01.2020
185 Clouds 16 1014 82 10000 7.7 10 15:39 21.01.2020
186 Clouds 16 1014 82 10000 7.7 10 15:19 21.01.2020
187 Clouds 16 1014 82 10000 7.2 360 14:40 21.01.2020
188 Clouds 16 1015 82 10000 7.7 360 14:22 21.01.2020
189 Clouds 16 1015 88 10000 7.7 360 13:58 21.01.2020
190 Clouds 16 1015 88 10000 7.2 360 13:38 21.01.2020
191 Clouds 16 1015 88 10000 7.2 360 13:18 21.01.2020
192 Clouds 16 1015 88 10000 7.2 10 12:42 21.01.2020
193 Clouds 16 1015 88 10000 6.2 20 12:24 21.01.2020
194 Clouds 16 1015 88 10000 6.7 10 11:56 21.01.2020
195 Clouds 17 1015 82 10000 5.1 20 11:38 21.01.2020
196 Clouds 17 1015 82 10000 5.1 20 11:19 21.01.2020
197 Clouds 17 1015 77 10000 5.1 10 10:43 21.01.2020
198 Clouds 17 1015 77 10000 4.1 360 10:23 21.01.2020
199 Clouds 17 1014 68 10000 3.1 320 09:56 21.01.2020
200 Clouds 17 1014 68 10000 3.1 320 09:56 21.01.2020
201 Clouds 17 1014 72 10000 1.5 180 09:38 21.01.2020
202 Clouds 18 1014 72 10000 1.5 180 09:20 21.01.2020
203 Clouds 19 1014 68 10000 1.5 200 08:44 21.01.2020
204 Clear 20 1013 64 10000 2.1 190 08:26 21.01.2020
205 Clear 21 1013 68 10000 2.1 190 07:43 21.01.2020
206 Clear 21 1013 72 10000 2.6 200 07:24 21.01.2020
207 Clear 21 1013 72 10000 2.1 200 06:57 21.01.2020
208 Clear 21 1013 72 10000 2.6 200 06:38 21.01.2020
209 Clear 21 1014 72 10000 3.1 180 05:55 21.01.2020
210 Clear 21 1014 72 10000 3.1 180 05:55 21.01.2020
211 Clear 22 1014 77 10000 3.6 200 05:32 21.01.2020
212 Clear 21 1015 77 10000 5.1 210 04:38 21.01.2020
213 Clear 21 1016 77 10000 5.7 210 02:27 21.01.2020
214 Clear 21 1016 72 10000 5.1 210 01:36 21.01.2020
215 Clear 22 1016 77 10000 5.1 210 00:51 21.01.2020
216 Clear 21 1016 77 10000 5.1 210 00:28 21.01.2020
217 Clear 20 1017 82 10000 4.6 200 23:56 20.01.2020
218 Clear 21 1017 93 10000 4.1 170 23:36 20.01.2020
219 Clear 19 1017 93 10000 4.1 170 23:18 20.01.2020
220 Haze 20 1016 93 3300 2.6 180 22:40 20.01.2020
221 Haze 18 1016 93 3300 2.6 180 22:21 20.01.2020
222 Clear 18 1017 93 10000 2.6 190 21:58 20.01.2020
223 Mist 18 1016 100 3600 2.1 190 21:38 20.01.2020
224 Mist 18 1016 100 3600 2.1 190 21:20 20.01.2020
225 Fog 18 1016 100 800 1 200 20:59 20.01.2020
226 Fog 17 1016 100 800 1 200 20:41 20.01.2020
227 Fog 15 1016 100 400 1 240 20:20 20.01.2020
228 Fog 15 1016 100 150 1.5 160 19:58 20.01.2020
229 Fog 15 1016 100 150 1.5 160 19:40 20.01.2020
230 Fog 14 1015 100 400 2.1 170 19:19 20.01.2020
231 Clear 13 1015 93 10000 1 160 18:55 20.01.2020
232 Clear 13 1015 93 10000 2.1 150 18:37 20.01.2020
233 Clear 13 1015 93 10000 2.1 150 18:19 20.01.2020
234 Clear 13 1015 93 10000 1 220 17:38 20.01.2020
235 Clear 14 1015 93 10000 1 220 17:19 20.01.2020
236 Clear 13 1015 100 10000 1 160 16:46 20.01.2020
237 Clear 13 1015 93 10000 1 30 16:26 20.01.2020
238 Clear 14 1015 93 10000 0.5 120 15:59 20.01.2020
239 Clear 14 1015 93 10000 1 220 15:40 20.01.2020
240 Clear 14 1015 93 10000 1 220 15:22 20.01.2020
241 Clear 14 1015 93 10000 2.6 160 14:56 20.01.2020
242 Clear 14 1015 93 10000 2.6 170 14:37 20.01.2020
243 Clear 14 1015 93 10000 2.6 170 14:37 20.01.2020
244 Clouds 14 1015 93 10000 2.6 170 14:19 20.01.2020
245 Clouds 15 1015 93 10000 1 190 13:42 20.01.2020
246 Clouds 15 1015 87 10000 0.5 260 13:24 20.01.2020
247 Clouds 15 1015 87 10000 0.5 240 12:58 20.01.2020
248 Clouds 15 1015 87 10000 0.5 220 12:40 20.01.2020
249 Clouds 15 1015 87 10000 0.5 220 12:21 20.01.2020
250 Clouds 16 1015 93 10000 1 250 11:43 20.01.2020
251 Clouds 16 1015 87 10000 1.5 30 11:24 20.01.2020
252 Clear 16 1015 93 10000 1.5 150 10:58 20.01.2020
253 Clear 16 1015 87 10000 3.1 150 10:40 20.01.2020
254 Clear 16 1015 87 10000 3.1 150 10:20 20.01.2020
255 Clear 17 1014 87 10000 2.6 150 09:41 20.01.2020
256 Clear 18 1014 77 10000 1.5 200 09:22 20.01.2020
257 Clear 18 1014 82 10000 2.6 200 08:54 20.01.2020
258 Clear 19 1014 82 10000 3.6 200 08:31 20.01.2020
259 Clouds 20 1014 82 10000 3.6 210 07:55 20.01.2020
260 Clouds 20 1014 77 10000 4.6 210 07:36 20.01.2020
261 Clouds 20 1014 77 10000 4.6 210 07:18 20.01.2020
262 Clouds 20 1014 77 10000 6.2 200 06:35 20.01.2020
263 Clouds 22 1014 72 10000 6.2 190 05:56 20.01.2020
264 Clouds 21 1014 77 10000 5.1 190 05:37 20.01.2020
265 Clouds 21 1014 77 10000 5.1 190 05:18 20.01.2020
266 Clouds 22 1015 82 10000 6.7 210 03:46 20.01.2020
267 Clouds 21 1017 82 10000 6.2 180 01:58 20.01.2020
268 Clouds 21 1017 77 10000 5.7 170 01:39 20.01.2020
269 Clouds 23 1017 63 0 2.24 190 00:46 20.01.2020
270 Clouds 21 1017 82 10000 4.1 200 00:27 20.01.2020
271 Clouds 21 1017 88 10000 5.1 210 23:55 19.01.2020
272 Clouds 20 1017 88 10000 4.6 200 23:36 19.01.2020
273 Clouds 20 1017 88 10000 4.6 200 23:18 19.01.2020
274 Clouds 20 1017 88 10000 4.6 210 22:54 19.01.2020
275 Clouds 19 1017 88 10000 4.6 190 22:36 19.01.2020
276 Clouds 19 1017 88 10000 4.6 190 22:18 19.01.2020
277 Clouds 19 1017 93 10000 4.6 210 21:55 19.01.2020
278 Clouds 19 1017 93 10000 4.6 210 21:55 19.01.2020
279 Clouds 18 1017 93 10000 4.1 160 21:36 19.01.2020
280 Clouds 18 1017 93 10000 4.1 160 21:18 19.01.2020
281 Clouds 18 1017 93 10000 3.6 180 20:55 19.01.2020
282 Clouds 16 1017 100 10000 4.1 200 20:37 19.01.2020
283 Clouds 16 1017 100 10000 4.1 200 20:18 19.01.2020
284 Clouds 16 1017 100 10000 5.7 210 19:54 19.01.2020
285 Clouds 16 1017 100 9000 5.1 210 19:36 19.01.2020
286 Clouds 15 1017 100 9000 5.1 210 19:18 19.01.2020
287 Clouds 16 1017 100 10000 4.6 210 18:55 19.01.2020
288 Clouds 15 1017 100 8000 5.1 190 18:36 19.01.2020
289 Clouds 15 1017 100 8000 5.1 190 18:18 19.01.2020
290 Clouds 15 1017 100 10000 5.7 200 17:56 19.01.2020
291 Clouds 15 1017 100 6000 4.1 210 17:38 19.01.2020
292 Clouds 15 1017 100 6000 4.1 210 17:18 19.01.2020
293 Clouds 15 1016 93 10000 5.1 210 16:55 19.01.2020
294 Clouds 15 1017 93 10000 4.6 200 16:36 19.01.2020
295 Clouds 15 1017 93 10000 4.6 200 16:18 19.01.2020
296 Clouds 16 1017 93 10000 5.7 210 15:54 19.01.2020
297 Clouds 16 1017 93 10000 5.1 210 15:36 19.01.2020
298 Clouds 16 1017 93 10000 5.1 210 15:18 19.01.2020
299 Clouds 15 1017 93 10000 5.1 220 14:40 19.01.2020
300 Clouds 16 1017 100 10000 5.1 210 14:20 19.01.2020
301 Clouds 16 1017 100 10000 5.7 210 13:59 19.01.2020
302 Clouds 16 1017 100 10000 5.1 210 13:40 19.01.2020
303 Clouds 16 1017 100 10000 5.1 210 13:21 19.01.2020
304 Clouds 15 1017 100 10000 5.1 210 12:59 19.01.2020
305 Clouds 15 1017 100 10000 5.1 210 12:59 19.01.2020
306 Clouds 15 1017 100 10000 5.1 210 12:40 19.01.2020
307 Clouds 15 1017 100 10000 5.1 220 12:21 19.01.2020
308 Clouds 15 1017 100 10000 4.6 210 11:57 19.01.2020
309 Clouds 15 1017 100 10000 4.1 190 11:38 19.01.2020
310 Clouds 16 1017 100 10000 4.1 190 11:18 19.01.2020
311 Clouds 17 1017 100 10000 5.1 210 10:40 19.01.2020
312 Clouds 17 1017 100 10000 5.1 210 10:21 19.01.2020
313 Clouds 16 1017 100 10000 6.2 200 09:57 19.01.2020
314 Clouds 16 1016 100 10000 7.2 190 09:38 19.01.2020
315 Clouds 16 1016 100 10000 7.2 190 09:20 19.01.2020
316 Clouds 16 1016 100 6000 7.2 200 08:55 19.01.2020
317 Clear 17 1016 93 10000 6.7 210 08:33 19.01.2020
318 Mist 18 1016 93 5000 6.2 210 07:58 19.01.2020
319 Fog 19 1016 93 1300 7.2 210 07:29 19.01.2020
320 Rain 19 1016 93 650 6.2 210 06:55 19.01.2020
321 Fog 19 1016 93 1000 6.2 200 06:22 19.01.2020
322 Mist 18 1017 93 1800 6.2 220 04:18 19.01.2020
323 Clouds 18 1018 100 9000 5.1 210 02:34 19.01.2020
324 Rain 18 1018 100 4800 5.7 210 01:43 19.01.2020
325 Mist 17 1018 100 1600 6.7 210 01:20 19.01.2020
326 Rain 17 1018 100 1900 7.2 210 00:44 19.01.2020
327 Mist 17 1018 100 1900 6.7 210 00:24 19.01.2020
328 Mist 17 1018 100 1900 6.7 210 23:54 18.01.2020
329 Mist 17 1018 100 1400 6.2 210 23:36 18.01.2020
330 Mist 17 1018 100 1400 6.2 210 23:18 18.01.2020
331 Rain 15 1019 100 2500 6.7 210 22:41 18.01.2020
332 Drizzle 15 1019 100 3500 6.7 200 22:23 18.01.2020
333 Drizzle 16 1019 100 3300 6.7 210 21:58 18.01.2020
334 Drizzle 16 1019 100 2600 5.1 200 21:39 18.01.2020
335 Drizzle 16 1019 100 2600 5.1 200 21:20 18.01.2020
336 Rain 16 1019 100 10000 5.1 190 20:57 18.01.2020
337 Rain 16 1019 100 10000 5.1 190 20:57 18.01.2020
338 Rain 15 1019 100 7000 4.1 180 20:39 18.01.2020
339 Rain 15 1019 100 7000 4.1 180 20:39 18.01.2020
340 Rain 14 1019 100 7000 4.1 180 20:19 18.01.2020
341 Rain 14 1019 93 9000 5.1 200 19:43 18.01.2020
342 Rain 14 1019 93 10000 5.7 200 19:24 18.01.2020
343 Rain 14 1018 100 10000 5.7 190 18:43 18.01.2020
344 Rain 13 1018 100 10000 5.7 200 18:25 18.01.2020
345 Rain 14 1018 100 10000 4.6 200 17:59 18.01.2020
346 Rain 14 1018 100 10000 4.6 190 17:40 18.01.2020
347 Clouds 14 1018 100 10000 4.6 190 17:21 18.01.2020
348 Rain 14 1018 100 5000 5.1 200 16:57 18.01.2020
349 Rain 14 1018 100 5000 5.1 190 16:38 18.01.2020
350 Rain 14 1018 100 5000 5.1 190 16:38 18.01.2020
351 Rain 13 1018 100 5000 5.1 190 16:19 18.01.2020
352 Drizzle 14 1018 100 3400 4.1 190 15:47 18.01.2020
353 Drizzle 14 1018 100 3100 4.6 190 15:26 18.01.2020
354 Clouds 14 1018 93 10000 5.1 180 14:59 18.01.2020
355 Clouds 14 1018 93 10000 5.1 180 14:40 18.01.2020
356 Clear 14 1018 87 10000 4.6 190 14:19 18.01.2020
357 Clear 14 1018 87 10000 4.6 190 13:56 18.01.2020
358 Clear 14 1018 87 10000 5.1 180 13:36 18.01.2020
359 Clear 15 1018 87 10000 5.1 180 13:18 18.01.2020
360 Clear 15 1018 87 10000 5.1 180 13:18 18.01.2020
361 Clear 14 1018 93 10000 4.6 180 12:41 18.01.2020
362 Clear 14 1018 87 10000 4.1 150 12:21 18.01.2020
363 Clear 14 1018 87 10000 4.6 160 11:56 18.01.2020
364 Clear 15 1018 87 10000 5.7 150 11:38 18.01.2020
365 Clear 15 1018 87 10000 5.7 150 11:19 18.01.2020
366 Clear 15 1018 93 10000 6.2 160 10:42 18.01.2020
367 Clear 15 1018 87 10000 6.2 150 10:20 18.01.2020
368 Clear 15 1018 87 10000 6.7 150 09:54 18.01.2020
369 Clear 15 1017 87 10000 7.2 150 09:36 18.01.2020
370 Clear 16 1017 82 10000 6.2 150 08:59 18.01.2020
371 Clear 16 1017 82 10000 6.2 150 08:41 18.01.2020
372 Clear 17 1017 82 10000 5.7 190 08:20 18.01.2020
373 Clear 17 1017 82 10000 6.7 160 07:52 18.01.2020
374 Clear 17 1017 82 10000 9.3 160 07:34 18.01.2020
375 Clear 17 1017 87 10000 8.7 160 06:48 18.01.2020
376 Clear 18 1018 77 10000 8.7 150 06:19 18.01.2020
377 Clear 18 1018 77 10000 8.2 170 05:31 18.01.2020
378 Clouds 19 1019 68 10000 7.2 160 03:46 18.01.2020
379 Clouds 19 1019 72 10000 7.2 170 02:21 18.01.2020
380 Clouds 19 1020 77 10000 6.7 170 01:36 18.01.2020
381 Clouds 19 1020 77 10000 7.2 160 00:38 18.01.2020
382 Clouds 19 1020 77 10000 7.2 160 00:19 18.01.2020
383 Clouds 19 1020 77 10000 5.7 180 23:44 17.01.2020
384 Clouds 17 1020 72 10000 6.2 160 23:21 17.01.2020
385 Clouds 17 1020 67 10000 6.2 160 22:59 17.01.2020
386 Clouds 18 1020 77 10000 6.7 160 22:40 17.01.2020
387 Clouds 17 1020 77 10000 6.7 160 22:19 17.01.2020
388 Clouds 17 1020 72 10000 4.1 180 21:42 17.01.2020
389 Clouds 17 1020 63 10000 4.1 170 21:24 17.01.2020
390 Clouds 16 1021 59 10000 3.6 170 20:59 17.01.2020
391 Clouds 15 1021 59 10000 3.6 170 20:41 17.01.2020
392 Clear 14 1021 62 10000 2.6 150 20:20 17.01.2020
393 Clear 13 1021 62 10000 2.6 140 19:57 17.01.2020
394 Clear 13 1021 67 10000 3.1 140 19:38 17.01.2020
395 Clear 12 1021 67 10000 3.1 140 19:19 17.01.2020
396 Clear 12 1020 67 10000 3.1 140 18:57 17.01.2020
397 Clear 12 1020 66 10000 1.5 150 18:37 17.01.2020
398 Clear 12 1020 66 10000 1.5 150 18:19 17.01.2020
399 Clear 12 1020 76 10000 3.1 140 17:40 17.01.2020
400 Clear 12 1020 76 10000 3.1 140 17:40 17.01.2020
401 Clear 12 1020 76 10000 3.1 140 17:21 17.01.2020
402 Clear 12 1020 76 10000 2.6 150 16:55 17.01.2020
403 Clear 12 1020 82 10000 2.6 160 16:36 17.01.2020
404 Clear 12 1020 82 10000 2.6 160 16:18 17.01.2020
405 Clear 11 1021 81 10000 3.1 170 15:43 17.01.2020
406 Clear 11 1021 81 10000 2.6 170 15:25 17.01.2020
407 Clear 12 1021 71 10000 3.1 210 14:44 17.01.2020
408 Clear 11 1021 81 10000 2.6 170 14:25 17.01.2020
409 Clear 12 1021 71 10000 0.5 10 13:47 17.01.2020
410 Clear 12 1021 71 10000 1 60 13:23 17.01.2020
411 Clear 12 1021 66 10000 0.5 60 12:56 17.01.2020
412 Clear 12 1021 66 10000 1 140 12:37 17.01.2020
413 Clear 12 1021 66 10000 1 140 12:18 17.01.2020
414 Clear 13 1021 62 10000 1.5 120 11:38 17.01.2020
415 Clear 13 1021 62 10000 1.5 120 11:18 17.01.2020
416 Clear 14 1021 58 10000 2.6 80 10:42 17.01.2020
417 Clear 14 1021 58 10000 3.1 80 10:22 17.01.2020
418 Clear 14 1020 55 10000 4.1 70 09:58 17.01.2020
419 Clear 14 1020 63 10000 3.6 150 09:38 17.01.2020
420 Clear 15 1020 63 10000 3.6 150 09:19 17.01.2020
421 Clear 16 1020 67 10000 3.6 160 08:43 17.01.2020
422 Clear 16 1020 67 10000 4.1 160 08:24 17.01.2020
423 Clear 17 1020 67 10000 4.6 150 07:53 17.01.2020
424 Clear 18 1020 59 10000 6.2 150 07:31 17.01.2020
425 Clear 18 1020 55 10000 7.2 150 06:57 17.01.2020
426 Clear 18 1020 52 10000 7.7 150 06:38 17.01.2020
427 Clear 19 1021 48 10000 8.7 150 05:38 17.01.2020
428 Clear 21 1019 59 0 2.24 217 03:39 17.01.2020
429 Clear 20 1021 50 0 2.24 189 02:45 17.01.2020
430 Clouds 20 1022 57 0 1.79 192 01:46 17.01.2020
431 Clear 19 1018 59 0 0.45 185 01:27 17.01.2020
432 Clear 19 1022 60 0 2.24 189 00:46 17.01.2020
433 Clear 18 1022 82 10000 5.1 170 00:21 17.01.2020
434 Clear 17 1022 82 10000 5.1 170 23:43 16.01.2020
435 Clear 16 1022 82 10000 5.1 170 23:25 16.01.2020
436 Clear 16 1023 82 10000 4.6 180 22:55 16.01.2020
437 Clear 17 1023 82 10000 4.6 170 22:36 16.01.2020
438 Clear 17 1023 82 10000 4.6 170 22:18 16.01.2020
439 Clear 16 1023 82 10000 5.1 170 21:54 16.01.2020
440 Clear 16 1023 82 10000 4.6 170 21:36 16.01.2020
441 Clear 16 1023 82 10000 4.6 170 21:18 16.01.2020
442 Clear 15 1022 82 10000 5.7 150 20:40 16.01.2020
443 Clouds 14 1022 82 10000 5.7 150 20:20 16.01.2020
444 Clouds 14 1022 87 10000 4.6 150 19:57 16.01.2020
445 Clouds 13 1022 82 10000 4.1 150 19:39 16.01.2020
446 Clouds 12 1018 99 0 2.96 103 19:20 16.01.2020
447 Clouds 12 1022 93 10000 4.6 160 18:56 16.01.2020
448 Clouds 12 1022 93 10000 4.1 160 18:37 16.01.2020
449 Clouds 12 1022 93 10000 4.1 160 18:18 16.01.2020
450 Clouds 12 1022 93 10000 4.1 160 18:18 16.01.2020
451 Clouds 11 1020 92 0 2.96 103 17:56 16.01.2020
452 Clouds 12 1022 87 10000 3.6 150 17:38 16.01.2020
453 Clouds 12 1022 87 10000 3.6 150 17:20 16.01.2020
454 Clouds 12 1022 87 10000 3.1 170 16:40 16.01.2020
455 Clouds 12 1022 82 10000 2.6 190 16:21 16.01.2020
456 Clouds 13 1022 82 10000 1.5 160 15:56 16.01.2020
457 Clouds 13 1022 82 10000 1 130 15:38 16.01.2020
458 Clouds 13 1022 82 10000 1 130 15:19 16.01.2020
459 Clouds 13 1022 82 10000 3.1 160 14:42 16.01.2020
460 Clouds 13 1022 87 10000 3.1 150 14:23 16.01.2020
461 Clear 13 1023 82 10000 3.1 150 13:47 16.01.2020
462 Clear 13 1023 87 10000 4.1 140 13:29 16.01.2020
463 Clear 13 1023 82 10000 4.1 140 12:59 16.01.2020
464 Clear 13 1023 82 10000 4.1 140 12:40 16.01.2020
465 Clear 13 1023 87 10000 4.6 150 12:20 16.01.2020
466 Clear 13 1023 87 10000 4.6 170 11:42 16.01.2020
467 Clear 13 1023 87 10000 4.6 170 11:42 16.01.2020
468 Clear 13 1023 87 10000 4.6 160 11:24 16.01.2020
469 Clear 14 1023 87 10000 5.1 160 10:56 16.01.2020
470 Clear 13 1023 87 10000 5.1 150 10:37 16.01.2020
471 Clear 14 1023 87 10000 5.1 150 10:19 16.01.2020
472 Clear 14 1023 82 10000 5.7 150 09:43 16.01.2020
473 Clear 13 1023 87 10000 6.2 150 09:24 16.01.2020
474 Clear 14 1023 87 10000 5.7 150 08:58 16.01.2020
475 Clear 14 1023 82 10000 6.2 150 08:40 16.01.2020
476 Clouds 15 1023 82 10000 6.2 150 08:20 16.01.2020
477 Clouds 15 1023 82 10000 6.2 150 07:42 16.01.2020
478 Clouds 15 1023 77 10000 6.7 160 07:24 16.01.2020
479 Clouds 16 1023 77 10000 7.7 150 06:54 16.01.2020
480 Clouds 16 1023 77 10000 7.7 160 06:34 16.01.2020
481 Clouds 16 1023 72 10000 7.7 160 05:51 16.01.2020
482 Clouds 16 1023 72 10000 8.2 160 04:51 16.01.2020
483 Clouds 16 1023 72 10000 7.2 160 04:21 16.01.2020
484 Clouds 17 1024 77 10000 6.7 160 03:27 16.01.2020
485 Clouds 17 1024 77 10000 6.7 170 02:21 16.01.2020
486 Clouds 16 1024 72 10000 6.7 170 00:43 16.01.2020
487 Clouds 16 1024 72 10000 7.2 170 00:23 16.01.2020
488 Clouds 16 1024 77 10000 6.7 170 23:45 15.01.2020
489 Clouds 15 1024 72 10000 6.7 170 23:22 15.01.2020
490 Clouds 15 1024 72 10000 6.7 170 22:57 15.01.2020
491 Clouds 14 1024 76 10000 5.1 180 22:38 15.01.2020
492 Clouds 15 1024 76 10000 5.1 180 22:18 15.01.2020
493 Clouds 15 1024 76 10000 7.7 160 21:56 15.01.2020
494 Clouds 15 1024 76 10000 6.7 160 21:37 15.01.2020
495 Clouds 14 1024 76 10000 6.7 160 21:18 15.01.2020
496 Clouds 14 1024 76 10000 7.7 160 20:55 15.01.2020
497 Clouds 14 1024 71 10000 5.7 160 20:37 15.01.2020
498 Clouds 13 1024 71 10000 5.7 160 20:18 15.01.2020
499 Clouds 13 1024 76 10000 6.7 170 19:54 15.01.2020
500 Clouds 13 1024 67 10000 7.2 150 19:36 15.01.2020
501 Clouds 13 1024 67 10000 7.2 150 19:18 15.01.2020
502 Clouds 13 1024 67 10000 7.2 150 19:18 15.01.2020
503 Clouds 13 1023 67 10000 6.2 160 18:55 15.01.2020
504 Clouds 13 1023 71 10000 6.2 160 18:37 15.01.2020
505 Clouds 13 1023 71 10000 6.2 160 18:19 15.01.2020
506 Clouds 13 1023 76 10000 6.7 170 17:42 15.01.2020
507 Clouds 13 1023 58 10000 6.7 150 17:23 15.01.2020
508 Clouds 13 1023 62 10000 6.7 150 16:59 15.01.2020
509 Clouds 13 1023 62 10000 7.2 160 16:39 15.01.2020
510 Clouds 13 1023 62 10000 7.2 160 16:21 15.01.2020
511 Clouds 13 1024 71 10000 6.7 160 15:44 15.01.2020
512 Clouds 13 1024 71 10000 6.2 160 15:21 15.01.2020
513 Clouds 12 1024 71 10000 6.2 160 14:59 15.01.2020
514 Clouds 12 1024 71 10000 6.2 160 14:41 15.01.2020
515 Clouds 12 1024 76 10000 6.2 170 14:18 15.01.2020
516 Clouds 12 1024 76 10000 6.7 160 13:46 15.01.2020
517 Clouds 12 1024 71 10000 5.7 160 13:26 15.01.2020
518 Clouds 12 1024 71 10000 5.7 160 12:59 15.01.2020
519 Clouds 12 1024 66 10000 6.2 170 12:39 15.01.2020
520 Clouds 13 1024 66 10000 6.2 170 12:19 15.01.2020
521 Clouds 13 1024 58 10000 7.2 160 11:56 15.01.2020
522 Clouds 13 1024 62 10000 7.2 160 11:37 15.01.2020
523 Clouds 13 1024 62 10000 7.2 160 11:19 15.01.2020
524 Clouds 13 1024 62 10000 6.2 140 10:42 15.01.2020
525 Clouds 13 1024 67 10000 7.7 140 10:24 15.01.2020
526 Clouds 13 1024 67 10000 7.7 150 09:42 15.01.2020
527 Clouds 13 1023 67 10000 8.2 150 09:23 15.01.2020
528 Clouds 13 1023 71 10000 8.7 150 08:56 15.01.2020
529 Clouds 14 1023 71 10000 8.7 150 08:37 15.01.2020
530 Clouds 15 1023 71 10000 8.7 150 08:19 15.01.2020
531 Clouds 16 1023 67 10000 9.3 150 07:50 15.01.2020
532 Clouds 16 1023 63 10000 9.3 150 07:29 15.01.2020
533 Clouds 15 1023 67 10000 9.3 150 06:44 15.01.2020
534 Clouds 16 1023 67 10000 9.3 160 06:18 15.01.2020
535 Clouds 18 1023 59 10000 8.7 150 04:34 15.01.2020
536 Clouds 18 1023 63 10000 7.7 160 02:30 15.01.2020
537 Clouds 17 1024 55 10000 6.7 160 01:25 15.01.2020
538 Clouds 18 1024 59 10000 5.7 170 00:45 15.01.2020
539 Clouds 18 1024 63 10000 6.2 170 00:26 15.01.2020
540 Clouds 18 1024 63 10000 6.7 170 23:48 14.01.2020
541 Clouds 17 1024 67 10000 6.2 170 23:29 14.01.2020
542 Clouds 15 1024 67 10000 6.2 170 22:59 14.01.2020
543 Clouds 16 1024 62 10000 6.2 170 22:40 14.01.2020
544 Clouds 15 1024 62 10000 6.2 170 22:19 14.01.2020
545 Clouds 15 1024 62 10000 6.2 170 22:19 14.01.2020
546 Clouds 16 1024 67 10000 6.7 170 21:58 14.01.2020
547 Clouds 15 1024 67 10000 7.2 170 21:39 14.01.2020
548 Clouds 15 1024 67 10000 7.2 170 21:21 14.01.2020
549 Clouds 14 1024 71 10000 6.7 170 20:58 14.01.2020
550 Clouds 14 1024 66 10000 5.7 180 20:39 14.01.2020
551 Clouds 12 1024 66 10000 5.7 180 20:19 14.01.2020
552 Clouds 12 1024 66 10000 5.7 180 19:55 14.01.2020
553 Clouds 12 1024 66 10000 5.7 170 19:37 14.01.2020
554 Clouds 10 1024 66 10000 5.7 170 19:18 14.01.2020
555 Clouds 10 1024 66 10000 5.7 170 18:41 14.01.2020
556 Clouds 10 1023 71 10000 5.1 160 18:20 14.01.2020
557 Clouds 10 1023 71 10000 5.1 160 17:59 14.01.2020
558 Clouds 10 1023 71 10000 4.6 170 17:37 14.01.2020
559 Clouds 9 1023 71 10000 4.6 170 17:19 14.01.2020
560 Clouds 9 1023 76 10000 4.6 160 16:55 14.01.2020
561 Clouds 9 1023 76 10000 4.1 140 16:37 14.01.2020
562 Clouds 9 1023 76 10000 4.1 140 16:18 14.01.2020
563 Clouds 9 1023 76 10000 4.6 150 15:42 14.01.2020
564 Clouds 9 1023 81 10000 2.6 160 15:19 14.01.2020
565 Clouds 9 1024 81 10000 2.1 150 14:47 14.01.2020
566 Clouds 10 1024 76 10000 2.1 150 14:23 14.01.2020
567 Clear 10 1024 76 10000 2.6 160 13:59 14.01.2020
568 Clear 10 1024 76 10000 2.6 160 13:59 14.01.2020
569 Clear 10 1024 76 10000 2.6 160 13:40 14.01.2020
570 Clear 10 1024 71 10000 2.1 150 13:19 14.01.2020
571 Clear 10 1024 71 10000 3.1 140 12:42 14.01.2020
572 Clear 11 1024 71 10000 3.1 140 12:23 14.01.2020
573 Clear 11 1024 71 10000 4.1 140 11:57 14.01.2020
574 Clear 12 1024 71 10000 4.1 150 11:38 14.01.2020
575 Clear 12 1024 71 10000 4.1 150 11:20 14.01.2020
576 Clear 12 1025 71 10000 5.1 160 10:55 14.01.2020
577 Clear 13 1024 71 10000 5.1 160 10:36 14.01.2020
578 Clear 13 1024 71 10000 5.1 160 10:18 14.01.2020
579 Clear 13 1024 71 10000 5.1 160 10:18 14.01.2020
580 Clear 13 1024 71 10000 6.2 150 09:42 14.01.2020
581 Clear 13 1024 67 10000 6.2 160 09:22 14.01.2020
582 Clear 13 1024 67 10000 6.2 160 08:57 14.01.2020
583 Clear 14 1024 67 10000 6.2 160 08:39 14.01.2020
584 Clouds 14 1024 67 10000 6.2 160 08:20 14.01.2020
585 Clouds 16 1024 51 10000 5.7 160 07:40 14.01.2020
586 Clouds 16 1024 51 10000 6.2 160 06:59 14.01.2020
587 Clouds 16 1024 51 10000 6.2 160 06:59 14.01.2020
588 Clouds 16 1024 51 10000 6.2 160 06:40 14.01.2020
589 Clouds 17 1025 59 10000 7.7 160 05:35 14.01.2020
590 Clouds 17 1025 59 10000 7.7 170 04:24 14.01.2020
591 Clouds 18 1025 55 10000 8.2 160 03:45 14.01.2020
592 Clouds 19 1025 59 10000 7.7 160 02:30 14.01.2020
593 Clouds 17 1025 59 10000 7.7 160 01:18 14.01.2020
594 Clouds 17 1026 67 10000 7.7 160 00:42 14.01.2020
595 Clouds 17 1026 67 10000 8.2 150 00:21 14.01.2020
596 Clouds 17 1026 67 10000 7.7 160 23:42 13.01.2020
597 Clear 17 1026 67 10000 7.7 160 23:18 13.01.2020
598 Clear 16 1026 67 10000 8.2 160 22:55 13.01.2020
599 Clear 16 1026 67 10000 7.7 150 22:37 13.01.2020
600 Clear 16 1026 67 10000 7.7 150 22:19 13.01.2020
601 Clear 16 1026 67 10000 7.7 150 21:54 13.01.2020
602 Clear 16 1026 67 10000 6.7 150 21:36 13.01.2020
603 Clear 16 1026 67 10000 6.7 150 21:18 13.01.2020
604 Clear 15 1026 71 10000 7.7 150 20:42 13.01.2020
605 Clear 14 1026 71 10000 8.2 150 20:23 13.01.2020
606 Clouds 14 1025 71 10000 7.7 150 19:59 13.01.2020
607 Clouds 13 1025 71 10000 7.7 150 19:41 13.01.2020
608 Clouds 13 1025 76 10000 7.2 150 19:20 13.01.2020
609 Clouds 13 1025 76 10000 7.2 150 19:20 13.01.2020
610 Clouds 13 1025 76 10000 7.2 160 18:58 13.01.2020
611 Clouds 12 1025 76 10000 6.7 150 18:38 13.01.2020
612 Clouds 12 1025 76 10000 6.7 150 18:19 13.01.2020
613 Clouds 12 1025 76 10000 7.2 150 17:55 13.01.2020
614 Clouds 13 1024 76 10000 6.7 160 17:36 13.01.2020
615 Clouds 13 1024 76 10000 6.7 160 17:18 13.01.2020
616 Clouds 13 1019 86 0 7.48 147 16:40 13.01.2020
617 Clouds 13 1019 86 0 7.48 147 16:40 13.01.2020
618 Clouds 13 1019 87 0 0.45 150 16:22 13.01.2020
619 Clouds 13 1022 89 0 0.45 63 15:55 13.01.2020
620 Clouds 13 1019 90 0 0.89 7 15:36 13.01.2020
621 Clouds 13 1019 89 0 0.45 217 15:18 13.01.2020
622 Clouds 13 1019 88 0 0.45 193 14:42 13.01.2020
623 Clouds 13 1022 88 0 0.45 208 14:23 13.01.2020
624 Clouds 13 1019 88 0 0.45 186 13:57 13.01.2020
625 Clouds 13 1019 87 0 0.45 45 13:39 13.01.2020
626 Clouds 13 1019 87 0 0.45 232 13:21 13.01.2020
627 Clouds 13 1024 76 10000 7.7 170 12:54 13.01.2020
628 Clouds 13 1024 76 10000 7.7 170 12:36 13.01.2020
629 Clouds 13 1024 76 10000 7.7 170 12:18 13.01.2020
630 Clouds 13 1024 76 10000 8.2 160 11:39 13.01.2020
631 Clouds 13 1024 76 10000 8.2 160 11:19 13.01.2020
632 Clouds 13 1023 82 10000 6.7 150 10:57 13.01.2020
633 Clouds 13 1023 76 10000 6.7 150 10:38 13.01.2020
634 Clouds 13 1023 76 10000 6.7 150 10:20 13.01.2020
635 Clouds 13 1023 76 10000 6.7 160 09:55 13.01.2020
636 Clouds 14 1022 76 10000 8.2 160 09:37 13.01.2020
637 Clouds 14 1022 76 10000 8.2 160 09:19 13.01.2020
638 Clouds 14 1022 82 10000 7.7 170 08:39 13.01.2020
639 Clouds 14 1022 82 10000 7.7 170 08:20 13.01.2020
640 Clouds 14 1022 82 10000 7.7 170 08:20 13.01.2020
641 Clouds 15 1021 82 10000 8.7 170 07:46 13.01.2020
642 Clouds 15 1021 77 10000 7.7 160 07:27 13.01.2020
643 Clouds 15 1020 77 10000 8.2 170 06:40 13.01.2020
644 Clouds 15 1020 77 10000 8.2 170 06:18 13.01.2020
645 Clouds 16 1020 77 10000 7.2 180 05:20 13.01.2020
646 Clouds 16 1019 77 10000 5.7 190 03:47 13.01.2020
647 Clouds 16 1019 82 10000 6.2 190 02:51 13.01.2020
648 Clouds 16 1019 82 10000 6.7 190 02:31 13.01.2020
649 Rain 15 1018 82 10000 7.7 190 01:47 13.01.2020
650 Rain 15 1018 93 9000 6.7 200 00:59 13.01.2020
651 Rain 15 1018 87 9000 6.7 190 00:37 13.01.2020
652 Rain 15 1018 87 9000 6.7 190 00:19 13.01.2020
653 Rain 14 1017 87 9000 7.2 190 23:41 12.01.2020
654 Rain 14 1017 87 9000 7.2 190 23:22 12.01.2020
655 Rain 14 1017 87 9000 7.7 190 22:57 12.01.2020
656 Rain 14 1017 93 8000 7.2 190 22:39 12.01.2020
657 Rain 14 1017 93 8000 7.2 190 22:20 12.01.2020
658 Rain 14 1017 93 5000 6.2 190 21:55 12.01.2020
659 Rain 14 1017 93 7000 6.2 190 21:37 12.01.2020
660 Rain 14 1017 93 7000 6.2 190 21:19 12.01.2020
661 Rain 14 1016 93 9000 6.7 190 20:55 12.01.2020
662 Rain 14 1015 100 3600 5.1 190 20:37 12.01.2020
663 Rain 15 1015 100 3600 5.1 190 20:19 12.01.2020
664 Rain 15 1015 100 3400 5.1 190 19:55 12.01.2020
665 Rain 16 1014 100 2100 5.7 210 19:36 12.01.2020
666 Rain 16 1014 100 2100 5.7 210 19:18 12.01.2020
667 Rain 17 1013 93 8000 5.7 340 18:56 12.01.2020
668 Rain 17 1013 93 6000 8.2 340 18:38 12.01.2020
669 Rain 17 1013 93 6000 8.2 340 18:19 12.01.2020
670 Rain 17 1013 93 7000 6.7 350 17:42 12.01.2020
671 Drizzle 18 1013 93 4700 6.7 340 17:21 12.01.2020
672 Rain 18 1013 93 10000 6.7 340 16:58 12.01.2020
673 Rain 18 1013 93 10000 8.2 360 16:38 12.01.2020
674 Rain 18 1013 93 10000 8.2 360 16:20 12.01.2020
675 Rain 18 1013 93 7000 6.2 360 15:55 12.01.2020
676 Rain 18 1013 93 7000 6.2 360 15:55 12.01.2020
677 Clouds 18 1013 88 10000 11.3 360 15:36 12.01.2020
678 Clouds 18 1013 88 10000 11.3 360 15:18 12.01.2020
679 Clouds 18 1013 88 10000 8.2 340 14:42 12.01.2020
680 Clouds 18 1013 88 10000 10.3 340 14:22 12.01.2020
681 Clouds 18 1014 88 10000 9.3 330 13:56 12.01.2020
682 Clouds 18 1014 88 10000 9.8 330 13:38 12.01.2020
683 Clouds 18 1014 88 10000 9.8 330 13:20 12.01.2020
684 Clouds 18 1013 88 10000 11.8 330 12:44 12.01.2020
685 Clouds 18 1013 88 10000 12.3 340 12:21 12.01.2020
686 Clouds 18 1013 88 10000 10.3 340 11:59 12.01.2020
687 Clouds 18 1014 88 10000 9.8 330 11:40 12.01.2020
688 Clouds 18 1014 88 10000 9.8 330 11:22 12.01.2020
689 Clouds 18 1014 88 10000 10.3 330 10:56 12.01.2020
690 Clouds 18 1014 82 10000 10.3 340 10:37 12.01.2020
691 Clouds 18 1014 82 10000 10.3 340 10:18 12.01.2020
692 Clouds 18 1013 82 10000 10.3 330 09:41 12.01.2020
693 Clouds 18 1013 82 10000 9.8 330 09:21 12.01.2020
694 Clouds 18 1013 82 10000 11.8 330 08:47 12.01.2020
695 Clouds 18 1013 77 10000 9.3 330 08:22 12.01.2020
696 Clouds 18 1012 77 10000 9.3 340 07:46 12.01.2020
697 Clouds 18 1013 77 10000 10.3 330 07:25 12.01.2020
698 Clouds 18 1013 77 10000 8.7 330 06:54 12.01.2020
699 Clouds 18 1013 77 10000 9.8 330 06:35 12.01.2020
700 Clouds 19 1013 72 10000 8.7 330 05:50 12.01.2020
701 Clouds 19 1014 72 10000 11.3 340 04:54 12.01.2020
702 Clouds 19 1013 72 10000 12.3 340 03:35 12.01.2020
703 Clouds 19 1014 72 10000 10.3 350 02:43 12.01.2020
704 Clouds 19 1014 72 10000 11.8 350 02:24 12.01.2020
705 Clouds 18 1015 77 10000 10.3 360 01:31 12.01.2020
706 Clouds 18 1014 77 10000 10.8 350 00:46 12.01.2020
707 Clouds 18 1014 77 10000 10.8 340 00:22 12.01.2020
708 Clouds 17 1014 77 10000 10.8 340 23:56 11.01.2020
709 Clouds 17 1014 77 10000 11.8 350 23:38 11.01.2020
710 Clouds 17 1014 77 10000 11.8 350 23:18 11.01.2020
711 Clouds 17 1014 77 10000 12.3 350 22:56 11.01.2020
712 Clouds 17 1014 77 10000 11.8 350 22:37 11.01.2020
713 Clouds 17 1014 77 10000 11.8 350 22:18 11.01.2020
714 Clouds 17 1014 77 10000 11.8 340 21:44 11.01.2020
715 Clouds 17 1014 82 10000 12.9 340 21:19 11.01.2020
716 Clouds 17 1014 82 10000 11.8 350 20:56 11.01.2020
717 Clouds 17 1014 82 10000 10.8 350 20:37 11.01.2020
718 Clouds 16 1014 82 10000 10.8 350 20:19 11.01.2020
719 Clouds 16 1014 82 10000 9.8 350 19:55 11.01.2020
720 Clouds 16 1014 82 10000 9.3 360 19:37 11.01.2020
721 Clouds 16 1014 82 10000 9.3 360 19:19 11.01.2020
722 Clouds 16 1014 82 10000 9.3 360 19:19 11.01.2020
723 Clouds 16 1014 82 10000 8.7 360 18:55 11.01.2020
724 Clouds 17 1013 77 10000 11.8 360 18:36 11.01.2020
725 Clouds 17 1013 77 10000 11.8 360 18:18 11.01.2020
726 Clouds 17 1013 77 10000 11.8 360 18:18 11.01.2020
727 Clouds 17 1013 77 10000 12.3 350 17:55 11.01.2020
728 Clouds 17 1013 77 10000 10.8 350 17:36 11.01.2020
729 Clouds 17 1013 77 10000 10.8 350 17:18 11.01.2020
730 Clouds 17 1013 77 10000 10.8 350 17:18 11.01.2020
731 Clouds 17 1013 77 10000 9.8 350 16:43 11.01.2020
732 Clouds 16 1014 77 10000 11.8 360 16:22 11.01.2020
733 Clouds 16 1014 77 10000 10.3 350 15:42 11.01.2020
734 Clouds 16 1014 77 10000 10.3 350 15:24 11.01.2020
735 Clouds 16 1014 77 10000 11.3 340 14:58 11.01.2020
736 Clouds 16 1014 77 10000 11.8 350 14:40 11.01.2020
737 Clouds 16 1014 77 10000 11.8 350 14:22 11.01.2020
738 Clouds 16 1014 77 10000 11.3 350 13:55 11.01.2020
739 Clouds 16 1014 72 10000 13.4 350 13:37 11.01.2020
740 Clouds 16 1014 72 10000 13.4 350 13:18 11.01.2020
741 Clouds 16 1015 72 10000 11.8 340 12:44 11.01.2020
742 Clouds 16 1014 72 10000 11.8 340 12:26 11.01.2020
743 Clouds 16 1014 72 10000 11.8 340 11:55 11.01.2020
744 Clouds 16 1014 72 10000 14.4 350 11:37 11.01.2020
745 Clouds 16 1014 72 10000 14.4 350 11:18 11.01.2020
746 Clouds 16 1014 72 10000 14.4 350 11:18 11.01.2020
747 Clouds 16 1014 72 10000 12.3 340 10:43 11.01.2020
748 Clouds 16 1014 72 10000 11.3 340 10:24 11.01.2020
749 Clouds 16 1013 72 10000 10.3 340 09:40 11.01.2020
750 Clouds 16 1013 72 10000 10.3 340 09:21 11.01.2020
751 Clouds 16 1013 72 10000 8.7 350 08:43 11.01.2020
752 Clouds 17 1014 72 10000 11.8 350 08:23 11.01.2020
753 Clouds 17 1014 68 10000 11.3 340 07:45 11.01.2020
754 Clouds 17 1014 68 10000 10.8 350 07:26 11.01.2020
755 Clouds 17 1014 68 10000 10.8 350 07:26 11.01.2020
756 Clouds 17 1014 68 10000 12.3 350 06:56 11.01.2020
757 Clouds 18 1014 68 10000 11.3 330 06:28 11.01.2020
758 Clouds 18 1014 68 10000 13.9 360 04:49 11.01.2020
759 Clouds 18 1015 63 10000 13.9 360 04:30 11.01.2020
760 Clouds 18 1015 63 10000 13.9 350 03:58 11.01.2020
761 Clouds 18 1015 63 10000 15.9 360 02:43 11.01.2020
762 Clouds 19 1016 59 10000 13.9 350 01:44 11.01.2020
763 Clouds 19 1016 63 10000 13.9 360 01:21 11.01.2020
764 Clouds 19 1016 63 10000 13.9 360 01:21 11.01.2020
765 Clouds 19 1017 68 10000 11.8 350 00:47 11.01.2020
766 Clouds 18 1017 63 10000 13.4 10 00:20 11.01.2020
767 Clouds 19 1017 63 10000 13.4 10 23:41 10.01.2020
768 Clouds 18 1017 63 10000 13.9 360 23:23 10.01.2020
769 Clouds 18 1017 68 10000 12.9 360 22:59 10.01.2020
770 Clouds 18 1018 68 10000 14.4 360 22:41 10.01.2020
771 Clouds 17 1018 68 10000 14.4 360 22:21 10.01.2020
772 Clouds 17 1018 72 10000 11.8 360 21:58 10.01.2020
773 Clouds 17 1018 72 10000 11.3 10 21:39 10.01.2020
774 Clouds 16 1018 72 10000 11.3 10 21:20 10.01.2020
775 Clouds 16 1018 72 10000 11.3 360 20:55 10.01.2020
776 Clouds 16 1018 72 10000 8.7 10 20:37 10.01.2020
777 Clouds 15 1018 72 10000 8.7 10 20:19 10.01.2020
778 Clouds 15 1018 77 10000 7.2 10 19:39 10.01.2020
779 Clouds 15 1018 77 10000 7.2 10 19:20 10.01.2020
780 Clouds 14 1018 77 10000 7.7 10 18:54 10.01.2020
781 Clouds 14 1018 77 10000 7.2 10 18:36 10.01.2020
782 Clouds 14 1018 77 10000 7.2 10 18:18 10.01.2020
783 Clouds 14 1018 77 10000 7.7 30 17:55 10.01.2020
784 Clouds 14 1018 77 10000 6.7 20 17:37 10.01.2020
785 Clouds 14 1018 77 10000 6.7 20 17:18 10.01.2020
786 Clouds 14 1018 77 10000 7.7 10 16:41 10.01.2020
787 Clouds 14 1018 77 10000 7.7 10 16:21 10.01.2020
788 Clouds 14 1018 77 10000 7.7 10 16:21 10.01.2020
789 Clouds 14 1018 77 10000 7.2 20 15:56 10.01.2020
790 Clouds 14 1019 77 10000 6.7 10 15:37 10.01.2020
791 Clouds 14 1019 77 10000 6.7 10 15:19 10.01.2020
792 Clouds 14 1019 72 10000 7.2 20 14:57 10.01.2020
793 Clouds 14 1020 77 10000 7.7 10 14:38 10.01.2020
794 Clouds 14 1020 77 10000 7.7 10 14:19 10.01.2020
795 Clouds 14 1020 77 10000 7.2 10 13:45 10.01.2020
796 Clouds 14 1020 77 10000 7.7 360 13:27 10.01.2020
797 Clouds 14 1020 82 10000 6.7 360 12:59 10.01.2020
798 Clouds 14 1020 77 10000 6.2 360 12:40 10.01.2020
799 Clouds 14 1020 77 10000 6.2 360 12:21 10.01.2020
800 Clouds 15 1020 77 10000 5.7 360 11:57 10.01.2020
801 Clouds 15 1020 77 10000 5.7 360 11:39 10.01.2020
802 Clouds 15 1020 77 10000 5.7 360 11:19 10.01.2020
803 Clouds 15 1020 77 10000 5.1 350 10:58 10.01.2020
804 Clouds 15 1019 77 10000 4.1 350 10:38 10.01.2020
805 Clouds 15 1019 77 10000 4.1 350 10:18 10.01.2020
806 Clouds 16 1019 77 10000 4.1 350 09:45 10.01.2020
807 Clouds 16 1019 77 10000 4.6 360 09:26 10.01.2020
808 Clouds 16 1019 72 10000 3.6 350 08:56 10.01.2020
809 Clouds 17 1019 68 10000 3.1 330 08:37 10.01.2020
810 Clouds 17 1019 68 10000 3.1 330 08:37 10.01.2020
811 Clouds 17 1019 68 10000 3.1 330 08:18 10.01.2020
812 Clouds 17 1018 72 10000 4.1 360 07:41 10.01.2020
813 Clouds 18 1018 59 10000 4.1 330 07:19 10.01.2020
814 Clouds 18 1018 52 10000 4.6 340 06:37 10.01.2020
815 Clouds 19 1018 52 10000 4.6 340 06:19 10.01.2020
816 Clouds 19 1018 77 10000 3.1 200 05:19 10.01.2020
817 Clouds 20 1018 72 10000 3.6 210 03:32 10.01.2020
818 Clouds 19 1018 72 10000 4.1 200 02:52 10.01.2020
819 Clouds 19 1018 72 10000 4.1 180 02:20 10.01.2020
820 Clouds 19 1019 72 10000 2.6 200 01:32 10.01.2020
821 Clouds 20 1019 72 10000 3.6 200 00:51 10.01.2020
822 Clouds 20 1019 72 10000 3.6 200 00:33 10.01.2020
823 Clouds 19 1019 72 10000 2.6 200 23:57 09.01.2020
824 Clouds 19 1019 72 10000 2.6 200 23:57 09.01.2020
825 Clouds 19 1019 77 10000 4.6 220 23:36 09.01.2020
826 Clouds 18 1019 77 10000 4.6 220 23:18 09.01.2020
827 Clouds 18 1019 77 10000 4.6 220 22:56 09.01.2020
828 Clouds 18 1019 77 10000 3.6 200 22:37 09.01.2020
829 Clouds 18 1019 77 10000 3.6 200 22:18 09.01.2020
830 Clouds 18 1019 77 10000 3.6 200 21:54 09.01.2020
831 Clouds 18 1019 77 10000 2.6 200 21:36 09.01.2020
832 Clouds 17 1019 77 10000 2.6 200 21:18 09.01.2020
833 Clouds 17 1018 77 10000 2.6 190 20:54 09.01.2020
834 Clouds 16 1018 77 10000 1.5 200 20:36 09.01.2020
835 Clouds 15 1018 77 10000 1.5 200 20:18 09.01.2020
836 Clouds 14 1018 82 10000 2.6 220 19:39 09.01.2020
837 Clouds 13 1018 82 10000 3.1 190 19:20 09.01.2020
838 Clouds 13 1017 87 10000 5.1 200 18:57 09.01.2020
839 Clouds 13 1017 87 10000 5.1 200 18:39 09.01.2020
840 Clouds 13 1017 82 10000 2.6 360 18:20 09.01.2020
841 Clouds 12 1017 82 10000 1 320 17:41 09.01.2020
842 Clear 13 1016 87 10000 1.5 30 17:19 09.01.2020
843 Clear 13 1016 82 10000 2.1 350 16:59 09.01.2020
844 Clear 13 1016 82 10000 2.1 350 16:41 09.01.2020
845 Clear 13 1016 82 10000 3.6 10 16:21 09.01.2020
846 Clear 14 1016 82 10000 3.6 360 15:43 09.01.2020
847 Clear 14 1016 82 10000 3.6 20 15:23 09.01.2020
848 Clear 14 1016 77 10000 4.1 20 14:58 09.01.2020
849 Clear 14 1016 77 10000 4.1 20 14:40 09.01.2020
850 Clouds 15 1016 77 10000 4.6 20 14:19 09.01.2020
851 Clouds 15 1016 72 10000 4.1 20 13:55 09.01.2020
852 Clouds 15 1016 72 10000 4.1 20 13:37 09.01.2020
853 Clouds 15 1016 72 10000 5.1 10 13:18 09.01.2020
854 Clouds 14 1016 77 10000 5.7 10 12:55 09.01.2020
855 Clouds 14 1016 77 10000 5.7 10 12:37 09.01.2020
856 Clouds 14 1016 77 10000 6.2 10 12:18 09.01.2020
857 Clouds 15 1016 72 10000 6.7 10 11:42 09.01.2020
858 Clouds 15 1016 77 10000 8.7 360 11:24 09.01.2020
859 Clouds 15 1016 77 10000 8.2 360 10:57 09.01.2020
860 Clouds 15 1016 77 10000 8.2 360 10:57 09.01.2020
861 Clouds 15 1016 77 10000 8.2 360 10:39 09.01.2020
862 Clouds 15 1016 77 10000 7.7 10 10:20 09.01.2020
863 Clouds 16 1015 72 10000 8.7 10 09:41 09.01.2020
864 Clouds 16 1015 59 10000 7.2 10 09:23 09.01.2020
865 Clouds 16 1015 59 10000 7.2 10 08:57 09.01.2020
866 Clouds 17 1015 59 10000 7.2 10 08:38 09.01.2020
867 Clouds 17 1015 52 10000 7.7 10 08:20 09.01.2020
868 Clouds 18 1015 48 10000 8.2 10 07:46 09.01.2020
869 Clouds 18 1015 48 10000 8.2 360 07:28 09.01.2020
870 Clouds 19 1015 42 10000 7.7 360 06:40 09.01.2020
871 Clouds 19 1015 42 10000 8.2 360 06:21 09.01.2020
872 Clouds 19 1015 45 10000 8.2 350 05:51 09.01.2020
873 Clouds 20 1015 52 10000 7.7 360 04:54 09.01.2020
874 Clouds 20 1015 52 10000 7.7 360 04:36 09.01.2020
875 Clouds 20 1015 49 10000 7.2 340 03:26 09.01.2020
876 Clouds 19 1015 49 10000 6.7 340 02:46 09.01.2020
877 Clear 19 1016 45 10000 7.2 340 01:41 09.01.2020
878 Clear 19 1016 59 10000 7.2 330 00:57 09.01.2020
879 Clear 19 1016 59 10000 7.2 330 00:37 09.01.2020
880 Clear 19 1016 55 10000 6.2 340 00:19 09.01.2020
881 Clear 19 1016 59 10000 6.7 340 23:39 08.01.2020
882 Clear 19 1015 55 10000 6.7 360 23:20 08.01.2020
883 Clear 18 1015 59 10000 7.2 10 22:40 08.01.2020
884 Clear 18 1015 59 10000 7.2 10 22:22 08.01.2020
885 Clear 17 1015 63 10000 7.2 20 21:58 08.01.2020
886 Clear 17 1015 63 10000 7.2 20 21:40 08.01.2020
887 Clear 16 1015 63 10000 7.2 10 21:21 08.01.2020
888 Clear 16 1015 67 10000 5.7 30 20:59 08.01.2020
889 Clear 16 1015 67 10000 5.7 30 20:41 08.01.2020
890 Clouds 15 1015 67 10000 5.7 40 20:21 08.01.2020
891 Clouds 14 1015 82 10000 5.1 30 19:58 08.01.2020
892 Clouds 14 1015 82 10000 5.1 30 19:38 08.01.2020
893 Clouds 13 1014 76 10000 4.6 30 19:19 08.01.2020
894 Clouds 13 1014 82 10000 5.1 20 18:58 08.01.2020
895 Clouds 13 1014 82 10000 5.1 20 18:39 08.01.2020
896 Clouds 13 1014 82 10000 5.1 20 18:39 08.01.2020
897 Clouds 13 1014 82 10000 5.7 10 18:19 08.01.2020
898 Clouds 13 1014 82 10000 5.7 20 17:56 08.01.2020
899 Clouds 13 1014 82 10000 5.7 20 17:38 08.01.2020
900 Clouds 13 1014 82 10000 5.7 20 17:19 08.01.2020
901 Clouds 13 1014 82 10000 5.7 30 16:55 08.01.2020
902 Clouds 13 1014 82 10000 5.7 30 16:37 08.01.2020
903 Clouds 13 1015 82 10000 4.6 20 16:18 08.01.2020
904 Clouds 12 1015 82 10000 4.1 10 15:44 08.01.2020
905 Clouds 12 1015 82 10000 4.6 10 15:21 08.01.2020
906 Clouds 12 1015 82 10000 3.6 20 14:58 08.01.2020
907 Clouds 12 1015 82 10000 3.6 20 14:58 08.01.2020
908 Clouds 12 1015 82 10000 3.6 20 14:40 08.01.2020
909 Clouds 12 1015 82 10000 4.1 360 14:20 08.01.2020
910 Clouds 12 1016 71 10000 3.1 30 13:41 08.01.2020
911 Clouds 12 1016 71 10000 3.1 20 13:21 08.01.2020
912 Clouds 12 1016 71 10000 3.1 20 13:21 08.01.2020
913 Clouds 12 1016 71 10000 2.6 20 12:54 08.01.2020
914 Clouds 13 1016 71 10000 2.6 20 12:36 08.01.2020
915 Clouds 12 1016 67 10000 3.1 360 12:18 08.01.2020
916 Clouds 13 1016 71 10000 2.1 20 11:47 08.01.2020
917 Clouds 13 1016 67 10000 2.1 360 11:19 08.01.2020
918 Clouds 13 1016 67 10000 1 350 10:58 08.01.2020
919 Clouds 13 1016 67 10000 1 350 10:40 08.01.2020
920 Clouds 14 1016 67 10000 1.5 300 10:19 08.01.2020
921 Clouds 14 1016 62 10000 1.5 290 09:42 08.01.2020
922 Clouds 15 1015 67 10000 1.5 210 09:20 08.01.2020
923 Clouds 15 1015 62 10000 2.1 200 08:58 08.01.2020
924 Clouds 15 1015 62 10000 2.1 200 08:39 08.01.2020
925 Clouds 15 1015 62 10000 2.1 190 08:20 08.01.2020
926 Clouds 15 1015 58 10000 2.6 190 07:51 08.01.2020
927 Clouds 16 1015 58 10000 2.6 190 07:33 08.01.2020
928 Clouds 16 1015 62 10000 4.1 170 06:58 08.01.2020
929 Clouds 16 1015 62 10000 4.1 170 06:40 08.01.2020
930 Clouds 17 1015 62 10000 4.6 170 05:54 08.01.2020
931 Clouds 17 1016 59 10000 5.1 180 05:25 08.01.2020
932 Clouds 17 1016 59 10000 4.6 170 04:35 08.01.2020
933 Clouds 17 1017 55 10000 5.1 190 02:45 08.01.2020
934 Clouds 17 1017 55 10000 5.1 190 02:27 08.01.2020
935 Clouds 16 1017 51 10000 4.6 180 01:52 08.01.2020
936 Clouds 16 1017 51 10000 4.6 170 01:26 08.01.2020
937 Clouds 16 1017 51 10000 5.1 160 00:42 08.01.2020
938 Clouds 16 1017 54 10000 4.6 160 00:21 08.01.2020
939 Clouds 16 1017 54 10000 5.1 150 23:44 07.01.2020
940 Clouds 16 1017 59 10000 5.1 150 23:20 07.01.2020
941 Clouds 15 1017 62 10000 5.1 160 22:41 07.01.2020
942 Clouds 15 1017 58 10000 5.7 160 22:21 07.01.2020
943 Clouds 15 1017 62 10000 4.6 170 21:57 07.01.2020
944 Clouds 14 1017 62 10000 4.6 170 21:39 07.01.2020
945 Clouds 14 1017 62 10000 4.6 160 21:21 07.01.2020
946 Clouds 14 1017 62 10000 4.6 160 21:21 07.01.2020
947 Clouds 14 1017 62 10000 4.6 160 20:57 07.01.2020
948 Clouds 14 1017 62 10000 4.6 160 20:38 07.01.2020
949 Clouds 13 1016 58 10000 5.1 160 20:20 07.01.2020
950 Clouds 13 1016 62 10000 5.1 150 19:55 07.01.2020
951 Clouds 13 1016 62 10000 5.1 150 19:36 07.01.2020
952 Clouds 13 1016 62 10000 5.7 150 19:18 07.01.2020
953 Clouds 13 1016 62 10000 5.7 150 19:18 07.01.2020
954 Clouds 12 1016 66 10000 5.7 150 18:55 07.01.2020
955 Clouds 13 1016 66 10000 5.7 150 18:36 07.01.2020
956 Clouds 12 1015 66 10000 5.7 160 18:18 07.01.2020
957 Clouds 12 1015 66 10000 6.2 170 17:40 07.01.2020
958 Clouds 13 1015 67 10000 5.7 180 17:22 07.01.2020
959 Clouds 12 1015 71 10000 6.2 170 16:57 07.01.2020
960 Clouds 13 1015 71 10000 6.2 170 16:38 07.01.2020
961 Clouds 13 1015 71 10000 6.2 170 16:38 07.01.2020
962 Clouds 13 1015 71 10000 6.2 170 16:38 07.01.2020
963 Clouds 12 1014 66 10000 6.7 170 16:19 07.01.2020
964 Clouds 12 1014 66 10000 6.7 170 15:59 07.01.2020
965 Clouds 13 1014 66 10000 6.7 170 15:40 07.01.2020
966 Clouds 12 1014 66 10000 6.2 160 15:22 07.01.2020
967 Clouds 13 1015 66 10000 6.2 160 14:55 07.01.2020
968 Clouds 13 1015 66 10000 6.2 160 14:37 07.01.2020
969 Clouds 13 1015 66 10000 6.7 170 14:18 07.01.2020
970 Clouds 12 1014 62 10000 7.2 170 13:40 07.01.2020
971 Clouds 12 1014 58 10000 7.2 170 13:19 07.01.2020
972 Clouds 12 1014 62 10000 6.7 170 12:42 07.01.2020
973 Clouds 12 1014 62 10000 6.7 170 12:42 07.01.2020
974 Clouds 12 1014 58 10000 5.7 180 12:21 07.01.2020
975 Clouds 12 1014 62 10000 5.1 170 11:58 07.01.2020
976 Clouds 13 1014 62 10000 5.1 170 11:38 07.01.2020
977 Clouds 13 1014 62 10000 5.7 170 11:20 07.01.2020
978 Rain 13 1014 67 10000 5.1 190 10:42 07.01.2020
979 Rain 13 1014 62 10000 5.7 180 10:24 07.01.2020
980 Clouds 13 1013 54 10000 6.7 180 09:59 07.01.2020
981 Clouds 13 1013 54 10000 6.7 180 09:38 07.01.2020
982 Clouds 13 1012 62 10000 6.2 170 09:20 07.01.2020
983 Clouds 13 1012 62 10000 7.7 170 08:46 07.01.2020
984 Clouds 14 1012 62 10000 8.2 170 08:26 07.01.2020
985 Clouds 14 1011 62 10000 7.7 180 07:54 07.01.2020
986 Clouds 14 1011 67 10000 6.7 170 07:28 07.01.2020
987 Clouds 14 1011 62 10000 6.7 170 06:54 07.01.2020
988 Clouds 15 1011 62 10000 6.7 170 06:34 07.01.2020
989 Clouds 16 1011 59 10000 7.7 170 05:55 07.01.2020
990 Clouds 17 1011 59 10000 7.7 170 04:41 07.01.2020
991 Clouds 17 1011 59 10000 7.7 170 04:41 07.01.2020
992 Clouds 17 1010 63 10000 8.2 170 03:29 07.01.2020
993 Clouds 17 1010 67 10000 8.7 180 02:22 07.01.2020
994 Clouds 17 1010 63 10000 8.2 180 01:54 07.01.2020
995 Clouds 18 1009 59 10000 9.8 180 01:30 07.01.2020
996 Clouds 18 1009 67 10000 8.7 170 00:37 07.01.2020
997 Clouds 18 1009 63 10000 8.7 180 00:18 07.01.2020
998 Clouds 18 1009 63 10000 9.8 170 23:55 06.01.2020
999 Clouds 18 1009 63 10000 9.8 170 23:36 06.01.2020
1000 Clouds 18 1008 59 10000 8.7 190 23:18 06.01.2020
1001 Rain 17 1008 63 10000 10.8 200 22:42 06.01.2020
1002 Rain 17 1008 63 10000 8.7 200 22:22 06.01.2020
1003 Rain 17 1007 63 10000 8.2 190 21:56 06.01.2020
1004 Clouds 17 1007 63 10000 8.2 190 21:38 06.01.2020
1005 Clouds 16 1007 63 10000 6.7 200 21:20 06.01.2020
1006 Clouds 15 1007 62 10000 7.2 200 20:56 06.01.2020
1007 Clouds 16 1007 62 10000 7.2 200 20:37 06.01.2020
1008 Clouds 13 1006 67 10000 5.7 200 20:19 06.01.2020
1009 Clouds 13 1006 67 10000 2.1 40 19:55 06.01.2020
1010 Clouds 12 1006 67 10000 2.1 40 19:37 06.01.2020
1011 Clouds 10 1005 66 10000 1.5 340 19:19 06.01.2020
1012 Clouds 9 1005 71 10000 2.1 70 18:45 06.01.2020
1013 Clouds 9 1004 76 10000 2.1 20 18:21 06.01.2020
1014 Clouds 8 1004 76 10000 3.1 10 17:56 06.01.2020
1015 Clouds 9 1004 76 10000 3.1 10 17:37 06.01.2020
1016 Clouds 9 1003 71 10000 1 70 17:18 06.01.2020
1017 Clouds 10 1003 81 10000 2.1 80 16:42 06.01.2020
1018 Clouds 10 1003 81 10000 2.1 80 16:42 06.01.2020
1019 Clouds 10 1002 76 10000 1 340 16:23 06.01.2020
1020 Clouds 10 1002 76 10000 2.1 360 15:59 06.01.2020
1021 Clouds 10 1002 76 10000 2.1 360 15:38 06.01.2020
1022 Clouds 10 1002 76 10000 2.1 20 15:18 06.01.2020
1023 Clouds 10 1001 76 10000 1 340 14:42 06.01.2020
1024 Rain 11 1001 76 10000 2.1 60 14:23 06.01.2020
1025 Rain 11 1001 76 10000 3.6 130 13:59 06.01.2020
1026 Rain 11 1001 76 10000 3.6 130 13:40 06.01.2020
1027 Rain 11 1001 76 10000 6.2 140 13:22 06.01.2020
1028 Rain 13 1001 58 10000 6.2 230 12:59 06.01.2020
1029 Rain 12 1001 58 10000 6.2 230 12:40 06.01.2020
1030 Rain 12 1000 54 10000 6.7 250 12:20 06.01.2020
1031 Rain 13 1000 48 10000 7.7 250 11:55 06.01.2020
1032 Rain 13 1000 48 10000 7.7 250 11:37 06.01.2020
1033 Rain 13 1000 44 10000 7.7 250 11:18 06.01.2020
1034 Rain 14 999 44 10000 7.7 260 10:41 06.01.2020
1035 Rain 15 999 41 10000 8.2 250 10:21 06.01.2020
1036 Rain 15 999 41 10000 8.2 250 10:21 06.01.2020
1037 Rain 16 998 48 10000 5.7 250 09:42 06.01.2020
1038 Rain 16 997 45 10000 6.7 250 09:24 06.01.2020
1039 Rain 16 997 42 10000 9.3 260 08:57 06.01.2020
1040 Rain 17 997 42 10000 9.3 260 08:38 06.01.2020
1041 Rain 17 997 42 10000 9.3 260 08:38 06.01.2020
1042 Clouds 17 997 36 10000 9.8 260 08:19 06.01.2020
1043 Clouds 18 996 37 10000 6.2 260 07:44 06.01.2020
1044 Clouds 18 995 50 0 0.89 312 06:55 06.01.2020
1045 Clouds 19 996 30 10000 6.2 280 06:35 06.01.2020
1046 Clouds 19 996 40 10000 8.2 330 05:48 06.01.2020
1047 Clouds 20 996 35 10000 5.7 330 05:24 06.01.2020
1048 Clear 20 997 37 10000 8.7 320 04:24 06.01.2020
1049 Clear 20 997 40 10000 8.7 310 03:51 06.01.2020
1050 Clear 19 998 40 10000 8.7 330 02:28 06.01.2020
1051 Clouds 19 998 37 10000 9.8 320 01:53 06.01.2020
1052 Clouds 19 998 34 10000 10.3 320 01:30 06.01.2020
1053 Clouds 20 998 34 10000 7.7 320 00:46 06.01.2020
1054 Clouds 19 998 34 10000 8.7 310 00:27 06.01.2020
1055 Clouds 20 998 40 10000 7.7 360 23:57 05.01.2020
1056 Clouds 20 998 40 10000 7.7 360 23:57 05.01.2020
1057 Clouds 19 998 40 10000 7.7 360 23:38 05.01.2020
1058 Rain 18 999 34 10000 5.7 320 23:20 05.01.2020
1059 Rain 18 999 34 10000 4.6 320 22:40 05.01.2020
1060 Rain 18 999 36 10000 2.1 310 22:21 05.01.2020
1061 Rain 18 999 39 10000 5.1 300 21:58 05.01.2020
1062 Rain 18 999 39 10000 5.1 300 21:40 05.01.2020
1063 Rain 18 999 42 10000 2.6 260 21:20 05.01.2020
1064 Rain 17 999 48 10000 3.1 290 20:58 05.01.2020
1065 Rain 17 999 48 10000 3.1 290 20:39 05.01.2020
1066 Clouds 15 999 72 10000 3.1 10 20:19 05.01.2020
1067 Clouds 15 999 82 10000 3.6 10 19:58 05.01.2020
1068 Clouds 15 999 82 10000 3.6 10 19:39 05.01.2020
1069 Clouds 14 998 82 10000 3.1 20 19:20 05.01.2020
1070 Clouds 13 998 87 10000 3.6 350 18:55 05.01.2020
1071 Clouds 13 998 87 10000 3.6 350 18:37 05.01.2020
1072 Clouds 12 998 82 10000 2.1 320 18:19 05.01.2020
1073 Clouds 12 999 82 10000 1.5 270 17:58 05.01.2020
1074 Clouds 12 999 82 10000 1.5 270 17:39 05.01.2020
1075 Clouds 12 998 82 10000 2.6 190 17:20 05.01.2020
1076 Clouds 12 998 82 10000 2.6 190 17:19 05.01.2020
1077 Clouds 12 998 82 10000 4.1 180 16:56 05.01.2020
1078 Clouds 13 998 82 10000 4.1 180 16:38 05.01.2020
1079 Clouds 13 999 87 10000 4.1 170 16:19 05.01.2020
1080 Clouds 14 998 82 10000 5.1 180 15:39 05.01.2020
1081 Clouds 14 998 82 10000 5.1 180 15:39 05.01.2020
1082 Clouds 14 999 87 8000 4.1 190 15:20 05.01.2020
1083 Clouds 14 998 87 9000 1.5 230 14:56 05.01.2020
1084 Clouds 14 998 87 9000 1.5 230 14:38 05.01.2020
1085 Clouds 15 999 87 9000 3.1 220 14:19 05.01.2020
1086 Clouds 15 999 82 9000 5.7 230 13:56 05.01.2020
1087 Clouds 15 999 82 9000 5.7 230 13:56 05.01.2020
1088 Clouds 15 999 82 9000 5.7 230 13:37 05.01.2020
1089 Clouds 16 998 77 10000 2.6 270 13:18 05.01.2020
1090 Clouds 16 998 82 10000 6.7 360 12:55 05.01.2020
1091 Clouds 16 998 82 10000 6.7 360 12:37 05.01.2020
1092 Clouds 16 997 82 10000 7.2 360 12:18 05.01.2020
1093 Clouds 16 997 82 10000 7.2 360 12:18 05.01.2020
1094 Clouds 16 997 88 10000 6.2 10 11:43 05.01.2020
1095 Clouds 17 998 82 10000 6.2 10 11:20 05.01.2020
1096 Clouds 17 998 88 10000 6.7 10 10:58 05.01.2020
1097 Clouds 17 998 88 10000 6.7 10 10:39 05.01.2020
1098 Clouds 17 998 88 10000 6.7 10 10:39 05.01.2020
1099 Clouds 17 998 88 10000 6.2 30 10:19 05.01.2020
1100 Clouds 17 998 82 10000 6.7 10 09:42 05.01.2020
1101 Clouds 16 993 94 0 1.34 1 09:22 05.01.2020
1102 Clouds 16 998 88 10000 11.8 340 08:50 05.01.2020
1103 Clouds 16 999 88 10000 10.8 340 08:31 05.01.2020
1104 Clouds 16 999 88 10000 9.3 340 07:57 05.01.2020
1105 Clouds 16 999 88 10000 9.3 340 07:38 05.01.2020
1106 Clouds 15 995 93 0 1.34 352 07:20 05.01.2020
1107 Clouds 16 1001 77 10000 11.3 330 06:20 05.01.2020
1108 Clouds 16 1001 82 10000 13.4 320 05:33 05.01.2020
1109 Clouds 16 1001 82 10000 13.4 320 05:33 05.01.2020
1110 Clouds 16 1002 67 10000 9.3 340 04:44 05.01.2020
1111 Clouds 16 1002 67 10000 10.8 340 04:18 05.01.2020
1112 Clouds 15 1001 67 10000 10.8 350 02:46 05.01.2020
1113 Rain 15 1002 67 10000 12.9 360 02:24 05.01.2020
1114 Clouds 15 1002 67 10000 12.9 10 01:48 05.01.2020
1115 Clouds 16 1003 67 10000 12.3 360 01:19 05.01.2020
1116 Clouds 16 1004 67 10000 12.3 360 00:54 05.01.2020
1117 Clouds 16 1004 67 10000 12.3 360 00:36 05.01.2020
1118 Clouds 16 1004 72 10000 11.8 360 00:18 05.01.2020
1119 Clouds 16 1004 72 10000 11.3 360 23:40 04.01.2020
1120 Clouds 15 1005 72 10000 9.3 360 23:19 04.01.2020
1121 Clouds 15 1005 72 10000 8.7 360 22:40 04.01.2020
1122 Clouds 15 1006 67 10000 7.7 350 22:22 04.01.2020
1123 Clouds 15 1007 67 10000 7.2 350 21:58 04.01.2020
1124 Clouds 15 1007 67 10000 7.2 350 21:40 04.01.2020
1125 Clouds 15 1006 77 10000 6.7 20 21:20 04.01.2020
1126 Clouds 14 1007 82 10000 5.7 30 20:59 04.01.2020
1127 Clouds 14 1007 82 10000 5.7 30 20:40 04.01.2020
1128 Clouds 14 1007 76 10000 5.1 30 20:21 04.01.2020
1129 Clouds 13 1007 71 10000 5.1 20 19:57 04.01.2020
1130 Clouds 13 1007 71 10000 5.1 20 19:57 04.01.2020
1131 Clouds 13 1007 71 10000 5.1 20 19:38 04.01.2020
1132 Clouds 12 1007 81 10000 4.6 30 19:20 04.01.2020
1133 Clouds 12 1007 81 10000 3.6 20 18:55 04.01.2020
1134 Clouds 11 1007 81 10000 3.6 20 18:36 04.01.2020
1135 Clouds 11 1007 81 10000 4.6 20 18:18 04.01.2020
1136 Clouds 11 1007 81 10000 3.6 30 17:41 04.01.2020
1137 Clouds 11 1007 81 10000 3.1 30 17:23 04.01.2020
1138 Clouds 10 1008 76 10000 1.5 40 16:58 04.01.2020
1139 Clouds 10 1008 76 10000 1.5 40 16:39 04.01.2020
1140 Clouds 11 1008 71 10000 1.5 30 16:21 04.01.2020
1141 Clouds 11 1008 71 10000 1.5 150 15:55 04.01.2020
1142 Clouds 11 1008 71 10000 1.5 150 15:37 04.01.2020
1143 Clouds 11 1008 71 10000 1.5 100 15:18 04.01.2020
1144 Clouds 12 1009 71 10000 2.6 140 14:42 04.01.2020
1145 Clouds 12 1009 71 10000 2.6 140 14:42 04.01.2020
1146 Clouds 12 1008 71 10000 2.6 150 14:20 04.01.2020
1147 Clouds 12 1009 67 10000 4.6 160 13:59 04.01.2020
1148 Clouds 12 1009 67 10000 4.6 160 13:38 04.01.2020
1149 Clouds 13 1009 67 10000 5.1 170 13:19 04.01.2020
1150 Clouds 12 1010 71 10000 5.1 170 12:57 04.01.2020
1151 Clouds 13 1010 71 10000 5.1 170 12:39 04.01.2020
1152 Clouds 13 1010 67 10000 5.7 160 12:18 04.01.2020
1153 Clouds 13 1010 67 10000 5.7 170 11:57 04.01.2020
1154 Clouds 13 1010 67 10000 5.7 170 11:38 04.01.2020
1155 Clouds 13 1010 67 10000 5.7 170 11:37 04.01.2020
1156 Clouds 13 1009 67 10000 5.7 160 11:18 04.01.2020
1157 Clouds 13 1009 67 10000 6.2 170 10:41 04.01.2020
1158 Clouds 13 1009 67 10000 5.7 160 10:22 04.01.2020
1159 Clouds 13 1008 67 10000 5.7 160 09:48 04.01.2020
1160 Clouds 13 1008 62 10000 6.2 170 09:26 04.01.2020
1161 Clouds 14 1008 62 10000 6.7 160 08:57 04.01.2020
1162 Clouds 14 1008 62 10000 6.7 160 08:37 04.01.2020
1163 Clouds 14 1008 62 10000 7.2 170 08:19 04.01.2020
1164 Clouds 15 1007 62 10000 7.2 170 07:42 04.01.2020
1165 Clouds 16 1006 62 10000 7.2 170 06:49 04.01.2020
1166 Clouds 16 1006 63 10000 7.2 170 05:59 04.01.2020
1167 Clouds 17 1006 59 10000 8.2 170 05:18 04.01.2020
1168 Clouds 17 1006 63 10000 8.2 170 04:33 04.01.2020
1169 Clouds 18 1006 63 10000 8.7 150 03:39 04.01.2020
1170 Clouds 18 1006 63 10000 7.7 160 03:18 04.01.2020
1171 Clouds 18 1006 63 10000 6.7 160 02:21 04.01.2020
1172 Clouds 18 1006 63 10000 5.7 170 01:53 04.01.2020
1173 Clouds 18 1006 67 10000 5.1 170 01:30 04.01.2020
1174 Clouds 18 1006 59 10000 4.6 170 00:41 04.01.2020
1175 Clouds 17 1006 67 10000 4.6 170 00:22 04.01.2020
1176 Clouds 18 1006 67 10000 3.6 180 23:41 03.01.2020
1177 Rain 16 1006 67 10000 3.1 190 23:23 03.01.2020
1178 Rain 16 1006 67 10000 3.1 200 22:41 03.01.2020
1179 Rain 17 1006 67 10000 2.6 170 22:20 03.01.2020
1180 Rain 17 1005 67 10000 4.1 150 21:58 03.01.2020
1181 Rain 16 1005 67 10000 4.1 150 21:38 03.01.2020
1182 Rain 16 1005 76 10000 4.1 160 21:19 03.01.2020
1183 Rain 14 1005 76 10000 3.6 150 20:57 03.01.2020
1184 Rain 14 1005 76 10000 3.6 150 20:39 03.01.2020
1185 Rain 14 1005 71 10000 4.1 140 20:18 03.01.2020
1186 Rain 13 1004 76 10000 3.6 140 19:55 03.01.2020
1187 Rain 13 1004 76 10000 3.6 140 19:55 03.01.2020
1188 Rain 12 1004 76 10000 3.6 140 19:37 03.01.2020
1189 Rain 12 1004 76 10000 2.1 140 19:18 03.01.2020
1190 Rain 12 1004 76 10000 2.1 140 18:43 03.01.2020
1191 Rain 12 1004 81 10000 6.7 140 18:24 03.01.2020
1192 Rain 12 1003 82 10000 6.7 150 17:55 03.01.2020
1193 Rain 12 1003 82 10000 6.7 150 17:36 03.01.2020
1194 Rain 12 1003 82 10000 5.1 150 17:18 03.01.2020
1195 Rain 12 1002 82 10000 6.2 150 16:42 03.01.2020
1196 Rain 12 1002 87 10000 7.2 150 16:22 03.01.2020
1197 Rain 12 1001 87 10000 8.2 150 15:44 03.01.2020
1198 Rain 12 1001 87 10000 7.7 150 15:19 03.01.2020
1199 Rain 12 1001 87 10000 7.7 150 15:19 03.01.2020
1200 Rain 12 1001 87 10000 5.1 150 14:59 03.01.2020
1201 Rain 13 1001 87 10000 5.1 150 14:38 03.01.2020
1202 Rain 13 1001 93 10000 8.2 160 14:19 03.01.2020
1203 Rain 14 1001 87 10000 7.7 150 13:43 03.01.2020
1204 Rain 14 1001 87 10000 6.2 150 13:24 03.01.2020
1205 Rain 14 1001 93 10000 7.2 160 12:58 03.01.2020
1206 Rain 14 1001 93 10000 7.2 160 12:38 03.01.2020
1207 Rain 14 1001 87 10000 3.6 180 12:20 03.01.2020
1208 Rain 15 1001 82 10000 2.6 230 11:44 03.01.2020
1209 Rain 15 1001 87 6000 2.1 170 11:21 03.01.2020
1210 Rain 15 1001 87 10000 5.1 150 10:44 03.01.2020
1211 Drizzle 16 1001 82 10000 3.6 180 10:25 03.01.2020
1212 Rain 16 1001 82 10000 4.6 180 09:58 03.01.2020
1213 Rain 16 1001 82 10000 4.6 180 09:39 03.01.2020
1214 Rain 16 1001 82 10000 3.1 210 09:21 03.01.2020
1215 Rain 16 1001 82 10000 6.2 160 08:56 03.01.2020
1216 Rain 16 1001 82 10000 6.2 160 08:38 03.01.2020
1217 Rain 17 1001 82 10000 5.7 160 08:19 03.01.2020
1218 Rain 17 1001 82 10000 6.7 160 07:40 03.01.2020
1219 Rain 17 1001 87 10000 6.7 160 07:18 03.01.2020
1220 Rain 17 1001 87 10000 6.7 160 07:18 03.01.2020
1221 Rain 18 1001 82 10000 8.2 150 06:47 03.01.2020
1222 Rain 18 1001 82 10000 8.2 150 06:47 03.01.2020
1223 Rain 18 1001 82 10000 8.2 150 06:29 03.01.2020
1224 Rain 19 1002 77 10000 6.7 170 05:39 03.01.2020
1225 Rain 19 1003 72 10000 5.1 200 04:21 03.01.2020
1226 Rain 19 1003 82 10000 5.1 190 02:56 03.01.2020
1227 Rain 19 1003 82 10000 5.1 190 02:56 03.01.2020
1228 Rain 19 1003 77 10000 5.1 190 02:28 03.01.2020
1229 Rain 20 1003 82 10000 5.1 180 01:42 03.01.2020
1230 Rain 21 1003 82 10000 4.6 180 00:49 03.01.2020
1231 Rain 22 1000 61 0 0.45 185 00:29 03.01.2020
1232 Rain 21 1003 82 10000 3.6 180 23:55 02.01.2020
1233 Rain 20 1000 73 0 0.45 3 23:37 02.01.2020
1234 Rain 18 1003 82 10000 3.6 180 23:18 02.01.2020
1235 Rain 18 1003 87 10000 3.1 200 22:45 02.01.2020
1236 Rain 18 1003 87 10000 3.1 190 22:21 02.01.2020
1237 Rain 18 1003 87 10000 3.1 190 22:21 02.01.2020
1238 Rain 17 1003 87 10000 3.6 180 21:59 02.01.2020
1239 Rain 17 1003 87 10000 3.6 180 21:41 02.01.2020
1240 Rain 17 1003 93 10000 3.6 160 21:23 02.01.2020
1241 Rain 17 1003 93 10000 3.6 170 20:58 02.01.2020
1242 Rain 16 1003 93 10000 3.6 170 20:39 02.01.2020
1243 Rain 16 1003 93 10000 3.6 170 20:39 02.01.2020
1244 Haze 16 1003 93 7000 4.1 200 20:21 02.01.2020
1245 Clouds 16 1002 93 6000 3.1 190 19:55 02.01.2020
1246 Clouds 16 1002 93 6000 3.1 190 19:55 02.01.2020
1247 Clouds 16 1002 93 6000 3.1 190 19:55 02.01.2020
1248 Clouds 16 1002 93 7000 1.5 200 19:37 02.01.2020
1249 Clouds 16 1002 93 7000 1.5 200 19:19 02.01.2020
1250 Drizzle 16 1002 93 7000 2.1 170 18:56 02.01.2020
1251 Drizzle 15 1002 93 7000 2.1 170 18:38 02.01.2020
1252 Drizzle 16 1002 87 7000 4.6 220 18:20 02.01.2020
1253 Clouds 16 1002 93 7000 3.1 10 17:56 02.01.2020
1254 Clouds 16 1002 93 7000 3.1 10 17:36 02.01.2020
1255 Clouds 16 1002 88 8000 4.1 10 17:18 02.01.2020
1256 Clouds 16 1002 93 8000 5.7 10 16:56 02.01.2020
1257 Clouds 16 1002 93 8000 5.7 10 16:38 02.01.2020
1258 Clouds 16 1002 93 6000 6.7 30 16:19 02.01.2020
1259 Clouds 16 1003 93 7000 5.1 20 15:44 02.01.2020
1260 Clouds 16 1003 88 8000 6.7 20 15:24 02.01.2020
1261 Clouds 16 1003 88 9000 6.2 10 14:58 02.01.2020
1262 Clouds 16 1004 88 10000 5.7 10 14:38 02.01.2020
1263 Clear 16 1004 88 10000 5.7 10 14:20 02.01.2020
1264 Clear 16 1004 88 10000 5.1 360 13:58 02.01.2020
1265 Clear 17 1004 88 10000 5.1 360 13:39 02.01.2020
1266 Clear 17 1004 88 10000 5.7 350 13:18 02.01.2020
1267 Clear 17 1004 93 10000 7.2 10 12:42 02.01.2020
1268 Clear 17 1004 93 10000 7.7 20 12:21 02.01.2020
1269 Clear 17 1004 93 10000 7.7 20 11:42 02.01.2020
1270 Clear 18 1004 88 10000 10.8 10 11:21 02.01.2020
1271 Clear 18 1004 88 10000 8.7 20 10:46 02.01.2020
1272 Clear 17 1004 93 10000 11.3 30 10:28 02.01.2020
1273 Clear 18 1004 93 10000 10.8 10 09:57 02.01.2020
1274 Clear 17 1004 93 10000 10.8 10 09:35 02.01.2020
1275 Clear 17 1005 93 10000 11.3 10 08:59 02.01.2020
1276 Clear 17 1005 93 10000 11.3 10 08:39 02.01.2020
1277 Clouds 17 1005 93 10000 9.8 10 08:19 02.01.2020
1278 Clouds 17 1005 93 9000 10.8 10 07:47 02.01.2020
1279 Rain 17 1005 93 9000 9.8 10 07:26 02.01.2020
1280 Clouds 17 1006 93 7000 9.8 10 06:41 02.01.2020
1281 Clouds 18 1006 88 10000 11.3 10 05:40 02.01.2020
1282 Clouds 19 1007 82 10000 12.9 10 04:35 02.01.2020
1283 Clouds 19 1008 77 10000 12.3 360 03:44 02.01.2020
1284 Clouds 19 1008 72 10000 13.4 360 02:21 02.01.2020
1285 Clouds 19 1009 72 10000 12.3 360 01:53 02.01.2020
1286 Clouds 18 1009 77 10000 12.3 10 01:26 02.01.2020
1287 Clouds 19 1010 72 10000 11.8 360 00:49 02.01.2020
1288 Clouds 19 1010 68 10000 12.3 360 00:26 02.01.2020
1289 Clouds 19 1010 68 10000 11.8 350 23:43 01.01.2020
1290 Clouds 19 1010 72 10000 12.9 360 23:23 01.01.2020
1291 Clouds 19 1010 72 10000 12.3 360 22:39 01.01.2020
1292 Clouds 19 1010 72 10000 10.8 360 22:21 01.01.2020
1293 Clouds 18 1011 72 10000 10.3 360 21:58 01.01.2020
1294 Clouds 18 1011 72 10000 10.3 360 21:58 01.01.2020
1295 Clouds 18 1011 72 10000 10.3 360 21:40 01.01.2020
1296 Clouds 18 1011 77 10000 11.3 360 21:20 01.01.2020
1297 Clouds 18 1011 77 10000 11.3 360 21:20 01.01.2020
1298 Clouds 18 1011 77 10000 11.3 360 21:20 01.01.2020
1299 Clouds 17 1011 77 10000 11.3 360 20:58 01.01.2020
1300 Clouds 17 1011 77 10000 11.3 360 20:38 01.01.2020
1301 Clouds 17 1011 82 10000 9.3 360 20:20 01.01.2020
1302 Clouds 16 1011 82 10000 10.3 350 19:57 01.01.2020
1303 Clouds 16 1011 82 10000 10.3 350 19:38 01.01.2020
1304 Clouds 16 1010 82 10000 9.3 10 19:20 01.01.2020
1305 Clouds 16 1011 82 10000 9.8 360 18:57 01.01.2020
1306 Clouds 16 1011 82 10000 9.8 360 18:37 01.01.2020
1307 Clouds 16 1011 87 10000 9.3 360 18:19 01.01.2020
1308 Clouds 16 1011 82 10000 7.2 10 17:57 01.01.2020
1309 Clouds 16 1011 82 10000 7.2 10 17:39 01.01.2020
1310 Clouds 16 1011 82 10000 7.2 10 17:39 01.01.2020
1311 Clouds 16 1011 82 10000 7.2 20 17:19 01.01.2020
1312 Clouds 16 1012 82 10000 6.7 20 16:57 01.01.2020
1313 Clouds 16 1012 82 10000 6.7 20 16:37 01.01.2020
1314 Clouds 16 1012 82 10000 6.7 20 16:37 01.01.2020
1315 Clouds 16 1012 82 10000 7.7 10 16:19 01.01.2020
1316 Clouds 16 1012 82 10000 7.7 10 16:19 01.01.2020
1317 Clouds 16 1012 82 10000 7.2 20 15:54 01.01.2020
1318 Clouds 16 1012 82 10000 7.2 20 15:36 01.01.2020
1319 Clouds 16 1013 82 10000 7.2 20 15:18 01.01.2020
1320 Clouds 16 1013 82 10000 7.2 20 14:41 01.01.2020
1321 Clouds 16 1013 82 10000 7.7 20 14:23 01.01.2020
1322 Clouds 16 1014 82 10000 7.2 20 13:57 01.01.2020
1323 Clouds 16 1014 82 10000 7.2 20 13:38 01.01.2020
1324 Clouds 16 1014 82 10000 7.7 20 13:19 01.01.2020
1325 Clear 16 1014 82 10000 8.7 10 12:57 01.01.2020
1326 Clear 16 1014 82 10000 8.7 10 12:39 01.01.2020
1327 Clear 16 1014 82 10000 9.3 10 12:19 01.01.2020
1328 Clear 16 1014 82 10000 9.8 10 11:56 01.01.2020
1329 Clear 16 1014 82 10000 9.8 10 11:38 01.01.2020
1330 Clear 16 1015 82 10000 9.8 10 11:19 01.01.2020
1331 Clear 16 1015 82 10000 9.8 10 10:54 01.01.2020
1332 Clear 16 1015 82 10000 9.8 10 10:36 01.01.2020
1333 Clear 16 1015 82 10000 9.8 10 10:18 01.01.2020
1334 Clear 16 1014 82 10000 9.3 10 09:39 01.01.2020
1335 Clear 16 1014 82 10000 9.8 10 09:19 01.01.2020
1336 Clear 16 1014 82 10000 9.8 10 09:19 01.01.2020
1337 Clear 16 1014 77 10000 10.3 10 08:56 01.01.2020
1338 Clear 16 1014 77 10000 10.3 10 08:37 01.01.2020
1339 Clear 17 1014 77 10000 9.8 10 08:19 01.01.2020
1340 Clear 17 1014 77 10000 11.3 10 07:55 01.01.2020
1341 Clear 17 1014 77 10000 11.3 10 07:37 01.01.2020
1342 Clear 17 1013 77 10000 11.3 360 06:46 01.01.2020
1343 Clear 18 1014 77 10000 11.3 360 06:22 01.01.2020
1344 Clear 18 1014 77 10000 12.3 360 05:45 01.01.2020
1345 Clear 19 1014 72 10000 13.4 10 03:47 01.01.2020
1346 Clear 19 1014 72 10000 13.4 10 03:28 01.01.2020
1347 Clear 19 1014 72 10000 12.3 10 02:59 01.01.2020
1348 Clear 20 1014 72 10000 12.3 10 02:40 01.01.2020
1349 Clear 20 1014 68 10000 13.4 10 02:21 01.01.2020
1350 Clear 20 1014 68 10000 14.4 360 01:39 01.01.2020
1351 Clear 20 1014 68 10000 14.4 360 01:39 01.01.2020
1352 Clear 20 1015 72 10000 11.8 10 01:21 01.01.2020
1353 Clear 18 1015 82 10000 11.3 10 00:44 01.01.2020
1354 Clear 18 1015 77 10000 11.3 360 00:26 01.01.2020
1355 Clear 18 1014 77 10000 13.9 10 23:42 31.12.2019
1356 Clear 17 1014 77 10000 13.4 10 23:22 31.12.2019
1357 Clear 17 1015 77 10000 12.3 360 22:59 31.12.2019
1358 Clear 17 1015 77 10000 12.3 360 22:39 31.12.2019
1359 Clear 17 1015 72 10000 12.3 360 22:20 31.12.2019
1360 Clear 17 1015 77 10000 11.8 10 21:59 31.12.2019
1361 Clear 17 1015 77 10000 11.8 10 21:40 31.12.2019
1362 Clear 17 1015 77 10000 11.3 360 21:22 31.12.2019
1363 Clear 16 1015 82 10000 10.3 360 20:57 31.12.2019
1364 Clear 16 1015 82 10000 10.3 360 20:37 31.12.2019
1365 Clear 15 1015 82 10000 11.3 360 20:19 31.12.2019
1366 Clear 16 1015 82 10000 12.3 10 19:55 31.12.2019
1367 Clear 16 1015 82 10000 12.3 10 19:36 31.12.2019
1368 Clear 15 1015 82 10000 9.8 10 19:18 31.12.2019
1369 Clear 16 1015 82 10000 10.8 10 18:54 31.12.2019
1370 Clear 15 1015 82 10000 10.8 10 18:36 31.12.2019
1371 Clear 15 1014 82 10000 10.3 10 18:18 31.12.2019
1372 Clear 15 1014 82 10000 8.7 10 17:54 31.12.2019
1373 Clear 15 1014 82 10000 8.7 10 17:36 31.12.2019
1374 Clear 15 1014 82 10000 8.2 20 17:18 31.12.2019
1375 Clear 15 1014 82 10000 8.2 20 17:18 31.12.2019
1376 Clear 15 1014 82 10000 9.3 20 16:55 31.12.2019
1377 Clear 15 1014 82 10000 9.3 20 16:36 31.12.2019
1378 Clear 15 1015 87 10000 8.7 30 16:18 31.12.2019
1379 Clear 15 1015 87 10000 9.3 10 15:55 31.12.2019
1380 Clear 15 1015 87 10000 9.3 10 15:37 31.12.2019
1381 Clear 15 1015 82 10000 9.8 20 15:18 31.12.2019
1382 Clear 15 1015 87 10000 9.8 20 14:55 31.12.2019
1383 Clear 15 1015 87 10000 9.8 20 14:36 31.12.2019
1384 Clear 15 1016 87 10000 9.3 10 14:18 31.12.2019
1385 Clear 15 1016 87 10000 8.2 20 13:54 31.12.2019
1386 Clear 15 1016 87 10000 8.2 20 13:36 31.12.2019
1387 Clear 15 1016 82 10000 8.2 20 13:18 31.12.2019
1388 Clear 16 1016 82 10000 7.7 20 12:40 31.12.2019
1389 Clear 16 1016 82 10000 7.7 20 12:20 31.12.2019
1390 Clear 16 1016 82 10000 7.7 20 12:20 31.12.2019
1391 Clear 16 1016 82 10000 7.2 20 11:57 31.12.2019
1392 Clear 16 1016 82 10000 7.2 20 11:39 31.12.2019
1393 Clear 16 1016 77 10000 8.2 10 11:21 31.12.2019
1394 Clear 16 1016 77 10000 7.7 20 10:58 31.12.2019
1395 Clear 16 1016 77 10000 7.7 20 10:39 31.12.2019
1396 Clear 16 1016 72 10000 6.2 10 10:20 31.12.2019
1397 Clear 17 1016 72 10000 6.2 20 09:59 31.12.2019
1398 Clear 17 1016 72 10000 6.2 20 09:40 31.12.2019
1399 Clear 17 1015 68 10000 7.2 10 09:21 31.12.2019
1400 Clear 17 1015 63 10000 6.7 10 08:58 31.12.2019
1401 Clear 18 1015 63 10000 6.7 10 08:39 31.12.2019
1402 Clear 19 1015 63 10000 6.7 360 08:20 31.12.2019
1403 Clear 19 1015 60 10000 6.7 360 07:44 31.12.2019
1404 Clear 19 1015 64 10000 6.7 10 07:22 31.12.2019
1405 Clear 20 1015 60 10000 6.7 10 06:51 31.12.2019
1406 Clear 21 1015 56 10000 4.6 340 05:59 31.12.2019
1407 Clear 20 1016 68 10000 3.6 190 04:30 31.12.2019
1408 Clear 20 1016 68 10000 3.6 190 03:59 31.12.2019
1409 Clear 20 1017 68 10000 4.1 200 02:56 31.12.2019
1410 Clear 20 1017 67 10000 5.1 190 02:19 31.12.2019
1411 Clear 19 1017 67 10000 5.1 190 01:48 31.12.2019
1412 Clear 19 1017 67 10000 5.1 190 01:48 31.12.2019
1413 Clear 19 1017 63 10000 5.1 190 01:28 31.12.2019
1414 Clear 20 1017 72 10000 4.6 200 00:47 31.12.2019
1415 Clear 20 1017 67 10000 4.1 190 00:23 31.12.2019
1416 Clear 20 1015 62 0 3.74 170 23:57 30.12.2019
1417 Clear 20 1015 64 0 3.74 170 23:38 30.12.2019
1418 Clear 19 1017 67 10000 3.6 190 23:20 30.12.2019
1419 Clear 19 1017 72 10000 3.6 200 22:58 30.12.2019
1420 Clear 18 1017 72 10000 3.6 200 22:40 30.12.2019
1421 Clear 18 1018 72 10000 3.6 200 22:20 30.12.2019
1422 Clear 17 1018 72 10000 3.6 190 21:57 30.12.2019
1423 Clear 17 1018 72 10000 3.6 190 21:39 30.12.2019
1424 Clear 16 1018 82 10000 3.6 170 21:19 30.12.2019
1425 Clear 16 1017 82 10000 3.6 160 20:57 30.12.2019
1426 Clear 16 1017 82 10000 3.6 160 20:39 30.12.2019
1427 Clouds 15 1017 82 10000 3.1 160 20:20 30.12.2019
1428 Clouds 15 1017 82 10000 2.6 170 19:58 30.12.2019
1429 Clouds 14 1017 82 10000 2.6 170 19:38 30.12.2019
1430 Clouds 13 1017 87 10000 2.6 200 19:19 30.12.2019
1431 Clouds 13 1016 87 10000 2.1 210 18:57 30.12.2019
1432 Clouds 13 1016 87 10000 2.1 210 18:38 30.12.2019
1433 Clouds 13 1016 82 10000 1 180 18:20 30.12.2019
1434 Clouds 13 1016 82 10000 3.1 170 17:55 30.12.2019
1435 Clouds 13 1016 82 10000 3.1 170 17:37 30.12.2019
1436 Clouds 13 1016 87 10000 3.6 160 17:18 30.12.2019
1437 Clouds 13 1016 87 10000 4.1 170 16:57 30.12.2019
1438 Clouds 13 1016 87 10000 4.1 170 16:37 30.12.2019
1439 Clouds 13 1016 87 10000 3.1 180 16:18 30.12.2019
1440 Clouds 13 1016 87 10000 3.6 180 15:55 30.12.2019
1441 Clouds 13 1016 87 10000 3.6 180 15:37 30.12.2019
1442 Clouds 13 1016 82 10000 3.6 180 15:18 30.12.2019
1443 Clouds 13 1016 82 10000 3.6 170 14:42 30.12.2019
1444 Clouds 14 1016 87 10000 3.6 170 14:20 30.12.2019
1445 Clouds 14 1016 87 10000 3.6 170 13:56 30.12.2019
1446 Clouds 14 1016 87 10000 3.6 170 13:37 30.12.2019
1447 Clouds 14 1016 87 10000 4.1 160 13:19 30.12.2019
1448 Clouds 13 1016 87 10000 4.6 180 12:43 30.12.2019
1449 Clouds 13 1016 87 10000 4.6 180 12:22 30.12.2019
1450 Clouds 14 1016 93 10000 5.7 170 11:59 30.12.2019
1451 Clouds 14 1016 93 10000 5.7 170 11:40 30.12.2019
1452 Clouds 15 1016 82 10000 6.2 180 11:19 30.12.2019
1453 Clouds 15 1016 82 10000 6.2 180 11:19 30.12.2019
1454 Clouds 15 1016 87 10000 5.7 190 10:45 30.12.2019
1455 Rain 15 1015 87 10000 6.7 190 10:22 30.12.2019
1456 Clouds 15 1015 87 10000 5.1 200 09:59 30.12.2019
1457 Clouds 15 1015 87 10000 5.1 200 09:41 30.12.2019
1458 Clouds 15 1014 87 10000 5.7 190 09:20 30.12.2019
1459 Clouds 15 1014 87 10000 6.7 190 08:54 30.12.2019
1460 Clouds 15 1014 87 10000 6.7 190 08:36 30.12.2019
1461 Clouds 15 1014 87 10000 6.7 190 08:36 30.12.2019
1462 Clouds 16 1014 87 10000 5.7 190 08:18 30.12.2019
1463 Clouds 15 1013 87 10000 5.1 190 07:39 30.12.2019
1464 Clouds 16 1013 87 10000 5.7 190 06:52 30.12.2019
1465 Clouds 16 1012 82 10000 7.2 190 05:24 30.12.2019
1466 Clouds 17 1012 77 10000 5.7 180 03:58 30.12.2019
1467 Clouds 18 1012 77 10000 5.7 180 03:19 30.12.2019
1468 Clouds 18 1012 82 10000 5.7 210 02:40 30.12.2019
1469 Clouds 19 1011 77 10000 5.7 210 01:56 30.12.2019
1470 Clouds 18 1011 77 10000 5.7 200 01:25 30.12.2019
1471 Clouds 18 1011 77 10000 6.7 210 00:45 30.12.2019
1472 Clouds 20 1011 82 10000 8.2 220 00:23 30.12.2019
1473 Clouds 20 1011 82 10000 5.7 210 23:40 29.12.2019
1474 Clouds 20 1010 72 10000 4.1 10 23:21 29.12.2019
1475 Clouds 20 1010 72 10000 5.7 10 22:56 29.12.2019
1476 Clouds 20 1010 72 10000 5.7 10 22:37 29.12.2019
1477 Clouds 20 1010 72 10000 5.1 10 22:18 29.12.2019
1478 Clouds 19 1010 77 10000 5.1 360 21:43 29.12.2019
1479 Clouds 19 1010 77 10000 7.2 10 21:21 29.12.2019
1480 Clouds 19 1010 77 10000 7.2 10 21:21 29.12.2019
1481 Clouds 18 1010 77 10000 6.7 10 20:58 29.12.2019
1482 Clouds 18 1010 77 10000 6.7 10 20:39 29.12.2019
1483 Clouds 17 1010 82 10000 7.2 10 20:21 29.12.2019
1484 Clouds 17 1010 82 10000 6.2 20 19:59 29.12.2019
1485 Clouds 17 1010 82 10000 6.2 20 19:40 29.12.2019
1486 Clouds 16 1009 82 10000 7.2 20 19:21 29.12.2019
1487 Clouds 16 1009 87 10000 6.7 20 18:58 29.12.2019
1488 Clouds 16 1009 87 10000 6.7 20 18:39 29.12.2019
1489 Clouds 16 1009 87 10000 7.2 20 18:20 29.12.2019
1490 Clouds 15 1009 87 10000 7.2 20 17:58 29.12.2019
1491 Clouds 15 1009 87 10000 7.2 20 17:39 29.12.2019
1492 Clouds 15 1009 87 10000 7.7 20 17:20 29.12.2019
1493 Clouds 16 1009 82 10000 8.2 30 16:57 29.12.2019
1494 Clouds 16 1009 82 10000 8.2 30 16:39 29.12.2019
1495 Clouds 16 1009 82 10000 8.7 30 16:21 29.12.2019
1496 Clouds 16 1010 82 10000 7.7 20 15:58 29.12.2019
1497 Clouds 16 1010 82 10000 7.7 20 15:39 29.12.2019
1498 Clouds 16 1010 77 10000 8.2 20 15:20 29.12.2019
1499 Clouds 16 1010 77 10000 8.2 20 14:58 29.12.2019
1500 Clouds 16 1010 77 10000 8.2 20 14:39 29.12.2019
1501 Clouds 16 1011 77 10000 8.7 20 14:18 29.12.2019
1502 Clouds 16 1010 77 10000 9.8 10 13:58 29.12.2019
1503 Clouds 16 1010 77 10000 9.8 10 13:39 29.12.2019
1504 Clouds 16 1011 72 10000 7.2 30 13:21 29.12.2019
1505 Clouds 16 1011 77 10000 7.7 30 12:56 29.12.2019
1506 Clouds 15 1011 77 10000 7.7 30 12:38 29.12.2019
1507 Clouds 15 1011 77 10000 8.2 20 12:19 29.12.2019
1508 Clouds 15 1011 72 10000 8.2 20 11:40 29.12.2019
1509 Clouds 15 1011 72 10000 9.3 20 11:21 29.12.2019
1510 Clouds 15 1011 72 10000 9.3 20 10:56 29.12.2019
1511 Clouds 15 1011 72 10000 9.3 20 10:37 29.12.2019
1512 Clouds 15 1011 72 10000 9.3 20 10:18 29.12.2019
1513 Clouds 15 1011 72 10000 9.3 20 09:44 29.12.2019
1514 Clouds 15 1011 67 10000 10.3 20 09:26 29.12.2019
1515 Clouds 15 1011 72 10000 11.3 20 08:52 29.12.2019
1516 Clouds 15 1011 72 10000 10.8 10 08:29 29.12.2019
1517 Clouds 16 1011 67 10000 10.8 20 07:59 29.12.2019
1518 Clouds 16 1011 67 10000 10.8 20 07:32 29.12.2019
1519 Clouds 18 1011 59 10000 11.3 10 06:59 29.12.2019
1520 Clouds 18 1011 59 10000 10.3 10 06:27 29.12.2019
1521 Clouds 18 1012 55 10000 10.8 10 05:55 29.12.2019
1522 Clear 19 1013 55 10000 11.8 10 04:47 29.12.2019
1523 Clear 19 1013 52 10000 10.8 360 04:28 29.12.2019
1524 Clear 20 1014 48 10000 10.8 360 03:28 29.12.2019
1525 Clouds 19 1014 45 10000 9.3 350 02:22 29.12.2019
1526 Clouds 19 1015 52 10000 8.7 360 01:42 29.12.2019
1527 Clouds 19 1015 52 10000 9.3 360 01:23 29.12.2019
1528 Clear 20 1015 55 10000 7.2 360 00:44 29.12.2019
1529 Clear 19 1015 48 10000 5.7 350 00:24 29.12.2019
1530 Clear 18 1016 72 10000 2.6 170 23:45 28.12.2019
1531 Clear 17 1016 72 10000 4.1 200 23:19 28.12.2019
1532 Clear 17 1016 72 10000 4.1 200 23:19 28.12.2019
1533 Clear 17 1016 72 10000 4.1 200 23:19 28.12.2019
1534 Clear 17 1016 72 10000 4.1 210 22:59 28.12.2019
1535 Clear 17 1016 72 10000 4.1 210 22:37 28.12.2019
1536 Clear 17 1016 72 10000 4.6 200 22:18 28.12.2019
1537 Clear 18 1016 67 10000 2.1 40 21:55 28.12.2019
1538 Clear 17 1016 67 10000 2.1 40 21:37 28.12.2019
1539 Clear 17 1016 67 10000 2.6 10 21:19 28.12.2019
1540 Clear 16 1016 72 10000 3.1 350 20:40 28.12.2019
1541 Clouds 14 1015 72 10000 3.1 350 20:22 28.12.2019
1542 Clouds 14 1015 76 10000 2.6 360 19:59 28.12.2019
1543 Clouds 14 1015 76 10000 2.6 360 19:40 28.12.2019
1544 Clouds 13 1015 82 10000 1.5 350 19:22 28.12.2019
1545 Clouds 13 1015 82 10000 1 360 18:59 28.12.2019
1546 Clouds 12 1015 82 10000 1 360 18:40 28.12.2019
1547 Clouds 12 1015 82 10000 2.6 30 18:20 28.12.2019
1548 Clouds 12 1015 87 10000 3.1 20 17:57 28.12.2019
1549 Clouds 12 1015 87 10000 3.1 20 17:38 28.12.2019
1550 Clouds 12 1014 82 10000 2.6 30 17:19 28.12.2019
1551 Clouds 13 1015 82 10000 2.1 40 16:47 28.12.2019
1552 Clouds 13 1014 82 10000 3.1 20 16:26 28.12.2019
1553 Clouds 13 1014 76 10000 3.1 40 15:57 28.12.2019
1554 Clouds 13 1014 76 10000 3.1 40 15:39 28.12.2019
1555 Clouds 13 1014 76 10000 4.1 50 15:20 28.12.2019
1556 Clouds 13 1014 76 10000 4.6 20 14:45 28.12.2019
1557 Clouds 13 1015 76 10000 6.2 10 14:24 28.12.2019
1558 Clouds 14 1015 71 10000 6.2 10 13:58 28.12.2019
1559 Clouds 14 1015 71 10000 6.2 10 13:38 28.12.2019
1560 Clouds 14 1014 67 10000 6.7 10 13:19 28.12.2019
1561 Clouds 14 1015 67 10000 5.1 20 12:44 28.12.2019
1562 Clouds 14 1015 67 10000 5.1 20 12:44 28.12.2019
1563 Clouds 14 1015 67 10000 5.1 20 12:25 28.12.2019
1564 Clouds 15 1015 67 10000 6.2 20 11:58 28.12.2019
1565 Clouds 15 1015 67 10000 6.2 20 11:39 28.12.2019
1566 Clouds 15 1014 67 10000 7.7 20 11:20 28.12.2019
1567 Clouds 15 1014 63 10000 7.7 20 10:46 28.12.2019
1568 Clouds 15 1014 67 10000 7.7 20 10:22 28.12.2019
1569 Clouds 15 1014 67 10000 7.7 20 10:22 28.12.2019
1570 Clouds 15 1014 67 10000 7.7 20 10:22 28.12.2019
1571 Clouds 15 1014 67 10000 7.7 20 10:22 28.12.2019
1572 Clouds 15 1014 63 10000 7.2 20 09:58 28.12.2019
1573 Clouds 15 1014 63 10000 7.2 20 09:40 28.12.2019
1574 Clouds 15 1014 63 10000 8.2 10 09:20 28.12.2019
1575 Clouds 15 1014 63 10000 8.2 10 09:20 28.12.2019
1576 Clouds 16 1014 59 10000 8.2 360 08:44 28.12.2019
1577 Clouds 16 1014 51 10000 7.2 360 08:26 28.12.2019
1578 Clear 17 1014 45 10000 7.2 360 07:57 28.12.2019
1579 Clear 18 1014 45 10000 7.2 360 07:39 28.12.2019
1580 Clear 19 1014 45 10000 6.7 340 06:42 28.12.2019
1581 Clear 18 1014 51 10000 4.1 180 05:19 28.12.2019
1582 Clear 19 1014 55 10000 3.6 180 03:47 28.12.2019
1583 Clear 19 1014 51 10000 3.1 170 02:49 28.12.2019
1584 Clouds 18 1014 51 10000 4.6 170 02:19 28.12.2019
1585 Clouds 18 1014 51 10000 4.6 170 01:42 28.12.2019
1586 Clouds 18 1014 59 10000 5.1 160 01:18 28.12.2019
1587 Clouds 19 1014 59 10000 5.1 160 00:40 28.12.2019
1588 Clouds 19 1014 59 10000 4.6 180 00:21 28.12.2019
1589 Clouds 18 1014 55 10000 5.1 160 23:44 27.12.2019
1590 Rain 17 1014 59 10000 5.1 150 23:20 27.12.2019
1591 Rain 17 1014 62 10000 5.7 150 22:58 27.12.2019
1592 Rain 17 1014 62 10000 5.7 150 22:39 27.12.2019
1593 Rain 17 1014 59 10000 5.1 160 22:20 27.12.2019
1594 Rain 17 1014 55 10000 5.1 150 21:58 27.12.2019
1595 Rain 16 1014 55 10000 5.1 150 21:37 27.12.2019
1596 Rain 16 1013 62 10000 4.6 160 21:19 27.12.2019
1597 Rain 14 1013 66 10000 5.1 160 20:42 27.12.2019
1598 Rain 13 1013 71 10000 5.7 160 20:23 27.12.2019
1599 Rain 13 1013 71 10000 6.7 150 19:54 27.12.2019
1600 Rain 13 1013 71 10000 6.7 150 19:36 27.12.2019
1601 Rain 13 1012 76 10000 5.1 150 19:18 27.12.2019
1602 Rain 13 1012 76 10000 7.2 150 18:40 27.12.2019
1603 Rain 13 1012 82 10000 8.2 160 18:22 27.12.2019
1604 Rain 13 1011 87 10000 7.2 170 17:58 27.12.2019
1605 Rain 13 1011 87 10000 7.2 170 17:40 27.12.2019
1606 Clouds 14 1011 82 8000 7.7 180 17:19 27.12.2019
1607 Clouds 15 1009 82 10000 11.3 210 16:59 27.12.2019
1608 Clouds 15 1009 82 10000 11.3 210 16:39 27.12.2019
1609 Clouds 15 1009 82 10000 11.3 210 16:39 27.12.2019
1610 Clouds 15 1009 82 10000 4.1 320 16:20 27.12.2019
1611 Clouds 15 1009 82 10000 4.1 360 15:45 27.12.2019
1612 Clouds 15 1009 87 10000 4.1 350 15:23 27.12.2019
1613 Clouds 16 1009 82 10000 6.7 340 14:58 27.12.2019
1614 Clouds 16 1009 82 10000 6.7 340 14:40 27.12.2019
1615 Clouds 15 1009 87 10000 8.7 340 14:21 27.12.2019
1616 Clouds 15 1009 82 10000 7.2 330 13:57 27.12.2019
1617 Clouds 15 1009 82 10000 7.2 330 13:39 27.12.2019
1618 Clouds 15 1009 82 10000 7.2 330 13:39 27.12.2019
1619 Clouds 15 1009 82 10000 7.2 330 13:39 27.12.2019
1620 Clouds 15 1009 82 10000 9.3 340 13:21 27.12.2019
1621 Clouds 16 1009 82 10000 10.8 330 12:44 27.12.2019
1622 Clouds 16 1009 77 10000 8.2 330 12:25 27.12.2019
1623 Clouds 16 1010 77 10000 8.2 350 11:55 27.12.2019
1624 Clouds 16 1010 77 10000 8.2 350 11:37 27.12.2019
1625 Clouds 16 1010 77 10000 10.3 340 11:18 27.12.2019
1626 Clouds 16 1011 77 10000 11.3 350 10:41 27.12.2019
1627 Clouds 16 1011 72 10000 11.3 350 10:23 27.12.2019
1628 Clouds 16 1011 72 10000 12.3 360 09:49 27.12.2019
1629 Clouds 16 1011 72 10000 12.9 360 09:22 27.12.2019
1630 Clouds 16 1011 72 10000 13.4 350 08:59 27.12.2019
1631 Clouds 15 1011 72 10000 13.4 350 08:40 27.12.2019
1632 Clear 16 1011 72 10000 13.4 360 08:18 27.12.2019
1633 Clear 16 1011 67 10000 14.9 360 07:38 27.12.2019
1634 Clear 16 1011 63 10000 13.4 350 06:43 27.12.2019
1635 Clear 17 1011 59 10000 14.9 350 06:22 27.12.2019
1636 Clear 19 1012 55 10000 13.9 340 04:33 27.12.2019
1637 Clear 18 1014 67 10000 14.9 360 02:28 27.12.2019
1638 Clear 19 1014 63 10000 14.9 360 01:42 27.12.2019
1639 Clear 19 1014 59 10000 12.9 350 01:20 27.12.2019
1640 Clear 19 1014 59 10000 12.9 350 00:46 27.12.2019
1641 Clear 19 1014 55 10000 11.8 340 00:25 27.12.2019
1642 Clear 19 1014 55 10000 11.8 350 23:54 26.12.2019
1643 Clear 18 1014 55 10000 11.8 350 23:36 26.12.2019
1644 Clear 19 1014 59 10000 12.9 360 23:18 26.12.2019
1645 Clear 18 1014 68 10000 12.3 360 22:38 26.12.2019
1646 Clear 17 1015 68 10000 13.4 10 22:18 26.12.2019
1647 Clear 17 1015 63 10000 11.8 360 21:40 26.12.2019
1648 Clear 17 1015 63 10000 10.8 360 21:21 26.12.2019
1649 Clear 17 1015 67 10000 11.3 360 20:57 26.12.2019
1650 Clear 17 1015 67 10000 11.3 360 20:38 26.12.2019
1651 Clear 16 1015 72 10000 10.8 360 20:19 26.12.2019
1652 Clear 15 1015 72 10000 10.3 350 19:55 26.12.2019
1653 Clear 15 1015 72 10000 10.3 350 19:37 26.12.2019
1654 Clear 15 1015 77 10000 9.8 360 19:19 26.12.2019
1655 Clear 14 1015 77 10000 9.8 10 18:55 26.12.2019
1656 Clear 14 1015 77 10000 9.8 10 18:36 26.12.2019
1657 Clear 14 1015 77 10000 10.3 20 18:18 26.12.2019
1658 Clear 14 1015 77 10000 9.8 360 17:41 26.12.2019
1659 Clear 13 1015 77 10000 8.7 350 17:21 26.12.2019
1660 Clear 13 1015 77 10000 9.3 360 16:50 26.12.2019
1661 Clear 13 1016 82 10000 9.3 360 16:27 26.12.2019
1662 Clear 13 1016 82 10000 7.7 10 15:57 26.12.2019
1663 Clear 14 1016 82 10000 7.7 10 15:39 26.12.2019
1664 Clear 14 1016 82 10000 8.2 10 15:19 26.12.2019
1665 Clear 14 1017 87 10000 8.2 360 14:41 26.12.2019
1666 Clear 14 1017 87 10000 7.2 360 14:23 26.12.2019
1667 Clear 14 1017 87 10000 8.2 10 13:57 26.12.2019
1668 Clear 14 1017 87 10000 8.2 10 13:39 26.12.2019
1669 Clear 14 1017 87 10000 6.7 20 13:18 26.12.2019
1670 Clear 14 1017 82 10000 5.7 30 12:45 26.12.2019
1671 Clear 14 1018 87 10000 5.1 10 12:26 26.12.2019
1672 Clear 14 1018 82 10000 5.1 20 11:59 26.12.2019
1673 Clear 14 1018 82 10000 5.1 20 11:40 26.12.2019
1674 Clouds 14 1018 82 10000 5.7 10 11:22 26.12.2019
1675 Clouds 14 1018 82 10000 5.1 20 10:51 26.12.2019
1676 Clouds 15 1018 77 10000 5.7 20 10:28 26.12.2019
1677 Clouds 15 1017 72 10000 4.6 10 09:59 26.12.2019
1678 Clouds 15 1017 72 10000 4.6 10 09:41 26.12.2019
1679 Clouds 15 1017 67 10000 5.1 340 09:22 26.12.2019
1680 Clouds 16 1017 63 10000 4.1 340 08:40 26.12.2019
1681 Clouds 17 1017 55 10000 2.1 330 08:21 26.12.2019
1682 Clouds 18 1017 68 10000 1.5 210 07:44 26.12.2019
1683 Clouds 18 1017 72 10000 2.6 190 07:24 26.12.2019
1684 Clouds 19 1017 68 10000 3.1 190 06:39 26.12.2019
1685 Clouds 19 1017 68 10000 3.1 200 06:20 26.12.2019
1686 Clouds 20 1016 59 0 0.45 259 05:43 26.12.2019
1687 Clouds 20 1018 68 10000 3.6 200 04:36 26.12.2019
1688 Clouds 20 1019 68 10000 5.7 210 03:32 26.12.2019
1689 Clouds 20 1019 72 10000 5.7 210 02:47 26.12.2019
1690 Clouds 20 1019 68 10000 5.1 210 02:29 26.12.2019
1691 Clear 19 1019 72 10000 5.1 180 01:44 26.12.2019
1692 Clear 20 1019 72 10000 4.1 180 01:26 26.12.2019
1693 Clear 20 1019 68 10000 3.6 200 00:47 26.12.2019
1694 Clear 20 1019 72 10000 4.1 180 00:23 26.12.2019
1695 Clear 20 1019 59 10000 3.6 190 23:58 25.12.2019
1696 Clear 19 1019 59 10000 3.6 190 23:38 25.12.2019
1697 Clear 19 1020 67 10000 3.6 190 23:19 25.12.2019
1698 Clear 18 1020 67 10000 3.6 200 22:57 25.12.2019
1699 Clear 18 1020 67 10000 3.6 200 22:37 25.12.2019
1700 Clear 18 1020 67 10000 3.1 180 22:19 25.12.2019
1701 Clear 18 1020 67 10000 2.1 200 21:57 25.12.2019
1702 Clear 17 1020 67 10000 2.1 200 21:39 25.12.2019
1703 Clear 17 1020 77 10000 2.1 190 21:19 25.12.2019
1704 Clear 16 1020 72 10000 2.6 170 20:41 25.12.2019
1705 Clear 16 1020 72 10000 2.6 170 20:41 25.12.2019
1706 Clear 14 1019 76 10000 2.6 180 20:21 25.12.2019
1707 Clear 14 1019 76 10000 3.1 200 19:59 25.12.2019
1708 Clear 13 1019 76 10000 3.1 200 19:41 25.12.2019
1709 Clear 13 1019 76 10000 1 110 19:22 25.12.2019
1710 Clear 12 1019 81 10000 1 10 18:41 25.12.2019
1711 Clear 12 1019 76 10000 0.5 90 18:21 25.12.2019
1712 Clear 12 1018 71 10000 1.5 220 17:59 25.12.2019
1713 Clear 13 1018 71 10000 1.5 220 17:39 25.12.2019
1714 Clear 13 1018 76 10000 1.5 260 17:18 25.12.2019
1715 Clear 13 1018 71 10000 2.1 150 16:55 25.12.2019
1716 Clear 13 1018 71 10000 2.1 150 16:55 25.12.2019
1717 Clear 13 1018 71 10000 2.1 150 16:36 25.12.2019
1718 Clear 13 1018 71 10000 2.1 160 16:18 25.12.2019
1719 Clear 12 1018 67 10000 1 150 15:56 25.12.2019
1720 Clear 12 1018 67 10000 1 150 15:37 25.12.2019
1721 Clear 12 1018 71 10000 1.5 160 15:18 25.12.2019
1722 Clear 12 1019 71 10000 3.1 130 14:54 25.12.2019
1723 Clear 12 1019 71 10000 3.1 130 14:36 25.12.2019
1724 Clouds 13 1019 71 10000 3.1 130 14:18 25.12.2019
1725 Clouds 13 1019 67 10000 2.1 130 13:41 25.12.2019
1726 Clouds 13 1019 71 10000 2.6 140 13:20 25.12.2019
1727 Clouds 13 1019 67 10000 1 220 12:44 25.12.2019
1728 Clouds 13 1018 71 10000 2.1 60 12:22 25.12.2019
1729 Clouds 13 1018 71 10000 2.6 90 11:58 25.12.2019
1730 Clouds 13 1018 71 10000 2.6 90 11:40 25.12.2019
1731 Clouds 14 1018 72 10000 2.6 90 11:21 25.12.2019
1732 Clouds 14 1018 67 10000 2.1 70 10:39 25.12.2019
1733 Clouds 14 1017 72 10000 1.5 80 10:21 25.12.2019
1734 Clouds 14 1017 77 10000 0.5 200 09:59 25.12.2019
1735 Clouds 14 1017 77 10000 0.5 200 09:40 25.12.2019
1736 Clouds 15 1017 77 10000 2.1 260 09:22 25.12.2019
1737 Clouds 15 1016 72 10000 1.5 250 08:43 25.12.2019
1738 Clouds 16 1016 72 10000 4.6 150 08:24 25.12.2019
1739 Clouds 16 1015 72 10000 6.7 150 07:43 25.12.2019
1740 Clouds 17 1015 67 10000 7.7 150 07:22 25.12.2019
1741 Clouds 17 1015 72 10000 9.3 150 06:24 25.12.2019
1742 Clouds 17 1015 72 10000 9.3 150 06:24 25.12.2019
1743 Clouds 17 1016 67 10000 8.7 160 05:51 25.12.2019
1744 Clouds 17 1016 72 10000 8.7 170 04:46 25.12.2019
1745 Clouds 17 1016 72 10000 9.3 160 04:24 25.12.2019
1746 Clouds 17 1016 67 10000 8.7 160 03:44 25.12.2019
1747 Clouds 17 1016 67 10000 8.7 160 03:44 25.12.2019
1748 Clouds 18 1016 67 10000 8.2 170 03:18 25.12.2019
1749 Clouds 17 1016 72 10000 8.7 160 02:30 25.12.2019
1750 Clouds 18 1016 72 10000 8.2 160 01:53 25.12.2019
1751 Clouds 17 1016 67 10000 8.7 160 01:22 25.12.2019
1752 Clouds 18 1016 67 10000 8.7 160 00:45 25.12.2019
1753 Clouds 18 1015 72 10000 8.7 160 00:26 25.12.2019
1754 Clouds 18 1015 67 10000 8.2 170 23:40 24.12.2019
1755 Clouds 16 1015 67 10000 7.7 170 23:20 24.12.2019
1756 Clouds 16 1015 67 10000 7.2 170 22:58 24.12.2019
1757 Clouds 18 1015 67 10000 7.2 170 22:37 24.12.2019
1758 Clouds 16 1015 63 10000 5.7 160 22:19 24.12.2019
1759 Clouds 17 1015 62 10000 5.7 160 21:41 24.12.2019
1760 Clouds 17 1015 62 10000 5.7 160 21:41 24.12.2019
1761 Clouds 16 1015 67 10000 5.7 160 21:22 24.12.2019
1762 Clouds 14 1015 67 10000 3.1 160 20:43 24.12.2019
1763 Clouds 14 1014 67 10000 2.1 140 20:24 24.12.2019
1764 Clouds 13 1014 67 10000 4.6 150 19:57 24.12.2019
1765 Clouds 13 1014 67 10000 4.6 150 19:37 24.12.2019
1766 Clouds 12 1014 71 10000 4.6 160 19:18 24.12.2019
1767 Clouds 12 1014 76 10000 3.6 150 18:42 24.12.2019
1768 Clouds 11 1013 71 10000 5.1 150 18:19 24.12.2019
1769 Clouds 12 1013 76 10000 5.1 170 17:45 24.12.2019
1770 Clouds 12 1013 76 10000 4.6 150 17:23 24.12.2019
1771 Clouds 12 1013 76 10000 4.6 150 16:59 24.12.2019
1772 Clouds 12 1013 76 10000 4.6 150 16:59 24.12.2019
1773 Clouds 12 1013 76 10000 4.6 150 16:40 24.12.2019
1774 Clouds 12 1013 76 10000 5.7 170 16:22 24.12.2019
1775 Clouds 12 1013 76 10000 6.2 170 15:58 24.12.2019
1776 Clouds 12 1013 76 10000 6.2 170 15:58 24.12.2019
1777 Clouds 12 1013 76 10000 6.2 170 15:38 24.12.2019
1778 Clouds 12 1013 76 10000 6.2 170 15:20 24.12.2019
1779 Clouds 12 1013 71 10000 6.2 170 14:59 24.12.2019
1780 Clouds 12 1013 71 10000 6.2 170 14:40 24.12.2019
1781 Clear 12 1013 76 10000 6.2 160 14:22 24.12.2019
1782 Clear 12 1013 76 10000 6.2 150 13:57 24.12.2019
1783 Clear 12 1011 87 0 4.14 122 13:39 24.12.2019
1784 Clouds 12 1013 76 10000 6.2 160 13:20 24.12.2019
1785 Clouds 12 1013 76 10000 6.2 160 13:20 24.12.2019
1786 Clouds 12 1012 85 0 3.8 127 12:57 24.12.2019
1787 Clouds 12 1013 76 10000 6.7 150 12:38 24.12.2019
1788 Clouds 12 1013 76 10000 6.7 150 12:38 24.12.2019
1789 Clouds 12 1013 71 10000 6.7 150 12:19 24.12.2019
1790 Clouds 12 1013 71 10000 6.7 150 12:19 24.12.2019
1791 Clouds 12 1013 67 10000 7.2 150 11:58 24.12.2019
1792 Clouds 12 1009 80 0 3.8 127 11:38 24.12.2019
1793 Clouds 12 1009 80 0 3.8 127 11:38 24.12.2019
1794 Clear 13 1014 71 10000 6.7 160 11:20 24.12.2019
1795 Clear 13 1014 71 10000 5.7 150 10:57 24.12.2019
1796 Clear 13 1014 71 10000 5.7 150 10:38 24.12.2019
1797 Clear 13 1014 71 10000 6.2 140 10:20 24.12.2019
1798 Clear 13 1013 71 10000 6.7 150 09:59 24.12.2019
1799 Clear 13 1013 71 10000 6.7 150 09:41 24.12.2019
1800 Clear 13 1013 71 10000 7.7 150 09:22 24.12.2019
1801 Clear 14 1013 76 10000 7.2 160 08:56 24.12.2019
1802 Clear 14 1013 76 10000 7.2 160 08:37 24.12.2019
1803 Clear 14 1012 82 10000 7.7 170 08:18 24.12.2019
1804 Clear 15 1012 82 10000 7.7 170 07:43 24.12.2019
1805 Clear 15 1012 77 10000 7.7 170 07:21 24.12.2019
1806 Clear 15 1012 82 10000 7.2 170 06:40 24.12.2019
1807 Clear 16 1012 72 10000 7.7 170 06:22 24.12.2019
1808 Clear 16 1012 77 10000 7.7 170 05:55 24.12.2019
1809 Clouds 16 1012 77 10000 7.7 170 05:19 24.12.2019
1810 Clouds 17 1013 72 10000 7.7 170 04:21 24.12.2019
1811 Clouds 17 1013 72 10000 7.7 170 03:48 24.12.2019
1812 Clouds 18 1013 72 10000 8.2 170 02:29 24.12.2019
1813 Clouds 17 1013 72 10000 8.7 170 01:57 24.12.2019
1814 Clouds 18 1013 72 10000 8.2 170 01:27 24.12.2019
1815 Clouds 18 1013 72 10000 8.2 180 00:58 24.12.2019
1816 Clouds 16 1013 72 10000 8.2 180 00:40 24.12.2019
1817 Clouds 17 1013 72 10000 8.7 170 00:20 24.12.2019
1818 Clouds 16 1013 77 10000 8.7 170 23:43 23.12.2019
1819 Clouds 16 1013 77 10000 9.3 180 23:24 23.12.2019
1820 Rain 15 1013 82 10000 9.3 180 22:57 23.12.2019
1821 Rain 15 1013 82 10000 9.3 180 22:38 23.12.2019
1822 Rain 15 1013 82 10000 9.3 180 22:38 23.12.2019
1823 Rain 15 1013 82 10000 9.8 180 22:20 23.12.2019
1824 Rain 15 1013 82 10000 9.3 180 21:57 23.12.2019
1825 Rain 15 1013 82 10000 9.3 180 21:57 23.12.2019
1826 Rain 15 1013 82 10000 9.3 180 21:37 23.12.2019
1827 Rain 15 1013 82 10000 8.7 180 21:19 23.12.2019
1828 Rain 15 1013 82 10000 8.7 180 20:59 23.12.2019
1829 Rain 14 1013 82 10000 8.7 180 20:41 23.12.2019
1830 Rain 14 1013 82 10000 8.7 170 20:19 23.12.2019
1831 Rain 14 1013 82 10000 8.7 170 20:19 23.12.2019
1832 Rain 13 1013 82 10000 8.7 180 19:59 23.12.2019
1833 Rain 13 1013 82 10000 8.7 180 19:40 23.12.2019
1834 Rain 13 1013 82 10000 8.7 180 19:40 23.12.2019
1835 Rain 13 1013 82 10000 8.2 180 19:21 23.12.2019
1836 Rain 13 1012 82 10000 8.7 170 18:58 23.12.2019
1837 Rain 13 1012 82 10000 8.7 170 18:39 23.12.2019
1838 Rain 13 1012 82 10000 9.3 170 18:21 23.12.2019
1839 Rain 13 1012 87 10000 8.7 170 17:59 23.12.2019
1840 Rain 13 1012 87 10000 8.7 170 17:40 23.12.2019
1841 Rain 13 1012 87 10000 8.7 180 17:19 23.12.2019
1842 Rain 13 1012 87 10000 8.7 180 17:19 23.12.2019
1843 Rain 13 1012 87 10000 9.3 180 16:58 23.12.2019
1844 Rain 13 1012 87 10000 9.3 180 16:40 23.12.2019
1845 Rain 13 1012 87 10000 8.7 180 16:19 23.12.2019
1846 Rain 13 1012 87 10000 8.7 180 16:19 23.12.2019
1847 Rain 13 1012 87 10000 9.3 180 15:58 23.12.2019
1848 Rain 13 1012 87 10000 9.3 180 15:58 23.12.2019
1849 Rain 13 1012 87 10000 9.3 180 15:37 23.12.2019
1850 Rain 13 1012 87 10000 8.7 180 15:19 23.12.2019
1851 Rain 13 1012 93 10000 9.3 180 14:56 23.12.2019
1852 Rain 13 1012 93 10000 9.3 180 14:38 23.12.2019
1853 Rain 14 1012 93 8000 8.7 180 14:19 23.12.2019
1854 Rain 14 1013 93 6000 9.3 180 13:56 23.12.2019
1855 Rain 14 1013 93 6000 9.3 180 13:38 23.12.2019
1856 Rain 14 1013 87 9000 9.3 180 13:20 23.12.2019
1857 Rain 14 1013 87 9000 8.7 180 12:55 23.12.2019
1858 Rain 14 1013 87 9000 8.7 180 12:36 23.12.2019
1859 Rain 14 1013 87 8000 8.7 180 12:18 23.12.2019
1860 Rain 13 1013 87 9000 9.3 190 11:42 23.12.2019
1861 Rain 13 1013 87 9000 9.3 190 11:42 23.12.2019
1862 Rain 14 1013 87 10000 9.8 190 11:24 23.12.2019
1863 Rain 14 1013 87 10000 9.8 190 10:56 23.12.2019
1864 Rain 14 1013 87 10000 9.8 190 10:38 23.12.2019
1865 Rain 13 1013 87 10000 9.3 190 10:20 23.12.2019
1866 Rain 14 1012 87 10000 8.7 180 09:58 23.12.2019
1867 Rain 14 1012 87 10000 8.7 180 09:39 23.12.2019
1868 Rain 13 1012 87 10000 9.3 180 09:19 23.12.2019
1869 Rain 13 1013 93 10000 9.3 180 08:55 23.12.2019
1870 Rain 13 1013 93 10000 9.3 180 08:37 23.12.2019
1871 Rain 13 1012 93 10000 9.8 180 08:18 23.12.2019
1872 Rain 14 1012 93 10000 10.3 170 07:42 23.12.2019
1873 Rain 15 1012 87 10000 10.3 180 07:19 23.12.2019
1874 Rain 15 1012 87 10000 10.3 180 06:45 23.12.2019
1875 Rain 13 1012 93 6000 11.3 180 06:23 23.12.2019
1876 Rain 14 1012 87 6000 11.3 180 05:47 23.12.2019
1877 Rain 14 1012 87 4900 11.3 180 05:18 23.12.2019
1878 Rain 15 1011 87 8000 11.8 190 04:19 23.12.2019
1879 Rain 16 1012 82 9000 12.3 190 02:48 23.12.2019
1880 Rain 15 1012 82 8000 11.8 190 02:23 23.12.2019
1881 Rain 16 1012 82 8000 11.8 190 01:51 23.12.2019
1882 Rain 16 1012 87 9000 12.3 190 01:32 23.12.2019
1883 Rain 15 1012 87 10000 10.8 190 00:54 23.12.2019
1884 Rain 15 1012 87 10000 10.8 190 00:35 23.12.2019
1885 Rain 16 1012 77 9000 11.8 190 23:57 22.12.2019
1886 Rain 16 1012 77 9000 11.8 190 23:38 22.12.2019
1887 Rain 16 1012 77 10000 10.8 190 23:20 22.12.2019
1888 Rain 15 1011 77 10000 9.3 180 22:57 22.12.2019
1889 Rain 15 1011 77 10000 9.3 180 22:38 22.12.2019
1890 Rain 15 1011 77 10000 10.8 190 22:19 22.12.2019
1891 Rain 15 1011 77 10000 10.3 190 21:56 22.12.2019
1892 Rain 15 1011 77 10000 10.3 190 21:38 22.12.2019
1893 Rain 15 1011 77 10000 9.8 180 21:20 22.12.2019
1894 Rain 15 1010 77 10000 9.3 180 20:43 22.12.2019
1895 Rain 14 1010 87 10000 9.3 180 20:20 22.12.2019
1896 Rain 14 1010 87 10000 9.3 180 20:20 22.12.2019
1897 Rain 14 1010 87 10000 9.3 190 19:58 22.12.2019
1898 Rain 14 1010 87 10000 9.3 190 19:40 22.12.2019
1899 Rain 14 1009 87 10000 7.7 180 19:20 22.12.2019
1900 Rain 14 1009 82 10000 7.2 180 18:58 22.12.2019
1901 Rain 14 1009 82 10000 7.2 180 18:38 22.12.2019
1902 Rain 14 1008 82 10000 5.7 170 18:19 22.12.2019
1903 Rain 14 1008 82 10000 0.5 280 17:55 22.12.2019
1904 Rain 14 1008 82 10000 0.5 280 17:37 22.12.2019
1905 Clear 14 1008 82 9000 1 360 17:18 22.12.2019
1906 Clear 14 1007 82 10000 2.6 340 16:42 22.12.2019
1907 Clear 13 1007 82 10000 4.6 360 16:23 22.12.2019
1908 Clear 13 1006 82 10000 5.7 20 15:58 22.12.2019
1909 Clear 13 1006 82 10000 5.7 20 15:39 22.12.2019
1910 Clear 13 1006 82 10000 7.2 10 15:21 22.12.2019
1911 Clear 13 1006 82 10000 8.2 10 14:59 22.12.2019
1912 Clear 13 1006 82 10000 8.2 10 14:38 22.12.2019
1913 Clouds 14 1006 82 10000 8.2 10 14:19 22.12.2019
1914 Clouds 14 1007 77 10000 8.2 10 13:56 22.12.2019
1915 Clouds 14 1007 77 10000 8.2 10 13:38 22.12.2019
1916 Clouds 14 1007 77 10000 8.2 20 13:19 22.12.2019
1917 Clouds 14 1007 77 10000 8.2 10 12:57 22.12.2019
1918 Clouds 14 1007 77 10000 8.2 10 12:57 22.12.2019
1919 Clouds 14 1007 77 10000 8.2 10 12:38 22.12.2019
1920 Clouds 14 1007 77 10000 8.7 10 12:19 22.12.2019
1921 Clouds 14 1007 77 10000 8.7 10 12:19 22.12.2019
1922 Clouds 14 1007 77 10000 8.7 10 12:19 22.12.2019
1923 Clouds 14 1007 77 10000 9.8 10 11:58 22.12.2019
1924 Clouds 14 1007 77 10000 9.8 10 11:39 22.12.2019
1925 Clouds 14 1007 77 10000 9.8 10 11:20 22.12.2019
1926 Clouds 15 1007 77 10000 9.8 10 10:57 22.12.2019
1927 Clouds 15 1007 77 10000 9.8 10 10:39 22.12.2019
1928 Clouds 15 1007 77 10000 8.7 10 10:19 22.12.2019
1929 Clouds 15 1007 77 10000 8.7 10 09:58 22.12.2019
1930 Clouds 15 1007 77 10000 8.7 10 09:39 22.12.2019
1931 Clouds 15 1007 72 10000 9.3 10 09:21 22.12.2019
1932 Clouds 16 1007 77 10000 9.3 10 08:45 22.12.2019
1933 Clouds 17 1007 72 10000 9.8 10 08:23 22.12.2019
1934 Clouds 17 1007 67 10000 9.3 10 07:50 22.12.2019
1935 Clouds 17 1007 63 10000 10.3 10 07:22 22.12.2019
1936 Clouds 17 1007 63 10000 10.8 10 06:56 22.12.2019
1937 Clouds 18 1007 55 10000 10.8 10 06:27 22.12.2019
1938 Clouds 18 1008 59 10000 8.7 10 05:41 22.12.2019
1939 Clouds 18 1008 55 10000 8.7 350 05:20 22.12.2019
1940 Clouds 18 1009 68 10000 9.3 10 04:26 22.12.2019
1941 Clouds 18 1010 63 10000 10.8 360 02:56 22.12.2019
1942 Clouds 18 1010 63 10000 10.8 360 02:34 22.12.2019
1943 Clouds 18 1011 52 10000 9.8 360 01:32 22.12.2019
1944 Clouds 19 1011 55 10000 10.8 360 00:57 22.12.2019
1945 Clouds 19 1011 55 10000 10.8 360 00:38 22.12.2019
1946 Clouds 18 1012 52 10000 9.3 360 00:20 22.12.2019
1947 Clouds 18 1012 59 10000 9.8 360 23:41 21.12.2019
1948 Clouds 18 1012 59 10000 10.3 360 23:22 21.12.2019
1949 Clouds 17 1012 63 10000 9.8 10 22:57 21.12.2019
1950 Clouds 17 1012 63 10000 9.8 10 22:39 21.12.2019
1951 Clouds 16 1012 67 10000 10.3 10 22:18 21.12.2019
1952 Clouds 16 1013 67 10000 9.3 20 21:56 21.12.2019
1953 Clouds 16 1013 67 10000 9.3 20 21:37 21.12.2019
1954 Clouds 16 1013 67 10000 6.7 10 21:18 21.12.2019
1955 Clouds 15 1013 72 10000 7.7 40 20:57 21.12.2019
1956 Clouds 15 1013 72 10000 7.7 40 20:57 21.12.2019
1957 Clouds 15 1013 72 10000 7.7 40 20:37 21.12.2019
1958 Clouds 15 1013 72 10000 7.7 40 20:37 21.12.2019
1959 Clear 14 1013 76 10000 7.2 30 20:19 21.12.2019
1960 Clear 14 1013 76 10000 5.7 40 19:56 21.12.2019
1961 Clear 13 1013 76 10000 5.7 40 19:36 21.12.2019
1962 Clear 11 1014 81 10000 5.1 30 19:18 21.12.2019
1963 Clear 10 1014 81 10000 4.6 20 18:42 21.12.2019
1964 Clear 9 1014 81 10000 4.1 20 18:23 21.12.2019
1965 Clear 9 1014 81 10000 4.1 20 17:57 21.12.2019
1966 Clear 9 1014 81 10000 4.1 20 17:39 21.12.2019
1967 Clear 9 1014 81 10000 5.1 20 17:20 21.12.2019
1968 Clear 9 1014 81 10000 3.6 20 16:57 21.12.2019
1969 Clear 9 1014 81 10000 3.6 20 16:39 21.12.2019
1970 Clear 9 1014 81 10000 3.6 20 16:18 21.12.2019
1971 Clear 8 1014 81 10000 4.1 20 15:56 21.12.2019
1972 Clear 10 1014 81 10000 4.1 20 15:37 21.12.2019
1973 Clear 10 1015 81 10000 3.6 30 15:18 21.12.2019
1974 Clear 9 1015 81 10000 2.6 30 14:42 21.12.2019
1975 Clear 9 1015 81 10000 2.6 350 14:23 21.12.2019
1976 Clear 10 1016 81 10000 3.1 20 13:58 21.12.2019
1977 Clear 10 1016 81 10000 3.1 20 13:40 21.12.2019
1978 Clear 9 1016 76 10000 2.6 40 13:19 21.12.2019
1979 Clear 10 1016 81 10000 1.5 40 12:57 21.12.2019
1980 Clear 10 1016 81 10000 1.5 40 12:38 21.12.2019
1981 Clear 10 1016 76 10000 1.5 50 12:20 21.12.2019
1982 Clear 10 1016 71 10000 1.5 40 11:55 21.12.2019
1983 Clear 11 1016 71 10000 1.5 40 11:37 21.12.2019
1984 Clear 12 1016 66 10000 1 30 11:19 21.12.2019
1985 Clear 11 1016 66 10000 2.6 160 10:41 21.12.2019
1986 Clear 12 1016 66 10000 3.6 150 10:22 21.12.2019
1987 Clear 12 1016 62 10000 4.1 150 09:58 21.12.2019
1988 Clear 13 1016 62 10000 4.1 150 09:39 21.12.2019
1989 Clear 13 1016 67 10000 5.7 160 09:19 21.12.2019
1990 Clear 14 1016 67 10000 5.7 160 08:51 21.12.2019
1991 Clear 15 1015 67 10000 5.7 160 08:27 21.12.2019
1992 Clear 15 1015 67 10000 5.1 180 07:58 21.12.2019
1993 Clear 15 1015 67 10000 5.1 180 07:58 21.12.2019
1994 Clear 15 1015 67 10000 5.1 180 07:39 21.12.2019
1995 Clear 16 1015 62 10000 5.1 180 07:20 21.12.2019
1996 Clear 16 1015 67 10000 5.7 180 06:40 21.12.2019
1997 Clear 16 1015 63 10000 5.7 190 06:22 21.12.2019
1998 Clear 16 1015 59 10000 5.1 190 05:25 21.12.2019
1999 Clouds 16 1015 59 10000 5.7 180 04:55 21.12.2019
2000 Clouds 17 1015 59 10000 5.7 170 03:56 21.12.2019
2001 Clouds 18 1015 67 10000 6.2 170 02:25 21.12.2019
2002 Rain 16 1015 62 10000 5.7 160 01:50 21.12.2019
2003 Clouds 17 1016 67 10000 6.2 160 01:25 21.12.2019
2004 Clouds 17 1016 67 10000 6.7 160 00:48 21.12.2019
2005 Clouds 17 1015 67 10000 7.7 150 00:28 21.12.2019
2006 Clouds 17 1015 72 10000 8.7 170 23:39 20.12.2019
2007 Clouds 17 1015 72 10000 8.7 170 23:39 20.12.2019
2008 Rain 16 1015 63 10000 7.2 170 23:21 20.12.2019
2009 Rain 15 1015 67 10000 7.2 170 22:59 20.12.2019
2010 Rain 15 1015 67 10000 7.2 170 22:39 20.12.2019
2011 Rain 15 1015 62 10000 7.2 180 22:19 20.12.2019
2012 Rain 15 1015 62 10000 8.2 160 21:54 20.12.2019
2013 Rain 15 1015 62 10000 8.2 160 21:36 20.12.2019
2014 Rain 14 1014 67 10000 8.2 170 21:18 20.12.2019
2015 Rain 14 1014 67 10000 8.2 170 21:18 20.12.2019
2016 Rain 14 1014 62 10000 8.7 180 20:38 20.12.2019
2017 Clouds 13 1013 66 10000 8.7 170 20:19 20.12.2019
2018 Clouds 13 1013 66 10000 9.3 180 19:56 20.12.2019
2019 Clouds 12 1013 66 10000 9.3 180 19:38 20.12.2019
2020 Rain 11 1012 76 9000 8.2 180 19:19 20.12.2019
2021 Rain 11 1012 71 10000 9.3 180 18:41 20.12.2019
2022 Rain 10 1011 71 10000 9.8 170 18:23 20.12.2019
2023 Clouds 10 1011 66 10000 9.8 170 17:58 20.12.2019
2024 Clouds 10 1011 66 10000 9.8 170 17:40 20.12.2019
2025 Rain 10 1011 66 10000 9.8 170 17:20 20.12.2019
2026 Rain 10 1010 71 10000 9.3 170 16:57 20.12.2019
2027 Rain 10 1010 71 10000 9.8 170 16:38 20.12.2019
2028 Rain 10 1010 71 10000 9.8 170 16:19 20.12.2019
2029 Rain 10 1010 71 10000 9.3 170 15:55 20.12.2019
2030 Rain 10 1010 66 10000 10.3 170 15:37 20.12.2019
2031 Rain 10 1010 66 10000 10.3 170 15:37 20.12.2019
2032 Rain 10 1010 66 10000 10.3 170 15:19 20.12.2019
2033 Rain 10 1009 66 10000 9.8 170 14:43 20.12.2019
2034 Rain 10 1009 71 10000 9.3 170 14:24 20.12.2019
2035 Clouds 10 1007 93 0 7.87 185 13:57 20.12.2019
2036 Clouds 10 1004 89 0 7.87 185 13:38 20.12.2019
2037 Rain 10 1004 89 0 9.6 188 13:19 20.12.2019
2038 Rain 10 1007 93 0 0.45 213 12:57 20.12.2019
2039 Rain 10 1004 89 0 9.6 188 12:37 20.12.2019
2040 Rain 10 1004 89 0 9.6 188 12:18 20.12.2019
2041 Rain 10 1007 93 0 9.6 188 11:57 20.12.2019
2042 Rain 11 1008 87 10000 2.1 170 11:39 20.12.2019
2043 Rain 11 1008 87 10000 2.1 170 11:18 20.12.2019
2044 Rain 11 1008 87 10000 2.1 170 11:18 20.12.2019
2045 Rain 11 1008 87 10000 1 120 10:56 20.12.2019
2046 Drizzle 11 1007 87 10000 2.1 120 10:38 20.12.2019
2047 Drizzle 11 1007 87 10000 2.1 120 10:19 20.12.2019
2048 Rain 11 1007 87 10000 2.6 150 09:43 20.12.2019
2049 Rain 11 1006 81 10000 5.7 180 09:21 20.12.2019
2050 Rain 11 1006 87 10000 6.2 180 08:57 20.12.2019
2051 Rain 11 1005 87 10000 7.7 170 08:38 20.12.2019
2052 Rain 11 1005 87 10000 7.7 170 08:20 20.12.2019
2053 Rain 11 1005 87 10000 7.7 170 08:20 20.12.2019
2054 Rain 12 1005 87 10000 8.7 170 07:57 20.12.2019
2055 Rain 12 1004 87 10000 9.8 180 07:38 20.12.2019
2056 Rain 12 1004 87 10000 9.8 180 07:18 20.12.2019
2057 Rain 13 1004 87 9000 8.7 170 06:46 20.12.2019
2058 Rain 12 1003 87 8000 9.3 170 06:28 20.12.2019
2059 Rain 14 1003 82 10000 8.7 160 05:48 20.12.2019
2060 Drizzle 15 1001 76 10000 11.3 200 05:18 20.12.2019
2061 Rain 19 999 45 10000 7.7 320 03:49 20.12.2019
2062 Rain 19 999 45 10000 7.2 340 03:20 20.12.2019
2063 Clouds 19 998 45 10000 8.7 330 02:20 20.12.2019
2064 Clouds 19 999 49 10000 8.2 350 01:36 20.12.2019
2065 Clouds 19 998 55 10000 7.7 340 00:57 20.12.2019
2066 Clouds 19 998 52 10000 9.3 340 00:35 20.12.2019
2067 Clouds 19 998 52 10000 9.3 340 23:58 19.12.2019
2068 Clouds 19 998 52 10000 9.3 340 23:58 19.12.2019
2069 Clouds 19 999 55 10000 8.2 330 23:40 19.12.2019
2070 Clouds 18 999 55 10000 8.2 330 23:21 19.12.2019
2071 Clouds 17 999 63 10000 9.8 340 22:40 19.12.2019
2072 Clouds 17 999 63 10000 9.8 340 22:22 19.12.2019
2073 Clouds 17 998 59 10000 9.8 340 21:59 19.12.2019
2074 Clouds 17 998 59 10000 9.8 340 21:59 19.12.2019
2075 Clouds 17 998 72 10000 10.3 330 21:41 19.12.2019
2076 Clouds 17 998 72 10000 10.3 330 21:19 19.12.2019
2077 Clouds 16 998 72 10000 11.8 330 20:57 19.12.2019
2078 Clouds 16 998 82 10000 13.4 340 20:38 19.12.2019
2079 Rain 16 998 82 10000 13.4 340 20:20 19.12.2019
2080 Rain 16 998 88 10000 14.9 340 19:58 19.12.2019
2081 Rain 16 998 82 10000 14.4 340 19:40 19.12.2019
2082 Rain 16 998 82 10000 14.4 340 19:19 19.12.2019
2083 Rain 16 998 82 10000 14.4 340 19:19 19.12.2019
2084 Rain 16 998 82 10000 14.4 340 19:19 19.12.2019
2085 Rain 16 998 82 10000 14.4 340 19:19 19.12.2019
2086 Rain 16 998 82 10000 15.4 340 18:58 19.12.2019
2087 Rain 16 999 87 6000 12.3 330 18:40 19.12.2019
2088 Rain 15 999 87 6000 12.3 330 18:20 19.12.2019
2089 Rain 15 999 87 10000 14.9 340 17:56 19.12.2019
2090 Rain 15 998 87 10000 15.4 340 17:38 19.12.2019
2091 Rain 15 998 87 10000 15.4 340 17:18 19.12.2019
2092 Rain 15 998 87 8000 19 340 16:56 19.12.2019
2093 Rain 15 1000 87 4700 17 340 16:37 19.12.2019
2094 Rain 15 1000 87 4700 17 340 16:19 19.12.2019
2095 Rain 15 1000 87 10000 15.9 340 15:57 19.12.2019
2096 Rain 15 1000 87 10000 15.9 340 15:57 19.12.2019
2097 Rain 15 1001 87 3100 15.9 340 15:37 19.12.2019
2098 Rain 15 1001 87 3100 15.9 340 15:19 19.12.2019
2099 Rain 16 1002 82 10000 15.9 340 14:54 19.12.2019
2100 Rain 15 1002 77 10000 13.9 340 14:36 19.12.2019
2101 Rain 15 1002 77 10000 13.9 340 14:18 19.12.2019
2102 Rain 15 1003 77 10000 15.4 340 13:38 19.12.2019
2103 Rain 15 1003 77 10000 15.4 340 13:38 19.12.2019
2104 Rain 15 1003 77 10000 15.4 340 13:20 19.12.2019
2105 Rain 15 1004 87 3200 13.9 340 12:58 19.12.2019
2106 Clouds 15 1004 77 10000 15.4 340 12:40 19.12.2019
2107 Clouds 15 1004 77 10000 15.4 340 12:19 19.12.2019
2108 Clouds 15 1004 77 10000 15.4 340 12:19 19.12.2019
2109 Clouds 15 1005 72 10000 12.9 340 11:59 19.12.2019
2110 Clouds 15 1006 72 10000 12.3 350 11:40 19.12.2019
2111 Clouds 15 1006 72 10000 12.3 350 11:18 19.12.2019
2112 Clouds 15 1007 77 8000 11.8 340 10:58 19.12.2019
2113 Rain 15 1007 77 10000 11.8 340 10:38 19.12.2019
2114 Rain 15 1007 77 10000 11.8 340 10:20 19.12.2019
2115 Clouds 15 1007 72 10000 9.8 330 09:56 19.12.2019
2116 Clouds 15 1007 72 10000 14.9 350 09:37 19.12.2019
2117 Clouds 15 1007 72 10000 14.9 350 09:19 19.12.2019
2118 Clouds 15 1008 72 10000 9.8 340 08:55 19.12.2019
2119 Clouds 15 1008 72 10000 9.8 340 08:55 19.12.2019
2120 Clouds 15 1007 72 10000 11.3 340 08:36 19.12.2019
2121 Clouds 15 1007 72 10000 11.3 340 08:18 19.12.2019
2122 Clouds 15 1007 67 10000 9.8 350 07:41 19.12.2019
2123 Clouds 15 1007 67 10000 9.8 350 07:23 19.12.2019
2124 Rain 15 1008 67 10000 10.8 350 06:58 19.12.2019
2125 Clouds 14 1008 67 10000 10.3 350 06:39 19.12.2019
2126 Clouds 15 1008 67 10000 10.3 350 06:21 19.12.2019
2127 Clouds 15 1009 63 10000 10.3 340 05:42 19.12.2019
2128 Clouds 15 1009 63 10000 10.3 340 05:19 19.12.2019
2129 Clouds 16 1010 67 10000 9.8 350 03:51 19.12.2019
2130 Clouds 17 1011 55 10000 9.3 360 02:28 19.12.2019
2131 Clouds 17 1011 55 10000 8.7 360 01:24 19.12.2019
2132 Clouds 18 1011 48 10000 9.3 350 00:57 19.12.2019
2133 Clouds 18 1011 55 10000 9.8 350 00:38 19.12.2019
2134 Clouds 18 1011 55 10000 9.8 350 00:19 19.12.2019
2135 Clouds 18 1011 55 10000 10.8 360 23:44 18.12.2019
2136 Clouds 17 1011 55 10000 9.8 350 23:19 18.12.2019
2137 Clouds 17 1011 51 10000 8.7 340 22:56 18.12.2019
2138 Clouds 17 1010 51 10000 8.7 340 22:38 18.12.2019
2139 Clouds 17 1010 51 10000 8.7 340 22:20 18.12.2019
2140 Clouds 16 1010 51 10000 7.7 350 21:58 18.12.2019
2141 Clouds 16 1010 55 10000 7.7 360 21:39 18.12.2019
2142 Clouds 16 1010 55 10000 7.7 360 21:20 18.12.2019
2143 Clouds 15 1010 54 10000 6.2 350 20:57 18.12.2019
2144 Clouds 15 1009 51 10000 6.2 350 20:38 18.12.2019
2145 Clouds 14 1009 51 10000 6.2 350 20:20 18.12.2019
2146 Rain 13 1009 62 10000 6.7 360 19:56 18.12.2019
2147 Rain 13 1008 58 10000 5.7 340 19:38 18.12.2019
2148 Rain 13 1008 58 10000 5.7 340 19:38 18.12.2019
2149 Rain 13 1008 58 10000 5.7 340 19:18 18.12.2019
2150 Clouds 12 1008 67 10000 5.7 350 18:54 18.12.2019
2151 Clouds 12 1008 71 10000 5.1 20 18:36 18.12.2019
2152 Clouds 12 1008 71 10000 5.1 20 18:18 18.12.2019
2153 Clouds 12 1008 67 10000 5.1 350 17:55 18.12.2019
2154 Clouds 12 1008 82 10000 3.1 10 17:37 18.12.2019
2155 Clouds 11 1008 82 10000 3.1 10 17:18 18.12.2019
2156 Clouds 11 1008 87 10000 3.1 20 16:42 18.12.2019
2157 Clouds 11 1008 93 10000 2.6 50 16:23 18.12.2019
2158 Clouds 11 1008 87 10000 4.1 20 15:57 18.12.2019
2159 Rain 11 1008 87 10000 4.1 20 15:39 18.12.2019
2160 Rain 11 1008 93 10000 3.1 20 15:21 18.12.2019
2161 Rain 10 1008 93 10000 3.1 20 14:56 18.12.2019
2162 Clouds 10 1008 93 10000 3.1 20 14:38 18.12.2019
2163 Clouds 10 1008 93 10000 4.1 10 14:19 18.12.2019
2164 Clouds 10 1008 93 10000 2.1 10 13:55 18.12.2019
2165 Clouds 11 1008 93 10000 2.1 10 13:36 18.12.2019
2166 Haze 10 1008 87 5000 1.5 350 13:18 18.12.2019
2167 Haze 10 1008 87 5000 1.5 350 13:18 18.12.2019
2168 Haze 11 1008 93 3700 1.5 320 12:40 18.12.2019
2169 Clouds 11 1007 87 10000 2.1 30 12:21 18.12.2019
2170 Drizzle 11 1008 82 9000 0.5 230 11:57 18.12.2019
2171 Drizzle 11 1008 82 9000 0.5 230 11:39 18.12.2019
2172 Drizzle 11 1007 81 10000 0.5 200 11:20 18.12.2019
2173 Drizzle 11 1007 87 10000 1 110 10:58 18.12.2019
2174 Drizzle 11 1007 87 10000 1 110 10:39 18.12.2019
2175 Rain 11 1007 81 8000 1.5 340 10:20 18.12.2019
2176 Rain 12 1006 81 10000 3.1 20 09:57 18.12.2019
2177 Rain 12 1006 76 5000 2.1 320 09:20 18.12.2019
2178 Rain 13 1004 80 0 3.41 4 08:43 18.12.2019
2179 Rain 13 1004 67 10000 3.6 10 08:24 18.12.2019
2180 Clouds 14 1004 62 10000 2.6 20 07:57 18.12.2019
2181 Clouds 14 1004 62 10000 2.6 20 07:39 18.12.2019
2182 Clouds 15 1003 62 7000 1 230 07:20 18.12.2019
2183 Clouds 15 1003 58 10000 2.1 180 06:52 18.12.2019
2184 Clouds 15 1003 62 10000 2.1 210 06:24 18.12.2019
2185 Clouds 15 1002 59 10000 4.6 180 05:36 18.12.2019
2186 Clouds 16 1002 59 10000 6.7 170 04:31 18.12.2019
2187 Clouds 15 1001 62 10000 9.3 190 02:47 18.12.2019
2188 Clouds 15 1000 62 10000 12.9 200 02:28 18.12.2019
2189 Rain 14 1000 67 10000 10.8 190 01:45 18.12.2019
2190 Rain 13 1000 71 10000 8.7 190 01:27 18.12.2019
2191 Rain 13 999 71 10000 9.3 190 00:55 18.12.2019
2192 Rain 12 999 71 10000 9.3 190 00:36 18.12.2019
2193 Drizzle 12 999 71 10000 12.9 190 00:18 18.12.2019
2194 Rain 11 999 76 7000 12.3 190 23:43 17.12.2019
2195 Rain 11 998 76 8000 12.3 190 23:23 17.12.2019
2196 Drizzle 11 998 76 4800 13.4 200 22:57 17.12.2019
2197 Drizzle 11 998 76 4800 13.4 200 22:39 17.12.2019
2198 Rain 9 998 93 3900 13.4 190 22:20 17.12.2019
2199 Rain 10 998 81 6000 12.9 200 21:57 17.12.2019
2200 Rain 10 998 81 6000 12.9 200 21:39 17.12.2019
2201 Rain 10 997 81 6000 14.4 200 21:20 17.12.2019
2202 Rain 10 997 81 6000 14.4 200 21:20 17.12.2019
2203 Rain 10 997 87 5000 15.4 200 20:59 17.12.2019
2204 Rain 10 997 87 5000 15.4 200 20:40 17.12.2019
2205 Drizzle 9 996 93 3900 15.9 200 20:19 17.12.2019
2206 Rain 10 996 87 5000 15.4 200 19:57 17.12.2019
2207 Rain 10 996 87 5000 15.4 200 19:39 17.12.2019
2208 Drizzle 10 995 87 6000 16.5 200 19:20 17.12.2019
2209 Rain 10 994 81 6000 14.4 200 18:57 17.12.2019
2210 Rain 9 989 92 0 1.34 82 18:38 17.12.2019
2211 Rain 9 989 92 0 0.89 139 18:20 17.12.2019
2212 Rain 10 993 95 0 1.34 207 17:55 17.12.2019
2213 Drizzle 10 994 87 6000 15.4 200 17:37 17.12.2019
2214 Drizzle 10 994 87 6000 15.4 200 17:18 17.12.2019
2215 Drizzle 10 993 87 7000 15.4 200 16:55 17.12.2019
2216 Drizzle 11 993 87 7000 15.4 200 16:36 17.12.2019
2217 Rain 11 993 87 8000 17 200 16:18 17.12.2019
2218 Rain 11 993 87 8000 17 200 16:18 17.12.2019
2219 Rain 11 993 87 8000 16.5 200 15:38 17.12.2019
2220 Rain 11 994 87 7000 15.9 200 15:20 17.12.2019
2221 Drizzle 11 994 87 7000 14.4 200 14:56 17.12.2019
2222 Drizzle 11 994 87 7000 14.4 200 14:38 17.12.2019
2223 Rain 12 994 87 7000 14.4 200 14:19 17.12.2019
2224 Rain 12 994 87 7000 14.4 200 14:19 17.12.2019
2225 Rain 11 994 100 4000 13.9 190 13:58 17.12.2019
2226 Rain 11 994 100 4000 13.9 190 13:39 17.12.2019
2227 Rain 12 995 93 6000 12.3 180 13:19 17.12.2019
2228 Rain 12 995 93 6000 12.9 190 12:59 17.12.2019
2229 Rain 12 995 93 6000 12.9 190 12:38 17.12.2019
2230 Rain 12 996 93 6000 12.3 180 12:18 17.12.2019
2231 Rain 12 996 100 7000 9.3 180 11:57 17.12.2019
2232 Rain 12 996 100 3700 14.4 190 11:37 17.12.2019
2233 Rain 13 996 100 3700 14.4 190 11:18 17.12.2019
2234 Rain 13 996 100 1800 14.9 190 10:57 17.12.2019
2235 Rain 13 996 100 1800 14.9 190 10:38 17.12.2019
2236 Rain 13 996 100 3400 12.3 190 10:19 17.12.2019
2237 Rain 13 996 100 3400 12.3 190 10:19 17.12.2019
2238 Rain 13 996 93 4800 10.8 190 09:55 17.12.2019
2239 Rain 13 996 93 4800 10.8 190 09:37 17.12.2019
2240 Rain 14 996 93 5000 9.8 190 09:18 17.12.2019
2241 Rain 14 997 100 8000 9.3 210 08:40 17.12.2019
2242 Rain 15 996 93 8000 8.7 180 08:22 17.12.2019
2243 Rain 15 997 100 7000 8.2 200 07:59 17.12.2019
2244 Rain 16 997 100 7000 8.2 200 07:41 17.12.2019
2245 Rain 17 996 100 7000 7.2 210 07:22 17.12.2019
2246 Drizzle 18 996 100 10000 6.2 220 06:42 17.12.2019
2247 Drizzle 18 996 100 10000 4.1 210 06:24 17.12.2019
2248 Drizzle 18 996 100 10000 4.1 210 06:24 17.12.2019
2249 Rain 18 997 100 4900 3.6 200 05:41 17.12.2019
2250 Rain 18 998 93 10000 2.1 200 04:58 17.12.2019
2251 Rain 18 999 93 9000 3.1 340 03:55 17.12.2019
2252 Rain 20 1000 77 10000 4.1 360 02:26 17.12.2019
2253 Clouds 19 1001 73 10000 4.6 320 01:22 17.12.2019
2254 Clouds 19 1001 77 10000 5.7 320 00:47 17.12.2019
2255 Clouds 19 1002 77 10000 5.1 340 00:21 17.12.2019
2256 Clouds 18 1002 82 10000 4.6 340 23:57 16.12.2019
2257 Rain 18 1002 82 10000 7.2 340 23:38 16.12.2019
2258 Rain 18 1002 82 10000 7.2 340 23:18 16.12.2019
2259 Clouds 18 1002 77 10000 6.7 340 22:54 16.12.2019
2260 Rain 18 1003 77 10000 8.7 340 22:36 16.12.2019
2261 Rain 18 1003 77 10000 8.7 340 22:18 16.12.2019
2262 Rain 18 1003 77 10000 7.7 330 21:54 16.12.2019
2263 Rain 18 1003 77 10000 7.7 330 21:36 16.12.2019
2264 Drizzle 18 1003 72 10000 8.2 330 21:18 16.12.2019
2265 Clouds 19 1002 64 10000 9.8 20 20:54 16.12.2019
2266 Clouds 20 1002 64 10000 9.8 20 20:36 16.12.2019
2267 Rain 19 1002 68 10000 7.7 20 20:18 16.12.2019
2268 Rain 18 1002 77 10000 6.7 30 19:54 16.12.2019
2269 Rain 18 1002 77 10000 6.7 30 19:36 16.12.2019
2270 Rain 19 1002 77 10000 7.2 30 19:18 16.12.2019
2271 Rain 19 1002 77 10000 7.2 30 19:18 16.12.2019
2272 Rain 19 1002 82 10000 6.7 30 18:42 16.12.2019
2273 Drizzle 18 1002 88 10000 6.2 30 18:20 16.12.2019
2274 Rain 18 1002 88 10000 6.2 30 17:59 16.12.2019
2275 Rain 18 1002 88 10000 6.2 30 17:40 16.12.2019
2276 Rain 18 1002 88 10000 6.2 30 17:40 16.12.2019
2277 Rain 18 1003 88 10000 6.7 30 17:21 16.12.2019
2278 Drizzle 18 1003 93 10000 5.7 30 16:58 16.12.2019
2279 Drizzle 17 1003 93 10000 5.7 30 16:39 16.12.2019
2280 Rain 17 1003 93 10000 4.1 30 16:20 16.12.2019
2281 Rain 17 1004 93 6000 5.1 10 15:59 16.12.2019
2282 Rain 17 1004 93 6000 5.1 10 15:39 16.12.2019
2283 Rain 17 1004 93 6000 4.1 20 15:21 16.12.2019
2284 Rain 17 1005 93 10000 4.6 30 14:57 16.12.2019
2285 Rain 17 1005 93 10000 4.6 30 14:37 16.12.2019
2286 Rain 17 1005 93 10000 4.6 30 14:37 16.12.2019
2287 Rain 17 1005 93 10000 4.6 30 14:37 16.12.2019
2288 Rain 17 1005 93 10000 5.7 20 14:19 16.12.2019
2289 Drizzle 17 1005 88 10000 4.6 20 13:56 16.12.2019
2290 Drizzle 17 1005 88 10000 4.6 20 13:38 16.12.2019
2291 Rain 17 1006 88 10000 5.1 20 13:19 16.12.2019
2292 Rain 17 1006 88 10000 5.1 20 13:19 16.12.2019
2293 Drizzle 17 1006 88 10000 3.1 10 12:58 16.12.2019
2294 Drizzle 17 1006 88 10000 3.1 10 12:39 16.12.2019
2295 Rain 17 1007 93 10000 3.1 360 12:19 16.12.2019
2296 Rain 16 1007 100 10000 4.1 20 11:58 16.12.2019
2297 Rain 16 1007 100 10000 4.1 20 11:40 16.12.2019
2298 Rain 17 1007 100 10000 5.1 20 11:20 16.12.2019
2299 Rain 17 1008 93 10000 5.1 20 10:57 16.12.2019
2300 Rain 17 1008 93 10000 5.1 20 10:38 16.12.2019
2301 Rain 17 1007 93 10000 4.1 10 10:19 16.12.2019
2302 Rain 17 1007 82 10000 4.1 10 09:45 16.12.2019
2303 Rain 18 1008 82 10000 3.6 10 09:27 16.12.2019
2304 Rain 18 1008 82 10000 5.1 10 08:55 16.12.2019
2305 Rain 18 1008 82 10000 5.1 10 08:37 16.12.2019
2306 Clouds 18 1008 77 10000 5.1 10 08:18 16.12.2019
2307 Clouds 19 1008 77 10000 5.7 10 07:42 16.12.2019
2308 Clouds 19 1008 72 10000 6.2 360 07:21 16.12.2019
2309 Clouds 19 1008 72 10000 7.7 360 06:45 16.12.2019
2310 Clouds 20 1008 68 10000 7.7 360 06:22 16.12.2019
2311 Clouds 20 1008 72 10000 7.2 360 05:49 16.12.2019
2312 Clouds 20 1008 72 10000 8.2 360 05:30 16.12.2019
2313 Clouds 20 1008 72 10000 7.7 360 04:21 16.12.2019
2314 Clouds 19 1010 77 10000 8.7 360 01:58 16.12.2019
2315 Clouds 19 1010 77 10000 8.7 360 01:40 16.12.2019
2316 Clouds 19 1010 77 10000 8.7 360 01:40 16.12.2019
2317 Clouds 18 1010 82 10000 8.7 360 00:42 16.12.2019
2318 Clouds 18 1010 82 10000 9.3 10 00:23 16.12.2019
2319 Clouds 17 1010 88 10000 7.7 360 23:58 15.12.2019
2320 Clouds 18 1010 88 10000 8.2 10 23:38 15.12.2019
2321 Clouds 17 1010 88 10000 8.2 10 23:19 15.12.2019
2322 Rain 17 1010 93 10000 7.2 20 22:55 15.12.2019
2323 Rain 16 1010 93 10000 7.2 20 22:37 15.12.2019
2324 Drizzle 16 1010 93 10000 6.7 10 22:18 15.12.2019
2325 Rain 16 1011 88 10000 6.2 360 21:55 15.12.2019
2326 Rain 17 1011 88 10000 6.2 360 21:37 15.12.2019
2327 Rain 16 1010 88 10000 8.2 360 21:18 15.12.2019
2328 Rain 17 1010 82 10000 7.2 360 20:55 15.12.2019
2329 Clouds 17 1010 82 10000 7.2 360 20:36 15.12.2019
2330 Clouds 17 1010 88 10000 6.7 360 20:18 15.12.2019
2331 Rain 17 1010 88 10000 6.7 360 20:18 15.12.2019
2332 Clouds 17 1010 82 10000 7.2 350 19:55 15.12.2019
2333 Clouds 17 1010 82 10000 7.2 350 19:37 15.12.2019
2334 Clouds 16 1010 82 10000 7.2 350 19:18 15.12.2019
2335 Clouds 16 1010 88 10000 7.7 350 18:55 15.12.2019
2336 Rain 16 1010 88 10000 6.2 340 18:36 15.12.2019
2337 Rain 16 1010 88 10000 6.2 340 18:18 15.12.2019
2338 Rain 16 1010 88 10000 6.7 340 17:55 15.12.2019
2339 Rain 16 1010 88 7000 8.2 330 17:36 15.12.2019
2340 Rain 16 1010 88 7000 8.2 330 17:18 15.12.2019
2341 Rain 16 1009 77 10000 8.2 330 16:42 15.12.2019
2342 Clouds 16 1010 88 10000 7.7 340 16:23 15.12.2019
2343 Clouds 16 1009 88 10000 10.3 330 15:57 15.12.2019
2344 Clouds 16 1009 88 10000 10.3 330 15:39 15.12.2019
2345 Clouds 16 1009 88 10000 8.7 340 15:19 15.12.2019
2346 Clouds 16 1009 88 10000 8.7 340 15:19 15.12.2019
2347 Clouds 16 1009 88 10000 8.7 350 14:56 15.12.2019
2348 Clouds 16 1009 88 10000 8.7 350 14:37 15.12.2019
2349 Clouds 16 1009 88 10000 9.8 350 14:19 15.12.2019
2350 Rain 16 1009 88 6000 10.8 340 13:58 15.12.2019
2351 Rain 16 1009 88 6000 10.8 340 13:39 15.12.2019
2352 Drizzle 17 1010 82 10000 9.3 340 13:20 15.12.2019
2353 Rain 17 1009 82 10000 10.8 330 12:57 15.12.2019
2354 Rain 17 1009 82 10000 10.8 330 12:57 15.12.2019
2355 Rain 17 1009 82 10000 10.8 330 12:39 15.12.2019
2356 Clouds 17 1009 77 10000 10.3 330 12:21 15.12.2019
2357 Clouds 17 1009 82 10000 9.8 340 11:59 15.12.2019
2358 Rain 17 1009 82 10000 10.8 350 11:37 15.12.2019
2359 Rain 17 1009 82 10000 10.8 350 11:19 15.12.2019
2360 Clouds 17 1009 77 10000 9.3 350 10:55 15.12.2019
2361 Clouds 17 1009 77 10000 9.3 350 10:37 15.12.2019
2362 Clouds 17 1009 77 10000 10.8 350 10:19 15.12.2019
2363 Clouds 17 1009 77 10000 9.8 360 09:41 15.12.2019
2364 Clouds 17 1009 77 10000 8.2 350 09:20 15.12.2019
2365 Clouds 17 1009 72 10000 8.7 350 08:59 15.12.2019
2366 Clouds 17 1009 72 10000 8.7 350 08:41 15.12.2019
2367 Clouds 17 1009 77 10000 10.3 350 08:22 15.12.2019
2368 Clouds 17 1009 77 10000 10.3 350 08:22 15.12.2019
2369 Clouds 17 1008 72 10000 11.8 340 07:56 15.12.2019
2370 Clouds 17 1008 72 10000 11.8 340 07:36 15.12.2019
2371 Clouds 17 1008 72 10000 12.9 340 06:56 15.12.2019
2372 Clouds 17 1007 68 10000 12.9 330 06:21 15.12.2019
2373 Clouds 18 1008 63 10000 11.3 340 05:39 15.12.2019
2374 Clouds 18 1008 59 10000 12.3 340 05:19 15.12.2019
2375 Clouds 18 1008 59 10000 12.3 340 03:56 15.12.2019
2376 Clouds 18 1008 59 10000 11.3 340 02:35 15.12.2019
2377 Clouds 18 1009 52 10000 13.4 340 01:55 15.12.2019
2378 Clouds 18 1009 52 10000 13.4 340 01:37 15.12.2019
2379 Clouds 18 1009 55 10000 10.3 350 01:18 15.12.2019
2380 Clouds 18 1009 59 10000 12.9 360 00:42 15.12.2019
2381 Clouds 18 1009 63 10000 11.3 360 00:23 15.12.2019
2382 Clouds 18 1009 63 10000 12.3 360 23:40 14.12.2019
2383 Clouds 18 1009 59 10000 11.8 360 23:21 14.12.2019
2384 Clouds 18 1009 63 10000 11.3 350 22:58 14.12.2019
2385 Clouds 18 1009 63 10000 11.3 350 22:40 14.12.2019
2386 Clouds 18 1009 59 10000 10.3 350 22:21 14.12.2019
2387 Clouds 17 1009 63 10000 10.3 350 21:56 14.12.2019
2388 Clouds 16 1009 63 10000 10.3 350 21:38 14.12.2019
2389 Clouds 16 1009 67 10000 8.7 350 21:19 14.12.2019
2390 Clouds 16 1009 63 10000 9.8 360 20:57 14.12.2019
2391 Clouds 16 1009 63 10000 9.8 360 20:38 14.12.2019
2392 Clouds 15 1009 63 10000 9.3 360 20:19 14.12.2019
2393 Clouds 15 1008 67 10000 9.3 350 19:56 14.12.2019
2394 Clouds 14 1008 67 10000 9.3 350 19:37 14.12.2019
2395 Clouds 14 1008 59 10000 10.3 350 19:18 14.12.2019
2396 Clouds 14 1008 67 10000 10.8 350 18:56 14.12.2019
2397 Clouds 14 1008 67 10000 9.8 350 18:36 14.12.2019
2398 Clouds 14 1008 67 10000 9.8 350 18:18 14.12.2019
2399 Clouds 14 1008 67 10000 9.3 360 17:43 14.12.2019
2400 Clouds 14 1008 67 10000 8.7 10 17:23 14.12.2019
2401 Clear 14 1008 67 10000 7.7 350 16:56 14.12.2019
2402 Clear 14 1008 67 10000 7.7 350 16:38 14.12.2019
2403 Clear 14 1008 67 10000 7.2 350 16:18 14.12.2019
2404 Clear 14 1008 67 10000 6.7 350 15:42 14.12.2019
2405 Clear 14 1009 72 10000 6.7 350 15:21 14.12.2019
2406 Clear 14 1009 72 10000 7.7 350 14:58 14.12.2019
2407 Clear 14 1009 72 10000 7.7 350 14:38 14.12.2019
2408 Clear 14 1009 72 10000 8.2 350 14:19 14.12.2019
2409 Clear 14 1009 72 10000 8.2 350 14:19 14.12.2019
2410 Clear 14 1009 72 10000 8.7 350 13:45 14.12.2019
2411 Clear 14 1009 72 10000 10.3 360 13:21 14.12.2019
2412 Clear 14 1009 72 10000 10.3 360 13:21 14.12.2019
2413 Clear 14 1009 72 10000 10.3 360 12:59 14.12.2019
2414 Clear 14 1009 72 10000 10.3 360 12:41 14.12.2019
2415 Clear 14 1009 72 10000 10.8 350 12:21 14.12.2019
2416 Clear 14 1009 72 10000 10.8 350 12:21 14.12.2019
2417 Clear 14 1009 72 10000 10.8 350 12:21 14.12.2019
2418 Clear 14 1009 67 10000 9.3 350 11:59 14.12.2019
2419 Clear 14 1009 67 10000 9.3 350 11:40 14.12.2019
2420 Clear 14 1009 72 10000 10.8 360 11:20 14.12.2019
2421 Clear 14 1009 72 10000 9.8 360 10:59 14.12.2019
2422 Clear 14 1009 72 10000 9.8 360 10:59 14.12.2019
2423 Clear 14 1009 72 10000 9.8 360 10:40 14.12.2019
2424 Clear 14 1009 67 10000 9.8 360 10:22 14.12.2019
2425 Clear 14 1008 72 10000 10.8 10 09:59 14.12.2019
2426 Clear 15 1008 72 10000 10.8 10 09:40 14.12.2019
2427 Clear 15 1008 67 10000 11.3 360 09:20 14.12.2019
2428 Clear 15 1008 63 10000 10.3 360 08:43 14.12.2019
2429 Clouds 15 1008 63 10000 11.3 360 08:20 14.12.2019
2430 Clouds 16 1007 59 10000 11.3 360 07:44 14.12.2019
2431 Clouds 16 1007 59 10000 12.3 360 07:24 14.12.2019
2432 Clouds 17 1007 59 10000 10.3 360 06:58 14.12.2019
2433 Clouds 17 1007 55 10000 10.8 360 06:38 14.12.2019
2434 Clouds 17 1007 55 10000 10.8 360 06:18 14.12.2019
2435 Clouds 19 1007 59 10000 10.3 360 04:48 14.12.2019
2436 Clouds 19 1007 52 10000 8.2 350 02:41 14.12.2019
2437 Clouds 19 1007 52 10000 8.2 360 02:19 14.12.2019
2438 Clouds 19 1007 52 10000 7.2 10 01:37 14.12.2019
2439 Clouds 19 1007 55 10000 6.7 360 00:49 14.12.2019
2440 Clouds 19 1007 52 10000 8.2 360 00:28 14.12.2019
2441 Clouds 19 1007 55 10000 6.7 350 23:57 13.12.2019
2442 Clouds 19 1007 55 10000 6.7 350 23:38 13.12.2019
2443 Clouds 18 1007 55 10000 6.7 350 23:19 13.12.2019
2444 Clouds 18 1007 55 10000 6.7 360 22:42 13.12.2019
2445 Clouds 18 1006 52 10000 5.1 360 22:19 13.12.2019
2446 Clouds 18 1006 52 10000 5.1 20 21:56 13.12.2019
2447 Clouds 17 1006 52 10000 5.1 20 21:38 13.12.2019
2448 Clouds 17 1006 52 10000 5.1 40 21:20 13.12.2019
2449 Clouds 17 1005 59 10000 5.1 340 20:54 13.12.2019
2450 Clouds 16 1005 59 10000 5.1 340 20:36 13.12.2019
2451 Clouds 16 1004 72 10000 7.2 340 20:18 13.12.2019
2452 Clouds 16 1005 82 10000 8.2 350 19:42 13.12.2019
2453 Clouds 16 1005 82 10000 8.2 350 19:23 13.12.2019
2454 Clouds 15 1005 82 10000 9.3 360 18:59 13.12.2019
2455 Clouds 15 1004 82 10000 9.8 360 18:41 13.12.2019
2456 Clouds 15 1004 82 10000 9.8 360 18:19 13.12.2019
2457 Clouds 14 1004 82 10000 9.8 360 17:57 13.12.2019
2458 Clouds 14 1003 87 10000 8.2 360 17:38 13.12.2019
2459 Clear 15 1003 87 10000 8.2 360 17:18 13.12.2019
2460 Clear 14 1003 82 10000 7.7 350 16:54 13.12.2019
2461 Clear 15 1003 82 10000 7.7 350 16:36 13.12.2019
2462 Clear 15 1003 82 10000 7.7 350 16:18 13.12.2019
2463 Clear 15 1003 82 10000 6.2 350 15:38 13.12.2019
2464 Clear 15 1003 82 10000 6.2 350 15:20 13.12.2019
2465 Clear 15 1003 77 10000 8.2 350 14:42 13.12.2019
2466 Clouds 16 1003 77 10000 8.2 350 14:22 13.12.2019
2467 Clouds 16 1003 82 10000 9.3 350 13:58 13.12.2019
2468 Clouds 16 1003 82 10000 8.7 350 13:40 13.12.2019
2469 Clouds 17 1003 82 10000 8.7 350 13:21 13.12.2019
2470 Clouds 17 1003 82 10000 8.2 350 12:44 13.12.2019
2471 Clouds 17 1003 82 10000 8.2 350 12:44 13.12.2019
2472 Clouds 17 1003 88 10000 7.7 340 12:23 13.12.2019
2473 Clouds 17 1003 88 10000 8.2 340 11:59 13.12.2019
2474 Clouds 17 1003 93 10000 8.7 340 11:41 13.12.2019
2475 Clouds 17 1003 93 10000 8.7 340 11:23 13.12.2019
2476 Clouds 17 1003 93 9000 9.8 340 10:56 13.12.2019
2477 Clouds 16 1003 88 10000 7.7 330 10:38 13.12.2019
2478 Clouds 16 1003 88 10000 7.7 330 10:19 13.12.2019
2479 Clouds 16 1003 88 10000 8.7 340 09:41 13.12.2019
2480 Clouds 17 1003 88 10000 8.7 340 09:20 13.12.2019
2481 Clouds 17 1003 88 10000 8.7 340 09:20 13.12.2019
2482 Clouds 17 1003 82 10000 9.3 350 08:44 13.12.2019
2483 Clouds 17 1002 82 10000 10.8 350 08:25 13.12.2019
2484 Clouds 17 1002 77 10000 10.8 340 07:47 13.12.2019
2485 Clouds 17 1002 77 10000 9.3 340 07:24 13.12.2019
2486 Clouds 17 1002 72 10000 9.8 340 06:55 13.12.2019
2487 Clouds 18 1002 68 10000 8.2 340 06:29 13.12.2019
2488 Clouds 18 1002 68 10000 12.9 10 05:51 13.12.2019
2489 Clouds 18 1003 68 10000 12.9 20 05:30 13.12.2019
2490 Clouds 18 1003 72 10000 12.9 10 04:46 13.12.2019
2491 Clouds 19 1003 63 10000 13.4 360 03:48 13.12.2019
2492 Clouds 20 1004 52 10000 12.3 360 02:35 13.12.2019
2493 Clear 20 1004 49 10000 11.8 350 01:49 13.12.2019
2494 Clear 20 1004 56 10000 11.3 360 01:19 13.12.2019
2495 Clear 21 1004 56 10000 10.3 360 00:45 13.12.2019
2496 Clear 21 1005 56 10000 10.3 360 00:22 13.12.2019
2497 Clear 21 1005 60 10000 10.3 360 23:41 12.12.2019
2498 Clear 20 1005 60 10000 10.3 360 23:22 12.12.2019
2499 Clear 20 1005 60 10000 9.3 360 22:56 12.12.2019
2500 Clear 19 1006 63 10000 9.8 360 22:37 12.12.2019
2501 Clear 19 1006 63 10000 9.8 360 22:19 12.12.2019
2502 Clear 19 1005 59 10000 9.3 360 21:55 12.12.2019
2503 Clear 19 1005 59 10000 9.3 360 21:55 12.12.2019
2504 Clear 19 1005 59 10000 9.3 360 21:55 12.12.2019
2505 Clear 19 1005 59 10000 9.8 360 21:37 12.12.2019
2506 Clear 18 1005 59 10000 9.8 360 21:19 12.12.2019
2507 Clear 18 1005 68 10000 8.7 10 20:56 12.12.2019
2508 Clear 17 1005 67 10000 7.7 20 20:38 12.12.2019
2509 Clear 17 1005 67 10000 7.7 20 20:20 12.12.2019
2510 Clear 16 1006 77 10000 6.7 20 19:43 12.12.2019
2511 Clear 16 1006 77 10000 6.7 20 19:43 12.12.2019
2512 Clear 15 1006 82 10000 6.2 20 19:23 12.12.2019
2513 Clear 13 1006 93 10000 6.2 360 18:58 12.12.2019
2514 Clear 11 1006 93 10000 5.1 10 18:40 12.12.2019
2515 Clear 11 1006 93 10000 5.1 10 18:21 12.12.2019
2516 Clear 11 1006 93 10000 5.1 10 18:21 12.12.2019
2517 Clear 11 1006 93 10000 3.6 20 17:59 12.12.2019
2518 Clear 11 1006 93 10000 3.6 20 17:40 12.12.2019
2519 Clear 11 1006 93 10000 3.6 20 17:21 12.12.2019
2520 Clear 11 1007 87 10000 1.5 30 16:59 12.12.2019
2521 Clear 11 1007 87 10000 1.5 20 16:41 12.12.2019
2522 Clear 12 1007 87 10000 1.5 20 16:21 12.12.2019
2523 Clear 12 1007 93 10000 1 30 15:59 12.12.2019
2524 Clear 12 1008 87 10000 0.5 360 15:41 12.12.2019
2525 Clear 12 1008 87 10000 0.5 360 15:19 12.12.2019
2526 Clear 12 1008 87 10000 0.5 360 15:19 12.12.2019
2527 Clear 12 1008 93 10000 1.5 330 14:57 12.12.2019
2528 Clear 12 1008 87 10000 1 30 14:36 12.12.2019
2529 Clear 12 1008 87 10000 1 30 14:18 12.12.2019
2530 Clear 12 1009 87 10000 1.5 40 13:54 12.12.2019
2531 Clear 12 1009 87 10000 1.5 20 13:36 12.12.2019
2532 Clear 12 1009 87 10000 1.5 20 13:18 12.12.2019
2533 Clear 13 1009 82 10000 6.2 250 12:41 12.12.2019
2534 Clear 13 1009 82 10000 6.2 250 12:22 12.12.2019
2535 Clear 13 1009 87 10000 6.7 240 11:59 12.12.2019
2536 Clear 13 1010 82 10000 7.2 240 11:40 12.12.2019
2537 Clear 13 1010 82 10000 7.2 240 11:21 12.12.2019
2538 Clear 13 1010 87 10000 5.1 230 10:58 12.12.2019
2539 Clear 14 1010 82 10000 6.2 230 10:40 12.12.2019
2540 Clear 14 1010 82 10000 6.2 230 10:22 12.12.2019
2541 Clear 14 1010 82 10000 8.2 210 09:56 12.12.2019
2542 Clear 14 1010 82 10000 7.2 220 09:38 12.12.2019
2543 Clear 15 1010 82 10000 7.2 220 09:19 12.12.2019
2544 Clear 15 1010 82 10000 6.2 190 08:47 12.12.2019
2545 Clear 15 1010 77 10000 7.7 180 08:28 12.12.2019
2546 Clear 17 1010 82 10000 8.2 170 07:55 12.12.2019
2547 Clear 17 1010 77 10000 7.7 180 07:36 12.12.2019
2548 Clear 17 1010 77 10000 7.7 180 07:18 12.12.2019
2549 Clear 18 1011 77 10000 8.2 190 06:41 12.12.2019
2550 Clear 18 1011 77 10000 8.2 190 06:21 12.12.2019
2551 Clear 18 1011 77 10000 8.2 180 05:28 12.12.2019
2552 Clear 19 1011 77 10000 8.7 170 04:46 12.12.2019
2553 Clear 20 1012 72 10000 9.8 160 02:42 12.12.2019
2554 Clear 20 1012 72 10000 9.8 160 02:24 12.12.2019
2555 Clear 20 1013 72 10000 9.3 170 01:59 12.12.2019
2556 Clear 20 1013 72 10000 9.8 160 01:36 12.12.2019
2557 Clear 20 1013 72 10000 8.7 160 00:49 12.12.2019
2558 Clear 20 1013 72 10000 8.2 170 00:22 12.12.2019
2559 Clear 20 1014 77 10000 8.2 160 23:58 11.12.2019
2560 Clear 19 1014 77 10000 8.2 160 23:37 11.12.2019
2561 Clear 18 1014 77 10000 8.2 160 23:18 11.12.2019
2562 Clear 18 1014 77 10000 8.2 160 22:55 11.12.2019
2563 Clear 18 1014 77 10000 7.7 160 22:37 11.12.2019
2564 Clear 18 1014 77 10000 7.7 160 22:18 11.12.2019
2565 Clear 18 1014 82 10000 6.7 160 21:54 11.12.2019
2566 Clear 17 1014 82 10000 7.2 160 21:36 11.12.2019
2567 Clear 17 1014 82 10000 7.2 160 21:18 11.12.2019
2568 Clear 17 1014 82 10000 6.7 170 20:54 11.12.2019
2569 Clear 16 1014 82 10000 6.2 160 20:36 11.12.2019
2570 Clouds 16 1014 82 10000 6.2 160 20:18 11.12.2019
2571 Clouds 15 1014 82 10000 5.1 160 19:41 11.12.2019
2572 Clouds 14 1014 82 10000 5.1 160 19:23 11.12.2019
2573 Clouds 14 1014 82 10000 5.1 170 18:59 11.12.2019
2574 Clouds 14 1014 82 10000 4.1 180 18:39 11.12.2019
2575 Clouds 13 1014 82 10000 4.1 180 18:19 11.12.2019
2576 Clouds 13 1014 87 10000 5.1 170 17:56 11.12.2019
2577 Clouds 13 1013 82 10000 3.6 160 17:37 11.12.2019
2578 Clouds 13 1013 82 10000 3.6 160 17:18 11.12.2019
2579 Clouds 13 1013 76 10000 2.1 160 16:55 11.12.2019
2580 Clouds 13 1013 87 10000 2.1 170 16:37 11.12.2019
2581 Clouds 13 1013 87 10000 2.1 170 16:18 11.12.2019
2582 Clouds 13 1013 87 10000 0.5 180 15:55 11.12.2019
2583 Clouds 14 1013 82 10000 4.1 200 15:36 11.12.2019
2584 Clouds 14 1013 82 10000 4.1 200 15:18 11.12.2019
2585 Clouds 14 1013 87 10000 4.6 220 14:54 11.12.2019
2586 Clouds 14 1013 82 10000 2.6 180 14:36 11.12.2019
2587 Clouds 14 1013 82 10000 2.6 180 14:18 11.12.2019
2588 Clouds 15 1013 77 10000 0.5 10 13:42 11.12.2019
2589 Clouds 15 1013 77 10000 0.5 10 13:42 11.12.2019
2590 Clouds 14 1013 77 10000 0.5 10 13:21 11.12.2019
2591 Clouds 14 1013 77 10000 1.5 10 12:58 11.12.2019
2592 Clouds 14 1013 77 10000 1.5 30 12:39 11.12.2019
2593 Clouds 14 1013 77 10000 1.5 30 12:21 11.12.2019
2594 Clouds 14 1013 77 10000 1.5 30 12:21 11.12.2019
2595 Clouds 14 1013 77 10000 1.5 20 11:58 11.12.2019
2596 Clouds 15 1013 67 10000 2.6 230 11:39 11.12.2019
2597 Clouds 16 1013 67 10000 2.6 230 11:19 11.12.2019
2598 Clouds 15 1013 72 10000 5.1 240 10:57 11.12.2019
2599 Clouds 16 1013 72 10000 6.7 230 10:39 11.12.2019
2600 Clouds 16 1013 72 10000 6.7 230 10:20 11.12.2019
2601 Clouds 16 1012 77 10000 6.2 220 09:44 11.12.2019
2602 Clouds 16 1012 77 10000 6.2 220 09:44 11.12.2019
2603 Clouds 17 1012 77 10000 6.2 220 09:21 11.12.2019
2604 Clouds 17 1012 72 10000 5.7 220 08:58 11.12.2019
2605 Clouds 17 1012 52 10000 4.1 190 08:40 11.12.2019
2606 Clouds 18 1012 52 10000 4.1 190 08:20 11.12.2019
2607 Clouds 19 1012 45 10000 4.6 190 07:59 11.12.2019
2608 Clouds 19 1012 63 10000 5.1 220 07:41 11.12.2019
2609 Clouds 19 1012 63 10000 5.1 220 07:22 11.12.2019
2610 Clouds 19 1012 63 10000 5.1 220 06:44 11.12.2019
2611 Clouds 20 1012 59 10000 5.7 220 06:23 11.12.2019
2612 Clouds 20 1012 55 10000 5.7 220 05:46 11.12.2019
2613 Clouds 20 1012 63 10000 5.7 220 05:27 11.12.2019
2614 Clouds 21 1012 63 10000 5.7 210 04:41 11.12.2019
2615 Clouds 20 1013 68 10000 4.6 170 02:49 11.12.2019
2616 Clouds 21 1013 52 10000 4.1 140 01:26 11.12.2019
2617 Clouds 20 1013 55 10000 5.1 160 00:49 11.12.2019
2618 Clouds 19 1013 59 10000 4.1 170 00:25 11.12.2019
2619 Clouds 19 1013 59 10000 2.6 240 23:59 10.12.2019
2620 Clouds 19 1013 45 10000 3.1 10 23:40 10.12.2019
2621 Clouds 19 1013 45 10000 3.1 10 23:21 10.12.2019
2622 Clouds 19 1014 45 10000 4.6 10 22:41 10.12.2019
2623 Clouds 18 1014 45 10000 4.6 10 22:22 10.12.2019
2624 Clouds 18 1014 52 10000 4.6 10 21:57 10.12.2019
2625 Clouds 18 1014 51 10000 4.1 350 21:39 10.12.2019
2626 Clouds 18 1014 51 10000 4.1 350 21:39 10.12.2019
2627 Clouds 17 1014 51 10000 4.1 350 21:21 10.12.2019
2628 Clouds 16 1014 59 10000 3.6 350 20:57 10.12.2019
2629 Clouds 15 1014 67 10000 4.6 10 20:38 10.12.2019
2630 Clouds 15 1014 67 10000 4.6 10 20:19 10.12.2019
2631 Clouds 15 1014 67 10000 4.6 10 20:19 10.12.2019
2632 Clouds 15 1014 67 10000 4.6 10 20:19 10.12.2019
2633 Clouds 14 1014 67 10000 4.1 10 19:55 10.12.2019
2634 Clouds 13 1014 71 10000 6.2 360 19:37 10.12.2019
2635 Clouds 12 1014 71 10000 6.2 360 19:19 10.12.2019
2636 Clouds 11 1014 71 10000 4.1 360 18:42 10.12.2019
2637 Clouds 10 1014 81 10000 3.1 10 18:21 10.12.2019
2638 Clouds 10 1014 81 10000 4.1 10 17:58 10.12.2019
2639 Clouds 10 1015 81 10000 3.6 10 17:40 10.12.2019
2640 Clear 10 1015 81 10000 3.6 10 17:22 10.12.2019
2641 Clear 10 1015 81 10000 4.1 10 16:55 10.12.2019
2642 Clear 10 1015 76 10000 3.6 20 16:36 10.12.2019
2643 Clear 11 1015 76 10000 3.6 20 16:18 10.12.2019
2644 Clear 10 1016 76 10000 3.6 10 15:38 10.12.2019
2645 Clear 10 1016 76 10000 3.6 10 15:18 10.12.2019
2646 Clear 11 1016 66 10000 2.1 30 14:56 10.12.2019
2647 Clear 10 1016 71 10000 4.1 20 14:38 10.12.2019
2648 Clouds 11 1016 71 10000 4.1 20 14:19 10.12.2019
2649 Clouds 11 1017 71 10000 4.1 20 13:57 10.12.2019
2650 Clouds 12 1017 71 10000 3.6 350 13:39 10.12.2019
2651 Clouds 12 1017 71 10000 3.6 350 13:20 10.12.2019
2652 Clouds 11 1017 76 10000 4.1 10 12:48 10.12.2019
2653 Clouds 11 1017 76 10000 4.1 10 12:48 10.12.2019
2654 Clouds 12 1017 62 10000 3.1 20 12:28 10.12.2019
2655 Clouds 12 1017 67 10000 2.1 30 11:56 10.12.2019
2656 Clouds 13 1017 62 10000 2.1 30 11:38 10.12.2019
2657 Clouds 13 1017 62 10000 2.1 30 11:19 10.12.2019
2658 Clouds 13 1017 67 10000 1.5 30 10:43 10.12.2019
2659 Clouds 13 1017 67 10000 1.5 30 10:24 10.12.2019
2660 Clouds 14 1017 67 10000 0.5 310 09:57 10.12.2019
2661 Clouds 14 1017 67 10000 1 220 09:39 10.12.2019
2662 Clouds 15 1017 67 10000 1 220 09:20 10.12.2019
2663 Clouds 16 1017 67 10000 1 220 08:58 10.12.2019
2664 Clouds 16 1017 72 10000 2.6 200 08:39 10.12.2019
2665 Clouds 16 1017 72 10000 2.6 200 08:20 10.12.2019
2666 Clouds 17 1017 68 10000 3.1 200 07:45 10.12.2019
2667 Clouds 18 1017 68 10000 3.1 200 07:27 10.12.2019
2668 Clouds 18 1016 68 10000 3.6 200 06:50 10.12.2019
2669 Clouds 18 1016 59 10000 4.1 190 06:25 10.12.2019
2670 Clouds 19 1017 63 10000 4.1 200 05:57 10.12.2019
2671 Clouds 19 1017 63 10000 4.1 190 05:38 10.12.2019
2672 Clouds 19 1018 63 10000 5.1 180 03:55 10.12.2019
2673 Clouds 19 1018 63 10000 5.1 180 03:55 10.12.2019
2674 Clouds 19 1018 59 10000 5.1 180 03:24 10.12.2019
2675 Clouds 19 1018 55 10000 4.1 200 01:55 10.12.2019
2676 Clouds 19 1019 52 10000 3.6 200 01:28 10.12.2019
2677 Clouds 19 1019 59 10000 5.1 200 00:58 10.12.2019
2678 Clouds 20 1019 59 10000 4.6 200 00:26 10.12.2019
2679 Clouds 19 1019 59 10000 4.6 200 23:57 09.12.2019
2680 Clouds 18 1019 59 10000 4.1 190 23:37 09.12.2019
2681 Clear 17 1019 59 10000 4.1 190 23:18 09.12.2019
2682 Clear 17 1019 55 10000 4.1 180 22:54 09.12.2019
2683 Clear 16 1019 63 10000 4.1 180 22:36 09.12.2019
2684 Clear 16 1019 63 10000 4.1 180 22:18 09.12.2019
2685 Clear 16 1019 62 10000 3.6 180 21:54 09.12.2019
2686 Clear 16 1019 67 10000 2.1 210 21:36 09.12.2019
2687 Clear 15 1019 67 10000 2.1 210 21:18 09.12.2019
2688 Clear 15 1019 71 10000 2.1 220 20:55 09.12.2019
2689 Clear 14 1019 71 10000 1 250 20:37 09.12.2019
2690 Clear 14 1019 71 10000 1 250 20:18 09.12.2019
2691 Clear 12 1019 76 10000 1 30 19:54 09.12.2019
2692 Clear 11 1019 81 10000 1 20 19:36 09.12.2019
2693 Clear 10 1019 81 10000 1 20 19:18 09.12.2019
2694 Clear 9 1019 87 10000 1.5 360 18:54 09.12.2019
2695 Clear 8 1019 81 10000 1 110 18:36 09.12.2019
2696 Clear 8 1019 81 10000 1 110 18:18 09.12.2019
2697 Clear 8 1019 87 10000 1.5 100 17:54 09.12.2019
2698 Clear 8 1018 87 10000 1 320 17:36 09.12.2019
2699 Clear 8 1018 87 10000 1 320 17:18 09.12.2019
2700 Clear 8 1018 87 10000 1 360 16:54 09.12.2019
2701 Clear 8 1018 87 10000 1 70 16:36 09.12.2019
2702 Clear 9 1018 87 10000 1 70 16:18 09.12.2019
2703 Clear 9 1018 76 10000 1 50 15:54 09.12.2019
2704 Clear 9 1018 71 10000 1 90 15:36 09.12.2019
2705 Clear 10 1018 71 10000 1 90 15:18 09.12.2019
2706 Clear 11 1018 66 10000 3.6 130 14:41 09.12.2019
2707 Clear 10 1018 66 10000 3.6 130 14:18 09.12.2019
2708 Clear 10 1018 71 10000 2.1 120 13:56 09.12.2019
2709 Clear 11 1018 71 10000 3.1 130 13:37 09.12.2019
2710 Clear 11 1018 71 10000 3.1 130 13:19 09.12.2019
2711 Clear 12 1018 67 10000 3.1 130 12:55 09.12.2019
2712 Clear 12 1018 67 10000 3.1 130 12:55 09.12.2019
2713 Clear 12 1018 67 10000 3.6 130 12:37 09.12.2019
2714 Clear 12 1018 67 10000 3.6 130 12:18 09.12.2019
2715 Clear 12 1018 58 10000 2.6 130 11:40 09.12.2019
2716 Clear 12 1018 58 10000 2.6 130 11:22 09.12.2019
2717 Clear 13 1017 58 10000 3.6 130 10:59 09.12.2019
2718 Clear 13 1017 62 10000 6.2 140 10:39 09.12.2019
2719 Clear 13 1017 62 10000 6.2 140 10:19 09.12.2019
2720 Clear 13 1017 62 10000 6.2 140 10:19 09.12.2019
2721 Clear 14 1017 67 10000 7.7 140 09:46 09.12.2019
2722 Clear 14 1016 67 10000 7.2 150 09:25 09.12.2019
2723 Clear 14 1016 67 10000 8.2 150 08:57 09.12.2019
2724 Clear 14 1015 62 10000 7.2 150 08:39 09.12.2019
2725 Clear 15 1015 62 10000 7.2 150 08:21 09.12.2019
2726 Clear 16 1015 63 10000 7.2 150 07:52 09.12.2019
2727 Clear 16 1015 63 10000 7.7 150 07:33 09.12.2019
2728 Clear 16 1015 59 10000 7.2 150 06:58 09.12.2019
2729 Clear 17 1014 51 10000 6.2 150 06:31 09.12.2019
2730 Clear 17 1014 45 10000 7.2 150 05:48 09.12.2019
2731 Clear 17 1014 45 10000 7.2 150 05:48 09.12.2019
2732 Clear 18 1014 51 10000 8.2 150 05:23 09.12.2019
2733 Clear 18 1014 52 10000 8.7 160 04:28 09.12.2019
2734 Clear 18 1013 52 10000 6.7 150 02:35 09.12.2019
2735 Clear 18 1013 52 10000 6.7 150 01:47 09.12.2019
2736 Clear 18 1013 52 10000 5.1 200 00:59 09.12.2019
2737 Clear 18 1013 51 10000 4.1 190 00:33 09.12.2019
2738 Clear 18 1013 55 10000 3.6 200 23:57 08.12.2019
2739 Clear 17 1012 63 10000 4.6 200 23:37 08.12.2019
2740 Clouds 17 1012 63 10000 4.6 200 23:19 08.12.2019
2741 Clouds 18 1012 55 10000 2.1 100 22:56 08.12.2019
2742 Clouds 19 1012 52 10000 2.6 80 22:38 08.12.2019
2743 Clouds 18 1012 52 10000 2.6 80 22:18 08.12.2019
2744 Clouds 17 1013 67 10000 2.1 160 21:56 08.12.2019
2745 Clouds 17 1013 67 10000 1.5 220 21:37 08.12.2019
2746 Clouds 16 1013 67 10000 1.5 220 21:19 08.12.2019
2747 Clouds 16 1013 67 10000 2.6 120 20:56 08.12.2019
2748 Clouds 15 1012 63 10000 1 10 20:37 08.12.2019
2749 Clear 15 1012 63 10000 1 10 20:19 08.12.2019
2750 Clear 14 1012 67 10000 2.6 30 19:55 08.12.2019
2751 Clear 14 1011 71 10000 3.1 50 19:37 08.12.2019
2752 Clear 13 1011 71 10000 3.1 50 19:18 08.12.2019
2753 Clear 13 1011 67 10000 4.6 310 18:54 08.12.2019
2754 Clear 13 1010 71 10000 5.1 330 18:36 08.12.2019
2755 Clear 13 1010 71 10000 5.1 330 18:36 08.12.2019
2756 Clear 13 1010 71 10000 5.1 330 18:18 08.12.2019
2757 Clear 13 1010 67 10000 7.7 310 17:55 08.12.2019
2758 Clear 13 1010 67 10000 5.1 330 17:36 08.12.2019
2759 Clear 13 1010 67 10000 5.1 330 17:18 08.12.2019
2760 Clear 13 1010 67 10000 6.7 330 16:55 08.12.2019
2761 Clear 13 1010 72 10000 5.7 330 16:37 08.12.2019
2762 Clear 13 1010 72 10000 5.7 330 16:18 08.12.2019
2763 Clear 13 1010 72 10000 5.7 330 15:37 08.12.2019
2764 Clear 13 1010 72 10000 5.7 330 15:19 08.12.2019
2765 Clear 13 1010 77 10000 6.2 330 14:57 08.12.2019
2766 Clear 13 1009 77 10000 5.1 340 14:38 08.12.2019
2767 Clear 13 1009 77 10000 5.1 340 14:20 08.12.2019
2768 Clear 13 1009 72 10000 5.1 320 13:42 08.12.2019
2769 Clear 13 1009 72 10000 5.1 320 13:23 08.12.2019
2770 Clear 14 1008 67 10000 6.2 320 12:59 08.12.2019
2771 Clear 14 1008 67 10000 6.2 330 12:41 08.12.2019
2772 Clear 14 1008 67 10000 6.2 330 12:23 08.12.2019
2773 Clear 14 1008 72 10000 6.2 340 11:59 08.12.2019
2774 Clear 14 1007 77 10000 8.2 340 11:38 08.12.2019
2775 Clear 14 1007 77 10000 8.2 340 11:19 08.12.2019
2776 Clear 14 1007 77 10000 7.7 340 10:57 08.12.2019
2777 Clear 15 1007 82 10000 7.7 350 10:38 08.12.2019
2778 Clear 15 1007 82 10000 7.7 350 10:38 08.12.2019
2779 Clear 15 1007 82 10000 7.7 350 10:19 08.12.2019
2780 Clear 15 1006 82 10000 7.2 330 09:55 08.12.2019
2781 Clear 15 1006 82 10000 8.2 330 09:37 08.12.2019
2782 Clear 15 1006 82 10000 8.2 330 09:19 08.12.2019
2783 Clear 15 1006 82 10000 8.2 330 09:19 08.12.2019
2784 Clear 15 1006 82 10000 9.3 350 08:43 08.12.2019
2785 Clear 15 1005 82 10000 7.2 340 08:23 08.12.2019
2786 Rain 15 1005 82 10000 8.7 340 07:58 08.12.2019
2787 Rain 15 1005 82 10000 7.2 350 07:40 08.12.2019
2788 Rain 15 1005 82 10000 7.2 350 07:19 08.12.2019
2789 Rain 15 1005 82 10000 6.2 350 06:41 08.12.2019
2790 Rain 15 1005 82 10000 7.7 10 06:21 08.12.2019
2791 Rain 15 1006 93 7000 5.7 30 05:27 08.12.2019
2792 Rain 15 1006 87 6000 6.7 330 04:54 08.12.2019
2793 Rain 16 1005 93 6000 9.8 10 03:41 08.12.2019
2794 Rain 16 1006 93 5000 11.3 360 02:52 08.12.2019
2795 Rain 16 1006 93 5000 11.3 360 02:52 08.12.2019
2796 Rain 16 1006 88 6000 12.3 350 02:27 08.12.2019
2797 Rain 16 1007 93 4800 12.3 350 01:48 08.12.2019
2798 Rain 16 1007 82 10000 14.4 360 00:56 08.12.2019
2799 Rain 16 1007 82 10000 15.4 350 00:37 08.12.2019
2800 Rain 16 1007 82 10000 15.4 350 00:18 08.12.2019
2801 Rain 16 1008 88 10000 10.8 340 23:39 07.12.2019
2802 Rain 16 1008 88 10000 10.8 340 23:20 07.12.2019
2803 Drizzle 16 1009 88 10000 11.8 350 22:56 07.12.2019
2804 Rain 16 1010 93 7000 10.3 360 22:37 07.12.2019
2805 Rain 15 1010 93 7000 10.3 360 22:19 07.12.2019
2806 Rain 16 1010 93 8000 9.3 350 21:56 07.12.2019
2807 Rain 15 1011 93 10000 8.2 350 21:37 07.12.2019
2808 Rain 15 1011 93 10000 8.2 350 21:19 07.12.2019
2809 Rain 15 1011 87 9000 10.8 350 20:54 07.12.2019
2810 Rain 16 1011 93 8000 9.8 350 20:36 07.12.2019
2811 Rain 16 1011 93 8000 9.8 350 20:18 07.12.2019
2812 Rain 16 1010 93 8000 9.3 360 19:54 07.12.2019
2813 Rain 17 1011 93 10000 8.2 10 19:36 07.12.2019
2814 Rain 17 1011 93 10000 8.2 10 19:36 07.12.2019
2815 Rain 16 1011 93 10000 8.2 10 19:18 07.12.2019
2816 Thunderstorm 15 1010 93 9000 6.2 40 18:42 07.12.2019
2817 Thunderstorm 16 1010 93 7000 5.7 30 18:18 07.12.2019
2818 Thunderstorm 15 1010 93 10000 5.7 340 17:56 07.12.2019
2819 Thunderstorm 15 1011 93 8000 8.2 330 17:37 07.12.2019
2820 Thunderstorm 16 1011 93 8000 8.2 330 17:19 07.12.2019
2821 Thunderstorm 16 1011 93 7000 8.7 330 16:56 07.12.2019
2822 Thunderstorm 17 1011 100 10000 7.7 330 16:37 07.12.2019
2823 Thunderstorm 17 1011 100 10000 7.7 330 16:18 07.12.2019
2824 Thunderstorm 17 1011 93 5000 6.7 340 15:41 07.12.2019
2825 Thunderstorm 17 1011 93 5000 6.7 340 15:41 07.12.2019
2826 Thunderstorm 17 1011 93 6000 7.7 340 15:23 07.12.2019
2827 Rain 17 1011 93 8000 7.2 340 14:57 07.12.2019
2828 Rain 17 1011 93 10000 7.7 350 14:38 07.12.2019
2829 Rain 17 1011 93 10000 7.7 350 14:18 07.12.2019
2830 Clouds 17 1012 82 10000 8.2 20 13:40 07.12.2019
2831 Clouds 17 1012 82 10000 8.2 20 13:21 07.12.2019
2832 Clouds 17 1012 82 10000 8.2 350 12:56 07.12.2019
2833 Clouds 17 1012 93 10000 9.3 350 12:37 07.12.2019
2834 Clouds 17 1012 93 10000 9.3 350 12:19 07.12.2019
2835 Clouds 18 1012 88 10000 6.7 340 11:55 07.12.2019
2836 Clouds 18 1012 88 10000 6.7 330 11:37 07.12.2019
2837 Clouds 18 1012 88 10000 6.7 330 11:19 07.12.2019
2838 Clouds 18 1012 88 10000 10.3 340 10:37 07.12.2019
2839 Clouds 18 1012 88 10000 10.3 340 10:19 07.12.2019
2840 Clouds 18 1011 88 10000 9.8 340 09:41 07.12.2019
2841 Clouds 18 1011 88 10000 9.8 340 09:22 07.12.2019
2842 Clouds 18 1011 88 10000 12.3 340 08:47 07.12.2019
2843 Rain 18 1011 88 10000 9.8 340 08:26 07.12.2019
2844 Thunderstorm 18 1011 77 10000 11.8 340 07:57 07.12.2019
2845 Thunderstorm 18 1011 93 10000 10.3 340 07:38 07.12.2019
2846 Thunderstorm 17 1011 93 10000 10.3 340 07:19 07.12.2019
2847 Thunderstorm 19 1011 82 10000 10.3 330 06:45 07.12.2019
2848 Thunderstorm 19 1011 82 10000 10.3 330 06:24 07.12.2019
2849 Clouds 19 1010 77 10000 10.3 330 04:52 07.12.2019
2850 Clouds 20 1009 77 10000 14.4 340 03:54 07.12.2019
2851 Clouds 20 1009 73 10000 14.9 340 02:50 07.12.2019
2852 Rain 20 1009 77 10000 14.4 340 02:19 07.12.2019
2853 Clouds 20 1009 73 10000 16.5 340 01:31 07.12.2019
2854 Clouds 20 1009 73 10000 15.4 340 00:43 07.12.2019
2855 Clouds 20 1009 73 10000 14.9 340 00:19 07.12.2019
2856 Clouds 19 1010 77 10000 12.3 350 23:47 06.12.2019
2857 Clouds 19 1010 77 10000 12.3 350 23:24 06.12.2019
2858 Clouds 19 1010 77 10000 13.4 360 22:58 06.12.2019
2859 Clouds 18 1011 82 10000 13.4 360 22:37 06.12.2019
2860 Clouds 18 1011 82 10000 13.4 360 22:18 06.12.2019
2861 Clouds 18 1011 77 10000 11.8 360 21:56 06.12.2019
2862 Rain 18 1012 82 10000 11.3 350 21:37 06.12.2019
2863 Rain 18 1012 82 10000 11.3 350 21:19 06.12.2019
2864 Clouds 18 1012 82 10000 10.8 350 20:42 06.12.2019
2865 Clouds 18 1012 77 10000 11.8 350 20:22 06.12.2019
2866 Rain 17 1012 82 10000 10.8 350 19:57 06.12.2019
2867 Rain 17 1011 88 10000 11.3 350 19:39 06.12.2019
2868 Rain 17 1011 88 10000 11.3 350 19:20 06.12.2019
2869 Clouds 17 1011 88 10000 10.8 350 18:44 06.12.2019
2870 Clouds 17 1011 82 10000 11.8 360 18:23 06.12.2019
2871 Clouds 17 1011 82 10000 11.3 360 17:58 06.12.2019
2872 Clouds 17 1011 82 10000 10.3 360 17:40 06.12.2019
2873 Clouds 17 1011 82 10000 10.3 360 17:22 06.12.2019
2874 Clouds 17 1011 77 10000 10.8 360 16:59 06.12.2019
2875 Clouds 17 1011 82 10000 10.8 360 16:40 06.12.2019
2876 Clouds 17 1011 82 10000 10.8 360 16:21 06.12.2019
2877 Clouds 17 1011 82 10000 9.3 350 15:56 06.12.2019
2878 Clouds 17 1011 77 10000 8.7 360 15:38 06.12.2019
2879 Clouds 17 1011 77 10000 8.7 360 15:37 06.12.2019
2880 Clouds 17 1011 77 10000 8.7 360 15:18 06.12.2019
2881 Clouds 17 1011 77 10000 8.7 360 15:18 06.12.2019
2882 Clouds 16 1012 82 10000 9.3 340 14:41 06.12.2019
2883 Clouds 16 1012 82 10000 9.3 340 14:41 06.12.2019
2884 Clouds 16 1012 82 10000 9.3 340 14:20 06.12.2019
2885 Clouds 16 1012 82 10000 7.7 350 13:58 06.12.2019
2886 Clouds 16 1012 82 10000 8.2 350 13:40 06.12.2019
2887 Clouds 16 1012 82 10000 8.2 350 13:21 06.12.2019
2888 Clouds 16 1012 82 10000 8.2 350 13:21 06.12.2019
2889 Clouds 16 1012 72 10000 9.8 350 12:41 06.12.2019
2890 Clouds 16 1012 72 10000 9.8 350 12:22 06.12.2019
2891 Clouds 16 1012 77 10000 9.8 350 11:43 06.12.2019
2892 Clouds 16 1011 77 10000 9.3 350 11:24 06.12.2019
2893 Clouds 16 1011 77 10000 9.3 350 11:24 06.12.2019
2894 Clouds 16 1011 77 10000 8.7 340 10:59 06.12.2019
2895 Clouds 16 1011 77 10000 8.7 340 10:59 06.12.2019
2896 Clouds 16 1011 77 10000 9.3 340 10:40 06.12.2019
2897 Clouds 16 1011 77 10000 9.3 340 10:21 06.12.2019
2898 Clouds 16 1011 72 10000 8.2 330 09:56 06.12.2019
2899 Clouds 16 1010 72 10000 10.3 340 09:37 06.12.2019
2900 Clouds 16 1010 72 10000 10.3 340 09:19 06.12.2019
2901 Clouds 16 1010 72 10000 9.8 340 08:44 06.12.2019
2902 Clouds 16 1010 72 10000 9.8 340 08:44 06.12.2019
2903 Clouds 16 1010 72 10000 9.8 340 08:44 06.12.2019
2904 Clouds 16 1010 72 10000 9.8 340 08:25 06.12.2019
2905 Clouds 17 1010 72 10000 9.8 340 07:44 06.12.2019
2906 Clouds 17 1010 77 10000 11.3 350 07:23 06.12.2019
2907 Clouds 17 1010 77 10000 10.3 350 06:57 06.12.2019
2908 Clouds 17 1010 77 10000 9.8 350 06:26 06.12.2019
2909 Clouds 17 1010 77 10000 11.3 340 05:52 06.12.2019
2910 Clouds 18 1010 68 10000 10.8 340 04:52 06.12.2019
2911 Clear 19 1010 64 10000 10.8 350 01:48 06.12.2019
2912 Clear 18 1011 60 10000 10.8 350 01:22 06.12.2019
2913 Clear 18 1010 68 10000 12.9 350 00:39 06.12.2019
2914 Clear 18 1010 68 10000 12.9 350 00:19 06.12.2019
2915 Clear 18 1010 68 10000 11.3 340 23:37 05.12.2019
2916 Clear 18 1010 68 10000 11.3 340 23:18 05.12.2019
2917 Clear 18 1010 72 10000 9.3 340 22:55 05.12.2019
2918 Clear 18 1010 72 10000 10.3 340 22:36 05.12.2019
2919 Clear 18 1010 72 10000 10.3 340 22:18 05.12.2019
2920 Clear 18 1010 68 10000 9.3 350 21:42 05.12.2019
2921 Clear 17 1010 68 10000 8.2 350 21:24 05.12.2019
2922 Clear 17 1010 72 10000 9.3 340 20:59 05.12.2019
2923 Clear 17 1010 72 10000 10.3 360 20:40 05.12.2019
2924 Clear 17 1010 72 10000 10.3 360 20:40 05.12.2019
2925 Clear 16 1010 72 10000 10.3 360 20:20 05.12.2019
2926 Clear 16 1010 72 10000 10.8 350 19:55 05.12.2019
2927 Clear 16 1010 72 10000 10.8 350 19:36 05.12.2019
2928 Clear 15 1009 82 10000 8.7 350 19:18 05.12.2019
2929 Clear 15 1010 82 10000 9.3 360 18:39 05.12.2019
2930 Clear 15 1010 82 10000 9.3 360 18:39 05.12.2019
2931 Clear 15 1009 77 10000 8.7 360 18:21 05.12.2019
2932 Clear 15 1009 77 10000 8.7 360 18:21 05.12.2019
2933 Clear 15 1009 77 10000 7.7 10 17:59 05.12.2019
2934 Clear 15 1009 77 10000 7.7 10 17:39 05.12.2019
2935 Clear 15 1009 72 10000 6.2 360 17:19 05.12.2019
2936 Clear 15 1008 67 10000 7.2 360 16:55 05.12.2019
2937 Clear 15 1008 67 10000 7.2 360 16:37 05.12.2019
2938 Clear 15 1008 72 10000 7.7 350 16:19 05.12.2019
2939 Clear 14 1008 72 10000 7.7 350 15:56 05.12.2019
2940 Clear 14 1008 72 10000 7.7 350 15:37 05.12.2019
2941 Clear 15 1008 77 10000 5.1 10 15:18 05.12.2019
2942 Clear 15 1008 72 10000 5.7 340 14:55 05.12.2019
2943 Clear 15 1008 72 10000 5.7 340 14:36 05.12.2019
2944 Clouds 15 1008 72 10000 7.7 350 14:18 05.12.2019
2945 Clouds 15 1008 72 10000 7.7 350 13:55 05.12.2019
2946 Clouds 15 1008 72 10000 7.7 350 13:37 05.12.2019
2947 Clear 15 1008 72 10000 8.2 350 13:18 05.12.2019
2948 Clear 15 1008 72 10000 8.7 350 12:43 05.12.2019
2949 Clear 15 1008 72 10000 7.2 340 12:23 05.12.2019
2950 Clear 15 1008 67 10000 6.2 340 11:56 05.12.2019
2951 Clear 15 1008 67 10000 6.2 340 11:56 05.12.2019
2952 Clear 15 1008 67 10000 6.2 340 11:38 05.12.2019
2953 Clear 15 1008 67 10000 7.2 350 11:20 05.12.2019
2954 Clear 15 1008 67 10000 7.2 350 11:20 05.12.2019
2955 Clear 15 1008 67 10000 7.2 350 10:56 05.12.2019
2956 Clear 15 1008 67 10000 7.2 350 10:38 05.12.2019
2957 Clear 15 1007 67 10000 6.7 350 10:18 05.12.2019
2958 Clear 15 1007 67 10000 7.7 340 09:45 05.12.2019
2959 -273 0 0 0 0 0 09:23 05.12.2019
2960 Clear 16 1006 63 10000 8.7 340 08:59 05.12.2019
2961 Clear 16 1006 63 10000 8.7 340 08:38 05.12.2019
2962 Clear 16 1006 63 10000 9.8 350 08:19 05.12.2019
2963 Clear 16 1005 55 10000 11.3 340 07:50 05.12.2019
2964 Clear 17 1005 52 10000 10.8 340 07:32 05.12.2019
2965 Clear 17 1005 52 10000 10.8 340 07:32 05.12.2019
2966 Clear 17 1005 48 10000 11.3 330 06:57 05.12.2019
2967 Clear 17 1005 48 10000 11.3 330 06:38 05.12.2019
2968 Clear 18 1005 52 10000 9.8 340 06:19 05.12.2019
2969 Clear 18 1005 52 10000 9.3 350 05:47 05.12.2019
2970 Clear 18 1005 55 10000 10.8 340 05:22 05.12.2019
2971 Clear 19 1004 46 10000 9.8 350 03:59 05.12.2019
2972 Clear 19 1005 52 10000 10.3 340 02:43 05.12.2019
2973 Clear 19 1005 45 10000 8.7 340 02:24 05.12.2019
2974 Clouds 19 1004 49 10000 10.8 340 01:52 05.12.2019
2975 Clouds 20 1004 49 10000 11.8 350 01:24 05.12.2019
2976 Clouds 20 1004 43 10000 12.3 350 00:51 05.12.2019
2977 Clouds 20 1004 49 10000 11.8 350 00:31 05.12.2019
2978 Clouds 20 1004 52 10000 10.8 340 23:57 04.12.2019
2979 Clouds 19 1004 52 10000 10.8 340 23:39 04.12.2019
2980 Clouds 20 1004 52 10000 10.8 350 23:21 04.12.2019
2981 Clouds 19 1004 60 10000 10.8 350 22:55 04.12.2019
2982 Clouds 19 1004 60 10000 10.8 350 22:36 04.12.2019
2983 Clouds 18 1004 68 10000 9.3 340 22:18 04.12.2019
2984 Clouds 17 1004 77 10000 9.8 340 21:54 04.12.2019
2985 Clouds 17 1004 77 10000 9.8 340 21:36 04.12.2019
2986 Clouds 17 1004 72 10000 9.8 340 21:18 04.12.2019
2987 Clouds 17 1003 77 10000 8.7 340 20:54 04.12.2019
2988 Clouds 17 1003 77 10000 8.7 340 20:36 04.12.2019
2989 Clouds 16 1003 82 10000 5.7 340 20:18 04.12.2019
2990 Clouds 16 1003 82 10000 5.7 340 20:18 04.12.2019
2991 Clouds 16 1003 82 10000 5.7 340 20:18 04.12.2019
2992 Clouds 16 1003 77 10000 8.2 340 19:39 04.12.2019
2993 Clouds 16 1003 82 10000 8.2 350 19:21 04.12.2019
2994 Clouds 16 1003 82 10000 8.2 350 18:57 04.12.2019
2995 Clouds 17 1003 82 10000 8.2 350 18:39 04.12.2019
2996 Clouds 17 1003 82 10000 7.7 350 18:20 04.12.2019
2997 Clouds 16 1002 82 10000 9.8 360 17:40 04.12.2019
2998 Clear 16 1003 82 10000 9.8 360 17:22 04.12.2019
2999 Clear 16 1002 82 10000 8.7 350 16:59 04.12.2019
3000 Clear 16 1002 82 10000 8.7 350 16:40 04.12.2019
3001 Clear 16 1002 82 10000 8.7 350 16:40 04.12.2019
3002 Clear 16 1002 82 10000 9.8 350 16:20 04.12.2019
3003 Clear 16 1002 82 10000 9.8 350 15:56 04.12.2019
3004 Clear 16 1002 82 10000 9.8 350 15:38 04.12.2019
3005 Clear 16 1002 82 10000 11.8 350 15:19 04.12.2019
3006 Clear 16 1002 82 10000 12.3 350 14:44 04.12.2019
3007 Clear 16 1002 82 10000 12.3 350 14:24 04.12.2019
3008 Clouds 16 1002 82 10000 11.3 340 13:59 04.12.2019
3009 Clouds 16 1002 82 10000 11.3 340 13:38 04.12.2019
3010 Clouds 16 1003 82 10000 9.3 350 13:20 04.12.2019
3011 Clouds 16 1003 82 10000 8.7 350 12:45 04.12.2019
3012 Clouds 16 1003 82 10000 10.8 350 12:25 04.12.2019
3013 Clouds 16 1004 82 10000 9.3 360 11:58 04.12.2019
3014 Clouds 16 1004 82 10000 9.3 360 11:39 04.12.2019
3015 Clouds 16 1004 77 10000 7.2 350 11:21 04.12.2019
3016 Clouds 16 1004 77 10000 7.2 350 11:21 04.12.2019
3017 Clouds 16 1004 82 10000 8.7 340 10:44 04.12.2019
3018 Clouds 16 1004 82 10000 8.7 340 10:44 04.12.2019
3019 Clouds 16 1004 82 10000 8.7 340 10:24 04.12.2019
3020 Clouds 16 1004 82 10000 8.7 340 10:24 04.12.2019
3021 Clouds 16 1003 82 10000 10.3 340 09:57 04.12.2019
3022 Clouds 16 1003 82 10000 10.3 340 09:39 04.12.2019
3023 Clouds 16 1003 82 10000 11.3 340 09:20 04.12.2019
3024 Clouds 16 1003 82 10000 10.8 330 08:41 04.12.2019
3025 Clouds 17 1003 77 10000 11.8 340 08:23 04.12.2019
3026 Clouds 17 1003 77 10000 11.8 340 07:50 04.12.2019
3027 Clouds 17 1003 77 10000 10.8 340 07:30 04.12.2019
3028 Clouds 17 1002 72 10000 10.3 340 06:47 04.12.2019
3029 Clouds 17 1003 72 10000 10.3 340 06:25 04.12.2019
3030 Clouds 17 1003 68 10000 10.8 330 05:42 04.12.2019
3031 Clear 18 1004 68 10000 11.8 350 04:31 04.12.2019
3032 Clear 18 1004 56 10000 12.3 340 03:20 04.12.2019
3033 Clear 18 1005 68 10000 10.3 350 01:21 04.12.2019
3034 Clear 18 1005 72 10000 9.8 350 00:40 04.12.2019
3035 Clear 18 1005 68 10000 10.3 340 00:18 04.12.2019
3036 Clear 18 1005 68 10000 11.3 340 23:41 03.12.2019
3037 Clear 18 1005 68 10000 10.3 350 23:19 03.12.2019
3038 Clear 18 1005 72 10000 10.8 350 22:54 03.12.2019
3039 Clear 17 1005 72 10000 10.8 350 22:36 03.12.2019
3040 Clear 18 1005 68 10000 10.3 350 22:18 03.12.2019
3041 Clear 17 1005 68 10000 10.3 350 21:39 03.12.2019
3042 Clear 17 1005 68 10000 10.3 350 21:39 03.12.2019
3043 Clear 17 1005 77 10000 11.8 340 21:19 03.12.2019
3044 Clear 17 1005 77 10000 8.7 350 20:58 03.12.2019
3045 Clear 17 1005 77 10000 8.7 350 20:40 03.12.2019
3046 Clear 16 1005 72 10000 8.7 340 20:19 03.12.2019
3047 Clear 15 1005 77 10000 8.2 340 19:56 03.12.2019
3048 Clear 15 1005 77 10000 8.2 340 19:37 03.12.2019
3049 Clear 15 1005 82 10000 9.8 340 19:19 03.12.2019
3050 Clear 15 1005 77 10000 8.7 340 18:57 03.12.2019
3051 Clear 15 1005 77 10000 8.7 340 18:57 03.12.2019
3052 Clear 15 1005 77 10000 8.7 340 18:57 03.12.2019
3053 Clear 15 1005 77 10000 8.7 340 18:39 03.12.2019
3054 Clear 15 1005 77 10000 9.3 340 18:21 03.12.2019
3055 Clear 15 1005 77 10000 9.3 340 18:21 03.12.2019
3056 Clear 15 1004 77 10000 8.7 340 17:57 03.12.2019
3057 Clear 15 1004 77 10000 8.7 340 17:38 03.12.2019
3058 Clear 15 1004 77 10000 8.7 340 17:38 03.12.2019
3059 Clear 15 1004 77 10000 8.2 350 17:18 03.12.2019
3060 Clear 15 1004 77 10000 7.2 340 16:57 03.12.2019
3061 Clear 15 1004 77 10000 7.2 340 16:38 03.12.2019
3062 Clear 15 1004 77 10000 7.7 330 16:20 03.12.2019
3063 Clear 15 1004 82 10000 7.7 340 15:56 03.12.2019
3064 Clear 15 1004 82 10000 7.7 340 15:38 03.12.2019
3065 Clear 15 1004 77 10000 7.2 330 15:18 03.12.2019
3066 Clear 15 1003 77 10000 8.7 330 14:42 03.12.2019
3067 Clear 16 1003 77 10000 8.2 340 14:20 03.12.2019
3068 Clear 16 1003 77 10000 9.3 330 13:56 03.12.2019
3069 Clear 16 1003 77 10000 9.3 330 13:37 03.12.2019
3070 Clear 16 1003 77 10000 8.7 330 13:18 03.12.2019
3071 Clear 15 1003 82 10000 9.3 340 12:41 03.12.2019
3072 Clear 15 1002 82 10000 10.3 330 12:19 03.12.2019
3073 Clear 16 1002 72 10000 8.7 340 11:58 03.12.2019
3074 Clear 16 1002 72 10000 8.7 340 11:39 03.12.2019
3075 Clear 16 1002 77 10000 11.3 340 11:21 03.12.2019
3076 Clear 16 1002 77 10000 10.3 340 10:58 03.12.2019
3077 Clear 16 1002 77 10000 10.3 340 10:40 03.12.2019
3078 Clear 16 1001 77 10000 12.3 330 10:19 03.12.2019
3079 Clear 16 1000 77 10000 10.3 340 09:46 03.12.2019
3080 Clear 16 999 72 10000 10.3 330 09:25 03.12.2019
3081 Clear 16 999 77 10000 11.3 330 08:59 03.12.2019
3082 Clear 16 999 77 10000 11.3 330 08:40 03.12.2019
3083 Clouds 16 998 77 10000 8.7 340 08:21 03.12.2019
3084 Clouds 17 997 72 10000 9.3 330 07:53 03.12.2019
3085 Clouds 17 997 72 10000 9.8 330 07:30 03.12.2019
3086 Clouds 17 997 72 10000 9.8 330 07:30 03.12.2019
3087 Clouds 17 997 77 10000 11.8 340 06:59 03.12.2019
3088 Clouds 17 996 77 10000 12.9 340 06:21 03.12.2019
3089 Clouds 17 996 72 10000 13.9 340 05:56 03.12.2019
3090 Rain 16 997 82 10000 8.7 340 04:48 03.12.2019
3091 Drizzle 16 996 88 9000 11.8 330 03:23 03.12.2019
3092 Rain 16 995 82 8000 14.4 340 02:58 03.12.2019
3093 Rain 16 995 82 8000 14.4 340 02:40 03.12.2019
3094 Rain 17 995 88 9000 17.5 340 02:21 03.12.2019
3095 Rain 17 994 82 7000 15.9 340 01:41 03.12.2019
3096 Rain 17 994 88 8000 18.5 350 01:21 03.12.2019
3097 Rain 17 994 93 1900 16.5 360 00:43 03.12.2019
3098 Rain 18 994 77 5000 18 350 00:25 03.12.2019
3099 Rain 20 994 64 10000 17 350 23:44 02.12.2019
3100 Rain 20 996 64 10000 17.5 350 23:23 02.12.2019
3101 Clouds 20 996 68 10000 17 350 22:59 02.12.2019
3102 Clouds 20 996 68 10000 17 350 22:39 02.12.2019
3103 Clouds 19 997 72 10000 16.5 360 22:21 02.12.2019
3104 Clouds 19 997 72 10000 15.4 360 21:57 02.12.2019
3105 Clouds 19 997 72 10000 15.4 360 21:36 02.12.2019
3106 Clouds 19 998 72 10000 14.4 360 21:18 02.12.2019
3107 Clouds 19 998 77 10000 14.4 360 20:55 02.12.2019
3108 Clouds 19 998 77 10000 14.4 360 20:55 02.12.2019
3109 Clouds 19 998 77 10000 14.4 360 20:37 02.12.2019
3110 Clouds 19 998 77 10000 14.4 360 20:37 02.12.2019
3111 Clouds 18 998 77 10000 14.9 360 20:18 02.12.2019
3112 Clouds 18 999 77 10000 14.4 360 19:42 02.12.2019
3113 Clouds 18 999 77 10000 14.9 360 19:21 02.12.2019
3114 Clouds 18 999 77 10000 14.4 360 18:56 02.12.2019
3115 Clouds 18 999 77 10000 14.4 360 18:37 02.12.2019
3116 Clouds 18 1000 77 10000 13.9 360 18:18 02.12.2019
3117 -273 0 0 0 0 0 17:57 02.12.2019
3118 Clouds 18 1000 72 10000 12.3 360 17:38 02.12.2019
3119 Clouds 18 1000 77 10000 12.3 360 17:19 02.12.2019
3120 Clouds 18 1001 72 10000 11.8 360 16:40 02.12.2019
3121 Clouds 18 1002 72 10000 11.3 360 16:19 02.12.2019
3122 Clouds 18 1002 77 10000 11.8 360 15:58 02.12.2019
3123 Clouds 18 1002 77 10000 11.8 360 15:39 02.12.2019
3124 Clouds 18 1002 82 10000 9.3 360 15:21 02.12.2019
3125 -273 0 0 0 0 0 14:56 02.12.2019
3126 Clouds 18 1002 72 10000 11.8 360 14:37 02.12.2019
3127 Clouds 18 1003 77 10000 11.3 350 14:19 02.12.2019
3128 Clouds 19 1003 68 10000 11.8 350 13:56 02.12.2019
3129 Clouds 19 1003 68 10000 11.8 350 13:38 02.12.2019
3130 Clouds 19 1003 68 10000 12.9 350 13:19 02.12.2019
3131 Clouds 19 1004 68 10000 12.3 350 12:42 02.12.2019
3132 Clouds 18 1004 72 10000 10.8 350 12:21 02.12.2019
3133 Clouds 18 1005 60 10000 10.3 350 11:58 02.12.2019
3134 Clouds 18 1005 60 10000 10.3 350 11:38 02.12.2019
3135 Clouds 18 1005 56 10000 11.3 340 11:20 02.12.2019
3136 Clouds 18 1005 60 10000 10.8 340 10:58 02.12.2019
3137 Clouds 18 1005 60 10000 10.8 340 10:40 02.12.2019
3138 Clouds 18 1006 63 10000 9.8 350 10:21 02.12.2019
3139 Clouds 18 1006 68 10000 9.3 360 09:56 02.12.2019
3140 Clouds 18 1006 68 10000 9.3 360 09:38 02.12.2019
3141 Rain 18 1006 72 10000 10.3 360 09:18 02.12.2019
3142 Rain 18 1006 72 10000 9.8 360 08:55 02.12.2019
3143 Rain 18 1006 72 10000 9.8 360 08:36 02.12.2019
3144 Clouds 18 1006 72 10000 11.3 360 08:18 02.12.2019
3145 Clouds 18 1006 77 10000 11.8 360 07:38 02.12.2019
3146 Rain 18 1006 82 10000 11.3 350 07:20 02.12.2019
3147 Rain 18 1006 88 10000 10.8 360 06:42 02.12.2019
3148 Rain 18 1007 82 10000 8.7 350 05:45 02.12.2019
3149 Drizzle 18 1007 77 10000 8.2 340 05:19 02.12.2019
3150 Clouds 19 1008 72 10000 10.3 350 03:28 02.12.2019
3151 Clouds 19 1008 68 10000 10.3 350 02:50 02.12.2019
3152 Clouds 19 1008 68 10000 10.8 360 01:47 02.12.2019
3153 Clouds 19 1008 68 10000 12.3 350 01:21 02.12.2019
3154 Clouds 19 1008 72 10000 10.8 350 00:37 02.12.2019
3155 Clouds 19 1008 68 10000 9.3 350 00:19 02.12.2019
3156 Clouds 18 1009 72 10000 8.7 350 23:42 01.12.2019
3157 Rain 18 1009 72 10000 10.3 350 23:21 01.12.2019
3158 Rain 18 1010 77 10000 10.3 360 22:56 01.12.2019
3159 Rain 18 1010 77 10000 10.3 360 22:38 01.12.2019
3160 Rain 17 1009 77 10000 10.3 340 22:19 01.12.2019
3161 Rain 17 1009 77 10000 10.8 340 21:56 01.12.2019
3162 Rain 17 1009 77 10000 10.8 340 21:38 01.12.2019
3163 Rain 17 1008 82 10000 11.8 340 21:20 01.12.2019
3164 Rain 17 1008 77 10000 10.3 330 20:58 01.12.2019
3165 Rain 17 1008 77 10000 10.3 330 20:39 01.12.2019
3166 Clouds 17 1005 86 0 0.45 293 20:21 01.12.2019
3167 Clouds 17 1008 77 10000 7.7 360 19:57 01.12.2019
3168 Clouds 17 1008 77 10000 7.7 360 19:39 01.12.2019
3169 Clouds 17 1008 82 10000 9.3 350 19:20 01.12.2019
3170 Clouds 17 1008 77 10000 9.8 350 18:56 01.12.2019
3171 Clouds 17 1008 77 10000 9.8 350 18:37 01.12.2019
3172 Clouds 17 1008 77 10000 11.3 340 18:18 01.12.2019
3173 Clouds 17 1008 77 10000 9.3 340 17:56 01.12.2019
3174 Clouds 17 1008 77 10000 9.3 340 17:38 01.12.2019
3175 Clouds 17 1008 77 10000 10.8 340 17:20 01.12.2019
3176 Clouds 17 1008 88 10000 11.8 340 16:45 01.12.2019
3177 Clouds 16 1008 88 10000 10.3 340 16:25 01.12.2019
3178 Rain 16 1008 88 10000 10.3 350 15:58 01.12.2019
3179 Rain 16 1008 88 10000 10.3 350 15:58 01.12.2019
3180 Rain 16 1008 88 10000 10.3 350 15:40 01.12.2019
3181 Rain 16 1008 88 10000 10.3 350 15:40 01.12.2019
3182 Drizzle 16 1008 88 4100 11.3 340 15:22 01.12.2019
3183 Drizzle 16 1008 88 4100 11.3 340 15:22 01.12.2019
3184 Drizzle 16 1008 88 4100 11.3 340 15:22 01.12.2019
3185 Clouds 17 1008 82 10000 9.3 350 14:38 01.12.2019
3186 Clouds 17 1008 88 10000 10.8 340 14:19 01.12.2019
3187 Clouds 16 1007 88 10000 11.8 340 13:40 01.12.2019
3188 Clouds 16 1007 82 10000 10.8 350 13:22 01.12.2019
3189 Clouds 17 1007 82 10000 10.3 340 12:59 01.12.2019
3190 Clouds 17 1007 82 10000 10.3 340 12:40 01.12.2019
3191 Clouds 17 1007 82 10000 10.3 340 12:40 01.12.2019
3192 Clouds 17 1007 82 10000 10.3 340 12:40 01.12.2019
3193 Clouds 17 1007 82 10000 10.3 340 12:40 01.12.2019
3194 Clouds 17 1007 82 10000 10.3 340 12:40 01.12.2019
3195 Clouds 17 1008 82 10000 11.8 330 11:54 01.12.2019
3196 Clouds 17 1008 82 10000 11.8 330 11:36 01.12.2019
3197 Clouds 17 1008 77 10000 11.8 340 11:18 01.12.2019
3198 Clouds 17 1009 77 10000 11.3 340 10:42 01.12.2019
3199 Clouds 17 1008 77 10000 9.8 340 10:20 01.12.2019
3200 Clouds 17 1008 77 10000 12.3 340 09:41 01.12.2019
3201 Clouds 17 1008 82 10000 9.8 340 09:23 01.12.2019
3202 Rain 17 1008 82 10000 11.8 340 08:57 01.12.2019
3203 Rain 17 1008 82 10000 11.8 340 08:37 01.12.2019
3204 Clouds 17 1008 77 10000 11.8 340 08:18 01.12.2019
3205 Clouds 17 1008 82 10000 10.3 350 07:47 01.12.2019
3206 Clouds 17 1008 82 10000 10.8 350 07:28 01.12.2019
3207 Clouds 17 1008 77 10000 10.8 340 06:52 01.12.2019
3208 Clouds 17 1008 77 10000 11.3 340 05:58 01.12.2019
3209 Rain 17 1008 88 3900 10.3 340 04:55 01.12.2019
3210 Rain 16 1008 88 4900 13.9 340 04:28 01.12.2019
3211 Clouds 19 1008 68 10000 9.8 340 02:45 01.12.2019
3212 Clouds 19 1009 68 10000 9.3 350 02:27 01.12.2019
3213 Clouds 19 1009 72 10000 10.3 350 01:54 01.12.2019
3214 Clouds 19 1009 72 10000 10.3 350 01:54 01.12.2019
3215 Clouds 19 1009 68 10000 10.8 350 01:30 01.12.2019
3216 Rain 19 1009 82 10000 10.3 350 00:47 01.12.2019
3217 Clouds 18 1009 82 10000 10.8 360 00:26 01.12.2019
3218 Rain 18 1010 88 6000 10.8 360 23:56 30.11.2019
3219 Rain 19 1010 88 6000 10.8 360 23:37 30.11.2019
3220 Rain 18 1010 72 10000 11.8 360 23:18 30.11.2019
3221 Clear 19 1010 72 10000 10.3 360 22:41 30.11.2019
3222 Clear 19 1011 72 10000 10.3 360 22:20 30.11.2019
3223 Clear 18 1011 77 10000 10.3 360 21:48 30.11.2019
3224 Clear 18 1011 82 10000 9.3 360 21:28 30.11.2019
3225 Clear 18 1011 88 10000 8.7 10 20:58 30.11.2019
3226 Clear 17 1011 88 10000 8.7 10 20:40 30.11.2019
3227 Clouds 17 1012 88 10000 7.2 360 20:20 30.11.2019
3228 Clouds 17 1012 88 10000 7.2 350 19:57 30.11.2019
3229 Clouds 16 1012 88 10000 7.2 350 19:39 30.11.2019
3230 Clouds 17 1012 88 10000 7.7 360 19:21 30.11.2019
3231 Clouds 17 1012 88 10000 7.2 350 18:59 30.11.2019
3232 Clouds 17 1012 88 10000 7.2 350 18:39 30.11.2019
3233 Clouds 17 1012 88 10000 6.2 350 18:21 30.11.2019
3234 Clouds 17 1012 88 10000 7.2 340 17:58 30.11.2019
3235 Clouds 17 1012 88 10000 7.2 340 17:40 30.11.2019
3236 Clouds 17 1012 88 10000 8.2 360 17:22 30.11.2019
3237 Clouds 17 1012 88 10000 7.2 360 16:58 30.11.2019
3238 Clouds 17 1012 88 10000 7.2 360 16:58 30.11.2019
3239 Clouds 17 1012 88 10000 7.2 360 16:40 30.11.2019
3240 Clouds 17 1013 88 10000 6.7 360 16:21 30.11.2019
3241 Clouds 17 1013 88 10000 6.7 360 16:21 30.11.2019
3242 Clouds 17 1013 82 10000 7.2 360 15:42 30.11.2019
3243 Clouds 17 1013 88 10000 7.2 10 15:20 30.11.2019
3244 Clouds 17 1013 88 10000 7.7 360 14:58 30.11.2019
3245 Clouds 17 1013 88 10000 7.7 360 14:38 30.11.2019
3246 Clouds 17 1013 88 10000 7.7 360 14:20 30.11.2019
3247 Clouds 17 1013 88 10000 7.7 10 13:58 30.11.2019
3248 -273 0 0 0 0 0 13:40 30.11.2019
3249 Clouds 17 1013 88 10000 8.7 10 13:22 30.11.2019
3250 Clouds 16 1013 82 10000 8.2 360 12:47 30.11.2019
3251 Clouds 16 1014 88 10000 6.7 10 12:29 30.11.2019
3252 Clouds 16 1014 82 10000 7.2 10 11:59 30.11.2019
3253 Clouds 16 1014 82 10000 7.2 10 11:40 30.11.2019
3254 Clouds 17 1014 82 10000 6.2 350 11:18 30.11.2019
3255 Clouds 17 1014 77 10000 5.7 340 10:45 30.11.2019
3256 Clouds 17 1014 72 10000 4.6 340 10:21 30.11.2019
3257 Clouds 17 1014 72 10000 5.1 340 09:59 30.11.2019
3258 Clouds 17 1014 72 10000 5.1 340 09:41 30.11.2019
3259 Clouds 17 1014 72 10000 5.1 360 09:20 30.11.2019
3260 Clouds 18 1014 63 10000 5.7 350 08:41 30.11.2019
3261 Clear 19 1014 59 10000 5.1 350 08:19 30.11.2019
3262 Clear 20 1014 60 10000 5.1 360 07:44 30.11.2019
3263 Clear 21 1013 53 10000 4.6 350 07:26 30.11.2019
3264 Clear 21 1013 60 10000 1.5 290 06:49 30.11.2019
3265 Clear 20 1014 72 10000 2.6 190 06:28 30.11.2019
3266 Clear 21 1015 72 10000 3.6 200 05:33 30.11.2019
3267 Clear 22 1016 77 10000 3.6 190 03:42 30.11.2019
3268 Clear 21 1016 77 10000 4.6 180 02:39 30.11.2019
3269 Clouds 21 1017 72 10000 5.1 210 02:20 30.11.2019
3270 Clouds 20 1017 72 10000 5.1 200 01:25 30.11.2019
3271 Clouds 21 1017 77 10000 4.6 190 00:48 30.11.2019
3272 Clouds 20 1018 77 10000 4.6 200 00:30 30.11.2019
3273 Clouds 19 1018 77 10000 4.6 190 23:57 29.11.2019
3274 Clouds 19 1018 77 10000 4.6 190 23:38 29.11.2019
3275 Clouds 19 1018 77 10000 4.1 190 23:18 29.11.2019
3276 Clouds 19 1019 77 10000 4.1 190 22:40 29.11.2019
3277 Clouds 19 1019 68 10000 1.5 50 22:21 29.11.2019
3278 Clouds 19 1019 68 10000 1.5 50 21:43 29.11.2019
3279 Clouds 18 1019 72 10000 1 110 21:23 29.11.2019
3280 Clouds 17 1019 77 10000 1.5 40 20:57 29.11.2019
3281 Clouds 16 1019 77 10000 1.5 40 20:38 29.11.2019
3282 Clear 15 1019 82 10000 2.6 60 20:19 29.11.2019
3283 Clouds 15 1019 82 10000 1.5 70 19:56 29.11.2019
3284 Clouds 15 1019 82 10000 1.5 70 19:38 29.11.2019
3285 Clouds 14 1019 87 10000 2.1 210 19:19 29.11.2019
3286 Clouds 13 1019 93 10000 3.6 210 18:54 29.11.2019
3287 Clouds 12 1019 93 10000 3.6 210 18:36 29.11.2019
3288 Clouds 12 1019 93 10000 4.6 200 18:18 29.11.2019
3289 Clouds 12 1019 87 10000 4.1 200 17:41 29.11.2019
3290 Clouds 12 1019 87 10000 4.1 210 17:22 29.11.2019
3291 Clouds 12 1019 87 10000 6.2 220 16:55 29.11.2019
3292 Clouds 12 1019 87 10000 6.2 220 16:37 29.11.2019
3293 Clouds 13 1019 93 10000 5.7 220 16:18 29.11.2019
3294 Clouds 13 1019 93 10000 4.6 210 15:39 29.11.2019
3295 Clouds 13 1020 93 10000 4.1 200 15:21 29.11.2019
3296 Clouds 13 1020 93 10000 5.7 190 14:42 29.11.2019
3297 Clouds 13 1020 93 10000 6.2 170 14:22 29.11.2019
3298 Clouds 13 1020 87 10000 7.2 160 13:59 29.11.2019
3299 Clouds 14 1020 87 10000 7.2 160 13:39 29.11.2019
3300 Clouds 14 1021 87 10000 7.7 180 13:20 29.11.2019
3301 Clouds 14 1021 87 10000 8.2 170 12:45 29.11.2019
3302 Clouds 14 1021 87 10000 7.2 160 12:25 29.11.2019
3303 Clouds 14 1021 87 10000 7.2 160 12:25 29.11.2019
3304 Clouds 14 1020 87 10000 7.2 160 11:59 29.11.2019
3305 Clouds 13 1020 87 10000 7.2 160 11:40 29.11.2019
3306 Clouds 14 1021 87 10000 7.2 160 11:19 29.11.2019
3307 Clouds 14 1021 87 10000 6.7 160 10:58 29.11.2019
3308 Clouds 14 1021 87 10000 6.7 160 10:39 29.11.2019
3309 Clouds 14 1021 87 10000 6.7 170 10:21 29.11.2019
3310 Clouds 14 1021 87 10000 7.2 180 09:59 29.11.2019
3311 Clouds 14 1021 87 10000 7.2 180 09:40 29.11.2019
3312 Clouds 14 1020 93 10000 6.7 180 09:22 29.11.2019
3313 Clouds 14 1020 87 10000 6.7 180 08:57 29.11.2019
3314 Clouds 14 1020 87 10000 6.7 180 08:37 29.11.2019
3315 Clouds 15 1020 87 10000 6.7 180 08:19 29.11.2019
3316 Clouds 15 1020 82 10000 6.7 180 07:42 29.11.2019
3317 Clouds 16 1019 82 10000 7.7 190 07:23 29.11.2019
3318 Clouds 16 1019 82 10000 9.3 200 06:55 29.11.2019
3319 Clouds 16 1019 82 10000 9.3 200 06:36 29.11.2019
3320 Clouds 18 1019 82 10000 8.7 190 05:47 29.11.2019
3321 Clouds 18 1019 82 10000 8.7 190 05:23 29.11.2019
3322 Clouds 17 1019 77 10000 7.7 180 03:58 29.11.2019
3323 Clouds 17 1019 77 10000 7.7 180 03:58 29.11.2019
3324 Clouds 18 1019 82 10000 10.3 210 03:19 29.11.2019
3325 Clouds 20 1018 68 10000 5.7 210 02:28 29.11.2019
3326 Clear 21 1018 64 10000 3.1 20 01:50 29.11.2019
3327 Clear 22 1018 60 10000 3.1 340 01:24 29.11.2019
3328 Clear 22 1018 60 10000 4.1 360 00:42 29.11.2019
3329 Clear 22 1017 64 10000 6.2 10 00:20 29.11.2019
3330 Clear 22 1017 68 10000 6.2 10 23:44 28.11.2019
3331 Clear 22 1017 68 10000 6.2 10 23:44 28.11.2019
3332 Clear 20 1017 72 10000 8.7 360 23:21 28.11.2019
3333 Clear 20 1016 72 10000 8.7 10 22:58 28.11.2019
3334 Clear 20 1016 72 10000 8.7 10 22:38 28.11.2019
3335 Clear 19 1016 77 10000 9.3 360 22:20 28.11.2019
3336 Clear 19 1016 77 10000 9.8 360 21:56 28.11.2019
3337 Clear 19 1016 77 10000 9.8 360 21:37 28.11.2019
3338 Clear 19 1016 77 10000 9.3 10 21:18 28.11.2019
3339 Clear 18 1016 82 10000 8.2 10 20:43 28.11.2019
3340 Clouds 17 1015 77 10000 8.2 20 20:23 28.11.2019
3341 Clouds 17 1015 82 10000 8.2 10 19:59 28.11.2019
3342 Clouds 16 1015 82 10000 8.2 10 19:40 28.11.2019
3343 Clouds 16 1015 82 10000 8.2 10 19:22 28.11.2019
3344 Clouds 16 1015 82 10000 6.2 10 18:59 28.11.2019
3345 Clouds 16 1015 82 10000 6.2 10 18:39 28.11.2019
3346 Clouds 15 1015 87 10000 7.2 20 18:18 28.11.2019
3347 Clouds 15 1014 87 10000 7.7 20 17:59 28.11.2019
3348 Clouds 15 1014 87 10000 7.7 20 17:59 28.11.2019
3349 Clouds 15 1014 87 10000 7.7 20 17:41 28.11.2019
3350 Clouds 15 1015 87 10000 7.7 10 17:21 28.11.2019
3351 Clouds 15 1014 87 10000 8.7 360 16:57 28.11.2019
3352 Clouds 15 1014 87 10000 8.7 360 16:56 28.11.2019
3353 Clouds 15 1014 87 10000 8.7 360 16:38 28.11.2019
3354 Clouds 15 1015 87 10000 7.7 360 16:18 28.11.2019
3355 Clouds 15 1015 87 10000 7.7 360 16:18 28.11.2019
3356 Clouds 15 1015 87 10000 7.2 10 15:41 28.11.2019
3357 Clouds 15 1014 87 10000 6.7 30 15:20 28.11.2019
3358 Clouds 16 1014 87 10000 7.7 30 14:59 28.11.2019
3359 Clouds 16 1014 87 10000 7.7 30 14:40 28.11.2019
3360 Clouds 16 1014 87 10000 9.8 10 14:21 28.11.2019
3361 Clouds 16 1014 87 10000 8.7 10 13:56 28.11.2019
3362 Clouds 16 1014 87 10000 8.7 10 13:38 28.11.2019
3363 Clouds 16 1014 87 10000 9.8 360 13:20 28.11.2019
3364 Clouds 16 1014 87 10000 10.8 360 12:43 28.11.2019
3365 Clouds 16 1014 87 10000 10.8 360 12:24 28.11.2019
3366 Clouds 16 1014 87 10000 11.3 10 11:58 28.11.2019
3367 Clouds 16 1014 87 10000 11.3 10 11:39 28.11.2019
3368 Clouds 16 1014 87 10000 9.8 360 11:20 28.11.2019
3369 Clouds 16 1014 82 10000 9.8 10 10:55 28.11.2019
3370 Clouds 16 1014 82 10000 9.8 10 10:37 28.11.2019
3371 Clouds 16 1014 82 10000 9.8 360 10:18 28.11.2019
3372 Clouds 16 1014 82 10000 10.3 360 09:40 28.11.2019
3373 Clouds 16 1014 88 10000 10.3 360 09:21 28.11.2019
3374 Clouds 16 1014 88 10000 10.3 360 08:55 28.11.2019
3375 Clouds 17 1014 88 10000 10.3 360 08:36 28.11.2019
3376 Clouds 17 1014 82 10000 10.3 360 08:18 28.11.2019
3377 Clouds 18 1014 82 10000 10.8 360 07:41 28.11.2019
3378 Clouds 18 1014 82 10000 11.8 360 07:23 28.11.2019
3379 Clouds 18 1014 77 10000 11.3 360 06:43 28.11.2019
3380 Clouds 19 1014 77 10000 11.8 360 06:22 28.11.2019
3381 Clouds 19 1014 72 10000 10.8 350 05:44 28.11.2019
3382 Clouds 20 1014 72 10000 10.3 360 04:57 28.11.2019
3383 Clouds 21 1015 68 10000 9.8 350 02:36 28.11.2019
3384 Clouds 20 1015 64 10000 11.8 10 01:28 28.11.2019
3385 Clouds 20 1015 68 10000 8.7 10 00:43 28.11.2019
3386 Clouds 21 1015 68 10000 8.7 360 00:20 28.11.2019
3387 Clouds 20 1015 68 10000 9.3 360 23:40 27.11.2019
3388 Clouds 19 1015 68 10000 8.2 360 23:22 27.11.2019
3389 Clouds 19 1015 68 10000 10.8 360 22:58 27.11.2019
3390 Clouds 19 1015 68 10000 10.8 360 22:38 27.11.2019
3391 Clouds 18 1015 72 10000 9.8 360 22:19 27.11.2019
3392 Clouds 18 1015 77 10000 9.8 360 21:56 27.11.2019
3393 Clouds 18 1015 77 10000 9.8 360 21:37 27.11.2019
3394 Clouds 18 1015 72 10000 9.3 350 21:19 27.11.2019
3395 Clouds 18 1015 72 10000 9.3 350 21:19 27.11.2019
3396 Clouds 17 1015 82 10000 8.7 360 20:57 27.11.2019
3397 Clouds 18 1015 82 10000 8.7 360 20:38 27.11.2019
3398 Clouds 17 1015 77 10000 11.3 360 20:19 27.11.2019
3399 Clouds 17 1015 77 10000 9.3 10 19:56 27.11.2019
3400 Clouds 16 1015 77 10000 9.3 10 19:38 27.11.2019
3401 Clouds 16 1015 77 10000 9.8 10 19:19 27.11.2019
3402 Clouds 16 1014 77 10000 8.7 350 18:58 27.11.2019
3403 Clouds 16 1014 77 10000 8.7 350 18:36 27.11.2019
3404 Clouds 16 1014 82 10000 9.3 350 18:18 27.11.2019
3405 Clouds 16 1014 82 10000 9.8 360 17:55 27.11.2019
3406 Clouds 16 1014 82 10000 9.8 360 17:37 27.11.2019
3407 Clouds 16 1014 82 10000 10.8 360 17:18 27.11.2019
3408 Clouds 16 1014 82 10000 10.8 360 17:18 27.11.2019
3409 Clouds 16 1014 77 10000 10.8 360 16:56 27.11.2019
3410 Clouds 16 1014 77 10000 10.8 360 16:36 27.11.2019
3411 Clouds 16 1014 77 10000 9.3 360 16:18 27.11.2019
3412 Clouds 16 1014 77 10000 8.7 20 15:56 27.11.2019
3413 Clouds 16 1014 77 10000 8.7 20 15:37 27.11.2019
3414 Clouds 16 1014 77 10000 9.8 10 15:19 27.11.2019
3415 Clouds 16 1014 77 10000 10.8 10 14:56 27.11.2019
3416 Clouds 16 1014 77 10000 10.8 10 14:38 27.11.2019
3417 Clouds 16 1014 77 10000 8.7 20 14:19 27.11.2019
3418 Clouds 16 1014 77 10000 8.7 20 14:19 27.11.2019
3419 Clouds 16 1014 77 10000 8.7 20 14:19 27.11.2019
3420 Clouds 16 1015 77 10000 9.8 10 13:55 27.11.2019
3421 Clouds 16 1015 77 10000 9.8 10 13:37 27.11.2019
3422 Clouds 16 1015 77 10000 10.3 30 13:18 27.11.2019
3423 Clouds 16 1015 77 10000 10.3 20 12:41 27.11.2019
3424 Clouds 15 1015 77 10000 9.3 30 12:22 27.11.2019
3425 Clouds 16 1015 77 10000 10.8 20 11:56 27.11.2019
3426 Clouds 16 1016 77 10000 8.7 20 11:36 27.11.2019
3427 Clouds 16 1016 77 10000 8.7 20 11:18 27.11.2019
3428 Clouds 16 1015 77 10000 9.8 30 10:46 27.11.2019
3429 Clouds 16 1015 77 10000 9.8 30 10:46 27.11.2019
3430 Clouds 16 1015 77 10000 10.8 20 10:24 27.11.2019
3431 Clouds 16 1015 72 10000 11.3 20 09:57 27.11.2019
3432 Clouds 16 1015 72 10000 11.3 20 09:39 27.11.2019
3433 Clouds 16 1014 77 10000 12.3 20 09:18 27.11.2019
3434 Clouds 16 1014 77 10000 12.9 10 08:42 27.11.2019
3435 Clear 16 1013 77 10000 13.9 10 08:23 27.11.2019
3436 Clear 17 1013 77 10000 13.9 10 07:48 27.11.2019
3437 Clear 17 1012 72 10000 11.8 360 07:29 27.11.2019
3438 Clear 17 1012 72 10000 12.3 330 06:55 27.11.2019
3439 Clear 17 1012 68 10000 10.8 340 06:36 27.11.2019
3440 Clear 18 1012 68 10000 13.9 360 05:49 27.11.2019
3441 Clear 18 1012 72 10000 15.9 10 05:22 27.11.2019
3442 Clear 18 1013 68 10000 12.9 360 04:49 27.11.2019
3443 Clear 18 1013 68 10000 11.8 350 04:30 27.11.2019
3444 Clear 18 1013 63 10000 12.9 350 03:41 27.11.2019
3445 Clear 18 1013 63 10000 12.9 360 03:20 27.11.2019
3446 Clear 18 1013 63 10000 14.9 360 02:28 27.11.2019
3447 Clouds 19 1014 63 10000 13.4 10 00:50 27.11.2019
3448 Clouds 18 1014 63 10000 13.4 360 00:30 27.11.2019
3449 Clouds 18 1014 72 10000 12.9 10 23:56 26.11.2019
3450 Clouds 18 1014 72 10000 12.3 10 23:38 26.11.2019
3451 Clouds 17 1014 72 10000 12.3 10 23:18 26.11.2019
3452 Clouds 17 1014 72 10000 13.9 360 22:40 26.11.2019
3453 Clouds 16 1014 72 10000 12.3 360 22:20 26.11.2019
3454 Clouds 16 1014 67 10000 13.4 360 21:59 26.11.2019
3455 Clouds 17 1014 67 10000 13.4 360 21:38 26.11.2019
3456 Clouds 16 1014 77 10000 13.4 360 21:20 26.11.2019
3457 Clouds 16 1013 72 10000 11.3 350 20:57 26.11.2019
3458 Clouds 16 1013 72 10000 11.3 350 20:37 26.11.2019
3459 Clear 15 1013 72 10000 12.9 360 20:19 26.11.2019
3460 Clear 15 1013 77 10000 11.3 350 19:55 26.11.2019
3461 Clear 15 1013 77 10000 11.3 350 19:55 26.11.2019
3462 Clear 14 1013 77 10000 11.3 350 19:37 26.11.2019
3463 Clear 14 1013 77 10000 13.9 360 19:19 26.11.2019
3464 Clear 14 1013 82 10000 12.9 360 18:57 26.11.2019
3465 Clear 14 1013 82 10000 12.9 10 18:39 26.11.2019
3466 Clear 14 1013 82 10000 12.9 10 18:20 26.11.2019
3467 Clear 14 1013 76 10000 12.9 10 17:57 26.11.2019
3468 Clear 14 1013 76 10000 11.3 10 17:39 26.11.2019
3469 Clear 14 1013 76 10000 11.3 10 17:20 26.11.2019
3470 Clear 13 1013 76 10000 11.3 10 16:57 26.11.2019
3471 Clear 14 1013 76 10000 11.3 10 16:37 26.11.2019
3472 Clear 14 1013 82 0 9.8 20 16:18 26.11.2019
3473 Clear 14 1013 82 0 9.8 20 16:18 26.11.2019
3474 Clear 14 1013 77 0 11.3 20 15:58 26.11.2019
3475 Clear 14 1013 77 0 11.3 20 15:37 26.11.2019
3476 Clear 14 1014 82 0 10.8 10 15:19 26.11.2019
3477 Clear 14 1014 77 0 9.3 20 14:46 26.11.2019
3478 Clear 14 1014 77 0 11.8 10 14:25 26.11.2019
3479 Clouds 14 1014 77 0 11.3 360 13:56 26.11.2019
3480 Clouds 14 1014 77 0 11.3 360 13:37 26.11.2019
3481 Clouds 15 1014 77 10000 11.8 360 13:18 26.11.2019
3482 Clouds 15 1014 77 10000 9.8 360 12:38 26.11.2019
3483 Clouds 15 1014 77 10000 9.8 360 12:19 26.11.2019
3484 Clouds 15 1014 72 10000 10.3 10 11:56 26.11.2019
3485 Clouds 15 1014 67 10000 10.8 360 11:38 26.11.2019
3486 Clouds 15 1014 67 10000 10.8 360 11:19 26.11.2019
3487 Clouds 15 1013 63 10000 12.3 10 10:57 26.11.2019
3488 Clouds 15 1013 63 10000 12.3 10 10:39 26.11.2019
3489 Clouds 15 1013 63 10000 12.3 10 10:39 26.11.2019
3490 Clouds 15 1013 63 10000 11.3 20 10:20 26.11.2019
3491 Clouds 16 1013 63 10000 9.8 20 09:44 26.11.2019
3492 Clouds 16 1013 63 10000 10.8 10 09:25 26.11.2019
3493 Clouds 15 1013 63 10000 11.8 360 08:59 26.11.2019
3494 Clouds 15 1013 63 10000 11.8 360 08:38 26.11.2019
3495 Clouds 17 1013 63 10000 11.3 350 08:20 26.11.2019
3496 Clouds 16 1013 59 10000 13.4 10 07:43 26.11.2019
3497 Clouds 17 1013 63 10000 12.3 10 07:24 26.11.2019
3498 Clouds 17 1013 63 10000 12.3 360 06:54 26.11.2019
3499 Clouds 17 1013 68 10000 11.8 350 06:21 26.11.2019
3500 Clouds 18 1013 59 10000 11.8 360 05:38 26.11.2019
3501 Clouds 18 1014 55 10000 10.8 10 03:43 26.11.2019
3502 Clouds 19 1014 59 10000 10.3 360 01:53 26.11.2019
3503 Clouds 19 1014 56 10000 10.3 360 01:28 26.11.2019
3504 Clouds 21 1015 56 10000 9.8 10 00:48 26.11.2019
3505 Clouds 20 1015 56 10000 8.7 10 00:21 26.11.2019
3506 Clouds 20 1015 56 10000 9.3 10 23:39 25.11.2019
3507 Clouds 19 1015 56 10000 9.3 10 23:19 25.11.2019
3508 Clouds 19 1015 56 10000 9.3 10 23:19 25.11.2019
3509 Clouds 19 1015 59 10000 8.7 10 22:55 25.11.2019
3510 Clouds 19 1015 59 10000 8.7 10 22:36 25.11.2019
3511 Clouds 19 1015 59 10000 8.2 360 22:18 25.11.2019
3512 Clouds 18 1015 63 10000 7.2 20 21:54 25.11.2019
3513 Clouds 18 1015 63 10000 7.2 20 21:36 25.11.2019
3514 Clouds 17 1015 67 10000 7.7 20 21:18 25.11.2019
3515 Clouds 16 1015 77 10000 6.7 30 20:54 25.11.2019
3516 Clouds 16 1015 77 10000 6.7 30 20:36 25.11.2019
3517 Clouds 15 1015 77 10000 7.7 30 20:18 25.11.2019
3518 Clouds 15 1015 77 10000 6.7 20 19:54 25.11.2019
3519 Clouds 14 1015 82 10000 6.2 30 19:36 25.11.2019
3520 Clouds 13 1015 82 10000 6.2 30 19:18 25.11.2019
3521 Clouds 12 1015 76 10000 6.2 20 18:54 25.11.2019
3522 Clouds 11 1015 87 10000 5.1 20 18:36 25.11.2019
3523 Clouds 11 1015 87 10000 5.1 20 18:36 25.11.2019
3524 Clouds 11 1015 87 10000 5.1 20 18:18 25.11.2019
3525 Clouds 11 1015 87 10000 6.2 20 17:54 25.11.2019
3526 Clouds 11 1015 87 10000 6.2 20 17:54 25.11.2019
3527 Clouds 11 1015 87 10000 6.2 10 17:36 25.11.2019
3528 Clouds 11 1015 87 10000 6.2 10 17:18 25.11.2019
3529 Clouds 11 1015 82 10000 5.1 20 16:41 25.11.2019
3530 Clouds 11 1016 82 10000 4.6 10 16:23 25.11.2019
3531 Clouds 12 1016 76 10000 3.1 30 15:57 25.11.2019
3532 Clouds 11 1016 76 10000 3.1 30 15:37 25.11.2019
3533 Clouds 11 1016 82 10000 3.6 40 15:19 25.11.2019
3534 Clouds 11 1016 76 10000 3.6 10 14:55 25.11.2019
3535 Clouds 11 1016 76 10000 3.6 10 14:36 25.11.2019
3536 Clear 11 1016 76 10000 3.6 10 14:18 25.11.2019
3537 Clear 11 1016 76 10000 3.6 30 13:39 25.11.2019
3538 Clear 12 1017 76 10000 2.6 10 13:20 25.11.2019
3539 Clear 12 1017 76 10000 2.1 360 12:59 25.11.2019
3540 Clear 12 1017 76 10000 2.1 360 12:40 25.11.2019
3541 Clear 12 1017 71 10000 1.5 360 12:20 25.11.2019
3542 Clear 13 1017 82 10000 1 360 11:55 25.11.2019
3543 Clear 13 1017 82 10000 1 360 11:55 25.11.2019
3544 Clear 13 1017 82 10000 1.5 340 11:37 25.11.2019
3545 Clear 13 1017 82 10000 1.5 340 11:18 25.11.2019
3546 Clear 14 1017 82 10000 0.5 120 10:41 25.11.2019
3547 Clear 14 1017 77 10000 0.5 250 10:20 25.11.2019
3548 Clear 15 1017 82 10000 1.5 70 09:45 25.11.2019
3549 Clear 16 1016 72 10000 2.1 130 09:26 25.11.2019
3550 Clear 16 1016 77 10000 2.6 170 08:59 25.11.2019
3551 Clear 17 1016 77 10000 2.6 170 08:39 25.11.2019
3552 Clear 18 1016 63 10000 2.1 170 08:20 25.11.2019
3553 Clear 18 1016 55 10000 2.1 180 07:41 25.11.2019
3554 Clear 18 1015 67 10000 2.1 180 07:20 25.11.2019
3555 Clear 19 1016 68 10000 3.1 190 06:45 25.11.2019
3556 Clear 19 1016 68 10000 3.1 180 06:19 25.11.2019
3557 Clear 18 1016 68 10000 4.6 210 05:38 25.11.2019
3558 Clear 20 1016 68 10000 4.1 200 04:50 25.11.2019
3559 Clear 20 1017 67 10000 6.7 190 02:48 25.11.2019
3560 Clear 20 1018 72 10000 8.7 210 02:18 25.11.2019
3561 Clear 19 1018 72 10000 8.2 200 01:38 25.11.2019
3562 Clear 19 1018 67 10000 7.7 180 01:19 25.11.2019
3563 Clear 19 1018 72 10000 9.8 160 00:22 25.11.2019
3564 Clear 19 1018 72 10000 8.7 170 23:57 24.11.2019
3565 Clear 19 1018 72 10000 6.7 180 23:37 24.11.2019
3566 Clear 18 1018 72 10000 6.7 180 23:18 24.11.2019
3567 Clear 17 1018 72 10000 6.7 180 22:42 24.11.2019
3568 Clear 17 1018 72 10000 6.2 180 22:21 24.11.2019
3569 Clear 16 1018 77 10000 6.7 180 21:59 24.11.2019
3570 Clear 17 1018 77 10000 6.7 180 21:41 24.11.2019
3571 Clear 16 1018 72 10000 6.7 170 21:21 24.11.2019
3572 Clear 16 1018 82 10000 6.7 180 20:59 24.11.2019
3573 Clear 16 1018 82 10000 6.7 180 20:39 24.11.2019
3574 Clouds 14 1018 82 10000 7.2 170 20:19 24.11.2019
3575 Clouds 14 1017 82 10000 7.2 170 19:57 24.11.2019
3576 Clouds 14 1017 82 10000 7.2 170 19:57 24.11.2019
3577 Clouds 13 1017 82 10000 7.2 170 19:38 24.11.2019
3578 Clouds 13 1017 82 10000 7.7 170 19:20 24.11.2019
3579 Clouds 12 1017 82 10000 6.7 170 18:59 24.11.2019
3580 Clouds 12 1016 82 10000 7.7 170 18:38 24.11.2019
3581 Clouds 12 1016 82 10000 7.7 170 18:19 24.11.2019
3582 Clouds 12 1016 82 10000 7.2 180 17:57 24.11.2019
3583 Clouds 12 1016 76 10000 6.7 180 17:39 24.11.2019
3584 Clouds 12 1012 76 0 6.34 162 17:20 24.11.2019
3585 Clouds 12 1016 82 0 6.7 180 16:57 24.11.2019
3586 Clouds 12 1016 82 0 6.7 180 16:39 24.11.2019
3587 Clouds 12 1016 82 0 6.7 180 16:39 24.11.2019
3588 Clouds 13 1016 76 0 7.2 190 16:20 24.11.2019
3589 Clouds 13 1016 76 0 7.2 190 15:45 24.11.2019
3590 Clouds 13 1016 76 0 7.7 190 15:26 24.11.2019
3591 Clouds 13 1016 76 0 8.2 190 14:59 24.11.2019
3592 Clouds 13 1016 76 0 8.2 190 14:39 24.11.2019
3593 Clouds 13 1016 76 0 8.2 190 14:19 24.11.2019
3594 Clouds 14 1016 72 0 8.7 200 13:56 24.11.2019
3595 Clouds 14 1016 72 0 8.7 200 13:37 24.11.2019
3596 Clouds 14 1016 77 10000 8.7 200 13:19 24.11.2019
3597 Clouds 14 1016 77 10000 8.7 200 12:42 24.11.2019
3598 Clouds 14 1016 77 10000 8.7 200 12:20 24.11.2019
3599 Clouds 15 1016 77 10000 7.7 200 11:59 24.11.2019
3600 Clouds 15 1016 77 10000 7.2 210 11:37 24.11.2019
3601 Clouds 15 1016 77 10000 7.2 210 11:37 24.11.2019
3602 Clear 15 1016 77 10000 7.2 210 11:19 24.11.2019
3603 Clear 15 1015 82 10000 8.7 220 10:48 24.11.2019
3604 Clear 15 1015 87 9000 6.7 230 10:29 24.11.2019
3605 Clear 16 1014 88 10000 4.6 280 09:59 24.11.2019
3606 Clear 16 1014 88 10000 4.6 280 09:38 24.11.2019
3607 Clear 16 1012 88 10000 6.7 350 09:19 24.11.2019
3608 Clear 16 1010 93 10000 8.7 360 08:56 24.11.2019
3609 Clear 16 1010 93 10000 8.7 360 08:37 24.11.2019
3610 Clouds 16 1010 88 10000 10.3 360 08:18 24.11.2019
3611 Clouds 16 1010 88 10000 8.2 10 07:47 24.11.2019
3612 Clouds 16 1009 88 10000 9.8 10 07:20 24.11.2019
3613 Clouds 16 1009 88 10000 9.8 10 07:20 24.11.2019
3614 Clouds 16 1010 82 10000 11.3 10 06:26 24.11.2019
3615 Clouds 17 1010 82 10000 11.3 10 04:54 24.11.2019
3616 Clouds 17 1010 82 10000 11.3 10 04:35 24.11.2019
3617 Clouds 17 1011 77 10000 11.8 10 02:35 24.11.2019
3618 Clear 18 1011 77 10000 11.8 10 01:49 24.11.2019
3619 Clear 18 1011 77 10000 11.3 360 01:27 24.11.2019
3620 Clear 19 1010 64 10000 11.8 350 00:50 24.11.2019
3621 Clear 19 1011 72 10000 11.8 360 00:24 24.11.2019
3622 Clear 18 1011 77 10000 12.9 360 23:56 23.11.2019
3623 Clear 18 1011 77 10000 12.9 360 23:56 23.11.2019
3624 Clear 17 1011 77 10000 12.9 360 23:38 23.11.2019
3625 Clear 17 1011 77 10000 12.9 360 23:19 23.11.2019
3626 Clear 17 1011 82 10000 11.8 360 22:55 23.11.2019
3627 Clear 17 1011 82 10000 11.8 360 22:37 23.11.2019
3628 Clear 16 1011 82 10000 10.3 360 22:18 23.11.2019
3629 Clear 16 1012 82 10000 10.3 360 21:55 23.11.2019
3630 Clear 16 1012 82 10000 10.3 360 21:36 23.11.2019
3631 Clear 16 1012 82 10000 9.8 10 21:18 23.11.2019
3632 Clear 16 1012 82 10000 9.8 360 20:38 23.11.2019
3633 Clear 15 1012 82 10000 9.3 10 20:19 23.11.2019
3634 Clear 15 1012 87 10000 8.2 20 19:56 23.11.2019
3635 Clear 15 1012 87 10000 8.2 20 19:38 23.11.2019
3636 Clear 15 1012 87 10000 9.8 10 19:18 23.11.2019
3637 Clear 15 1012 87 10000 9.8 10 19:18 23.11.2019
3638 Clear 14 1012 87 10000 10.3 10 18:55 23.11.2019
3639 Clear 14 1011 87 10000 9.8 10 18:36 23.11.2019
3640 Clear 14 1011 87 10000 9.8 10 18:18 23.11.2019
3641 Clear 14 1012 82 10000 7.2 10 17:42 23.11.2019
3642 Clouds 14 1012 82 10000 7.2 10 17:21 23.11.2019
3643 Clouds 14 1012 82 10000 5.7 10 16:56 23.11.2019
3644 Clouds 14 1012 82 10000 5.7 10 16:38 23.11.2019
3645 Clouds 14 1012 82 10000 5.7 10 16:38 23.11.2019
3646 Clouds 14 1012 87 10000 5.7 20 16:20 23.11.2019
3647 Clouds 14 1013 87 10000 5.1 10 15:58 23.11.2019
3648 Clouds 14 1013 87 10000 5.1 10 15:39 23.11.2019
3649 Clouds 14 1013 93 10000 4.1 360 15:19 23.11.2019
3650 Clouds 14 1014 93 10000 2.6 360 14:56 23.11.2019
3651 Clouds 14 1014 93 10000 2.6 360 14:56 23.11.2019
3652 Clouds 13 1014 93 10000 2.6 360 14:37 23.11.2019
3653 Clear 13 1014 93 10000 1.5 60 14:18 23.11.2019
3654 Clear 13 1014 87 10000 1 20 13:42 23.11.2019
3655 Clear 13 1015 93 10000 1.5 70 13:20 23.11.2019
3656 Clear 13 1015 87 10000 1.5 10 12:58 23.11.2019
3657 Clear 13 1015 93 10000 1 30 12:39 23.11.2019
3658 Clear 14 1015 93 10000 1 30 12:21 23.11.2019
3659 Clear 14 1016 93 10000 3.1 170 11:42 23.11.2019
3660 Clear 14 1016 93 10000 3.1 170 11:20 23.11.2019
3661 Clear 15 1016 87 10000 1 10 10:45 23.11.2019
3662 Clear 15 1015 82 10000 1 20 10:22 23.11.2019
3663 Clear 15 1015 87 10000 2.1 140 09:43 23.11.2019
3664 Clear 15 1015 82 10000 1.5 30 09:21 23.11.2019
3665 Clear 16 1015 77 10000 1.5 70 08:45 23.11.2019
3666 Clouds 17 1015 82 10000 1.5 180 08:20 23.11.2019
3667 Clear 18 1015 72 10000 2.6 230 07:54 23.11.2019
3668 Clear 18 1015 77 10000 4.1 220 07:35 23.11.2019
3669 Clear 19 1016 77 10000 6.7 220 06:48 23.11.2019
3670 Clear 20 1012 62 0 5.67 94 06:21 23.11.2019
3671 Clear 19 1016 77 10000 8.2 230 05:53 23.11.2019
3672 Clear 19 1016 72 10000 8.7 220 05:30 23.11.2019
3673 Clear 19 1016 72 10000 7.7 210 04:50 23.11.2019
3674 Clear 20 1017 77 10000 7.7 210 04:28 23.11.2019
3675 Clear 20 1017 77 10000 7.2 210 02:53 23.11.2019
3676 Clouds 20 1017 77 10000 5.7 200 02:22 23.11.2019
3677 Clouds 20 1018 82 10000 6.2 170 01:38 23.11.2019
3678 Clouds 21 1016 63 0 0.89 91 00:43 23.11.2019
3679 Clouds 20 1017 68 10000 5.1 210 00:18 23.11.2019
3680 Clouds 20 1017 68 10000 5.1 210 00:18 23.11.2019
3681 Clouds 21 1018 60 10000 2.1 20 23:42 22.11.2019
3682 Clouds 20 1018 63 10000 4.6 10 23:21 22.11.2019
3683 Clouds 19 1017 63 10000 5.7 10 22:58 22.11.2019
3684 Clouds 19 1017 63 10000 5.7 10 22:38 22.11.2019
3685 Clouds 19 1017 63 10000 5.7 10 22:38 22.11.2019
3686 Clouds 19 1017 63 10000 5.7 10 22:38 22.11.2019
3687 Clouds 18 1018 68 10000 6.7 360 22:20 22.11.2019
3688 Clouds 18 1017 68 10000 6.7 360 21:59 22.11.2019
3689 Clouds 18 1017 68 10000 6.7 360 21:39 22.11.2019
3690 Clouds 17 1017 72 10000 8.2 10 21:20 22.11.2019
3691 Clouds 16 1016 72 10000 8.7 360 20:43 22.11.2019
3692 Clouds 15 1017 72 10000 7.2 30 20:22 22.11.2019
3693 Clouds 15 1014 77 10000 9.8 360 19:57 22.11.2019
3694 Clouds 14 1014 77 10000 9.8 360 19:38 22.11.2019
3695 Clouds 15 1014 77 10000 10.3 10 19:19 22.11.2019
3696 Clouds 13 1014 82 10000 11.3 10 18:41 22.11.2019
3697 Clouds 13 1015 82 10000 10.3 350 18:22 22.11.2019
3698 Clouds 13 1015 82 10000 10.8 360 17:59 22.11.2019
3699 Clouds 13 1015 82 10000 10.8 360 17:40 22.11.2019
3700 Clouds 14 1015 82 10000 10.3 350 17:22 22.11.2019
3701 Clouds 14 1015 82 10000 10.3 360 16:47 22.11.2019
3702 Clouds 14 1015 82 10000 9.3 360 16:28 22.11.2019
3703 Clouds 14 1015 82 10000 9.8 360 15:47 22.11.2019
3704 Clouds 14 1015 82 10000 10.3 360 15:25 22.11.2019
3705 Clouds 13 1015 82 10000 9.3 360 14:57 22.11.2019
3706 Clouds 14 1015 82 10000 9.3 360 14:39 22.11.2019
3707 Clouds 14 1015 82 10000 10.8 360 14:21 22.11.2019
3708 Clouds 14 1016 82 10000 11.3 350 13:59 22.11.2019
3709 Clouds 14 1016 82 10000 11.3 350 13:59 22.11.2019
3710 Clouds 14 1016 82 10000 11.3 350 13:37 22.11.2019
3711 Clouds 14 1016 82 10000 11.3 350 13:19 22.11.2019
3712 Clouds 14 1016 82 10000 10.8 360 12:57 22.11.2019
3713 Clouds 13 1016 82 10000 10.8 360 12:39 22.11.2019
3714 Clouds 13 1015 82 10000 10.8 360 12:19 22.11.2019
3715 Clouds 13 1016 82 10000 10.8 10 11:56 22.11.2019
3716 Clouds 13 1016 82 10000 10.8 10 11:36 22.11.2019
3717 Clouds 13 1016 82 10000 10.8 360 11:18 22.11.2019
3718 Clouds 13 1016 82 10000 10.8 360 10:41 22.11.2019
3719 Clouds 14 1016 82 10000 9.3 10 10:22 22.11.2019
3720 Clouds 14 1016 77 10000 9.8 20 09:58 22.11.2019
3721 Clouds 14 1016 77 10000 9.8 20 09:39 22.11.2019
3722 Clouds 14 1016 82 10000 12.3 360 09:21 22.11.2019
3723 Clouds 14 1016 82 10000 12.3 360 08:48 22.11.2019
3724 Clouds 14 1016 82 10000 12.3 360 08:48 22.11.2019
3725 Clouds 14 1016 77 10000 11.8 10 08:28 22.11.2019
3726 Clouds 15 1016 77 10000 11.8 10 07:58 22.11.2019
3727 Clouds 15 1016 77 10000 11.8 10 07:40 22.11.2019
3728 Clouds 15 1016 72 10000 13.4 10 07:19 22.11.2019
3729 Clouds 16 1016 72 10000 13.4 360 06:41 22.11.2019
3730 Clouds 16 1016 67 10000 13.9 360 05:57 22.11.2019
3731 Clear 17 1016 67 10000 12.9 360 04:53 22.11.2019
3732 Clear 17 1017 63 10000 12.9 360 02:59 22.11.2019
3733 Clear 18 1017 63 10000 12.9 360 02:37 22.11.2019
3734 Clouds 18 1017 59 10000 13.4 10 02:18 22.11.2019
3735 Clouds 18 1016 63 10000 14.4 10 01:42 22.11.2019
3736 Clouds 18 1017 55 10000 14.9 10 01:18 22.11.2019
3737 Clouds 17 1016 55 10000 12.9 10 00:26 22.11.2019
3738 Clouds 18 1016 55 10000 12.3 10 23:57 21.11.2019
3739 Clouds 18 1016 55 10000 12.3 10 23:39 21.11.2019
3740 Clouds 18 1016 55 10000 13.4 10 23:21 21.11.2019
3741 Clouds 17 1016 59 10000 13.4 10 22:54 21.11.2019
3742 Clouds 17 1016 59 10000 13.4 10 22:36 21.11.2019
3743 Clouds 17 1016 67 10000 12.3 10 22:18 21.11.2019
3744 Clouds 16 1016 63 10000 12.3 10 21:54 21.11.2019
3745 Clouds 15 1016 63 10000 12.3 10 21:36 21.11.2019
3746 Clouds 15 1016 67 10000 10.8 10 21:18 21.11.2019
3747 Clouds 15 1016 72 10000 11.8 10 20:54 21.11.2019
3748 Clouds 15 1016 72 10000 11.8 10 20:36 21.11.2019
3749 Clouds 14 1016 77 10000 10.8 10 20:18 21.11.2019
3750 Clouds 14 1016 76 10000 10.3 10 19:41 21.11.2019
3751 Clouds 14 1016 71 10000 9.8 10 19:23 21.11.2019
3752 Clouds 13 1016 71 10000 8.2 20 18:58 21.11.2019
3753 Clouds 13 1016 71 10000 8.2 20 18:40 21.11.2019
3754 Clouds 13 1016 71 10000 8.2 20 18:20 21.11.2019
3755 Clouds 13 1015 76 10000 8.7 20 17:58 21.11.2019
3756 Clouds 13 1015 76 10000 8.7 20 17:39 21.11.2019
3757 Clouds 13 1015 82 10000 10.8 10 17:20 21.11.2019
3758 Clouds 13 1015 76 10000 9.3 10 16:56 21.11.2019
3759 Clouds 13 1015 76 10000 9.3 10 16:37 21.11.2019
3760 Clouds 13 1016 76 10000 7.2 20 16:19 21.11.2019
3761 Clouds 13 1016 76 10000 8.2 20 15:42 21.11.2019
3762 Clouds 13 1016 76 10000 7.2 20 15:21 21.11.2019
3763 Clouds 13 1016 76 10000 8.2 20 14:57 21.11.2019
3764 Clouds 13 1016 76 10000 8.2 20 14:37 21.11.2019
3765 Clouds 13 1016 76 10000 8.2 20 14:19 21.11.2019
3766 Clouds 13 1017 76 10000 7.7 20 13:56 21.11.2019
3767 Clouds 13 1017 76 10000 7.7 20 13:36 21.11.2019
3768 Clouds 12 1017 71 10000 7.7 20 13:18 21.11.2019
3769 Clouds 12 1017 71 10000 7.7 20 13:18 21.11.2019
3770 Clouds 12 1017 71 10000 7.7 20 13:18 21.11.2019
3771 Clouds 12 1018 66 10000 8.2 10 12:40 21.11.2019
3772 Clouds 12 1017 66 10000 6.7 20 12:22 21.11.2019
3773 Clouds 12 1018 66 10000 7.7 20 11:55 21.11.2019
3774 Clouds 12 1018 66 10000 7.7 20 11:37 21.11.2019
3775 Clouds 12 1018 71 10000 6.7 20 11:19 21.11.2019
3776 Clouds 13 1018 71 10000 6.7 20 10:42 21.11.2019
3777 Clouds 13 1018 71 10000 7.2 20 10:24 21.11.2019
3778 Clouds 13 1018 71 10000 6.2 20 09:58 21.11.2019
3779 Clouds 12 1018 71 10000 6.2 20 09:39 21.11.2019
3780 Clouds 13 1018 67 10000 7.7 10 09:21 21.11.2019
3781 Clouds 13 1018 67 10000 7.2 20 08:44 21.11.2019
3782 Clouds 14 1018 71 10000 9.3 10 08:24 21.11.2019
3783 Clouds 14 1017 71 10000 9.3 360 07:46 21.11.2019
3784 Clouds 15 1017 62 10000 10.3 360 07:20 21.11.2019
3785 Clouds 15 1018 62 10000 9.8 360 06:58 21.11.2019
3786 Clouds 15 1018 62 10000 9.8 360 06:37 21.11.2019
3787 Clouds 15 1018 55 10000 8.7 360 06:19 21.11.2019
3788 Clouds 17 1018 45 10000 8.2 340 03:42 21.11.2019
3789 Clouds 17 1019 39 10000 6.7 350 02:42 21.11.2019
3790 Clouds 17 1018 45 10000 6.7 360 02:24 21.11.2019
3791 Clouds 17 1019 42 10000 5.7 340 01:49 21.11.2019
3792 Clouds 17 1019 36 10000 5.1 350 01:20 21.11.2019
3793 Clouds 18 1019 48 10000 4.6 10 00:38 21.11.2019
3794 Clouds 17 1019 45 10000 5.1 360 00:20 21.11.2019
3795 Clouds 16 1019 58 10000 3.1 200 23:46 20.11.2019
3796 Clear 15 1019 58 10000 2.6 200 23:21 20.11.2019
3797 Clear 15 1020 54 10000 3.6 180 22:58 20.11.2019
3798 Clear 15 1020 54 10000 3.6 180 22:40 20.11.2019
3799 Clear 15 1019 54 10000 1.5 30 22:19 20.11.2019
3800 Clear 15 1019 58 10000 1.5 100 21:58 20.11.2019
3801 Clear 14 1019 58 10000 1.5 100 21:39 20.11.2019
3802 Clear 14 1019 62 10000 1.5 30 21:20 20.11.2019
3803 Clear 14 1019 62 10000 1.5 30 21:20 20.11.2019
3804 Clear 12 1019 76 10000 2.6 360 20:57 20.11.2019
3805 Clear 11 1019 76 10000 2.6 360 20:39 20.11.2019
3806 Clouds 11 1019 81 10000 1.5 360 20:20 20.11.2019
3807 Clouds 10 1018 81 10000 1.5 40 19:56 20.11.2019
3808 Clouds 10 1018 81 10000 1.5 40 19:37 20.11.2019
3809 -273 0 0 0 0 0 19:18 20.11.2019
3810 Clouds 8 1018 87 10000 1.5 50 18:58 20.11.2019
3811 Clouds 8 1018 87 10000 1.5 50 18:39 20.11.2019
3812 Clouds 7 1018 87 10000 1 50 18:21 20.11.2019
3813 Clouds 7 1018 87 10000 1 340 17:56 20.11.2019
3814 Clouds 8 1018 87 10000 1 340 17:38 20.11.2019
3815 Clouds 8 1017 87 10000 2.6 40 17:20 20.11.2019
3816 Clouds 8 1017 76 0 2.1 80 16:56 20.11.2019
3817 Clouds 8 1017 76 0 2.1 80 16:37 20.11.2019
3818 Clouds 8 1016 66 0 2.6 150 16:18 20.11.2019
3819 Clouds 9 1016 66 0 3.6 160 15:42 20.11.2019
3820 Clouds 9 1016 66 0 3.6 160 15:42 20.11.2019
3821 Clouds 8 1016 76 0 3.1 160 15:22 20.11.2019
3822 Clouds 8 1016 76 0 2.1 140 14:59 20.11.2019
3823 Clouds 8 1016 76 0 2.1 140 14:40 20.11.2019
3824 Rain 9 1016 81 10000 1 80 14:21 20.11.2019
3825 Rain 9 1015 76 10000 1.5 120 13:58 20.11.2019
3826 Rain 9 1015 76 10000 1.5 120 13:39 20.11.2019
3827 Rain 9 1015 76 10000 3.1 140 13:20 20.11.2019
3828 Rain 10 1015 71 10000 5.1 150 12:55 20.11.2019
3829 Rain 10 1015 71 10000 5.1 150 12:36 20.11.2019
3830 Rain 10 1015 71 10000 4.1 140 12:18 20.11.2019
3831 Rain 10 1015 71 10000 5.7 140 11:41 20.11.2019
3832 Rain 10 1015 76 10000 9.3 150 11:22 20.11.2019
3833 Rain 10 1014 81 10000 11.8 170 10:56 20.11.2019
3834 Rain 10 1014 81 10000 11.8 170 10:37 20.11.2019
3835 Rain 11 1013 87 10000 14.4 180 10:19 20.11.2019
3836 Rain 13 1012 77 10000 8.7 210 09:43 20.11.2019
3837 Rain 14 1011 77 10000 5.7 210 09:22 20.11.2019
3838 Rain 14 1010 72 10000 4.1 210 08:58 20.11.2019
3839 Rain 14 1010 72 10000 4.1 210 08:39 20.11.2019
3840 Clouds 15 1009 67 10000 3.1 230 08:20 20.11.2019
3841 Clouds 15 1008 55 10000 4.6 350 07:47 20.11.2019
3842 Clouds 16 1008 59 10000 5.1 360 07:26 20.11.2019
3843 Clouds 16 1008 59 10000 4.6 340 06:49 20.11.2019
3844 Clouds 16 1008 59 10000 5.1 330 06:22 20.11.2019
3845 Clouds 16 1007 59 10000 7.7 360 05:42 20.11.2019
3846 Clouds 17 1007 67 10000 4.6 180 03:45 20.11.2019
3847 Clear 18 1007 67 10000 6.7 170 02:22 20.11.2019
3848 Clear 17 1007 72 10000 5.7 160 01:33 20.11.2019
3849 Clear 17 1007 82 10000 4.6 160 00:42 20.11.2019
3850 Clear 17 1007 77 10000 5.1 170 23:59 19.11.2019
3851 Clear 17 1006 72 10000 5.1 320 23:27 19.11.2019
3852 Clear 18 1005 68 10000 6.2 350 22:59 19.11.2019
3853 Clear 17 1005 68 10000 6.2 350 22:41 19.11.2019
3854 Clear 16 1005 72 10000 7.7 360 22:19 19.11.2019
3855 Clear 17 1005 67 10000 4.6 340 21:57 19.11.2019
3856 Clear 16 1005 67 10000 4.6 340 21:38 19.11.2019
3857 Clear 16 1005 72 10000 7.2 330 21:20 19.11.2019
3858 Clear 15 1004 67 10000 5.7 330 20:56 19.11.2019
3859 Clear 15 1004 67 10000 5.7 330 20:56 19.11.2019
3860 Clear 15 1004 67 10000 5.7 330 20:56 19.11.2019
3861 Clear 15 1004 67 10000 5.7 330 20:38 19.11.2019
3862 Clouds 15 1004 72 10000 5.7 340 20:20 19.11.2019
3863 Clouds 14 1004 72 10000 5.7 340 19:57 19.11.2019
3864 Clouds 14 1004 72 10000 5.7 340 19:57 19.11.2019
3865 Clouds 14 1004 72 10000 5.7 340 19:39 19.11.2019
3866 Clouds 13 1003 82 10000 5.1 330 19:19 19.11.2019
3867 Clouds 13 1003 82 10000 5.7 340 18:55 19.11.2019
3868 Clouds 13 1003 82 10000 5.7 340 18:36 19.11.2019
3869 Clouds 13 1003 82 10000 5.1 350 18:18 19.11.2019
3870 Clouds 13 1003 82 10000 5.1 340 17:55 19.11.2019
3871 Clouds 13 1003 82 10000 5.1 340 17:37 19.11.2019
3872 Clouds 13 1003 82 10000 5.1 340 17:37 19.11.2019
3873 Clouds 13 1002 87 10000 6.7 340 17:18 19.11.2019
3874 Clouds 13 1002 87 10000 8.7 340 16:43 19.11.2019
3875 Clouds 13 1002 87 10000 9.3 340 16:24 19.11.2019
3876 Drizzle 13 1002 93 9000 10.8 350 15:59 19.11.2019
3877 Drizzle 13 1002 93 9000 10.8 350 15:39 19.11.2019
3878 Rain 13 1003 100 3600 11.3 360 15:21 19.11.2019
3879 Rain 13 1003 87 6000 12.3 360 14:56 19.11.2019
3880 Rain 13 1003 87 6000 12.3 360 14:56 19.11.2019
3881 Rain 13 1003 87 6000 12.3 360 14:37 19.11.2019
3882 Rain 13 1003 93 4200 11.8 350 14:19 19.11.2019
3883 Drizzle 13 1003 87 9000 10.8 350 13:40 19.11.2019
3884 Drizzle 13 1004 82 10000 10.8 350 13:19 19.11.2019
3885 Rain 13 1004 82 10000 12.3 350 12:41 19.11.2019
3886 Rain 13 1005 82 9000 11.8 360 12:23 19.11.2019
3887 Rain 13 1005 82 9000 11.8 360 12:23 19.11.2019
3888 Rain 13 1005 82 10000 11.3 350 11:58 19.11.2019
3889 Rain 13 1005 82 10000 11.3 350 11:38 19.11.2019
3890 Drizzle 13 1005 82 8000 11.3 340 11:19 19.11.2019
3891 Clouds 14 1005 76 10000 11.3 350 10:48 19.11.2019
3892 Clouds 14 1006 76 10000 9.8 340 10:23 19.11.2019
3893 Clouds 13 1006 76 10000 10.3 340 09:59 19.11.2019
3894 Clouds 13 1006 76 10000 10.3 340 09:41 19.11.2019
3895 Clouds 13 1005 76 10000 10.8 350 09:19 19.11.2019
3896 Clouds 14 1005 76 10000 8.7 350 08:41 19.11.2019
3897 Clouds 14 1005 76 10000 10.8 350 08:23 19.11.2019
3898 Clouds 14 1004 76 10000 10.3 340 07:59 19.11.2019
3899 Clouds 14 1004 76 10000 10.3 340 07:41 19.11.2019
3900 Clouds 14 1004 72 10000 10.3 350 07:22 19.11.2019
3901 Clouds 14 1004 67 10000 12.3 340 06:52 19.11.2019
3902 Clouds 14 1004 67 10000 11.8 340 06:33 19.11.2019
3903 Clouds 14 1005 67 10000 10.3 340 05:40 19.11.2019
3904 Clouds 15 1006 58 10000 13.4 350 04:24 19.11.2019
3905 Clouds 14 1006 58 10000 14.4 350 03:34 19.11.2019
3906 Clouds 15 1007 62 10000 12.9 350 02:57 19.11.2019
3907 Clouds 15 1006 62 10000 12.3 350 02:31 19.11.2019
3908 Clear 15 1007 55 10000 11.3 350 01:41 19.11.2019
3909 Clear 15 1007 59 10000 11.8 360 00:22 19.11.2019
3910 Clear 15 1007 55 10000 10.3 360 23:57 18.11.2019
3911 Clear 15 1007 55 10000 10.3 360 23:37 18.11.2019
3912 Clear 15 1008 51 10000 8.7 350 23:18 18.11.2019
3913 Clear 14 1008 54 10000 9.8 350 22:44 18.11.2019
3914 Clear 14 1007 58 10000 10.3 360 22:23 18.11.2019
3915 Clear 14 1008 58 10000 11.3 360 21:56 18.11.2019
3916 Clear 14 1008 58 10000 11.3 360 21:37 18.11.2019
3917 Clear 14 1008 58 10000 10.8 360 21:19 18.11.2019
3918 Clear 14 1008 58 10000 8.2 350 20:56 18.11.2019
3919 Clear 14 1008 58 10000 8.2 350 20:38 18.11.2019
3920 Clouds 12 1008 62 10000 8.7 360 20:18 18.11.2019
3921 Clouds 12 1008 58 10000 7.7 350 19:55 18.11.2019
3922 Clouds 12 1008 58 10000 7.7 350 19:37 18.11.2019
3923 Clouds 11 1008 62 10000 5.7 350 19:18 18.11.2019
3924 Clouds 11 1008 62 10000 5.7 350 19:18 18.11.2019
3925 -273 0 0 0 0 0 18:54 18.11.2019
3926 Clouds 11 1008 62 10000 6.7 340 18:54 18.11.2019
3927 Clouds 11 1008 62 10000 6.7 340 18:36 18.11.2019
3928 Clouds 11 1008 62 10000 6.7 340 18:36 18.11.2019
3929 Clouds 11 1008 62 10000 6.7 350 18:18 18.11.2019
3930 Clouds 11 1008 58 10000 7.2 350 17:39 18.11.2019
3931 Clouds 11 1008 58 10000 6.7 350 17:20 18.11.2019
3932 Clouds 11 1008 58 10000 6.2 360 16:55 18.11.2019
3933 Clouds 11 1008 58 10000 6.2 360 16:36 18.11.2019
3934 Clouds 11 1008 54 10000 5.1 340 16:18 18.11.2019
3935 Clouds 11 1008 58 10000 4.1 10 15:55 18.11.2019
3936 Clouds 11 1008 58 10000 4.1 10 15:36 18.11.2019
3937 Clouds 10 1008 70 10000 2.6 20 15:18 18.11.2019
3938 Clouds 10 1008 70 10000 2.6 20 15:18 18.11.2019
3939 Clouds 11 1008 61 10000 2.1 360 14:41 18.11.2019
3940 Clear 10 1008 66 10000 2.6 350 14:23 18.11.2019
3941 -273 0 0 0 0 0 13:55 18.11.2019
3942 Clear 10 1008 57 10000 2.6 350 13:54 18.11.2019
3943 Clear 10 1008 57 10000 2.6 350 13:36 18.11.2019
3944 Clear 10 1008 53 10000 2.6 30 13:18 18.11.2019
3945 Clear 10 1008 54 10000 2.6 330 12:38 18.11.2019
3946 Clear 10 1008 57 10000 2.6 340 12:19 18.11.2019
3947 Clear 11 1008 62 10000 1.5 350 11:44 18.11.2019
3948 Clear 11 1008 62 10000 2.1 10 11:25 18.11.2019
3949 Clear 12 1008 54 10000 2.1 330 10:56 18.11.2019
3950 Clear 12 1008 54 10000 2.1 330 10:38 18.11.2019
3951 Clear 13 1008 62 10000 2.6 330 10:18 18.11.2019
3952 Clear 12 1007 54 10000 3.1 320 09:54 18.11.2019
3953 Clear 12 1007 54 10000 3.1 320 09:36 18.11.2019
3954 Clear 12 1007 58 10000 2.6 10 09:18 18.11.2019
3955 Clear 13 1006 54 10000 2.6 330 08:43 18.11.2019
3956 Clouds 13 1006 62 10000 4.1 340 08:20 18.11.2019
3957 Clouds 13 1006 58 10000 6.2 320 07:48 18.11.2019
3958 Clouds 13 1006 58 10000 6.2 320 07:48 18.11.2019
3959 Clouds 14 1005 54 10000 7.2 320 07:29 18.11.2019
3960 Clouds 14 1005 59 10000 5.7 320 06:56 18.11.2019
3961 Clouds 15 1004 59 10000 7.7 330 06:32 18.11.2019
3962 Clouds 15 1004 67 10000 8.2 340 05:48 18.11.2019
3963 Clouds 14 1005 72 10000 8.2 330 04:46 18.11.2019
3964 Rain 13 1005 82 10000 7.2 340 01:56 18.11.2019
3965 Rain 13 1006 82 10000 8.2 330 01:31 18.11.2019
3966 Rain 13 1006 82 10000 7.7 330 00:24 18.11.2019
3967 Rain 12 1005 87 7000 8.7 320 23:44 17.11.2019
3968 Rain 13 1005 72 10000 10.8 320 23:24 17.11.2019
3969 Clouds 14 1001 79 0 1.34 69 22:58 17.11.2019
3970 Clouds 14 1004 87 0 0.89 15 22:40 17.11.2019
3971 Clouds 14 1001 78 0 1.34 145 22:22 17.11.2019
3972 Clouds 14 1005 67 10000 8.7 340 21:58 17.11.2019
3973 Clouds 14 1005 67 10000 8.7 340 21:40 17.11.2019
3974 Clouds 14 1005 67 10000 9.8 340 21:19 17.11.2019
3975 Clouds 14 1005 62 10000 10.3 340 20:56 17.11.2019
3976 Clouds 15 1005 62 10000 10.3 340 20:38 17.11.2019
3977 Clouds 15 1005 62 10000 10.3 340 20:38 17.11.2019
3978 Clouds 14 1005 62 10000 8.2 330 20:19 17.11.2019
3979 Clouds 14 1004 62 10000 8.2 340 19:56 17.11.2019
3980 Clouds 14 1004 62 10000 8.2 340 19:56 17.11.2019
3981 Clouds 14 1004 62 10000 8.2 340 19:37 17.11.2019
3982 Clouds 14 1004 62 10000 8.2 340 19:37 17.11.2019
3983 Clouds 14 1004 67 10000 9.8 340 19:19 17.11.2019
3984 Clouds 14 1004 72 10000 7.7 350 18:55 17.11.2019
3985 Clouds 14 1004 72 10000 7.7 350 18:37 17.11.2019
3986 Clouds 13 1004 72 10000 7.2 360 18:18 17.11.2019
3987 Clouds 14 1004 76 10000 6.7 360 17:57 17.11.2019
3988 Clouds 14 1004 76 10000 6.7 360 17:38 17.11.2019
3989 Clouds 14 1004 76 10000 6.7 360 17:38 17.11.2019
3990 Clouds 14 1004 76 10000 7.2 360 17:19 17.11.2019
3991 Clouds 14 1005 77 10000 7.7 360 16:57 17.11.2019
3992 Clouds 14 1005 77 10000 7.7 360 16:38 17.11.2019
3993 Clouds 14 1005 87 10000 8.2 360 16:20 17.11.2019
3994 Clouds 14 1005 82 10000 7.7 350 15:55 17.11.2019
3995 Clouds 14 1005 82 10000 7.7 350 15:36 17.11.2019
3996 Clouds 14 1005 82 10000 7.7 350 15:18 17.11.2019
3997 Clouds 14 1005 82 10000 7.7 350 14:55 17.11.2019
3998 Clouds 14 1005 82 10000 7.7 350 14:37 17.11.2019
3999 Clouds 14 1006 87 10000 6.7 10 14:18 17.11.2019
4000 Clouds 14 1006 87 10000 6.7 360 13:41 17.11.2019
4001 Clouds 14 1006 87 10000 6.7 360 13:21 17.11.2019
4002 Clouds 15 1006 87 10000 8.2 10 12:59 17.11.2019
4003 Clouds 15 1006 87 10000 8.2 10 12:38 17.11.2019
4004 Clouds 14 1007 87 10000 8.2 20 12:19 17.11.2019
4005 Clouds 14 1007 87 10000 7.2 20 11:55 17.11.2019
4006 Clouds 15 1007 87 10000 7.2 20 11:37 17.11.2019
4007 Clouds 15 1007 87 10000 8.7 20 11:18 17.11.2019
4008 Clouds 15 1007 87 10000 8.7 10 10:41 17.11.2019
4009 Clouds 15 1007 87 10000 8.7 20 10:22 17.11.2019
4010 Clouds 15 1007 93 10000 8.7 20 09:43 17.11.2019
4011 Clouds 15 1007 93 10000 10.3 10 09:24 17.11.2019
4012 Clouds 15 1007 93 10000 10.3 10 09:24 17.11.2019
4013 Clouds 15 1007 87 10000 9.8 20 08:57 17.11.2019
4014 Clouds 15 1007 87 10000 9.8 20 08:37 17.11.2019
4015 Rain 15 1007 87 10000 8.7 10 08:18 17.11.2019
4016 Rain 15 1007 87 10000 6.7 20 07:42 17.11.2019
4017 Rain 15 1007 87 10000 6.7 20 07:42 17.11.2019
4018 Rain 15 1007 87 10000 5.1 340 07:21 17.11.2019
4019 Drizzle 15 1007 87 10000 7.7 340 06:55 17.11.2019
4020 Rain 16 1007 82 10000 8.2 340 06:30 17.11.2019
4021 Rain 16 1008 82 10000 8.7 340 05:39 17.11.2019
4022 Rain 16 1009 87 10000 9.8 360 04:20 17.11.2019
4023 Rain 16 1009 82 10000 10.3 350 03:42 17.11.2019
4024 Rain 17 1010 72 10000 9.8 360 03:23 17.11.2019
4025 Clouds 17 1010 63 10000 9.8 350 02:19 17.11.2019
4026 Clouds 17 1011 72 10000 6.7 350 01:22 17.11.2019
4027 Clouds 16 1012 77 10000 7.7 350 00:43 17.11.2019
4028 Clouds 16 1012 82 10000 7.7 350 00:21 17.11.2019
4029 Clouds 16 1012 82 10000 8.7 350 23:43 16.11.2019
4030 Clouds 16 1012 77 10000 8.7 360 23:19 16.11.2019
4031 Clouds 16 1012 77 10000 7.7 360 22:58 16.11.2019
4032 Clouds 16 1012 77 10000 7.7 360 22:40 16.11.2019
4033 Clouds 16 1011 77 10000 9.8 360 22:18 16.11.2019
4034 Clouds 16 1011 82 10000 8.7 360 21:41 16.11.2019
4035 Clouds 16 1012 67 10000 7.7 340 21:23 16.11.2019
4036 Clouds 15 1012 87 10000 8.7 360 20:58 16.11.2019
4037 Clouds 15 1012 87 10000 8.7 360 20:39 16.11.2019
4038 Clouds 15 1012 82 10000 8.7 360 20:20 16.11.2019
4039 Clouds 15 1012 77 10000 6.7 350 19:56 16.11.2019
4040 Clouds 15 1012 77 10000 6.7 350 19:38 16.11.2019
4041 Clouds 15 1012 82 10000 5.7 350 19:19 16.11.2019
4042 Clouds 15 1011 87 10000 6.2 350 18:43 16.11.2019
4043 Clouds 15 1011 87 10000 6.2 350 18:43 16.11.2019
4044 Clouds 15 1011 82 10000 8.7 360 18:25 16.11.2019
4045 Clouds 15 1011 82 10000 6.7 340 17:56 16.11.2019
4046 Clouds 15 1011 82 10000 6.7 340 17:37 16.11.2019
4047 Clear 15 1011 82 10000 6.7 330 17:18 16.11.2019
4048 Clear 15 1011 77 10000 7.2 340 16:47 16.11.2019
4049 Clear 15 1011 82 10000 7.2 330 16:28 16.11.2019
4050 Clear 16 1011 87 10000 8.7 330 15:56 16.11.2019
4051 Clear 16 1011 87 10000 8.7 330 15:38 16.11.2019
4052 Clear 16 1011 87 10000 9.8 330 15:20 16.11.2019
4053 Clear 16 1011 87 10000 7.7 340 14:41 16.11.2019
4054 Clouds 16 1011 87 10000 7.7 330 14:22 16.11.2019
4055 Clouds 16 1011 82 10000 8.2 330 13:58 16.11.2019
4056 Clouds 16 1011 82 10000 8.2 330 13:39 16.11.2019
4057 Clouds 16 1011 82 10000 8.2 330 13:39 16.11.2019
4058 Clouds 15 1011 87 10000 10.8 330 13:19 16.11.2019
4059 Clouds 15 1010 87 10000 11.3 330 12:59 16.11.2019
4060 Clouds 16 1010 87 10000 11.3 330 12:40 16.11.2019
4061 Clouds 16 1010 82 10000 10.3 340 12:20 16.11.2019
4062 Clouds 16 1010 82 10000 11.3 340 11:46 16.11.2019
4063 Clouds 16 1010 82 10000 10.3 330 11:28 16.11.2019
4064 Clear 15 1010 87 10000 10.8 340 10:58 16.11.2019
4065 Clear 16 1010 87 10000 10.8 340 10:40 16.11.2019
4066 Clear 16 1010 82 10000 9.8 340 10:21 16.11.2019
4067 Clear 16 1010 82 10000 9.8 330 09:45 16.11.2019
4068 Clear 16 1009 87 10000 8.7 330 09:22 16.11.2019
4069 Clear 16 1009 82 10000 11.3 340 08:59 16.11.2019
4070 Clear 16 1009 82 10000 11.3 340 08:40 16.11.2019
4071 Clouds 16 1009 82 10000 10.3 340 08:19 16.11.2019
4072 Clouds 16 1009 82 10000 8.7 330 07:43 16.11.2019
4073 Clouds 16 1009 82 10000 11.3 340 07:22 16.11.2019
4074 Clouds 16 1009 82 10000 8.7 330 06:56 16.11.2019
4075 Clouds 16 1009 82 10000 8.7 330 06:34 16.11.2019
4076 Clouds 16 1009 82 10000 9.3 330 05:59 16.11.2019
4077 Clouds 17 1010 72 10000 13.4 340 04:21 16.11.2019
4078 Clouds 17 1009 72 10000 12.3 350 03:26 16.11.2019
4079 Clouds 17 1010 68 10000 10.8 350 02:35 16.11.2019
4080 Clouds 17 1011 72 10000 9.3 340 01:29 16.11.2019
4081 Clouds 17 1011 77 10000 9.3 340 00:47 16.11.2019
4082 Clouds 17 1011 72 10000 10.3 340 00:27 16.11.2019
4083 Clouds 16 1011 72 10000 9.8 350 23:43 15.11.2019
4084 Clouds 16 1011 72 10000 11.8 350 23:22 15.11.2019
4085 Clouds 16 1011 77 10000 9.3 340 22:59 15.11.2019
4086 Clouds 16 1011 77 10000 9.3 340 22:39 15.11.2019
4087 Clouds 15 1011 77 10000 11.3 340 22:19 15.11.2019
4088 Clouds 16 1011 77 10000 10.3 330 21:55 15.11.2019
4089 Clouds 16 1011 77 10000 10.3 330 21:36 15.11.2019
4090 Clouds 16 1011 82 10000 11.3 340 21:18 15.11.2019
4091 Clouds 15 1011 77 10000 9.8 340 20:56 15.11.2019
4092 Clouds 15 1011 77 10000 9.8 340 20:37 15.11.2019
4093 Clouds 15 1011 77 10000 8.7 350 20:19 15.11.2019
4094 Clouds 15 1011 82 10000 10.3 10 19:56 15.11.2019
4095 Clouds 15 1011 82 10000 10.3 10 19:37 15.11.2019
4096 Clouds 15 1011 82 10000 7.7 340 19:18 15.11.2019
4097 Clouds 15 1010 82 10000 8.7 330 18:42 15.11.2019
4098 Clouds 15 1010 82 10000 9.8 350 18:24 15.11.2019
4099 Clouds 15 1010 82 10000 10.8 360 17:58 15.11.2019
4100 Clouds 15 1010 82 10000 10.8 360 17:39 15.11.2019
4101 Clouds 15 1010 82 10000 9.8 350 17:20 15.11.2019
4102 Clouds 15 1009 82 10000 8.2 340 16:54 15.11.2019
4103 Clouds 14 1009 82 10000 8.2 340 16:36 15.11.2019
4104 Clouds 14 1009 82 10000 8.7 350 16:18 15.11.2019
4105 Clouds 14 1010 82 10000 8.2 350 15:37 15.11.2019
4106 Clouds 14 1010 82 10000 8.2 350 15:37 15.11.2019
4107 Clouds 14 1009 82 10000 7.7 340 15:19 15.11.2019
4108 Clouds 14 1009 82 10000 8.2 340 14:56 15.11.2019
4109 Clouds 14 1009 82 10000 8.2 340 14:37 15.11.2019
4110 Clouds 14 1009 82 10000 8.2 340 14:18 15.11.2019
4111 Clouds 14 1010 82 10000 9.8 340 13:56 15.11.2019
4112 Clouds 14 1010 82 10000 9.8 340 13:38 15.11.2019
4113 Clouds 14 1010 82 10000 10.3 340 13:19 15.11.2019
4114 Clouds 14 1010 77 10000 8.2 350 12:56 15.11.2019
4115 Clouds 14 1010 77 10000 8.2 350 12:37 15.11.2019
4116 Clouds 14 1010 77 10000 9.3 340 12:18 15.11.2019
4117 Clouds 14 1010 82 10000 10.8 360 11:55 15.11.2019
4118 Clouds 14 1010 82 10000 10.8 360 11:37 15.11.2019
4119 Clear 14 1010 82 10000 10.3 10 11:18 15.11.2019
4120 Clear 14 1010 76 10000 9.3 360 10:39 15.11.2019
4121 Clear 14 1009 72 10000 8.7 350 10:21 15.11.2019
4122 Clear 14 1009 67 10000 8.7 360 09:56 15.11.2019
4123 Clear 14 1009 67 10000 8.7 360 09:56 15.11.2019
4124 Clear 14 1009 67 10000 8.7 360 09:38 15.11.2019
4125 Clear 15 1008 59 10000 6.7 350 09:18 15.11.2019
4126 Clear 14 1007 67 10000 9.8 10 08:42 15.11.2019
4127 Clear 15 1007 62 10000 8.7 360 08:21 15.11.2019
4128 Clear 14 1007 62 10000 9.8 360 07:45 15.11.2019
4129 Clear 15 1006 63 10000 7.7 350 07:26 15.11.2019
4130 Clear 15 1006 59 10000 8.2 350 06:36 15.11.2019
4131 Clear 16 1006 55 10000 8.7 350 05:57 15.11.2019
4132 Clear 16 1006 55 10000 8.7 350 05:57 15.11.2019
4133 Clear 16 1006 55 10000 8.7 350 05:38 15.11.2019
4134 Clear 17 1005 52 10000 7.2 320 04:54 15.11.2019
4135 Clear 18 1005 52 10000 7.2 330 03:43 15.11.2019
4136 Clear 18 1005 55 10000 7.2 350 02:34 15.11.2019
4137 Clear 18 1005 55 10000 7.2 360 01:57 15.11.2019
4138 Clouds 18 1005 52 10000 7.2 360 01:32 15.11.2019
4139 Clouds 18 1005 52 10000 7.2 360 01:32 15.11.2019
4140 Clouds 18 1005 55 10000 7.7 10 00:41 15.11.2019
4141 Clouds 18 1005 55 10000 7.7 10 00:41 15.11.2019
4142 Clouds 18 1005 52 10000 7.2 360 00:23 15.11.2019
4143 Clouds 18 1005 55 10000 7.2 10 23:46 14.11.2019
4144 Clouds 17 1004 55 10000 5.7 10 23:26 14.11.2019
4145 Clouds 17 1004 48 10000 4.6 330 22:43 14.11.2019
4146 Clouds 16 1004 55 10000 4.6 320 22:23 14.11.2019
4147 Clouds 15 1004 54 10000 4.1 330 21:59 14.11.2019
4148 Clouds 15 1004 54 10000 4.1 330 21:41 14.11.2019
4149 Clouds 15 1003 62 10000 3.1 320 21:22 14.11.2019
4150 Clouds 14 1003 67 10000 4.1 30 20:55 14.11.2019
4151 Clouds 14 1003 67 10000 4.1 30 20:37 14.11.2019
4152 Clouds 14 1003 67 10000 4.1 30 20:37 14.11.2019
4153 Clouds 13 1002 76 10000 3.6 40 20:19 14.11.2019
4154 Clouds 12 1002 81 10000 2.1 20 19:56 14.11.2019
4155 Clouds 12 1002 81 10000 2.6 340 19:37 14.11.2019
4156 Clouds 10 1002 81 10000 2.6 340 19:18 14.11.2019
4157 Clouds 10 1000 87 10000 2.1 340 18:42 14.11.2019
4158 Clouds 10 1000 87 10000 2.1 340 18:24 14.11.2019
4159 Clouds 10 1000 87 10000 2.1 340 17:58 14.11.2019
4160 Clouds 10 999 87 10000 1.5 360 17:38 14.11.2019
4161 Rain 10 999 87 10000 1.5 360 17:20 14.11.2019
4162 Rain 10 998 87 10000 2.6 320 16:58 14.11.2019
4163 Rain 10 998 87 10000 2.6 320 16:37 14.11.2019
4164 Rain 10 998 87 10000 2.6 360 16:19 14.11.2019
4165 Rain 10 997 81 10000 3.6 350 15:58 14.11.2019
4166 Rain 10 997 81 10000 3.6 350 15:38 14.11.2019
4167 Rain 10 997 81 10000 3.1 340 15:20 14.11.2019
4168 Rain 10 997 81 10000 5.1 330 14:57 14.11.2019
4169 Rain 11 997 81 10000 5.1 330 14:38 14.11.2019
4170 Rain 11 997 81 10000 5.1 330 14:38 14.11.2019
4171 Rain 11 997 76 10000 6.2 340 14:20 14.11.2019
4172 Rain 11 998 81 10000 7.2 350 13:42 14.11.2019
4173 Rain 11 998 71 10000 7.2 340 13:23 14.11.2019
4174 Clouds 11 998 71 10000 5.7 350 12:57 14.11.2019
4175 Clouds 11 998 71 10000 5.7 350 12:38 14.11.2019
4176 Clouds 11 998 71 10000 5.7 350 12:38 14.11.2019
4177 Clouds 11 998 71 10000 5.7 350 12:38 14.11.2019
4178 Clouds 11 998 71 10000 5.7 350 12:20 14.11.2019
4179 Clouds 11 998 66 10000 6.2 360 11:55 14.11.2019
4180 Clouds 11 998 66 10000 6.2 360 11:37 14.11.2019
4181 Clouds 11 997 71 10000 7.2 340 11:18 14.11.2019
4182 Drizzle 11 996 81 10000 11.3 350 10:56 14.11.2019
4183 Drizzle 11 996 81 10000 11.3 350 10:56 14.11.2019
4184 Drizzle 11 996 81 10000 11.3 350 10:37 14.11.2019
4185 Clouds 12 998 76 10000 9.3 350 10:19 14.11.2019
4186 Clouds 11 997 76 10000 9.8 350 09:41 14.11.2019
4187 Clouds 12 997 81 10000 9.3 350 09:23 14.11.2019
4188 Clouds 12 997 81 10000 9.3 350 08:56 14.11.2019
4189 Clouds 12 997 81 10000 9.3 350 08:38 14.11.2019
4190 Rain 12 996 81 8000 8.2 350 08:19 14.11.2019
4191 Rain 12 997 87 7000 10.8 330 07:40 14.11.2019
4192 Rain 15 997 77 10000 9.8 350 07:22 14.11.2019
4193 Clouds 15 997 72 10000 9.3 340 06:46 14.11.2019
4194 Clouds 16 997 67 10000 11.8 340 06:19 14.11.2019
4195 Clear 16 997 67 10000 9.8 340 05:20 14.11.2019
4196 Clear 14 996 72 0 13.55 325 04:35 14.11.2019
4197 Clear 17 998 59 10000 11.3 330 02:50 14.11.2019
4198 Clear 17 998 63 10000 11.8 330 02:29 14.11.2019
4199 Clear 17 998 63 10000 11.8 330 01:40 14.11.2019
4200 Clear 17 997 63 10000 9.3 330 00:55 14.11.2019
4201 Clear 17 997 63 10000 9.3 330 00:36 14.11.2019
4202 Clear 17 997 63 10000 10.3 330 00:18 14.11.2019
4203 Clear 17 997 59 10000 9.3 330 23:37 13.11.2019
4204 Clear 17 996 63 10000 9.3 330 23:19 13.11.2019
4205 Clear 17 996 63 10000 9.3 330 23:19 13.11.2019
4206 Clear 17 996 63 10000 8.2 330 22:41 13.11.2019
4207 Clear 15 996 67 10000 7.2 330 22:23 13.11.2019
4208 Clear 15 996 72 10000 8.7 340 21:57 13.11.2019
4209 Clear 15 996 72 10000 8.7 340 21:39 13.11.2019
4210 Clear 15 995 72 10000 9.3 350 21:20 13.11.2019
4211 Clear 14 995 77 10000 9.3 340 20:58 13.11.2019
4212 Clear 14 995 77 10000 9.3 340 20:58 13.11.2019
4213 Clear 15 995 77 10000 9.3 340 20:38 13.11.2019
4214 Rain 14 994 77 10000 11.8 350 20:19 13.11.2019
4215 Rain 14 994 82 10000 10.8 340 19:59 13.11.2019
4216 Rain 14 994 82 10000 10.8 340 19:40 13.11.2019
4217 Rain 14 995 87 10000 8.7 350 19:18 13.11.2019
4218 Rain 14 994 87 9000 13.4 350 18:55 13.11.2019
4219 Rain 14 994 87 9000 13.4 350 18:37 13.11.2019
4220 Rain 14 994 87 9000 13.4 350 18:37 13.11.2019
4221 Rain 13 994 93 3600 13.4 360 18:18 13.11.2019
4222 Rain 14 994 93 6000 13.9 360 17:56 13.11.2019
4223 Rain 14 994 93 6000 13.9 360 17:56 13.11.2019
4224 Rain 14 994 87 5000 15.9 350 17:37 13.11.2019
4225 Rain 14 994 87 5000 15.9 350 17:19 13.11.2019
4226 Drizzle 14 995 82 10000 14.9 350 16:56 13.11.2019
4227 Drizzle 14 995 82 10000 14.9 350 16:37 13.11.2019
4228 Rain 14 995 77 10000 15.9 350 16:18 13.11.2019
4229 Rain 14 996 82 10000 12.9 350 15:56 13.11.2019
4230 Clouds 14 996 82 10000 12.9 350 15:56 13.11.2019
4231 Rain 14 996 82 10000 12.9 350 15:37 13.11.2019
4232 Rain 14 997 82 10000 15.9 10 15:18 13.11.2019
4233 Rain 14 998 82 10000 14.9 360 14:41 13.11.2019
4234 Rain 14 999 82 10000 13.9 360 14:20 13.11.2019
4235 Rain 14 999 82 10000 13.9 360 14:20 13.11.2019
4236 Rain 14 1000 77 10000 11.3 360 13:38 13.11.2019
4237 Rain 14 1000 77 10000 11.3 360 13:20 13.11.2019
4238 Rain 14 1001 77 10000 11.3 360 12:58 13.11.2019
4239 Rain 15 1001 77 10000 11.3 360 12:40 13.11.2019
4240 Rain 14 1001 77 10000 12.3 350 12:21 13.11.2019
4241 Rain 15 1002 77 10000 12.9 360 11:55 13.11.2019
4242 Rain 15 1002 77 10000 12.9 360 11:36 13.11.2019
4243 Clouds 15 1002 77 10000 12.3 360 11:18 13.11.2019
4244 Clouds 14 1002 77 10000 12.9 360 10:54 13.11.2019
4245 Clouds 14 1002 77 10000 12.9 360 10:36 13.11.2019
4246 Clouds 14 1003 77 10000 12.3 360 10:18 13.11.2019
4247 Clouds 14 1003 77 10000 10.8 360 09:41 13.11.2019
4248 Clouds 14 1004 77 10000 9.3 350 09:20 13.11.2019
4249 Clouds 14 1004 77 10000 9.3 350 09:20 13.11.2019
4250 Clouds 14 1004 77 10000 11.3 350 08:41 13.11.2019
4251 Clouds 14 1003 72 10000 12.3 350 08:22 13.11.2019
4252 Clouds 14 1003 72 10000 13.4 350 07:57 13.11.2019
4253 Clouds 14 1003 72 10000 13.4 350 07:38 13.11.2019
4254 Clouds 14 1004 72 10000 12.3 350 07:18 13.11.2019
4255 Clouds 14 1004 72 10000 12.9 10 06:41 13.11.2019
4256 Clouds 14 1005 72 10000 13.4 360 06:18 13.11.2019
4257 Clouds 14 1005 72 10000 13.4 360 06:18 13.11.2019
4258 Clouds 15 1005 72 10000 12.9 360 05:46 13.11.2019
4259 Clouds 15 1006 72 10000 12.9 360 04:56 13.11.2019
4260 Clouds 15 1006 67 10000 14.4 350 03:51 13.11.2019
4261 Clouds 15 1007 62 10000 12.9 350 01:50 13.11.2019
4262 Clouds 15 1007 67 10000 13.9 360 01:25 13.11.2019
4263 Clouds 15 1007 67 10000 14.9 360 00:42 13.11.2019
4264 Clouds 15 1007 62 10000 13.4 350 23:56 12.11.2019
4265 Clouds 15 1007 62 10000 13.4 350 23:37 12.11.2019
4266 Clouds 15 1007 67 10000 13.9 350 23:18 12.11.2019
4267 Clouds 15 1007 62 10000 13.9 350 22:40 12.11.2019
4268 Clouds 14 1007 62 10000 13.4 350 22:18 12.11.2019
4269 Clouds 14 1007 62 10000 13.4 350 22:18 12.11.2019
4270 Clouds 15 1007 67 10000 12.3 350 21:56 12.11.2019
4271 Clouds 14 1007 67 10000 12.3 350 21:36 12.11.2019
4272 Clouds 14 1007 67 10000 11.8 360 21:18 12.11.2019
4273 Clouds 14 1007 71 10000 11.3 360 20:55 12.11.2019
4274 Clouds 13 1007 71 10000 11.3 360 20:36 12.11.2019
4275 Clouds 13 1007 71 10000 8.2 350 20:18 12.11.2019
4276 Clouds 13 1007 71 10000 8.2 350 20:18 12.11.2019
4277 Clouds 13 1007 82 10000 8.2 10 19:54 12.11.2019
4278 Clouds 13 1007 82 10000 8.2 10 19:54 12.11.2019
4279 Clouds 13 1007 82 10000 8.2 10 19:36 12.11.2019
4280 Clouds 13 1007 87 10000 8.7 20 19:18 12.11.2019
4281 Clouds 13 1007 82 10000 7.7 20 18:55 12.11.2019
4282 Clouds 12 1007 82 10000 7.7 20 18:36 12.11.2019
4283 Clouds 12 1007 82 10000 7.2 20 18:18 12.11.2019
4284 Clouds 12 1007 81 10000 7.2 20 17:55 12.11.2019
4285 Clouds 12 1007 81 10000 7.2 20 17:36 12.11.2019
4286 Clear 12 1007 81 10000 7.2 20 17:18 12.11.2019
4287 Clear 12 1007 81 10000 8.7 10 16:42 12.11.2019
4288 Clear 12 1007 81 10000 9.3 10 16:24 12.11.2019
4289 Clear 12 1008 81 10000 6.7 10 15:55 12.11.2019
4290 Clear 12 1008 81 10000 6.7 10 15:37 12.11.2019
4291 Clear 12 1008 76 10000 6.7 30 15:18 12.11.2019
4292 Clear 11 1008 76 10000 7.2 20 14:41 12.11.2019
4293 Clear 11 1008 81 10000 5.1 30 14:20 12.11.2019
4294 Clear 11 1008 76 10000 6.2 20 13:58 12.11.2019
4295 Clear 11 1008 76 10000 6.2 20 13:39 12.11.2019
4296 Clear 11 1009 76 10000 5.7 20 13:19 12.11.2019
4297 Clear 11 1009 76 10000 7.2 30 12:58 12.11.2019
4298 Clear 11 1009 76 10000 7.2 30 12:39 12.11.2019
4299 Clear 11 1009 76 10000 6.2 30 12:18 12.11.2019
4300 Clear 12 1009 76 10000 6.7 40 11:43 12.11.2019
4301 Clear 11 1009 76 10000 6.2 30 11:23 12.11.2019
4302 Clear 12 1008 76 10000 6.2 30 10:58 12.11.2019
4303 Clear 12 1008 76 10000 6.2 30 10:39 12.11.2019
4304 Clear 11 1008 76 10000 5.7 20 10:21 12.11.2019
4305 Clear 11 1008 76 10000 5.1 30 09:58 12.11.2019
4306 Clear 11 1008 76 10000 5.1 30 09:38 12.11.2019
4307 Clear 11 1008 76 10000 4.6 20 09:18 12.11.2019
4308 Clear 12 1008 71 10000 5.1 360 08:47 12.11.2019
4309 Clear 13 1007 58 10000 5.1 360 08:28 12.11.2019
4310 Clouds 13 1007 58 10000 5.1 360 07:42 12.11.2019
4311 Clouds 14 1007 62 10000 2.1 200 07:23 12.11.2019
4312 Clouds 14 1007 62 10000 2.1 210 06:51 12.11.2019
4313 Clouds 14 1007 58 10000 2.1 180 06:24 12.11.2019
4314 Clouds 14 1007 62 10000 2.6 190 05:52 12.11.2019
4315 Clouds 14 1007 62 10000 3.6 190 04:51 12.11.2019
4316 Clouds 14 1008 62 10000 5.1 190 03:53 12.11.2019
4317 Clouds 15 1008 62 10000 4.6 160 01:53 12.11.2019
4318 Clouds 15 1008 66 10000 4.6 180 01:26 12.11.2019
4319 Clouds 15 1008 67 10000 4.6 190 00:52 12.11.2019
4320 Clouds 15 1008 71 10000 5.1 170 00:32 12.11.2019
4321 Clouds 14 1007 71 10000 5.7 170 23:50 11.11.2019
4322 Clouds 14 1007 71 10000 5.1 170 23:26 11.11.2019
4323 Rain 14 1007 71 10000 5.7 170 22:59 11.11.2019
4324 Rain 13 1007 71 10000 5.7 170 22:38 11.11.2019
4325 Rain 13 1006 76 10000 5.1 160 22:19 11.11.2019
4326 Rain 14 1006 76 10000 5.1 160 21:58 11.11.2019
4327 Rain 13 1006 76 10000 5.1 160 21:39 11.11.2019
4328 Rain 13 1006 71 10000 5.1 160 21:20 11.11.2019
4329 Rain 13 1006 71 10000 5.1 160 21:20 11.11.2019
4330 Rain 12 1005 71 10000 7.2 160 20:55 11.11.2019
4331 Rain 12 1005 71 10000 7.2 160 20:36 11.11.2019
4332 Rain 12 1005 71 10000 4.6 170 20:18 11.11.2019
4333 Rain 11 1004 76 10000 5.1 170 19:42 11.11.2019
4334 Rain 10 1004 71 10000 5.1 160 19:19 11.11.2019
4335 Rain 10 1004 71 10000 5.1 160 18:57 11.11.2019
4336 Rain 10 1004 71 10000 5.1 160 18:57 11.11.2019
4337 Rain 9 1004 71 10000 5.1 160 18:39 11.11.2019
4338 Rain 9 1003 71 10000 5.1 160 18:20 11.11.2019
4339 Rain 9 1003 76 10000 4.1 150 17:44 11.11.2019
4340 Rain 10 1003 71 10000 4.1 150 17:25 11.11.2019
4341 Clouds 9 1002 71 10000 2.6 130 16:55 11.11.2019
4342 Clouds 10 1002 71 10000 2.6 130 16:36 11.11.2019
4343 Clouds 9 1002 81 10000 2.1 130 16:18 11.11.2019
4344 Clouds 10 1002 81 10000 0.5 130 15:41 11.11.2019
4345 Clouds 10 1002 81 10000 0.5 130 15:41 11.11.2019
4346 Clouds 10 1001 81 10000 2.6 120 15:20 11.11.2019
4347 Clouds 10 1001 71 10000 5.7 140 14:54 11.11.2019
4348 Clouds 10 1001 71 10000 5.7 140 14:54 11.11.2019
4349 Clouds 10 1001 71 10000 5.7 140 14:36 11.11.2019
4350 Rain 10 1001 76 10000 4.6 150 14:18 11.11.2019
4351 Rain 10 1002 88 0 3.72 117 13:39 11.11.2019
4352 Rain 10 1001 76 10000 5.7 150 13:21 11.11.2019
4353 Rain 10 1001 76 10000 5.7 150 12:58 11.11.2019
4354 Rain 10 1001 76 10000 5.7 150 12:58 11.11.2019
4355 Rain 10 1001 76 10000 5.7 150 12:40 11.11.2019
4356 Rain 10 1001 81 10000 5.7 150 12:22 11.11.2019
4357 Rain 10 1001 81 10000 6.2 150 11:57 11.11.2019
4358 Rain 10 1001 81 10000 6.2 150 11:38 11.11.2019
4359 Clouds 10 1001 81 10000 6.2 150 11:20 11.11.2019
4360 Rain 11 1001 87 10000 6.7 150 10:42 11.11.2019
4361 Rain 11 1000 81 10000 6.2 150 10:18 11.11.2019
4362 Clouds 11 1000 76 10000 5.7 150 09:56 11.11.2019
4363 Clouds 11 1000 76 10000 5.7 150 09:37 11.11.2019
4364 Clouds 10 998 89 0 3.33 137 09:18 11.11.2019
4365 Clouds 10 998 89 0 3.33 137 09:18 11.11.2019
4366 Clouds 11 999 76 10000 6.2 140 08:40 11.11.2019
4367 Rain 12 999 76 10000 6.2 140 08:21 11.11.2019
4368 Rain 11 998 81 10000 6.2 150 07:57 11.11.2019
4369 Rain 12 998 81 10000 6.2 150 07:37 11.11.2019
4370 Rain 12 998 81 10000 6.2 150 07:18 11.11.2019
4371 Rain 11 998 76 10000 6.2 150 06:47 11.11.2019
4372 Rain 12 997 76 10000 5.7 160 06:22 11.11.2019
4373 Rain 12 997 76 10000 5.1 150 05:51 11.11.2019
4374 Rain 13 997 71 10000 2.1 150 04:30 11.11.2019
4375 Rain 13 997 76 10000 2.6 80 03:23 11.11.2019
4376 Rain 12 997 81 10000 5.7 180 02:24 11.11.2019
4377 Rain 12 997 81 10000 5.7 180 02:24 11.11.2019
4378 Rain 11 996 81 7000 7.2 190 01:56 11.11.2019
4379 Rain 11 996 81 7000 7.2 190 01:34 11.11.2019
4380 Rain 11 996 87 7000 8.7 200 00:49 11.11.2019
4381 Rain 11 996 87 7000 8.7 200 00:49 11.11.2019
4382 Rain 10 996 87 6000 10.8 210 00:21 11.11.2019
4383 Rain 10 995 93 5000 11.8 210 23:40 10.11.2019
4384 Rain 10 995 93 5000 11.8 210 23:40 10.11.2019
4385 Rain 10 994 93 2800 13.4 210 23:20 10.11.2019
4386 Rain 10 993 87 7000 11.8 190 22:58 10.11.2019
4387 Rain 10 993 87 7000 11.8 190 22:38 10.11.2019
4388 Rain 10 992 93 4700 10.8 190 22:20 10.11.2019
4389 Rain 10 992 93 5000 8.7 190 21:58 10.11.2019
4390 Rain 10 992 93 5000 8.7 190 21:58 10.11.2019
4391 Rain 10 992 93 5000 8.7 190 21:39 10.11.2019
4392 Rain 10 992 93 7000 7.7 180 21:21 10.11.2019
4393 Rain 11 991 93 5000 8.7 190 20:56 10.11.2019
4394 Rain 11 991 93 5000 8.7 190 20:38 10.11.2019
4395 Rain 11 991 93 3700 8.7 190 20:20 10.11.2019
4396 Rain 10 991 100 3600 8.2 180 19:54 10.11.2019
4397 Rain 11 991 100 3600 8.2 180 19:36 10.11.2019
4398 Rain 11 990 100 2500 8.2 190 19:18 10.11.2019
4399 Rain 10 990 100 2500 8.2 190 18:54 10.11.2019
4400 Rain 10 990 100 2500 8.2 190 18:54 10.11.2019
4401 Rain 10 990 100 2500 8.2 190 18:54 10.11.2019
4402 Rain 10 990 100 2500 8.2 190 18:36 10.11.2019
4403 Rain 10 990 100 3700 7.2 180 18:18 10.11.2019
4404 Rain 10 990 100 3700 7.2 180 18:18 10.11.2019
4405 Rain 11 990 100 7000 7.2 180 17:55 10.11.2019
4406 Rain 11 990 100 7000 7.2 180 17:36 10.11.2019
4407 Rain 12 991 100 3200 6.2 200 17:18 10.11.2019
4408 Rain 11 991 100 2700 6.2 190 16:43 10.11.2019
4409 Rain 12 991 100 1900 5.1 180 16:25 10.11.2019
4410 Rain 12 990 100 10000 6.7 170 15:56 10.11.2019
4411 Rain 12 990 100 10000 6.7 170 15:37 10.11.2019
4412 Rain 12 991 100 6000 5.1 170 15:18 10.11.2019
4413 Rain 13 991 93 8000 6.2 170 14:56 10.11.2019
4414 Rain 14 991 93 8000 6.2 170 14:38 10.11.2019
4415 Rain 14 991 93 10000 4.1 170 14:20 10.11.2019
4416 Rain 14 992 87 10000 1.5 20 13:45 10.11.2019
4417 Rain 14 992 93 10000 3.6 350 13:22 10.11.2019
4418 Rain 14 992 93 10000 3.6 350 13:00 10.11.2019
4419 Rain 14 992 93 10000 3.6 350 12:41 10.11.2019
4420 Rain 15 993 93 6000 2.6 310 12:19 10.11.2019
4421 Rain 15 992 93 10000 1.5 360 11:55 10.11.2019
4422 Rain 15 992 93 10000 1.5 360 11:37 10.11.2019
4423 Clouds 15 992 93 10000 3.1 360 11:18 10.11.2019
4424 Clouds 15 993 93 10000 4.6 10 10:42 10.11.2019
4425 Clouds 15 993 93 10000 4.6 10 10:21 10.11.2019
4426 Clouds 15 993 93 10000 5.7 10 09:56 10.11.2019
4427 Clouds 16 993 93 10000 5.7 10 09:38 10.11.2019
4428 Clouds 16 993 93 10000 5.7 10 09:19 10.11.2019
4429 Clouds 16 993 93 10000 6.2 10 08:39 10.11.2019
4430 Rain 16 993 93 10000 6.2 10 08:20 10.11.2019
4431 Rain 16 993 88 10000 7.2 360 07:45 10.11.2019
4432 Rain 16 993 88 10000 7.2 360 07:26 10.11.2019
4433 Rain 17 993 88 10000 7.2 360 06:57 10.11.2019
4434 Rain 18 994 77 10000 8.2 10 05:55 10.11.2019
4435 Rain 18 996 88 10000 4.6 340 03:31 10.11.2019
4436 Rain 17 997 88 10000 8.7 20 02:22 10.11.2019
4437 Rain 16 997 93 10000 6.2 10 01:36 10.11.2019
4438 Rain 16 998 93 8000 7.7 40 01:18 10.11.2019
4439 Rain 15 999 93 6000 6.7 30 00:23 10.11.2019
4440 Rain 16 1000 93 10000 5.7 20 23:40 09.11.2019
4441 Rain 15 1000 100 10000 4.6 30 23:19 09.11.2019
4442 Rain 15 1001 93 7000 4.6 360 22:42 09.11.2019
4443 Rain 15 1001 93 7000 4.6 360 22:42 09.11.2019
4444 Rain 16 1001 87 4600 7.2 300 22:22 09.11.2019
4445 Rain 16 1001 77 10000 3.1 340 21:58 09.11.2019
4446 Rain 15 1001 77 10000 3.1 340 21:39 09.11.2019
4447 Rain 17 1001 77 10000 2.6 320 21:20 09.11.2019
4448 Rain 17 1001 72 10000 3.1 310 20:56 09.11.2019
4449 Rain 16 1001 72 10000 3.1 310 20:37 09.11.2019
4450 Rain 16 1001 77 10000 4.6 360 20:18 09.11.2019
4451 Rain 17 1001 77 10000 4.6 360 19:41 09.11.2019
4452 Rain 17 1002 77 10000 7.2 10 19:22 09.11.2019
4453 Rain 17 1002 77 10000 7.2 10 18:58 09.11.2019
4454 Rain 17 1002 77 10000 7.2 10 18:38 09.11.2019
4455 Clouds 17 1002 72 10000 6.7 10 18:18 09.11.2019
4456 Clouds 17 1002 68 10000 7.7 360 17:42 09.11.2019
4457 Clouds 17 1003 68 10000 8.7 350 17:23 09.11.2019
4458 Clouds 17 1003 68 10000 8.2 340 16:57 09.11.2019
4459 Clouds 17 1003 68 10000 8.2 340 16:38 09.11.2019
4460 Clouds 17 1003 72 10000 7.7 350 16:19 09.11.2019
4461 Clouds 17 1003 72 10000 10.3 350 15:42 09.11.2019
4462 Clouds 17 1004 68 10000 9.3 350 15:24 09.11.2019
4463 Clouds 17 1004 68 10000 9.3 350 15:24 09.11.2019
4464 Clouds 17 1004 72 10000 8.7 340 14:47 09.11.2019
4465 Clouds 18 1004 77 10000 9.3 340 14:24 09.11.2019
4466 Clouds 18 1004 77 10000 9.3 340 14:24 09.11.2019
4467 Clouds 18 1004 72 10000 10.3 340 13:58 09.11.2019
4468 Clouds 17 1004 72 10000 10.3 340 13:40 09.11.2019
4469 Clouds 17 1004 72 10000 10.3 340 13:40 09.11.2019
4470 Rain 17 1004 82 10000 9.3 340 13:21 09.11.2019
4471 Rain 18 1004 82 10000 9.3 340 12:59 09.11.2019
4472 Rain 17 1004 82 10000 9.3 340 12:41 09.11.2019
4473 Clouds 18 1005 68 10000 9.8 340 12:22 09.11.2019
4474 Clouds 18 1005 68 10000 9.8 350 11:55 09.11.2019
4475 Clouds 18 1005 68 10000 9.8 350 11:37 09.11.2019
4476 Clouds 18 1005 68 10000 7.7 340 11:18 09.11.2019
4477 Clouds 18 1006 72 10000 7.2 330 10:40 09.11.2019
4478 Clouds 18 1006 82 10000 8.2 330 10:19 09.11.2019
4479 Clouds 18 1006 82 10000 8.2 330 10:19 09.11.2019
4480 Clouds 17 1006 82 10000 9.8 330 09:47 09.11.2019
4481 Clouds 17 1006 82 10000 9.8 330 09:28 09.11.2019
4482 Clouds 17 1006 82 10000 9.8 330 08:59 09.11.2019
4483 Clouds 17 1006 82 10000 9.8 330 08:40 09.11.2019
4484 Clouds 18 1006 72 10000 8.7 320 08:19 09.11.2019
4485 Clouds 18 1006 72 10000 7.7 330 07:46 09.11.2019
4486 Clouds 18 1007 68 10000 8.2 340 07:23 09.11.2019
4487 Clouds 18 1007 68 10000 8.7 340 06:49 09.11.2019
4488 Clouds 18 1007 72 10000 7.7 350 06:31 09.11.2019
4489 Clouds 19 1008 72 10000 8.7 360 05:45 09.11.2019
4490 Clouds 18 1008 82 10000 9.3 360 04:58 09.11.2019
4491 Clouds 18 1008 88 10000 8.7 10 03:52 09.11.2019
4492 Clouds 18 1010 88 10000 8.7 360 02:43 09.11.2019
4493 Clouds 17 1010 88 10000 9.8 350 01:55 09.11.2019
4494 Rain 17 1011 93 4200 10.3 350 00:53 09.11.2019
4495 Drizzle 17 1011 93 3300 10.8 360 00:31 09.11.2019
4496 Drizzle 17 1011 93 3300 10.8 360 00:31 09.11.2019
4497 Drizzle 17 1011 88 4200 10.3 350 23:58 08.11.2019
4498 Drizzle 17 1011 88 4200 10.3 350 23:39 08.11.2019
4499 Rain 18 1011 72 10000 11.8 360 23:19 08.11.2019
4500 Rain 18 1011 72 10000 11.8 360 23:19 08.11.2019
4501 Clouds 18 1011 77 10000 9.3 360 22:48 08.11.2019
4502 Rain 18 1011 82 10000 9.3 10 22:22 08.11.2019
4503 Rain 18 1011 82 10000 8.2 10 21:56 08.11.2019
4504 Rain 18 1011 82 10000 8.2 10 21:38 08.11.2019
4505 Clouds 18 1012 82 10000 9.3 360 21:18 08.11.2019
4506 Clouds 17 1012 88 10000 9.3 360 20:42 08.11.2019
4507 Clouds 17 1012 88 10000 8.7 360 20:22 08.11.2019
4508 Rain 16 1012 93 10000 7.7 350 19:59 08.11.2019
4509 Rain 16 1012 93 10000 7.7 350 19:38 08.11.2019
4510 Clouds 16 1012 93 8000 8.2 360 19:18 08.11.2019
4511 Clouds 16 1012 93 8000 8.2 360 19:18 08.11.2019
4512 Clouds 16 1012 100 8000 7.7 360 18:56 08.11.2019
4513 Clouds 16 1012 100 8000 7.7 360 18:38 08.11.2019
4514 Clouds 16 1012 100 8000 7.7 360 18:38 08.11.2019
4515 Clouds 16 1012 93 10000 7.7 340 18:19 08.11.2019
4516 Clouds 16 1012 93 10000 6.7 340 17:55 08.11.2019
4517 Clouds 16 1012 93 10000 6.7 340 17:37 08.11.2019
4518 Clouds 16 1012 88 10000 5.7 340 17:19 08.11.2019
4519 Clouds 16 1012 93 10000 6.2 340 16:58 08.11.2019
4520 Clouds 16 1012 93 10000 6.2 340 16:39 08.11.2019
4521 Clouds 16 1012 93 10000 7.2 330 16:19 08.11.2019
4522 Clouds 16 1012 93 10000 7.2 330 16:19 08.11.2019
4523 Clouds 16 1013 93 10000 5.1 350 15:57 08.11.2019
4524 Clouds 16 1013 93 10000 5.1 350 15:38 08.11.2019
4525 Clouds 16 1013 93 10000 6.2 360 15:20 08.11.2019
4526 Clouds 16 1013 93 10000 6.7 350 14:55 08.11.2019
4527 Clouds 16 1013 93 10000 6.7 350 14:36 08.11.2019
4528 Clouds 16 1013 93 10000 7.7 350 14:18 08.11.2019
4529 Clouds 16 1013 93 10000 5.7 340 13:55 08.11.2019
4530 Clouds 16 1013 93 10000 5.7 340 13:36 08.11.2019
4531 Clouds 16 1013 88 10000 6.2 360 13:18 08.11.2019
4532 Clouds 16 1013 88 10000 6.7 360 12:42 08.11.2019
4533 Clouds 16 1013 88 10000 6.2 360 12:24 08.11.2019
4534 Clouds 16 1013 88 10000 6.7 10 11:57 08.11.2019
4535 Clouds 16 1013 88 10000 6.7 10 11:38 08.11.2019
4536 Clouds 16 1013 88 10000 6.7 10 11:38 08.11.2019
4537 Clouds 16 1013 93 10000 5.1 360 11:19 08.11.2019
4538 Clouds 17 1013 93 10000 6.2 350 10:56 08.11.2019
4539 Clouds 16 1013 93 10000 6.2 350 10:38 08.11.2019
4540 Clouds 17 1013 88 10000 7.2 330 10:20 08.11.2019
4541 Clouds 17 1013 88 10000 9.8 320 09:41 08.11.2019
4542 Clouds 18 1012 82 10000 9.3 330 09:20 08.11.2019
4543 Clouds 17 1012 88 10000 7.2 320 08:58 08.11.2019
4544 Clouds 17 1012 88 10000 7.2 320 08:37 08.11.2019
4545 Clouds 17 1012 93 10000 8.2 330 08:18 08.11.2019
4546 Clouds 17 1012 88 10000 8.7 330 07:40 08.11.2019
4547 Rain 17 1012 93 10000 7.2 340 07:22 08.11.2019
4548 Clouds 18 1012 88 10000 7.7 330 06:41 08.11.2019
4549 Clouds 18 1012 82 10000 9.3 340 06:21 08.11.2019
4550 Clouds 18 1012 88 10000 9.3 340 05:53 08.11.2019
4551 Clouds 18 1012 88 10000 8.2 340 05:19 08.11.2019
4552 Clouds 18 1012 88 10000 8.7 350 03:44 08.11.2019
4553 Rain 17 1013 93 8000 10.3 350 03:21 08.11.2019
4554 Clouds 18 1013 82 10000 9.8 350 02:42 08.11.2019
4555 Clouds 17 1012 88 10000 9.8 350 01:47 08.11.2019
4556 Rain 18 1012 82 10000 11.8 350 01:22 08.11.2019
4557 Rain 17 1011 82 10000 8.2 340 00:24 08.11.2019
4558 Rain 17 1012 82 10000 10.3 340 23:58 07.11.2019
4559 Rain 17 1012 82 10000 10.3 340 23:40 07.11.2019
4560 Rain 17 1011 82 10000 11.3 340 23:21 07.11.2019
4561 Rain 17 1011 82 10000 11.8 340 22:42 07.11.2019
4562 Rain 17 1011 82 10000 11.8 340 22:42 07.11.2019
4563 Rain 16 1011 82 10000 12.3 340 22:21 07.11.2019
4564 Rain 17 1011 88 10000 12.3 340 21:56 07.11.2019
4565 Rain 17 1011 88 10000 12.3 340 21:37 07.11.2019
4566 Rain 17 1011 82 10000 12.3 350 21:19 07.11.2019
4567 Rain 17 1011 82 10000 12.3 350 20:57 07.11.2019
4568 Rain 16 1011 82 10000 12.3 350 20:39 07.11.2019
4569 Rain 16 1011 88 10000 11.8 340 20:20 07.11.2019
4570 Rain 16 1011 88 10000 9.3 340 19:54 07.11.2019
4571 Rain 16 1011 88 10000 9.3 340 19:36 07.11.2019
4572 Rain 16 1010 88 10000 9.8 350 19:18 07.11.2019
4573 Rain 16 1010 88 10000 9.8 350 18:55 07.11.2019
4574 Rain 16 1010 88 10000 9.8 350 18:36 07.11.2019
4575 Rain 16 1010 88 10000 10.8 350 18:18 07.11.2019
4576 Rain 16 1010 88 10000 9.8 350 17:40 07.11.2019
4577 Rain 16 1010 88 10000 9.8 350 17:40 07.11.2019
4578 Clouds 16 1010 88 10000 9.8 350 17:21 07.11.2019
4579 Clouds 16 1010 88 10000 11.3 350 16:58 07.11.2019
4580 Clouds 16 1010 88 10000 8.7 350 16:39 07.11.2019
4581 Clouds 16 1010 88 10000 8.7 350 16:20 07.11.2019
4582 Clouds 16 1010 88 10000 9.8 350 15:57 07.11.2019
4583 Clouds 16 1011 88 10000 7.7 350 15:37 07.11.2019
4584 Clouds 16 1011 88 10000 7.7 350 15:18 07.11.2019
4585 Clouds 16 1011 82 10000 7.7 350 14:44 07.11.2019
4586 Clouds 16 1011 88 10000 8.7 340 14:26 07.11.2019
4587 Clouds 16 1011 82 10000 9.8 350 13:57 07.11.2019
4588 Clouds 16 1011 82 10000 9.3 360 13:38 07.11.2019
4589 Clouds 16 1011 82 10000 9.3 360 13:20 07.11.2019
4590 Clouds 16 1012 82 10000 7.7 350 12:58 07.11.2019
4591 Clouds 16 1012 82 10000 7.7 340 12:39 07.11.2019
4592 Clouds 16 1012 82 10000 7.7 340 12:21 07.11.2019
4593 Clouds 16 1012 82 10000 8.2 350 11:45 07.11.2019
4594 Clouds 16 1012 82 10000 8.2 350 11:24 07.11.2019
4595 Clouds 16 1012 82 10000 6.7 350 10:59 07.11.2019
4596 Clouds 16 1012 82 10000 8.2 340 10:40 07.11.2019
4597 Clouds 16 1012 82 10000 8.2 340 10:18 07.11.2019
4598 Clouds 16 1011 82 10000 8.2 340 09:43 07.11.2019
4599 Clouds 16 1011 82 10000 8.2 340 09:22 07.11.2019
4600 -273 0 0 0 0 0 08:57 07.11.2019
4601 Clouds 16 1011 82 10000 6.2 350 08:55 07.11.2019
4602 Clouds 16 1011 77 10000 6.7 340 08:37 07.11.2019
4603 Clouds 17 1011 77 10000 6.7 340 08:18 07.11.2019
4604 Clouds 17 1011 77 10000 7.7 340 07:41 07.11.2019
4605 -273 0 0 0 0 0 07:41 07.11.2019
4606 Clouds 17 1011 77 10000 7.7 340 07:21 07.11.2019
4607 Clouds 17 1011 82 10000 8.2 330 06:48 07.11.2019
4608 Clouds 17 1011 77 10000 9.3 340 06:28 07.11.2019
4609 Clouds 17 1011 77 10000 8.7 330 05:57 07.11.2019
4610 Clouds 17 1011 77 10000 10.3 350 05:39 07.11.2019
4611 Clouds 17 1011 77 10000 10.3 350 05:20 07.11.2019
4612 -273 0 0 0 0 0 04:42 07.11.2019
4613 -273 0 0 0 0 0 02:59 07.11.2019
4614 Clouds 19 1012 68 10000 9.8 360 02:59 07.11.2019
4615 Clouds 19 1012 68 10000 9.8 360 02:58 07.11.2019
4616 Clouds 19 1012 63 10000 9.3 340 00:47 07.11.2019
4617 Clouds 19 1012 59 10000 9.3 350 00:21 07.11.2019
4618 Clouds 19 1012 55 10000 8.7 350 23:47 06.11.2019
4619 Clouds 19 1012 55 10000 8.7 350 23:47 06.11.2019
4620 Clouds 19 1012 59 10000 10.3 360 23:22 06.11.2019
4621 Clouds 18 1012 63 10000 8.7 10 22:57 06.11.2019
4622 Clouds 18 1012 63 10000 8.7 10 22:38 06.11.2019
4623 Clouds 18 1012 63 10000 8.7 10 22:18 06.11.2019
4624 Clouds 17 1012 63 10000 7.7 10 21:42 06.11.2019
4625 Clouds 17 1012 63 10000 7.7 10 21:21 06.11.2019
4626 Clouds 16 1012 72 10000 8.2 20 20:59 06.11.2019
4627 Clouds 16 1012 72 10000 8.2 20 20:40 06.11.2019
4628 Clouds 15 1012 72 10000 8.2 20 20:22 06.11.2019
4629 Clouds 14 1012 82 10000 7.2 20 19:59 06.11.2019
4630 Clouds 14 1012 82 10000 8.2 20 19:40 06.11.2019
4631 Clouds 14 1012 82 10000 8.2 20 19:21 06.11.2019
4632 Clouds 14 1012 82 10000 8.2 20 19:21 06.11.2019
4633 Clouds 14 1012 82 10000 8.2 20 18:58 06.11.2019
4634 Clouds 14 1012 87 10000 7.7 10 18:39 06.11.2019
4635 Clouds 14 1012 87 10000 7.7 10 18:19 06.11.2019
4636 Clouds 14 1012 87 10000 9.3 10 17:58 06.11.2019
4637 Clouds 14 1012 87 10000 9.3 10 17:40 06.11.2019
4638 Clouds 14 1012 87 10000 9.3 10 17:21 06.11.2019
4639 Clouds 14 1012 87 10000 8.7 20 16:55 06.11.2019
4640 Clouds 14 1012 87 10000 8.7 20 16:37 06.11.2019
4641 Clouds 14 1012 87 10000 7.7 20 16:18 06.11.2019
4642 Clouds 14 1012 87 10000 7.2 20 15:55 06.11.2019
4643 Clouds 14 1012 87 10000 7.2 20 15:36 06.11.2019
4644 Clouds 14 1012 87 10000 7.2 10 15:18 06.11.2019
4645 Clouds 14 1012 87 10000 8.2 10 14:55 06.11.2019
4646 Clouds 14 1012 87 10000 8.2 10 14:37 06.11.2019
4647 Clouds 14 1012 87 10000 7.7 10 14:19 06.11.2019
4648 Clouds 14 1012 87 10000 7.7 10 14:19 06.11.2019
4649 Clouds 14 1013 87 10000 8.2 10 13:40 06.11.2019
4650 Clouds 14 1013 87 10000 8.2 10 13:40 06.11.2019
4651 Clouds 15 1013 82 10000 8.2 360 13:22 06.11.2019
4652 Clouds 15 1013 82 10000 6.2 350 12:58 06.11.2019
4653 Clouds 15 1013 82 10000 6.2 350 12:39 06.11.2019
4654 Clouds 15 1013 82 10000 5.7 340 12:21 06.11.2019
4655 Rain 15 1013 82 10000 6.7 330 11:58 06.11.2019
4656 Rain 15 1013 82 10000 6.7 330 11:38 06.11.2019
4657 Drizzle 15 1013 82 10000 8.7 330 11:18 06.11.2019
4658 Rain 15 1013 82 10000 8.7 330 10:56 06.11.2019
4659 Rain 15 1013 82 10000 8.7 330 10:38 06.11.2019
4660 Rain 15 1012 82 10000 7.7 340 10:19 06.11.2019
4661 Rain 15 1012 82 10000 8.2 340 09:44 06.11.2019
4662 Rain 15 1012 82 10000 8.2 340 09:24 06.11.2019
4663 Rain 15 1012 82 10000 6.7 340 08:59 06.11.2019
4664 Rain 15 1012 82 10000 6.7 340 08:39 06.11.2019
4665 Clouds 16 1012 82 10000 7.2 350 08:20 06.11.2019
4666 Clouds 16 1011 77 10000 8.2 350 07:59 06.11.2019
4667 Clouds 16 1011 77 10000 8.2 350 07:40 06.11.2019
4668 Clouds 16 1011 77 10000 9.3 360 07:20 06.11.2019
4669 Clouds 16 1011 82 10000 10.8 360 06:44 06.11.2019
4670 Clouds 16 1011 77 10000 6.7 360 06:24 06.11.2019
4671 Clouds 17 1011 82 10000 8.2 30 04:32 06.11.2019
4672 Clouds 16 1012 82 10000 8.7 10 02:20 06.11.2019
4673 Clouds 16 1012 82 10000 9.3 10 01:37 06.11.2019
4674 Clouds 16 1012 87 10000 7.7 10 00:39 06.11.2019
4675 Clouds 16 1012 87 10000 9.3 10 23:58 05.11.2019
4676 Clouds 16 1012 87 10000 9.3 10 23:38 05.11.2019
4677 Clouds 16 1012 87 10000 9.3 10 23:38 05.11.2019
4678 Clouds 16 1012 87 10000 8.2 10 23:20 05.11.2019
4679 Clouds 16 1012 82 10000 8.2 10 22:43 05.11.2019
4680 Clouds 16 1012 82 10000 8.7 360 22:20 05.11.2019
4681 Clouds 15 1012 82 10000 10.3 10 21:59 05.11.2019
4682 Clouds 15 1012 82 10000 10.3 10 21:59 05.11.2019
4683 Clouds 16 1012 82 10000 10.3 10 21:41 05.11.2019
4684 Clouds 15 1011 82 10000 9.3 10 21:20 05.11.2019
4685 Clouds 15 1011 87 10000 8.7 10 20:57 05.11.2019
4686 Clouds 15 1011 87 10000 8.7 10 20:38 05.11.2019
4687 Clouds 15 1011 87 10000 8.2 10 20:20 05.11.2019
4688 Clouds 15 1011 87 10000 7.7 10 19:56 05.11.2019
4689 Clouds 15 1011 87 10000 7.7 10 19:38 05.11.2019
4690 Clouds 15 1010 87 10000 10.3 10 19:19 05.11.2019
4691 Clouds 15 1010 87 10000 9.8 360 18:56 05.11.2019
4692 Clouds 15 1010 87 10000 9.8 360 18:38 05.11.2019
4693 Clouds 15 1010 87 10000 10.3 360 18:19 05.11.2019
4694 Clouds 15 1010 87 10000 8.7 350 17:56 05.11.2019
4695 Clouds 15 1010 87 10000 8.7 350 17:56 05.11.2019
4696 Clouds 15 1010 87 10000 8.7 350 17:37 05.11.2019
4697 Clouds 15 1010 87 10000 8.7 360 17:18 05.11.2019
4698 Clouds 15 1010 87 10000 8.7 350 16:42 05.11.2019
4699 Clouds 14 1010 87 10000 10.8 350 16:22 05.11.2019
4700 Clouds 15 1009 87 10000 10.8 350 15:59 05.11.2019
4701 Clouds 15 1009 87 10000 11.8 340 15:37 05.11.2019
4702 Clouds 14 1009 87 10000 11.8 340 15:18 05.11.2019
4703 Clouds 15 1009 87 10000 10.3 360 14:55 05.11.2019
4704 Clouds 14 1009 87 10000 10.3 360 14:37 05.11.2019
4705 Clouds 14 1009 87 10000 9.3 360 14:19 05.11.2019
4706 Clouds 14 1009 87 10000 10.3 360 13:43 05.11.2019
4707 Clouds 14 1010 87 10000 9.8 360 13:24 05.11.2019
4708 Clouds 14 1010 87 10000 10.3 10 12:43 05.11.2019
4709 Clouds 15 1010 87 10000 9.8 10 12:23 05.11.2019
4710 Clouds 15 1010 87 10000 7.7 10 11:59 05.11.2019
4711 Clouds 15 1010 87 10000 7.7 10 11:40 05.11.2019
4712 Clouds 15 1010 87 10000 10.3 360 11:21 05.11.2019
4713 Clouds 15 1010 87 10000 10.3 360 10:59 05.11.2019
4714 Clouds 15 1010 87 10000 10.3 360 10:40 05.11.2019
4715 Clouds 15 1011 87 10000 8.7 360 10:22 05.11.2019
4716 Clouds 15 1009 82 10000 10.8 360 09:55 05.11.2019
4717 Clouds 15 1009 82 10000 10.8 360 09:37 05.11.2019
4718 Clouds 15 1010 82 10000 8.7 360 09:18 05.11.2019
4719 Clouds 15 1010 82 10000 10.3 360 08:40 05.11.2019
4720 Clouds 15 1010 82 10000 8.7 10 08:20 05.11.2019
4721 Clouds 15 1010 82 10000 8.2 10 07:58 05.11.2019
4722 Clouds 15 1010 82 10000 8.2 10 07:58 05.11.2019
4723 Clouds 14 1010 82 10000 8.2 10 07:40 05.11.2019
4724 Clouds 14 1010 82 10000 8.2 10 07:40 05.11.2019
4725 Clouds 15 1010 82 10000 8.7 20 07:22 05.11.2019
4726 Clouds 14 1010 82 10000 10.3 10 06:50 05.11.2019
4727 Clouds 15 1010 82 10000 11.8 10 05:51 05.11.2019
4728 Clouds 15 1010 77 10000 11.8 360 05:23 05.11.2019
4729 Clouds 15 1009 77 10000 13.4 360 04:38 05.11.2019
4730 Clouds 15 1010 72 10000 13.9 350 03:56 05.11.2019
4731 Clouds 15 1011 67 10000 13.9 350 02:51 05.11.2019
4732 Clouds 16 1011 67 10000 12.9 360 02:29 05.11.2019
4733 Clear 16 1011 67 10000 12.9 350 01:25 05.11.2019
4734 Clear 16 1012 72 10000 12.3 350 00:38 05.11.2019
4735 Clear 16 1012 77 10000 12.3 360 23:57 04.11.2019
4736 Clear 15 1012 77 10000 12.3 360 23:37 04.11.2019
4737 Clear 14 1012 77 10000 12.3 360 23:18 04.11.2019
4738 Clear 14 1012 77 10000 12.9 360 22:42 04.11.2019
4739 Clear 14 1012 82 10000 12.9 360 22:23 04.11.2019
4740 Clear 15 1012 82 10000 12.3 360 21:56 04.11.2019
4741 Clear 15 1012 82 10000 12.3 360 21:56 04.11.2019
4742 Clear 15 1012 82 10000 12.3 360 21:38 04.11.2019
4743 Clear 15 1012 82 10000 11.3 350 21:19 04.11.2019
4744 Clear 14 1012 87 10000 11.3 360 20:59 04.11.2019
4745 Clear 13 1012 87 10000 11.3 360 20:40 04.11.2019
4746 Clear 13 1013 87 10000 12.3 350 20:21 04.11.2019
4747 Clear 13 1013 87 10000 12.3 350 20:21 04.11.2019
4748 Clear 13 1013 87 10000 12.9 360 19:59 04.11.2019
4749 Clear 13 1013 87 10000 12.9 360 19:41 04.11.2019
4750 Clear 13 1013 87 10000 13.9 360 19:21 04.11.2019
4751 Clear 13 1012 87 10000 11.8 360 18:57 04.11.2019
4752 Clear 13 1012 87 10000 11.8 360 18:39 04.11.2019
4753 Clear 13 1012 87 10000 11.3 10 18:19 04.11.2019
4754 Clear 13 1012 87 10000 12.3 10 17:40 04.11.2019
4755 Clear 14 1013 87 10000 10.8 360 17:21 04.11.2019
4756 Clear 14 1013 87 10000 11.8 360 16:59 04.11.2019
4757 Clear 14 1013 87 10000 11.8 360 16:40 04.11.2019
4758 Clear 14 1013 87 10000 11.3 360 16:22 04.11.2019
4759 Clear 14 1013 87 10000 12.3 360 15:56 04.11.2019
4760 Clear 14 1013 87 10000 12.3 360 15:38 04.11.2019
4761 Clear 14 1013 87 10000 12.9 360 15:19 04.11.2019
4762 Clear 14 1014 87 10000 12.3 360 14:56 04.11.2019
4763 Clear 14 1014 87 10000 12.3 360 14:37 04.11.2019
4764 Clear 13 1014 87 10000 11.8 360 14:18 04.11.2019
4765 Clear 14 1014 82 10000 11.8 360 13:54 04.11.2019
4766 Clear 14 1014 82 10000 11.8 360 13:36 04.11.2019
4767 Clouds 14 1014 82 10000 12.3 360 13:18 04.11.2019
4768 Clouds 14 1014 82 10000 11.8 10 12:41 04.11.2019
4769 Clouds 14 1014 82 10000 10.8 10 12:23 04.11.2019
4770 Clouds 14 1014 82 10000 11.8 360 11:57 04.11.2019
4771 Clouds 14 1014 82 10000 11.8 360 11:38 04.11.2019
4772 Clouds 14 1015 82 10000 11.3 10 11:20 04.11.2019
4773 Clouds 14 1015 82 10000 11.8 10 10:44 04.11.2019
4774 Clouds 14 1015 82 10000 10.3 10 10:25 04.11.2019
4775 Clouds 14 1015 82 10000 11.8 10 09:54 04.11.2019
4776 Clouds 14 1015 82 10000 11.8 10 09:36 04.11.2019
4777 Clouds 14 1015 82 10000 11.8 10 09:18 04.11.2019
4778 Clouds 15 1014 82 10000 11.3 10 08:41 04.11.2019
4779 Clear 15 1014 82 10000 12.9 10 08:21 04.11.2019
4780 Clouds 15 1014 82 10000 12.9 10 07:45 04.11.2019
4781 Clouds 15 1014 77 10000 13.4 360 07:25 04.11.2019
4782 Clouds 15 1014 77 10000 13.4 360 06:59 04.11.2019
4783 Clouds 15 1014 77 10000 13.4 360 06:36 04.11.2019
4784 Clear 16 1015 72 10000 13.4 10 05:59 04.11.2019
4785 Clear 16 1015 68 10000 13.4 10 04:50 04.11.2019
4786 Clear 16 1015 72 10000 14.4 10 04:25 04.11.2019
4787 Clear 17 1017 68 10000 12.9 360 02:59 04.11.2019
4788 Clear 18 1017 68 10000 11.3 360 01:22 04.11.2019
4789 Clear 19 1018 68 10000 12.3 10 00:51 04.11.2019
4790 Clear 18 1018 63 10000 12.9 360 00:21 04.11.2019
4791 Clear 18 1018 63 10000 11.8 360 23:56 03.11.2019
4792 Clear 18 1018 63 10000 11.8 360 23:36 03.11.2019
4793 Clear 17 1018 63 10000 11.8 360 23:18 03.11.2019
4794 Clear 17 1018 72 10000 12.3 360 22:54 03.11.2019
4795 Clear 17 1018 72 10000 12.3 360 22:36 03.11.2019
4796 Clear 17 1018 72 10000 10.8 360 22:18 03.11.2019
4797 Clear 16 1019 72 10000 11.8 10 21:41 03.11.2019
4798 Clear 16 1019 77 10000 11.3 360 21:21 03.11.2019
4799 Clear 16 1019 77 10000 11.3 360 21:21 03.11.2019
4800 Clear 15 1019 77 10000 10.8 10 20:56 03.11.2019
4801 Clear 15 1019 77 10000 10.8 10 20:37 03.11.2019
4802 Clear 14 1019 77 10000 9.8 360 20:18 03.11.2019
4803 Clear 14 1019 77 10000 9.8 360 20:18 03.11.2019
4804 Clear 14 1019 77 10000 9.8 360 19:56 03.11.2019
4805 Clear 14 1019 77 10000 9.8 360 19:38 03.11.2019
4806 Clear 14 1018 82 10000 10.8 360 19:19 03.11.2019
4807 Clear 13 1018 82 10000 9.3 360 18:39 03.11.2019
4808 Clear 14 1018 82 10000 9.8 10 18:19 03.11.2019
4809 Clear 13 1018 82 10000 8.2 30 17:59 03.11.2019
4810 Clear 13 1018 82 10000 8.2 30 17:41 03.11.2019
4811 Clear 13 1018 82 10000 8.2 30 17:41 03.11.2019
4812 Clear 13 1018 82 10000 10.3 10 17:19 03.11.2019
4813 Clear 14 1018 87 10000 10.3 10 16:56 03.11.2019
4814 Clear 14 1018 87 10000 10.3 10 16:38 03.11.2019
4815 Clear 14 1019 82 10000 9.3 10 16:19 03.11.2019
4816 Clear 14 1019 87 10000 9.8 10 15:57 03.11.2019
4817 Clear 14 1019 87 10000 9.8 10 15:38 03.11.2019
4818 Clear 14 1019 87 10000 9.8 10 15:38 03.11.2019
4819 Clear 14 1019 87 10000 11.3 10 15:20 03.11.2019
4820 Clear 13 1019 82 10000 10.8 10 14:42 03.11.2019
4821 Clouds 14 1019 82 10000 10.8 10 14:19 03.11.2019
4822 Clouds 14 1019 82 10000 10.8 10 14:19 03.11.2019
4823 Clouds 14 1019 82 10000 10.8 10 14:19 03.11.2019
4824 Clouds 14 1019 82 10000 8.7 10 13:56 03.11.2019
4825 Clouds 14 1019 82 10000 8.7 10 13:38 03.11.2019
4826 Clouds 14 1019 82 10000 9.3 360 13:18 03.11.2019
4827 Clouds 14 1019 87 10000 8.2 10 12:38 03.11.2019
4828 Clouds 14 1019 82 10000 9.8 10 12:20 03.11.2019
4829 Clouds 14 1019 82 10000 9.8 10 12:20 03.11.2019
4830 Clouds 14 1019 82 10000 8.7 10 11:57 03.11.2019
4831 Clouds 14 1019 82 10000 8.7 10 11:39 03.11.2019
4832 Clouds 14 1020 82 10000 7.7 10 11:20 03.11.2019
4833 Clouds 14 1020 82 10000 9.3 10 10:42 03.11.2019
4834 Clouds 14 1020 82 10000 9.3 360 10:22 03.11.2019
4835 Clouds 14 1019 82 10000 9.8 350 09:59 03.11.2019
4836 Clouds 14 1019 82 10000 9.8 350 09:41 03.11.2019
4837 Clouds 14 1019 87 10000 9.8 350 09:23 03.11.2019
4838 Clouds 14 1019 82 10000 9.3 350 08:53 03.11.2019
4839 Clouds 14 1019 82 10000 8.7 350 08:26 03.11.2019
4840 Clear 14 1019 87 10000 9.3 340 07:55 03.11.2019
4841 Clear 15 1019 87 10000 9.3 340 07:37 03.11.2019
4842 Clear 15 1019 72 10000 8.7 340 07:18 03.11.2019
4843 Clear 16 1019 72 10000 8.7 350 06:38 03.11.2019
4844 Clear 18 1019 68 10000 8.7 360 05:41 03.11.2019
4845 Clear 19 1019 64 10000 9.3 360 05:19 03.11.2019
4846 Clear 19 1019 64 10000 10.3 10 04:48 03.11.2019
4847 Clear 19 1020 68 10000 9.3 360 03:50 03.11.2019
4848 Clear 19 1020 72 10000 10.3 10 02:46 03.11.2019
4849 Clear 19 1020 72 10000 10.3 10 02:21 03.11.2019
4850 Clear 18 1021 72 10000 9.8 10 01:44 03.11.2019
4851 Clear 18 1021 68 10000 7.7 350 01:22 03.11.2019
4852 Clear 18 1021 68 10000 7.7 350 00:46 03.11.2019
4853 Clear 18 1022 72 10000 8.7 360 00:28 03.11.2019
4854 Clear 18 1022 72 10000 10.3 10 23:59 02.11.2019
4855 Clear 17 1022 72 10000 10.3 10 23:39 02.11.2019
4856 Clear 17 1022 77 10000 9.8 10 23:20 02.11.2019
4857 Clear 17 1022 82 10000 11.3 360 22:56 02.11.2019
4858 Clear 16 1022 82 10000 11.3 360 22:38 02.11.2019
4859 Clear 15 1023 82 10000 9.3 10 22:19 02.11.2019
4860 Clear 15 1023 82 10000 9.3 10 22:19 02.11.2019
4861 Clear 15 1023 82 10000 9.3 10 22:19 02.11.2019
4862 Clear 15 1023 87 10000 9.3 10 21:57 02.11.2019
4863 Clear 14 1023 87 10000 9.3 10 21:38 02.11.2019
4864 Clear 14 1023 87 10000 8.7 10 21:18 02.11.2019
4865 Clear 14 1023 87 10000 8.7 10 21:18 02.11.2019
4866 Clear 14 1023 87 10000 8.7 10 21:18 02.11.2019
4867 Clear 14 1023 87 10000 8.7 10 21:18 02.11.2019
4868 Clear 14 1023 87 10000 8.7 10 20:59 02.11.2019
4869 Clear 14 1023 87 10000 8.7 10 20:40 02.11.2019
4870 Clear 13 1023 82 10000 8.7 360 20:20 02.11.2019
4871 Clear 13 1022 87 10000 10.8 360 19:55 02.11.2019
4872 Clear 13 1022 87 10000 10.8 360 19:36 02.11.2019
4873 Clear 13 1022 87 10000 10.3 10 19:18 02.11.2019
4874 Clear 12 1021 87 10000 9.8 10 18:43 02.11.2019
4875 Clear 12 1021 87 10000 9.3 10 18:24 02.11.2019
4876 Clear 13 1021 87 10000 8.7 20 17:59 02.11.2019
4877 Clear 12 1021 87 10000 8.7 20 17:40 02.11.2019
4878 Clear 12 1021 87 10000 8.7 20 17:40 02.11.2019
4879 Clear 13 1022 87 10000 9.8 10 17:22 02.11.2019
4880 Clear 13 1022 87 10000 9.8 10 17:22 02.11.2019
4881 Clear 12 1022 82 10000 9.3 10 16:58 02.11.2019
4882 Clear 12 1022 82 10000 9.3 10 16:38 02.11.2019
4883 Clear 13 1022 87 10000 9.3 360 16:20 02.11.2019
4884 Clear 12 1022 87 10000 9.3 10 15:42 02.11.2019
4885 Clear 13 1022 82 10000 8.7 10 15:20 02.11.2019
4886 Clear 12 1022 82 10000 9.3 10 14:56 02.11.2019
4887 Clear 12 1022 82 10000 9.3 10 14:38 02.11.2019
4888 Clear 12 1022 82 10000 9.3 20 14:20 02.11.2019
4889 Clear 12 1022 82 10000 9.3 20 13:40 02.11.2019
4890 Clouds 13 1022 76 10000 8.7 20 13:20 02.11.2019
4891 Clouds 13 1022 76 10000 8.7 20 12:57 02.11.2019
4892 Clouds 13 1022 76 10000 8.7 20 12:38 02.11.2019
4893 Clouds 13 1021 76 10000 8.7 20 12:19 02.11.2019
4894 Clouds 12 1021 71 10000 7.7 20 11:42 02.11.2019
4895 Clouds 12 1021 71 10000 7.7 20 11:42 02.11.2019
4896 Clouds 12 1021 71 10000 7.7 20 11:23 02.11.2019
4897 Clouds 13 1021 62 10000 8.7 20 10:57 02.11.2019
4898 Clouds 13 1021 62 10000 8.7 20 10:39 02.11.2019
4899 Clouds 13 1021 71 10000 8.7 10 10:18 02.11.2019
4900 Clouds 13 1021 67 10000 8.7 20 09:42 02.11.2019
4901 Clouds 13 1021 71 10000 8.2 20 09:22 02.11.2019
4902 Clouds 13 1021 71 10000 8.7 20 08:51 02.11.2019
4903 Clouds 14 1021 71 10000 8.7 10 08:24 02.11.2019
4904 Clouds 14 1020 71 10000 8.7 10 07:57 02.11.2019
4905 Clouds 14 1020 71 10000 8.7 10 07:57 02.11.2019
4906 Clouds 14 1020 71 10000 8.7 10 07:39 02.11.2019
4907 Clouds 14 1020 71 10000 9.3 360 07:20 02.11.2019
4908 Clouds 14 1020 67 10000 8.7 360 06:46 02.11.2019
4909 Clouds 15 1020 63 10000 9.3 360 06:21 02.11.2019
4910 Clouds 15 1020 67 10000 9.3 360 05:38 02.11.2019
4911 Clouds 17 1020 63 10000 7.2 350 04:24 02.11.2019
4912 Clouds 17 1020 55 10000 6.7 360 03:51 02.11.2019
4913 Clouds 17 1020 52 9000 5.1 320 03:28 02.11.2019
4914 Clouds 16 1021 67 8000 3.1 200 01:57 02.11.2019
4915 Clouds 17 1021 67 10000 2.6 200 01:27 02.11.2019
4916 Clouds 17 1022 67 10000 2.6 210 00:55 02.11.2019
4917 Clouds 17 1022 67 10000 2.1 210 00:29 02.11.2019
4918 Clouds 16 1022 67 10000 2.1 200 23:55 01.11.2019
4919 Clouds 16 1022 67 10000 2.1 200 23:37 01.11.2019
4920 Clouds 16 1022 67 10000 2.1 200 23:37 01.11.2019
4921 Clouds 15 1022 67 10000 1.5 230 23:18 01.11.2019
4922 Clouds 15 1022 67 10000 2.1 210 22:41 01.11.2019
4923 Clouds 15 1022 67 10000 2.1 210 22:41 01.11.2019
4924 Clouds 14 1022 71 10000 2.6 210 22:20 01.11.2019
4925 Clouds 13 1022 71 10000 3.1 190 21:42 01.11.2019
4926 Clouds 12 1021 71 10000 4.1 170 21:24 01.11.2019
4927 Clouds 12 1021 76 10000 4.1 170 20:59 01.11.2019
4928 Clouds 11 1021 76 10000 4.1 170 20:41 01.11.2019
4929 Clouds 11 1021 76 10000 5.1 180 20:21 01.11.2019
4930 Clouds 10 1020 81 10000 4.1 210 19:58 01.11.2019
4931 Clouds 10 1020 81 10000 4.1 210 19:40 01.11.2019
4932 Clouds 10 1020 81 10000 4.1 220 19:21 01.11.2019
4933 Clouds 9 1019 76 10000 4.6 190 18:41 01.11.2019
4934 Clouds 9 1019 76 9000 5.1 200 18:21 01.11.2019
4935 Clouds 9 1019 81 10000 4.6 190 17:57 01.11.2019
4936 Clouds 9 1019 81 10000 4.6 190 17:39 01.11.2019
4937 Clouds 9 1019 76 10000 5.1 200 17:20 01.11.2019
4938 Clouds 10 1019 76 10000 5.1 200 16:39 01.11.2019
4939 Clouds 9 1018 76 10000 4.1 200 16:20 01.11.2019
4940 Clouds 10 1019 76 9000 4.6 200 15:56 01.11.2019
4941 Clouds 10 1019 76 9000 4.6 200 15:38 01.11.2019
4942 Clouds 10 1018 76 10000 3.6 200 15:19 01.11.2019
4943 Clouds 10 1017 84 0 6.86 192 14:43 01.11.2019
4944 Clouds 11 1018 71 10000 4.1 180 14:24 01.11.2019
4945 Rain 11 1018 71 10000 4.1 180 13:58 01.11.2019
4946 Rain 11 1018 71 10000 4.1 180 13:39 01.11.2019
4947 Rain 10 1018 71 10000 4.1 190 13:21 01.11.2019
4948 Rain 10 1018 76 10000 5.1 180 12:44 01.11.2019
4949 Rain 10 1018 76 10000 5.7 170 12:26 01.11.2019
4950 Rain 10 1017 76 10000 5.1 160 11:59 01.11.2019
4951 Rain 10 1017 76 10000 5.1 160 11:40 01.11.2019
4952 Rain 10 1017 76 10000 5.1 160 11:40 01.11.2019
4953 Clouds 10 1017 76 10000 4.6 170 11:22 01.11.2019
4954 Clouds 10 1016 71 10000 4.1 170 10:42 01.11.2019
4955 Clouds 10 1016 71 10000 4.1 170 10:42 01.11.2019
4956 Clouds 10 1016 76 10000 5.1 180 10:22 01.11.2019
4957 Clouds 10 1016 71 10000 4.1 180 09:57 01.11.2019
4958 Clouds 10 1016 71 10000 4.1 180 09:39 01.11.2019
4959 Clouds 10 1015 71 10000 4.1 170 09:20 01.11.2019
4960 Clouds 11 1015 76 10000 4.1 170 08:44 01.11.2019
4961 Clouds 12 1015 71 10000 5.1 170 08:22 01.11.2019
4962 Clouds 12 1015 71 10000 5.1 160 07:56 01.11.2019
4963 Clouds 12 1015 71 10000 5.1 160 07:37 01.11.2019
4964 Clouds 12 1014 71 10000 4.6 180 07:19 01.11.2019
4965 Clouds 13 1014 71 10000 4.6 180 06:41 01.11.2019
4966 Clouds 13 1014 66 10000 5.1 170 06:21 01.11.2019
4967 Clouds 14 1014 71 10000 5.1 160 05:43 01.11.2019
4968 Clouds 14 1014 67 10000 5.1 160 03:42 01.11.2019
4969 Clouds 15 1014 67 10000 5.1 160 02:49 01.11.2019
4970 Rain 15 1014 71 10000 6.2 160 01:31 01.11.2019
4971 Rain 15 1014 71 10000 6.7 150 00:40 01.11.2019
4972 Rain 15 1014 71 10000 5.7 160 00:18 01.11.2019
4973 Rain 15 1014 76 10000 5.1 160 23:43 31.10.2019
4974 Rain 13 1014 76 10000 4.6 160 23:23 31.10.2019
4975 Rain 13 1014 71 10000 6.2 150 22:55 31.10.2019
4976 Rain 13 1014 71 10000 6.2 150 22:37 31.10.2019
4977 Rain 13 1014 66 10000 5.1 150 22:18 31.10.2019
4978 Rain 12 1014 71 10000 5.7 150 21:42 31.10.2019
4979 Rain 12 1014 71 10000 6.2 160 21:20 31.10.2019
4980 Rain 12 1013 71 10000 6.2 150 20:57 31.10.2019
4981 Rain 11 1013 71 10000 6.2 150 20:39 31.10.2019
4982 Rain 11 1013 66 10000 6.2 160 20:20 31.10.2019
4983 Rain 10 1013 71 10000 6.2 170 19:41 31.10.2019
4984 Rain 9 1012 76 10000 4.6 170 19:22 31.10.2019
4985 Rain 9 1012 71 10000 4.6 180 18:56 31.10.2019
4986 Rain 9 1012 71 10000 4.6 180 18:38 31.10.2019
4987 Rain 8 1012 71 10000 5.7 180 18:19 31.10.2019
4988 Rain 9 1011 66 10000 5.7 180 17:41 31.10.2019
4989 Rain 9 1011 76 10000 5.7 180 17:22 31.10.2019
4990 Rain 10 1010 84 0 11.45 178 16:58 31.10.2019
4991 Rain 10 1011 75 0 1.34 202 16:40 31.10.2019
4992 Rain 10 1011 75 0 1.34 202 16:40 31.10.2019
4993 Rain 10 1005 78 0 11.45 178 16:20 31.10.2019
4994 Rain 10 1011 76 10000 7.7 150 15:54 31.10.2019
4995 Rain 10 1011 76 10000 7.7 150 15:36 31.10.2019
4996 Rain 10 1011 76 10000 10.8 160 15:18 31.10.2019
4997 Rain 10 1011 81 10000 10.3 160 14:41 31.10.2019
4998 Clouds 11 1009 62 10000 5.7 220 14:23 31.10.2019
4999 Clouds 10 1009 66 10000 2.6 60 13:59 31.10.2019
5000 Clouds 10 1009 66 10000 2.6 60 13:39 31.10.2019
5001 Clouds 10 1008 66 10000 3.1 360 13:20 31.10.2019
5002 Clouds 10 1008 76 10000 2.1 50 12:58 31.10.2019
5003 Clouds 11 1008 76 10000 2.1 50 12:40 31.10.2019
5004 Clouds 10 1007 71 10000 1 10 12:22 31.10.2019
5005 Clouds 11 1007 76 10000 3.1 30 11:47 31.10.2019
5006 Clouds 11 1007 76 10000 3.1 20 11:21 31.10.2019
5007 Clouds 11 1007 76 10000 3.6 30 10:59 31.10.2019
5008 -273 0 0 0 0 0 10:40 31.10.2019
5009 Clouds 12 1007 76 10000 3.6 30 10:40 31.10.2019
5010 Clouds 13 1007 71 10000 4.6 20 10:21 31.10.2019
5011 Clouds 13 1007 71 10000 6.2 10 09:56 31.10.2019
5012 Clouds 13 1007 71 10000 6.2 10 09:38 31.10.2019
5013 Clouds 13 1007 71 10000 7.2 10 09:18 31.10.2019
5014 Clouds 13 1007 71 10000 7.2 20 08:46 31.10.2019
5015 Clouds 13 1007 71 10000 7.2 20 08:46 31.10.2019
5016 Clouds 13 1006 71 10000 7.2 10 08:26 31.10.2019
5017 Clouds 13 1007 76 10000 8.7 10 07:48 31.10.2019
5018 Clouds 13 1007 71 10000 9.8 10 07:28 31.10.2019
5019 Clouds 13 1007 67 10000 9.8 10 06:55 31.10.2019
5020 Clouds 14 1008 67 10000 9.3 10 06:32 31.10.2019
5021 Clouds 14 1009 62 10000 10.3 360 05:32 31.10.2019
5022 Clear 15 1010 59 10000 8.7 340 03:21 31.10.2019
5023 Clear 15 1011 55 10000 8.7 360 02:30 31.10.2019
5024 Clouds 16 1011 55 10000 7.7 350 01:25 31.10.2019
5025 Clouds 16 1012 51 10000 6.7 360 00:34 31.10.2019
5026 Clouds 16 1012 54 10000 5.1 10 23:53 30.10.2019
5027 Clouds 15 1012 54 10000 5.1 10 23:27 30.10.2019
5028 Clear 14 1013 47 10000 3.1 40 22:43 30.10.2019
5029 Clear 14 1013 54 10000 2.1 20 22:20 30.10.2019
5030 Clear 14 1013 62 10000 2.1 220 21:55 30.10.2019
5031 Clear 13 1013 62 10000 2.1 220 21:37 30.10.2019
5032 Clear 13 1013 58 10000 2.1 160 21:18 30.10.2019
5033 Clear 13 1013 58 10000 2.1 160 20:58 30.10.2019
5034 Clouds 12 1013 58 10000 2.1 160 20:39 30.10.2019
5035 Clouds 11 1013 62 10000 2.6 150 20:21 30.10.2019
5036 Clouds 10 1013 62 10000 3.1 140 19:57 30.10.2019
5037 Clouds 10 1013 62 10000 3.1 140 19:38 30.10.2019
5038 Clouds 10 1013 71 10000 4.1 160 19:19 30.10.2019
5039 Clouds 9 1012 76 10000 4.1 170 18:39 30.10.2019
5040 Clouds 9 1012 76 10000 4.1 170 18:20 30.10.2019
5041 Clouds 9 1012 76 10000 5.1 180 17:58 30.10.2019
5042 Clouds 9 1012 76 10000 5.1 180 17:40 30.10.2019
5043 Clouds 10 1011 76 10000 6.2 180 17:19 30.10.2019
5044 Rain 10 1011 76 10000 7.2 170 16:55 30.10.2019
5045 Rain 10 1011 76 10000 7.2 170 16:37 30.10.2019
5046 Rain 10 1012 71 10000 8.7 170 16:19 30.10.2019
5047 Rain 10 1012 71 10000 8.2 180 15:55 30.10.2019
5048 Rain 10 1012 71 10000 8.2 180 15:37 30.10.2019
5049 Clouds 10 1011 71 10000 9.3 170 15:19 30.10.2019
5050 Clouds 10 1012 76 10000 8.7 180 14:42 30.10.2019
5051 Rain 10 1012 66 10000 9.3 170 14:22 30.10.2019
5052 Rain 10 1012 66 10000 9.3 170 13:58 30.10.2019
5053 Rain 10 1012 66 10000 9.3 170 13:40 30.10.2019
5054 Clouds 10 1011 71 10000 8.7 170 13:20 30.10.2019
5055 Clouds 10 1011 71 10000 11.8 170 12:57 30.10.2019
5056 Clouds 10 1011 71 10000 11.8 170 12:38 30.10.2019
5057 Drizzle 11 1011 71 9000 11.3 170 12:19 30.10.2019
5058 Clouds 11 1011 66 10000 13.4 180 11:42 30.10.2019
5059 Clouds 11 1010 81 8000 12.3 200 11:23 30.10.2019
5060 Clouds 11 1010 81 8000 12.3 200 11:23 30.10.2019
5061 Haze 12 1009 76 5000 14.4 210 10:46 30.10.2019
5062 Clouds 14 1006 76 10000 6.2 10 10:27 30.10.2019
5063 Clouds 13 1005 76 10000 6.7 10 09:59 30.10.2019
5064 Clouds 14 1005 76 10000 6.7 10 09:39 30.10.2019
5065 Clouds 13 1005 76 10000 8.2 20 09:21 30.10.2019
5066 Clouds 14 1004 76 10000 8.7 360 08:42 30.10.2019
5067 Clouds 14 1004 76 10000 8.7 20 08:22 30.10.2019
5068 Clouds 14 1004 82 10000 10.3 10 07:56 30.10.2019
5069 Clouds 14 1004 82 10000 10.3 10 07:37 30.10.2019
5070 Clouds 14 1004 82 10000 10.3 10 07:37 30.10.2019
5071 Clouds 14 1004 72 10000 9.8 10 06:43 30.10.2019
5072 Clouds 14 1004 77 10000 9.8 360 06:25 30.10.2019
5073 Clouds 14 1004 77 10000 10.3 10 05:54 30.10.2019
5074 Clouds 15 1004 77 10000 10.3 10 05:35 30.10.2019
5075 Clouds 16 1006 72 10000 9.8 360 03:48 30.10.2019
5076 Clouds 16 1006 72 10000 9.3 360 03:21 30.10.2019
5077 Clouds 15 1007 72 10000 8.7 350 02:39 30.10.2019
5078 Clouds 14 1008 67 10000 10.3 360 01:42 30.10.2019
5079 Clouds 14 1009 62 10000 9.8 360 00:32 30.10.2019
5080 Clouds 15 1009 58 10000 10.8 360 23:49 29.10.2019
5081 Clouds 15 1009 58 10000 9.8 360 23:30 29.10.2019
5082 Clear 15 1009 54 10000 9.3 360 22:57 29.10.2019
5083 Clear 14 1009 54 10000 9.3 360 22:39 29.10.2019
5084 Clear 14 1010 58 10000 8.7 350 22:19 29.10.2019
5085 Clear 14 1010 71 10000 8.2 10 21:55 29.10.2019
5086 Clear 13 1010 71 10000 8.2 10 21:36 29.10.2019
5087 Clear 12 1010 71 10000 7.2 10 21:18 29.10.2019
5088 Clear 12 1010 76 10000 7.2 10 20:41 29.10.2019
5089 Clear 10 1010 81 10000 5.7 20 20:22 29.10.2019
5090 Clear 9 1010 81 10000 5.1 30 19:58 29.10.2019
5091 Clear 9 1010 81 10000 5.1 30 19:39 29.10.2019
5092 Clear 7 1010 81 10000 4.6 20 19:20 29.10.2019
5093 Clear 7 1010 87 10000 4.1 40 18:57 29.10.2019
5094 Clear 6 1010 87 10000 4.1 40 18:38 29.10.2019
5095 Clear 6 1010 87 10000 2.6 30 18:20 29.10.2019
5096 Clear 6 1011 87 10000 2.6 40 17:56 29.10.2019
5097 Clear 6 1011 87 10000 2.6 40 17:37 29.10.2019
5098 Clear 6 1011 87 10000 2.6 40 17:37 29.10.2019
5099 Clear 6 1011 87 10000 2.1 40 17:19 29.10.2019
5100 Clear 7 1011 87 10000 1.5 20 16:41 29.10.2019
5101 Clear 7 1011 81 10000 1.5 360 16:22 29.10.2019
5102 Clear 6 1011 87 10000 1 50 15:58 29.10.2019
5103 Clear 6 1011 87 10000 1 50 15:39 29.10.2019
5104 Clear 7 1011 81 10000 1 30 15:20 29.10.2019
5105 Clear 7 1011 76 10000 1.5 110 14:56 29.10.2019
5106 Clear 7 1011 76 10000 1.5 110 14:38 29.10.2019
5107 Clouds 8 1011 76 10000 1.5 120 14:20 29.10.2019
5108 Clouds 8 1011 76 10000 4.1 170 13:40 29.10.2019
5109 Clouds 8 1011 76 10000 4.1 170 13:40 29.10.2019
5110 Clouds 9 1012 71 10000 4.6 180 13:22 29.10.2019
5111 Clouds 9 1011 71 10000 5.1 190 12:56 29.10.2019
5112 Clouds 9 1011 71 10000 5.1 190 12:37 29.10.2019
5113 Clouds 9 1011 71 10000 4.1 180 12:19 29.10.2019
5114 Clouds 10 1011 71 10000 5.1 200 11:43 29.10.2019
5115 Rain 11 1011 71 10000 4.6 200 11:23 29.10.2019
5116 Rain 11 1010 71 10000 3.6 170 10:59 29.10.2019
5117 Rain 11 1010 71 10000 3.6 170 10:40 29.10.2019
5118 Rain 11 1010 71 10000 7.7 190 10:20 29.10.2019
5119 Rain 10 1010 81 10000 9.8 190 09:59 29.10.2019
5120 Rain 11 1010 81 10000 9.8 190 09:41 29.10.2019
5121 Rain 11 1010 71 10000 11.3 190 09:22 29.10.2019
5122 Rain 12 1008 62 10000 3.6 20 08:54 29.10.2019
5123 Rain 12 1008 62 10000 3.6 20 08:36 29.10.2019
5124 Clouds 13 1007 58 10000 4.6 20 08:18 29.10.2019
5125 Clouds 13 1007 58 10000 5.7 20 07:44 29.10.2019
5126 Clouds 14 1006 58 10000 6.7 10 07:19 29.10.2019
5127 Clouds 14 1006 54 10000 6.7 360 06:46 29.10.2019
5128 Clouds 15 1006 48 10000 7.2 320 06:26 29.10.2019
5129 Clouds 15 1006 48 10000 7.2 330 05:50 29.10.2019
5130 Clouds 16 1006 42 10000 6.2 340 05:30 29.10.2019
5131 Clear 16 1006 45 10000 8.2 330 04:32 29.10.2019
5132 Clear 16 1006 45 10000 8.7 340 02:33 29.10.2019
5133 Clouds 16 1007 45 10000 8.2 330 01:49 29.10.2019
5134 Clouds 16 1007 48 10000 7.7 330 01:22 29.10.2019
5135 Clouds 16 1008 51 10000 8.2 330 00:48 29.10.2019
5136 Clouds 16 1008 51 10000 6.2 340 23:44 28.10.2019
5137 Clouds 16 1008 55 10000 5.1 330 23:21 28.10.2019
5138 Clouds 15 1008 51 10000 5.7 330 22:59 28.10.2019
5139 Clouds 15 1008 51 10000 5.7 330 22:38 28.10.2019
5140 Clouds 15 1008 54 10000 5.7 330 22:18 28.10.2019
5141 Clouds 15 1008 54 10000 5.7 330 21:56 28.10.2019
5142 Clouds 15 1008 54 10000 5.7 330 21:38 28.10.2019
5143 Clouds 15 1008 62 10000 5.7 330 21:20 28.10.2019
5144 Clouds 14 1008 58 10000 4.6 350 20:54 28.10.2019
5145 Clear 13 1008 58 10000 4.6 350 20:36 28.10.2019
5146 Clouds 13 1008 62 10000 3.6 10 20:18 28.10.2019
5147 Clouds 12 1008 62 10000 3.1 360 19:40 28.10.2019
5148 Clouds 12 1008 66 10000 5.1 10 19:21 28.10.2019
5149 Clouds 12 1008 66 10000 3.6 360 18:59 28.10.2019
5150 Clouds 12 1008 66 10000 3.6 360 18:41 28.10.2019
5151 Clouds 12 1008 66 10000 5.1 350 18:22 28.10.2019
5152 Clouds 12 1008 71 10000 5.7 350 17:57 28.10.2019
5153 Clouds 12 1008 71 10000 5.7 350 17:39 28.10.2019
5154 Clouds 12 1007 66 10000 6.2 340 17:20 28.10.2019
5155 Clouds 12 1007 66 10000 6.2 340 17:20 28.10.2019
5156 Clouds 12 1008 66 10000 6.7 360 16:58 28.10.2019
5157 Clouds 12 1008 66 10000 6.7 360 16:39 28.10.2019
5158 Clouds 11 1008 81 10000 6.2 10 16:21 28.10.2019
5159 Clouds 12 1008 76 10000 5.1 350 15:58 28.10.2019
5160 Clouds 12 1008 76 10000 5.1 350 15:40 28.10.2019
5161 Clouds 12 1008 71 10000 4.1 350 15:21 28.10.2019
5162 Clouds 12 1008 76 10000 5.7 340 14:57 28.10.2019
5163 Clouds 12 1008 76 10000 5.7 340 14:38 28.10.2019
5164 Clouds 12 1009 76 10000 6.2 340 14:18 28.10.2019
5165 Clouds 12 1009 82 10000 6.2 330 13:56 28.10.2019
5166 Clouds 12 1009 82 10000 6.2 330 13:56 28.10.2019
5167 Clouds 12 1009 82 10000 6.2 330 13:38 28.10.2019
5168 Clouds 12 1009 82 10000 7.7 340 13:18 28.10.2019
5169 Clouds 12 1009 76 10000 6.2 340 12:42 28.10.2019
5170 Clouds 12 1009 82 10000 6.7 350 12:20 28.10.2019
5171 Clouds 12 1010 76 10000 6.7 360 11:40 28.10.2019
5172 Clouds 12 1010 76 10000 5.1 350 11:22 28.10.2019
5173 Clouds 12 1010 76 10000 6.7 350 10:58 28.10.2019
5174 Clouds 12 1010 76 10000 6.7 350 10:39 28.10.2019
5175 Clouds 12 1010 71 10000 6.7 340 10:20 28.10.2019
5176 Clouds 12 1010 76 10000 7.7 340 09:56 28.10.2019
5177 Clouds 12 1010 76 10000 7.7 340 09:38 28.10.2019
5178 Clouds 13 1010 76 10000 5.7 340 09:19 28.10.2019
5179 Clouds 13 1010 76 10000 7.7 350 08:56 28.10.2019
5180 Clouds 13 1010 76 10000 7.7 350 08:56 28.10.2019
5181 Clouds 13 1010 76 10000 7.7 350 08:37 28.10.2019
5182 Clouds 13 1010 76 10000 6.7 340 08:18 28.10.2019
5183 Clouds 14 1009 72 10000 7.2 340 07:55 28.10.2019
5184 Clouds 14 1009 72 10000 7.2 340 07:36 28.10.2019
5185 Clouds 14 1009 72 10000 8.7 340 07:18 28.10.2019
5186 Clouds 14 1009 72 10000 9.8 340 06:39 28.10.2019
5187 Clouds 15 1010 67 10000 7.2 330 05:33 28.10.2019
5188 Clouds 16 1010 67 10000 9.8 320 03:45 28.10.2019
5189 Clouds 17 1010 63 10000 8.7 340 02:46 28.10.2019
5190 Clouds 17 1011 63 10000 7.2 320 01:52 28.10.2019
5191 Clouds 17 1010 59 10000 7.7 340 00:53 28.10.2019
5192 Clouds 17 1010 63 10000 7.2 340 00:26 28.10.2019
5193 Clouds 17 1011 63 10000 7.7 340 23:46 27.10.2019
5194 Clouds 17 1010 63 10000 8.2 340 23:23 27.10.2019
5195 Clouds 17 1010 59 10000 9.3 340 22:57 27.10.2019
5196 Clouds 17 1010 59 10000 9.3 340 22:57 27.10.2019
5197 Clouds 17 1010 59 10000 9.3 340 22:39 27.10.2019
5198 Clouds 16 1010 59 10000 8.7 350 22:21 27.10.2019
5199 Clouds 16 1010 63 10000 7.7 340 21:57 27.10.2019
5200 Clouds 16 1010 63 10000 7.7 340 21:39 27.10.2019
5201 Clouds 15 1010 72 10000 7.2 10 21:20 27.10.2019
5202 Clouds 15 1010 72 10000 6.2 10 20:55 27.10.2019
5203 Clouds 15 1010 72 10000 6.2 10 20:37 27.10.2019
5204 Clouds 14 1010 76 10000 4.1 360 20:19 27.10.2019
5205 Clouds 13 1010 71 10000 3.6 340 19:40 27.10.2019
5206 Clouds 13 1009 71 10000 6.7 340 19:21 27.10.2019
5207 Clouds 13 1009 76 10000 6.7 330 18:58 27.10.2019
5208 Clouds 13 1009 76 10000 6.7 330 18:39 27.10.2019
5209 Clouds 13 1009 76 10000 8.7 330 18:21 27.10.2019
5210 Clouds 13 1009 76 10000 7.2 330 17:58 27.10.2019
5211 Clouds 13 1009 76 10000 7.2 330 17:39 27.10.2019
5212 Clouds 13 1009 76 10000 7.7 330 17:19 27.10.2019
5213 Clouds 13 1009 82 10000 8.2 330 16:57 27.10.2019
5214 Clouds 14 1009 82 10000 8.2 330 16:38 27.10.2019
5215 Clouds 14 1009 82 10000 8.2 340 16:20 27.10.2019
5216 Clouds 14 1009 82 10000 7.7 340 15:56 27.10.2019
5217 Clouds 14 1009 82 10000 7.7 340 15:37 27.10.2019
5218 Clouds 14 1009 87 10000 8.7 350 15:19 27.10.2019
5219 Clouds 14 1009 87 10000 9.3 350 14:42 27.10.2019
5220 Rain 14 1009 87 10000 8.2 340 14:20 27.10.2019
5221 Rain 14 1010 93 5000 7.7 330 13:57 27.10.2019
5222 Rain 14 1010 93 5000 7.7 330 13:38 27.10.2019
5223 Rain 15 1010 82 10000 8.2 340 13:19 27.10.2019
5224 Rain 14 1010 93 10000 10.8 350 12:45 27.10.2019
5225 Rain 14 1010 93 10000 10.8 350 12:24 27.10.2019
5226 Rain 14 1010 93 10000 10.8 350 12:24 27.10.2019
5227 Rain 14 1010 93 9000 10.3 350 11:58 27.10.2019
5228 Rain 15 1010 93 9000 10.3 350 11:40 27.10.2019
5229 Clouds 15 1010 82 10000 12.3 350 11:21 27.10.2019
5230 Clouds 15 1010 82 10000 12.3 340 10:44 27.10.2019
5231 Clouds 15 1010 87 10000 11.8 340 10:24 27.10.2019
5232 Clouds 15 1010 87 9000 12.3 350 09:56 27.10.2019
5233 Clouds 14 1010 87 9000 12.3 350 09:37 27.10.2019
5234 Clouds 15 1009 87 10000 12.9 340 09:18 27.10.2019
5235 Clouds 15 1009 87 10000 12.9 340 09:18 27.10.2019
5236 Clouds 15 1009 87 10000 12.9 340 09:18 27.10.2019
5237 Clouds 15 1009 87 10000 12.9 340 09:18 27.10.2019
5238 Clouds 15 1009 87 10000 12.3 340 08:41 27.10.2019
5239 Clouds 15 1009 87 10000 10.8 340 08:22 27.10.2019
5240 Clouds 15 1008 87 10000 13.4 340 07:56 27.10.2019
5241 Clouds 15 1008 87 10000 13.4 340 07:38 27.10.2019
5242 Clouds 15 1008 77 10000 11.8 340 07:19 27.10.2019
5243 Clouds 14 1008 82 10000 11.3 350 06:42 27.10.2019
5244 Clouds 14 1009 82 10000 12.9 350 06:23 27.10.2019
5245 Clouds 15 1009 82 10000 12.3 350 05:38 27.10.2019
5246 Clear 15 1009 77 10000 11.3 330 04:50 27.10.2019
5247 Clear 17 1010 72 10000 14.9 340 02:52 27.10.2019
5248 Clear 15 1011 77 10000 14.4 360 02:19 27.10.2019
5249 Clear 15 1011 82 10000 12.3 360 01:24 27.10.2019
5250 Clear 15 1012 82 10000 11.3 360 00:51 27.10.2019
5251 Clear 15 1012 72 10000 12.3 360 00:29 27.10.2019
5252 Clear 16 1012 72 10000 12.3 350 23:57 26.10.2019
5253 Clear 15 1012 72 10000 12.3 350 23:39 26.10.2019
5254 Clear 15 1012 72 10000 12.3 350 23:21 26.10.2019
5255 Clear 15 1012 72 10000 13.4 350 22:56 26.10.2019
5256 Clear 14 1012 72 10000 13.4 350 22:38 26.10.2019
5257 Clear 14 1012 77 10000 12.3 350 22:19 26.10.2019
5258 Clear 14 1012 82 10000 12.9 360 21:44 26.10.2019
5259 Clear 14 1012 82 10000 13.4 360 21:22 26.10.2019
5260 Clear 14 1012 82 10000 11.8 360 20:59 26.10.2019
5261 Clear 13 1012 82 10000 11.8 360 20:39 26.10.2019
5262 Clear 13 1012 82 10000 11.8 360 20:18 26.10.2019
5263 Clear 13 1012 82 10000 12.3 10 19:42 26.10.2019
5264 Clear 13 1012 82 10000 12.3 10 19:42 26.10.2019
5265 Clear 13 1012 82 10000 11.3 10 19:21 26.10.2019
5266 Clear 13 1012 82 10000 12.3 360 18:57 26.10.2019
5267 Clear 13 1012 82 10000 12.3 360 18:39 26.10.2019
5268 Clear 13 1012 82 10000 12.3 360 18:39 26.10.2019
5269 Clear 13 1011 82 10000 11.3 350 18:19 26.10.2019
5270 Clear 13 1011 82 10000 10.8 10 17:57 26.10.2019
5271 Clear 13 1011 82 10000 10.8 10 17:38 26.10.2019
5272 Clear 13 1011 82 10000 10.8 20 17:20 26.10.2019
5273 Clear 13 1011 82 10000 11.8 10 16:44 26.10.2019
5274 Clear 13 1011 82 10000 10.8 10 16:25 26.10.2019
5275 Clear 13 1011 82 10000 10.3 360 15:59 26.10.2019
5276 Clear 13 1011 82 10000 10.3 360 15:38 26.10.2019
5277 Clear 13 1011 82 10000 8.2 10 15:18 26.10.2019
5278 Clear 13 1011 82 10000 9.8 10 14:39 26.10.2019
5279 Clear 13 1011 82 10000 8.7 10 14:19 26.10.2019
5280 Clear 13 1010 79 0 8.85 3 13:56 26.10.2019
5281 Clear 13 1011 82 10000 9.8 10 13:56 26.10.2019
5282 Clear 13 1010 79 0 8.85 3 13:36 26.10.2019
5283 Clear 13 1010 79 0 8.85 3 13:18 26.10.2019
5284 Clear 12 1011 78 0 3.13 33 12:42 26.10.2019
5285 Clear 13 1011 82 10000 11.8 10 12:19 26.10.2019
5286 Clear 13 1011 82 10000 11.8 10 11:47 26.10.2019
5287 Clear 13 1011 82 10000 11.8 10 11:25 26.10.2019
5288 Clear 13 1010 82 10000 11.8 10 10:47 26.10.2019
5289 Clear 13 1010 82 10000 11.3 10 10:26 26.10.2019
5290 Clear 13 1010 82 10000 11.3 10 09:49 26.10.2019
5291 Clear 14 1009 76 10000 11.8 10 09:30 26.10.2019
5292 Clouds 14 1009 76 10000 11.8 360 08:55 26.10.2019
5293 Clouds 14 1009 76 10000 11.8 360 08:36 26.10.2019
5294 Clouds 14 1009 76 10000 12.9 360 08:18 26.10.2019
5295 Clouds 15 1009 72 10000 12.3 360 07:42 26.10.2019
5296 Clouds 15 1009 72 10000 12.3 360 07:22 26.10.2019
5297 Clouds 16 1009 67 10000 11.8 10 06:40 26.10.2019
5298 Clouds 17 1009 59 10000 13.4 360 05:56 26.10.2019
5299 Clouds 17 1009 59 10000 11.3 10 05:19 26.10.2019
5300 Clouds 19 1010 59 10000 11.8 360 03:53 26.10.2019
5301 Clouds 17 1010 55 10000 9.3 360 02:33 26.10.2019
5302 Clouds 18 1010 55 10000 9.3 360 01:47 26.10.2019
5303 Clouds 16 1011 67 10000 9.3 360 00:52 26.10.2019
5304 Clouds 15 1011 62 10000 9.3 10 23:56 25.10.2019
5305 Clouds 15 1011 62 10000 9.3 10 23:37 25.10.2019
5306 Clouds 14 1011 67 10000 8.2 10 23:18 25.10.2019
5307 Clouds 14 1011 67 10000 7.7 10 22:39 25.10.2019
5308 Clouds 13 1011 66 10000 7.2 10 22:21 25.10.2019
5309 Clouds 12 1011 71 10000 6.7 30 21:56 25.10.2019
5310 Clouds 12 1011 71 10000 6.7 30 21:38 25.10.2019
5311 Clouds 11 1011 71 10000 6.2 30 21:19 25.10.2019
5312 Clouds 10 1011 71 10000 6.2 30 20:43 25.10.2019
5313 Clouds 9 1011 76 10000 5.7 30 20:20 25.10.2019
5314 Clouds 8 1010 76 10000 4.6 30 19:47 25.10.2019
5315 Clouds 8 1010 81 10000 5.1 30 19:29 25.10.2019
5316 Clouds 8 1010 76 10000 4.6 30 18:58 25.10.2019
5317 Clouds 8 1010 76 10000 4.6 30 18:40 25.10.2019
5318 Clouds 8 1010 76 10000 4.6 20 18:20 25.10.2019
5319 Clouds 8 1010 76 10000 4.1 20 17:40 25.10.2019
5320 Clouds 8 1010 76 10000 3.6 30 17:20 25.10.2019
5321 Clouds 8 1011 76 10000 2.6 40 16:47 25.10.2019
5322 Clouds 8 1010 81 10000 2.6 40 16:23 25.10.2019
5323 Clouds 8 1011 81 10000 2.6 30 15:57 25.10.2019
5324 Clouds 8 1011 81 10000 2.6 30 15:39 25.10.2019
5325 Clouds 8 1011 76 10000 2.1 40 15:21 25.10.2019
5326 Clouds 8 1011 76 10000 2.6 20 14:43 25.10.2019
5327 Clouds 8 1011 76 10000 2.6 20 14:43 25.10.2019
5328 Clouds 8 1011 66 10000 1 190 14:23 25.10.2019
5329 Clouds 8 1011 66 10000 1 190 14:23 25.10.2019
5330 Clouds 8 1011 71 10000 1.5 160 13:59 25.10.2019
5331 Clouds 9 1011 71 10000 1.5 160 13:39 25.10.2019
5332 Clouds 9 1011 66 10000 1.5 170 13:21 25.10.2019
5333 Clouds 8 1011 66 10000 2.6 170 12:55 25.10.2019
5334 Clouds 8 1011 66 10000 2.6 170 12:55 25.10.2019
5335 Clouds 8 1011 66 10000 2.6 170 12:36 25.10.2019
5336 Clouds 9 1011 71 10000 3.1 160 12:18 25.10.2019
5337 Clouds 9 1011 71 10000 4.1 170 11:39 25.10.2019
5338 Clouds 9 1011 71 10000 4.1 170 11:39 25.10.2019
5339 Clouds 9 1011 71 10000 4.6 160 11:20 25.10.2019
5340 Clouds 9 1011 66 10000 4.1 170 10:42 25.10.2019
5341 Clouds 9 1010 66 10000 4.6 170 10:23 25.10.2019
5342 Clouds 10 1010 66 10000 5.1 170 09:59 25.10.2019
5343 Clouds 10 1010 66 10000 5.1 170 09:39 25.10.2019
5344 Clouds 10 1010 66 10000 6.2 170 09:20 25.10.2019
5345 Clouds 10 1010 62 10000 6.2 160 08:52 25.10.2019
5346 Clouds 10 1009 62 10000 6.7 160 08:33 25.10.2019
5347 Clouds 11 1009 66 10000 6.7 170 07:58 25.10.2019
5348 Clouds 11 1009 66 10000 6.7 170 07:40 25.10.2019
5349 Clouds 11 1009 62 10000 8.2 170 07:22 25.10.2019
5350 Clouds 11 1009 58 10000 8.2 170 06:36 25.10.2019
5351 Clouds 12 1009 66 10000 7.2 170 05:48 25.10.2019
5352 Clouds 13 1009 62 10000 8.2 170 05:27 25.10.2019
5353 Clouds 13 1009 66 10000 8.7 170 04:19 25.10.2019
5354 Rain 13 1008 58 10000 6.7 190 02:34 25.10.2019
5355 Rain 14 1008 58 10000 6.7 170 01:52 25.10.2019
5356 Rain 14 1007 54 10000 4.6 180 00:30 25.10.2019
5357 Clear 14 1007 54 10000 3.6 180 23:42 24.10.2019
5358 Clear 14 1006 54 10000 3.6 180 23:24 24.10.2019
5359 Clear 14 1006 58 10000 2.1 150 22:57 24.10.2019
5360 Clear 14 1006 58 10000 2.1 150 22:38 24.10.2019
5361 Clear 13 1005 62 10000 2.1 20 22:19 24.10.2019
5362 Clear 13 1005 71 10000 3.1 30 21:57 24.10.2019
5363 Clear 13 1005 71 10000 3.1 30 21:57 24.10.2019
5364 Clear 11 1005 71 10000 3.1 30 21:38 24.10.2019
5365 Clear 10 1005 76 10000 2.6 60 21:20 24.10.2019
5366 Clear 9 1004 76 10000 1.5 20 20:58 24.10.2019
5367 Clear 8 1004 76 10000 1.5 20 20:38 24.10.2019
5368 Clear 6 1004 81 10000 2.1 350 20:20 24.10.2019
5369 Clear 7 1004 81 10000 2.6 360 19:55 24.10.2019
5370 Clear 6 1004 81 10000 2.6 360 19:37 24.10.2019
5371 Clear 6 1003 81 10000 2.1 340 19:18 24.10.2019
5372 Clear 6 1003 81 10000 2.1 360 18:41 24.10.2019
5373 Clouds 7 1003 81 10000 3.6 30 18:23 24.10.2019
5374 Clouds 6 1003 87 10000 4.6 30 17:59 24.10.2019
5375 Clouds 7 1003 87 10000 4.6 30 17:40 24.10.2019
5376 Clouds 7 1004 81 10000 4.6 20 17:20 24.10.2019
5377 Clouds 6 1004 81 10000 5.1 30 16:56 24.10.2019
5378 Clouds 6 1004 81 10000 5.1 30 16:37 24.10.2019
5379 Clouds 6 1004 81 10000 5.1 20 16:19 24.10.2019
5380 Clouds 6 1005 81 10000 4.6 20 15:56 24.10.2019
5381 Clouds 6 1005 81 10000 4.6 20 15:56 24.10.2019
5382 Clouds 6 1005 81 10000 4.6 20 15:38 24.10.2019
5383 Clouds 6 1005 81 10000 5.1 10 15:19 24.10.2019
5384 Clouds 6 1005 81 10000 5.1 20 14:55 24.10.2019
5385 Rain 6 1005 81 10000 5.1 20 14:36 24.10.2019
5386 Rain 6 1005 81 10000 3.6 20 14:18 24.10.2019
5387 Rain 6 1005 75 10000 4.1 10 13:40 24.10.2019
5388 Rain 6 1005 75 10000 2.1 20 13:19 24.10.2019
5389 Rain 7 1005 75 10000 2.1 360 12:57 24.10.2019
5390 Rain 7 1005 75 10000 2.1 360 12:38 24.10.2019
5391 Rain 7 1006 71 10000 2.6 300 12:19 24.10.2019
5392 Rain 8 1006 66 10000 3.1 180 11:56 24.10.2019
5393 Rain 8 1006 66 10000 3.1 180 11:37 24.10.2019
5394 Rain 8 1006 66 10000 3.6 190 11:18 24.10.2019
5395 Rain 8 1005 76 10000 3.6 210 10:42 24.10.2019
5396 Rain 8 1005 71 10000 2.1 200 10:23 24.10.2019
5397 Rain 8 1004 76 10000 4.6 190 09:58 24.10.2019
5398 Rain 8 1004 76 10000 4.6 190 09:37 24.10.2019
5399 Rain 8 1004 66 10000 6.7 180 09:18 24.10.2019
5400 Rain 8 1004 66 10000 6.7 180 09:18 24.10.2019
5401 Rain 8 1004 70 10000 6.7 170 08:42 24.10.2019
5402 Rain 8 1004 70 10000 10.3 170 08:20 24.10.2019
5403 Rain 9 1003 70 10000 12.9 170 07:48 24.10.2019
5404 Rain 9 1003 71 10000 9.8 180 07:24 24.10.2019
5405 Rain 9 1003 71 10000 11.3 180 06:57 24.10.2019
5406 Rain 10 1003 71 10000 11.3 180 06:36 24.10.2019
5407 Rain 10 1001 81 10000 12.3 180 05:56 24.10.2019
5408 Rain 11 1001 81 10000 12.3 180 05:35 24.10.2019
5409 Rain 15 998 71 10000 13.4 230 04:33 24.10.2019
5410 Rain 17 997 48 10000 6.2 340 03:36 24.10.2019
5411 Clouds 17 997 52 10000 6.7 360 02:41 24.10.2019
5412 Clouds 18 997 59 10000 5.7 330 02:20 24.10.2019
5413 Clouds 17 998 63 10000 9.3 330 01:31 24.10.2019
5414 Clouds 16 998 72 10000 10.3 320 00:57 24.10.2019
5415 Clouds 16 998 72 10000 9.8 340 00:30 24.10.2019
5416 Clouds 14 999 71 10000 9.3 350 23:57 23.10.2019
5417 Clouds 13 999 71 10000 9.3 350 23:38 23.10.2019
5418 Clouds 12 1000 76 10000 9.3 360 23:19 23.10.2019
5419 Clouds 12 1001 66 10000 8.2 350 22:56 23.10.2019
5420 Clouds 12 1001 66 10000 8.2 350 22:37 23.10.2019
5421 Clouds 12 1001 58 10000 8.7 350 22:18 23.10.2019
5422 Clouds 12 1001 62 10000 9.3 360 21:56 23.10.2019
5423 Clouds 12 1001 62 10000 9.3 360 21:37 23.10.2019
5424 Clouds 12 1001 58 10000 8.2 10 21:19 23.10.2019
5425 Clouds 12 1001 62 10000 8.7 360 20:54 23.10.2019
5426 Clouds 11 1001 62 10000 8.7 360 20:36 23.10.2019
5427 Clouds 10 1001 62 10000 6.7 350 20:18 23.10.2019
5428 Clouds 10 1002 62 10000 6.7 360 19:42 23.10.2019
5429 Clouds 10 1002 62 10000 6.2 350 19:19 23.10.2019
5430 Clouds 10 1002 62 10000 5.7 350 18:57 23.10.2019
5431 Clouds 10 1002 62 10000 5.7 350 18:39 23.10.2019
5432 Clouds 10 1002 76 10000 6.2 30 18:19 23.10.2019
5433 Clouds 10 1002 76 10000 6.2 30 17:55 23.10.2019
5434 Clouds 10 1002 76 10000 6.2 30 17:36 23.10.2019
5435 Clouds 10 1003 71 10000 6.7 30 17:18 23.10.2019
5436 Clouds 9 1003 70 10000 8.2 20 16:40 23.10.2019
5437 Clouds 9 1003 70 10000 8.2 30 16:20 23.10.2019
5438 Clouds 9 1004 70 10000 7.2 40 15:57 23.10.2019
5439 Clouds 9 1004 70 10000 7.2 40 15:38 23.10.2019
5440 Clear 8 1005 75 10000 6.7 30 15:20 23.10.2019
5441 Clear 7 1005 75 10000 6.7 20 14:56 23.10.2019
5442 Clouds 7 1005 75 10000 6.7 20 14:37 23.10.2019
5443 Clouds 6 1005 75 10000 7.2 20 14:18 23.10.2019
5444 Clouds 6 1006 75 10000 4.6 10 13:42 23.10.2019
5445 Clouds 6 1007 75 10000 3.6 20 13:24 23.10.2019
5446 Clouds 6 1007 75 10000 4.6 30 12:57 23.10.2019
5447 Clouds 6 1007 75 10000 4.6 30 12:38 23.10.2019
5448 Clear 5 1007 81 10000 2.1 40 12:19 23.10.2019
5449 Clear 6 1007 75 10000 2.1 80 11:57 23.10.2019
5450 Clear 6 1007 75 10000 2.1 80 11:39 23.10.2019
5451 Clear 6 1007 75 10000 1.5 30 11:20 23.10.2019
5452 Clear 7 1007 70 10000 1 70 10:46 23.10.2019
5453 Clear 7 1007 66 10000 4.6 150 10:26 23.10.2019
5454 Clear 7 1007 66 10000 5.1 160 09:58 23.10.2019
5455 Clear 7 1007 66 10000 5.1 160 09:39 23.10.2019
5456 Rain 8 1006 66 10000 8.2 170 09:21 23.10.2019
5457 Rain 9 1006 66 10000 9.8 160 08:43 23.10.2019
5458 Rain 9 1006 66 10000 9.8 160 08:43 23.10.2019
5459 Rain 10 1006 66 10000 8.2 180 08:25 23.10.2019
5460 Rain 10 1006 66 10000 9.3 180 07:47 23.10.2019
5461 Rain 10 1006 66 10000 10.3 180 07:27 23.10.2019
5462 Rain 10 1006 61 10000 11.8 180 06:48 23.10.2019
5463 Rain 10 1006 62 10000 12.9 190 06:23 23.10.2019
5464 Rain 11 1006 66 10000 10.8 180 05:59 23.10.2019
5465 Rain 11 1006 57 10000 12.3 190 05:18 23.10.2019
5466 Rain 10 1007 87 4500 15.9 190 03:37 23.10.2019
5467 Rain 10 1006 76 10000 12.9 200 02:42 23.10.2019
5468 Rain 10 1005 76 10000 15.9 210 01:35 23.10.2019
5469 Rain 10 1004 81 6000 17.5 200 00:59 23.10.2019
5470 Rain 8 1003 81 4400 17 190 00:33 23.10.2019
5471 Rain 8 1003 87 3800 18.5 200 23:43 22.10.2019
5472 Rain 7 1002 93 3700 17 200 23:19 22.10.2019
5473 Rain 7 1001 87 7000 15.9 190 22:59 22.10.2019
5474 Rain 8 1001 87 7000 15.9 190 22:40 22.10.2019
5475 Rain 7 1001 100 1300 17 200 22:21 22.10.2019
5476 Rain 8 1000 81 6000 17 200 21:56 22.10.2019
5477 Rain 8 1000 81 6000 17 200 21:38 22.10.2019
5478 Rain 7 999 93 3800 17.5 200 21:19 22.10.2019
5479 Rain 8 998 93 10000 15.9 180 20:58 22.10.2019
5480 Rain 7 998 93 10000 15.9 180 20:40 22.10.2019
5481 Rain 7 998 87 5000 16.5 180 20:21 22.10.2019
5482 Rain 7 997 87 7000 16.5 170 19:55 22.10.2019
5483 Rain 7 997 87 7000 16.5 170 19:37 22.10.2019
5484 Rain 7 996 87 6000 17 170 19:19 22.10.2019
5485 Rain 7 995 93 5000 17 170 18:41 22.10.2019
5486 Rain 8 994 100 3000 16.5 170 18:22 22.10.2019
5487 Rain 8 992 87 10000 16.5 160 17:59 22.10.2019
5488 Rain 8 986 89 0 1.34 146 17:39 22.10.2019
5489 Rain 8 986 89 0 1.34 146 17:39 22.10.2019
5490 Rain 9 985 90 0 0.89 28 17:20 22.10.2019
5491 Rain 9 985 90 0 0.89 28 17:20 22.10.2019
5492 Rain 9 991 81 4800 12.3 230 16:58 22.10.2019
5493 Rain 8 990 92 0 2.24 246 16:39 22.10.2019
5494 Rain 9 991 81 9000 9.8 220 16:20 22.10.2019
5495 Rain 9 992 100 2200 12.9 200 15:58 22.10.2019
5496 Rain 9 992 100 2200 12.9 200 15:40 22.10.2019
5497 Rain 11 992 71 10000 2.1 360 15:18 22.10.2019
5498 Rain 11 992 71 10000 2.1 360 14:44 22.10.2019
5499 Rain 11 991 81 10000 5.1 10 14:21 22.10.2019
5500 Rain 11 992 81 10000 4.6 360 13:43 22.10.2019
5501 Rain 11 992 81 10000 4.1 360 13:23 22.10.2019
5502 Rain 12 992 76 10000 3.6 340 12:59 22.10.2019
5503 Rain 12 992 76 10000 3.6 340 12:41 22.10.2019
5504 Rain 12 992 76 10000 6.2 340 12:21 22.10.2019
5505 Rain 12 993 76 10000 8.2 330 11:57 22.10.2019
5506 Rain 12 993 76 10000 8.2 330 11:57 22.10.2019
5507 Rain 12 993 76 10000 8.2 330 11:38 22.10.2019
5508 Rain 12 993 76 10000 9.3 330 11:20 22.10.2019
5509 Rain 12 994 76 10000 8.2 330 10:57 22.10.2019
5510 Rain 12 994 76 10000 8.2 330 10:37 22.10.2019
5511 Rain 12 994 76 10000 7.7 340 10:18 22.10.2019
5512 Rain 12 994 76 10000 7.7 340 10:18 22.10.2019
5513 Rain 12 994 76 10000 10.3 340 09:55 22.10.2019
5514 Rain 12 994 76 10000 10.3 340 09:36 22.10.2019
5515 Clouds 12 995 76 10000 9.3 350 09:18 22.10.2019
5516 Clouds 13 995 67 10000 9.8 350 08:42 22.10.2019
5517 Rain 13 996 62 10000 9.3 350 08:21 22.10.2019
5518 Rain 13 996 62 10000 9.3 350 08:21 22.10.2019
5519 Rain 13 996 62 10000 8.7 340 07:46 22.10.2019
5520 Rain 13 996 58 10000 9.3 350 07:26 22.10.2019
5521 Clouds 14 997 62 10000 8.7 330 06:51 22.10.2019
5522 Clouds 14 997 55 10000 8.7 340 06:31 22.10.2019
5523 Clouds 15 998 59 10000 7.7 350 05:56 22.10.2019
5524 Clouds 15 998 51 10000 9.3 350 05:20 22.10.2019
5525 Clouds 15 1001 54 10000 9.3 360 02:47 22.10.2019
5526 Clouds 15 1002 51 10000 7.2 360 02:28 22.10.2019
5527 Clouds 15 1003 58 10000 1.5 190 01:27 22.10.2019
5528 Clouds 14 1003 62 10000 2.1 160 00:57 22.10.2019
5529 Clouds 14 1003 62 10000 2.1 160 00:39 22.10.2019
5530 Rain 13 1004 66 10000 3.6 180 00:20 22.10.2019
5531 Rain 13 1003 62 10000 4.6 170 23:54 21.10.2019
5532 Rain 13 1003 62 10000 4.6 170 23:36 21.10.2019
5533 Rain 13 1003 62 10000 4.6 170 23:36 21.10.2019
5534 Rain 13 1004 66 10000 6.2 180 23:18 21.10.2019
5535 Rain 13 1003 62 10000 7.7 190 22:54 21.10.2019
5536 Rain 13 1003 62 10000 7.7 190 22:54 21.10.2019
5537 Rain 12 1003 62 10000 7.7 190 22:36 21.10.2019
5538 Rain 11 1003 71 10000 10.3 190 22:18 21.10.2019
5539 Rain 12 1003 66 10000 11.3 200 21:40 21.10.2019
5540 Rain 10 1003 71 10000 10.8 200 21:22 21.10.2019
5541 Rain 9 1002 71 10000 9.3 190 20:58 21.10.2019
5542 Rain 9 1002 71 10000 9.3 190 20:40 21.10.2019
5543 Rain 9 1002 76 10000 9.3 200 20:21 21.10.2019
5544 Rain 10 1000 81 10000 7.7 220 19:58 21.10.2019
5545 Rain 9 1000 81 10000 7.7 220 19:40 21.10.2019
5546 Rain 9 1000 81 10000 7.7 220 19:40 21.10.2019
5547 Rain 10 1000 87 10000 7.7 220 19:21 21.10.2019
5548 Rain 10 999 62 10000 9.8 240 18:56 21.10.2019
5549 Rain 10 999 62 10000 9.8 240 18:37 21.10.2019
5550 Rain 10 999 62 10000 4.6 240 18:19 21.10.2019
5551 Rain 10 998 71 10000 2.6 230 17:55 21.10.2019
5552 Rain 10 998 71 10000 2.6 230 17:37 21.10.2019
5553 Rain 11 998 62 10000 4.1 270 17:18 21.10.2019
5554 Rain 11 998 62 10000 2.6 310 16:56 21.10.2019
5555 Rain 11 998 62 10000 2.6 310 16:37 21.10.2019
5556 Rain 11 998 71 10000 4.6 320 16:19 21.10.2019
5557 Rain 11 998 71 10000 3.6 360 15:42 21.10.2019
5558 Clouds 11 999 76 10000 3.1 350 15:24 21.10.2019
5559 Rain 11 999 76 10000 3.6 350 14:57 21.10.2019
5560 Rain 11 999 76 10000 3.6 350 14:38 21.10.2019
5561 Drizzle 11 1000 71 10000 5.1 310 14:19 21.10.2019
5562 Rain 12 1000 62 10000 6.7 320 13:55 21.10.2019
5563 Rain 12 1000 62 10000 6.7 320 13:37 21.10.2019
5564 Clouds 12 1001 62 10000 4.6 330 13:18 21.10.2019
5565 Clouds 12 1001 76 10000 2.1 10 12:41 21.10.2019
5566 Clouds 12 1001 76 10000 1.5 330 12:22 21.10.2019
5567 Clouds 12 1001 76 10000 1 50 11:55 21.10.2019
5568 Clouds 12 1001 76 10000 1 50 11:37 21.10.2019
5569 Clouds 12 1001 71 10000 1.5 250 11:19 21.10.2019
5570 Clouds 12 1002 76 10000 2.1 220 10:55 21.10.2019
5571 Clouds 13 1002 76 10000 2.1 220 10:37 21.10.2019
5572 Clouds 13 1001 71 10000 3.6 220 10:18 21.10.2019
5573 Clouds 13 1001 67 10000 4.6 320 09:44 21.10.2019
5574 Clouds 13 1001 67 10000 5.1 340 09:25 21.10.2019
5575 Clouds 13 1000 67 10000 5.1 340 08:43 21.10.2019
5576 Clouds 13 1000 76 10000 8.2 360 08:24 21.10.2019
5577 Clouds 13 1000 71 10000 6.7 10 07:59 21.10.2019
5578 Clouds 13 1000 71 10000 6.7 10 07:37 21.10.2019
5579 Clouds 13 1000 71 10000 7.2 350 07:19 21.10.2019
5580 Clouds 14 1001 71 10000 7.2 350 06:53 21.10.2019
5581 Clouds 14 1001 62 10000 8.7 350 06:35 21.10.2019
5582 Clouds 15 1001 62 10000 7.7 340 05:50 21.10.2019
5583 Clouds 16 1001 55 10000 10.8 320 04:44 21.10.2019
5584 Clouds 16 1002 67 10000 9.3 330 02:50 21.10.2019
5585 Clouds 16 1003 67 10000 9.3 340 02:23 21.10.2019
5586 Clouds 15 1003 72 10000 11.3 350 01:55 21.10.2019
5587 Clouds 15 1004 72 10000 8.2 350 01:23 21.10.2019
5588 Clouds 15 1005 72 10000 8.7 350 00:46 21.10.2019
5589 Clouds 15 1005 77 10000 10.8 350 00:25 21.10.2019
5590 Clouds 14 1005 72 10000 8.2 340 23:42 20.10.2019
5591 Clouds 14 1006 71 10000 9.3 330 23:22 20.10.2019
5592 Rain 13 1006 76 10000 9.8 330 22:56 20.10.2019
5593 Rain 13 1006 76 10000 9.8 330 22:37 20.10.2019
5594 Clouds 13 1006 76 10000 8.7 350 22:18 20.10.2019
5595 Clouds 13 1007 76 10000 8.2 350 21:57 20.10.2019
5596 Clouds 13 1007 76 10000 8.2 350 21:38 20.10.2019
5597 Clouds 13 1007 76 10000 7.2 340 21:20 20.10.2019
5598 Clouds 13 1007 71 10000 8.7 350 20:41 20.10.2019
5599 Clouds 13 1007 82 10000 8.7 350 20:18 20.10.2019
5600 Clouds 13 1007 82 10000 8.7 350 19:56 20.10.2019
5601 Clouds 12 1007 82 10000 8.7 350 19:37 20.10.2019
5602 Clouds 13 1008 82 10000 6.7 340 19:19 20.10.2019
5603 Clouds 13 1008 76 10000 8.7 350 18:43 20.10.2019
5604 Clouds 13 1008 76 10000 8.7 340 18:24 20.10.2019
5605 Clouds 13 1009 76 10000 8.2 340 17:59 20.10.2019
5606 Clouds 13 1009 76 10000 8.2 340 17:41 20.10.2019
5607 Clouds 13 1009 76 10000 8.7 340 17:23 20.10.2019
5608 Clouds 13 1009 76 10000 10.3 340 16:57 20.10.2019
5609 Clouds 13 1009 76 10000 10.3 340 16:39 20.10.2019
5610 Clouds 13 1010 76 10000 9.8 340 16:21 20.10.2019
5611 Clouds 13 1010 76 10000 9.3 350 15:55 20.10.2019
5612 Clouds 13 1010 76 10000 9.3 350 15:37 20.10.2019
5613 Clouds 13 1010 76 10000 8.7 340 15:18 20.10.2019
5614 Clouds 13 1010 76 10000 8.7 350 14:55 20.10.2019
5615 Clouds 13 1010 76 10000 8.7 350 14:37 20.10.2019
5616 Clouds 13 1011 76 10000 8.7 340 14:18 20.10.2019
5617 Clouds 13 1011 82 10000 9.8 350 13:54 20.10.2019
5618 Clouds 13 1011 82 10000 9.8 350 13:54 20.10.2019
5619 Clouds 13 1011 82 10000 9.8 350 13:54 20.10.2019
5620 Clouds 13 1011 82 10000 9.8 350 13:54 20.10.2019
5621 Clouds 12 1011 82 10000 9.8 350 13:36 20.10.2019
5622 Clouds 13 1011 82 10000 9.3 360 13:18 20.10.2019
5623 Clouds 13 1011 82 10000 9.3 360 13:18 20.10.2019
5624 Clouds 13 1012 82 10000 9.3 350 12:54 20.10.2019
5625 Clouds 13 1012 82 10000 9.3 350 12:54 20.10.2019
5626 Clouds 13 1012 82 10000 9.3 350 12:36 20.10.2019
5627 Clouds 13 1012 82 10000 10.3 360 12:18 20.10.2019
5628 Clouds 13 1012 76 10000 9.3 350 11:41 20.10.2019
5629 Clouds 13 1012 82 10000 9.3 360 11:22 20.10.2019
5630 Clouds 13 1012 82 10000 8.2 350 10:58 20.10.2019
5631 Clouds 13 1012 82 10000 8.2 350 10:39 20.10.2019
5632 Clouds 13 1012 82 10000 8.2 350 10:39 20.10.2019
5633 Clouds 13 1012 76 10000 8.7 340 10:21 20.10.2019
5634 Clouds 13 1012 76 10000 8.7 340 10:21 20.10.2019
5635 Clouds 13 1011 82 10000 10.8 350 09:56 20.10.2019
5636 Clouds 13 1011 82 10000 10.8 350 09:37 20.10.2019
5637 Clouds 13 1011 76 10000 10.3 350 09:18 20.10.2019
5638 Clouds 13 1011 76 10000 9.3 350 08:40 20.10.2019
5639 Clouds 13 1012 71 10000 9.8 350 08:21 20.10.2019
5640 Clouds 13 1012 71 10000 9.3 350 07:47 20.10.2019
5641 Clouds 13 1012 71 10000 10.3 350 07:28 20.10.2019
5642 Clouds 14 1012 71 10000 11.8 360 06:30 20.10.2019
5643 Clouds 14 1013 63 10000 11.3 350 04:30 20.10.2019
5644 Clouds 15 1013 67 10000 12.3 350 03:51 20.10.2019
5645 Clouds 15 1013 72 10000 12.3 360 03:22 20.10.2019
5646 Clouds 14 1013 72 10000 12.3 350 02:49 20.10.2019
5647 Clouds 15 1013 77 10000 9.8 350 02:22 20.10.2019
5648 Clouds 14 1013 82 10000 10.3 360 01:50 20.10.2019
5649 Clouds 14 1014 82 10000 9.8 360 01:22 20.10.2019
5650 Clouds 14 1014 87 10000 8.7 10 00:48 20.10.2019
5651 Clouds 14 1014 77 10000 10.3 360 00:21 20.10.2019
5652 Clouds 14 1014 77 10000 9.8 360 23:54 19.10.2019
5653 Clouds 15 1014 77 10000 9.8 360 23:36 19.10.2019
5654 Clouds 15 1014 77 10000 9.8 10 23:18 19.10.2019
5655 Clouds 14 1014 77 10000 8.7 20 22:40 19.10.2019
5656 Clouds 14 1014 82 10000 8.2 10 22:22 19.10.2019
5657 Clouds 14 1014 82 10000 7.7 10 21:57 19.10.2019
5658 Clouds 13 1014 82 10000 7.7 10 21:39 19.10.2019
5659 Clouds 13 1014 82 10000 6.2 20 21:20 19.10.2019
5660 Clouds 12 1013 87 10000 5.7 30 20:42 19.10.2019
5661 Clouds 12 1013 87 10000 6.2 20 20:21 19.10.2019
5662 Clouds 12 1013 82 10000 5.7 10 19:45 19.10.2019
5663 Clouds 12 1013 87 10000 4.6 10 19:26 19.10.2019
5664 Clouds 12 1013 93 10000 4.1 10 18:57 19.10.2019
5665 Clouds 12 1013 93 10000 4.1 10 18:39 19.10.2019
5666 Clear 12 1012 93 10000 3.6 350 18:19 19.10.2019
5667 Clear 12 1012 87 10000 3.1 340 17:41 19.10.2019
5668 Clear 11 1012 87 10000 3.1 20 17:23 19.10.2019
5669 Clear 11 1012 87 10000 4.1 30 16:57 19.10.2019
5670 Clear 11 1012 87 10000 4.1 30 16:57 19.10.2019
5671 Clear 11 1012 87 10000 4.1 30 16:38 19.10.2019
5672 Clear 11 1012 87 10000 4.6 360 16:19 19.10.2019
5673 Clear 12 1012 87 10000 4.6 350 15:42 19.10.2019
5674 Clear 11 1011 87 10000 3.1 350 15:24 19.10.2019
5675 Clear 12 1011 87 10000 3.1 360 14:39 19.10.2019
5676 Clear 12 1011 87 10000 3.1 360 14:39 19.10.2019
5677 Clear 12 1011 87 10000 3.1 350 14:21 19.10.2019
5678 Clear 12 1011 87 10000 3.1 350 14:21 19.10.2019
5679 Clear 12 1011 87 10000 4.1 360 13:58 19.10.2019
5680 Clear 12 1011 87 10000 4.1 360 13:40 19.10.2019
5681 Clouds 12 1010 87 10000 5.1 10 13:19 19.10.2019
5682 Clouds 12 1010 82 10000 5.7 10 12:57 19.10.2019
5683 Clouds 13 1010 82 10000 5.7 10 12:37 19.10.2019
5684 Clear 13 1010 87 10000 5.7 20 12:19 19.10.2019
5685 Clear 13 1010 87 10000 6.2 10 11:41 19.10.2019
5686 Clear 13 1010 87 10000 5.7 20 11:23 19.10.2019
5687 Clear 13 1010 87 10000 5.7 20 10:56 19.10.2019
5688 Clear 13 1010 87 10000 5.7 20 10:38 19.10.2019
5689 Clear 13 1009 87 10000 5.1 20 10:20 19.10.2019
5690 Clear 13 1009 87 10000 5.1 20 09:43 19.10.2019
5691 Clear 13 1008 87 10000 5.1 10 09:25 19.10.2019
5692 Rain 14 1007 87 10000 5.7 10 08:59 19.10.2019
5693 Rain 14 1007 87 10000 5.7 10 08:59 19.10.2019
5694 Rain 14 1007 87 10000 5.7 10 08:40 19.10.2019
5695 Rain 14 1007 87 10000 5.7 10 08:40 19.10.2019
5696 Rain 14 1007 82 10000 5.7 20 08:21 19.10.2019
5697 Rain 15 1007 77 10000 5.7 20 07:44 19.10.2019
5698 Rain 15 1006 82 10000 2.1 90 07:25 19.10.2019
5699 Rain 15 1005 77 10000 4.1 360 06:47 19.10.2019
5700 Rain 15 1005 82 10000 3.1 190 06:26 19.10.2019
5701 Clear 16 1004 72 10000 4.6 320 05:33 19.10.2019
5702 Clear 16 1003 67 10000 8.2 330 04:22 19.10.2019
5703 Clouds 15 1002 72 10000 7.7 340 02:46 19.10.2019
5704 Clouds 15 1002 77 10000 7.7 350 01:53 19.10.2019
5705 Clouds 14 1002 82 10000 7.2 340 01:20 19.10.2019
5706 Clouds 14 1002 82 10000 7.2 340 01:20 19.10.2019
5707 Clouds 14 1002 82 10000 8.2 340 00:48 19.10.2019
5708 Clouds 14 1002 82 10000 8.2 350 00:26 19.10.2019
5709 Rain 14 1002 82 10000 9.8 340 23:45 18.10.2019
5710 Rain 13 1001 87 10000 9.3 350 23:26 18.10.2019
5711 Rain 13 1001 87 10000 8.2 350 22:57 18.10.2019
5712 Rain 13 1001 87 10000 8.2 350 22:39 18.10.2019
5713 Rain 13 1001 93 10000 8.7 360 22:20 18.10.2019
5714 Rain 13 1001 93 10000 8.7 360 22:20 18.10.2019
5715 Rain 13 1001 87 10000 6.2 20 21:58 18.10.2019
5716 Rain 12 1001 87 10000 6.2 20 21:39 18.10.2019
5717 Rain 12 1001 87 10000 6.2 20 21:20 18.10.2019
5718 Rain 12 1002 82 10000 7.7 20 20:56 18.10.2019
5719 Rain 12 1002 82 10000 7.7 20 20:38 18.10.2019
5720 Rain 12 1002 87 10000 7.7 10 20:20 18.10.2019
5721 Rain 12 1002 87 10000 7.7 10 20:20 18.10.2019
5722 Rain 12 1000 93 0 1.34 42 19:55 18.10.2019
5723 Rain 12 1000 93 0 1.34 42 19:55 18.10.2019
5724 Rain 12 1002 88 0 2.68 60 19:37 18.10.2019
5725 Rain 12 1002 88 0 2.68 60 19:37 18.10.2019
5726 Rain 12 1002 88 0 2.68 60 19:37 18.10.2019
5727 Rain 12 1002 87 10000 8.2 360 19:19 18.10.2019
5728 Rain 13 1001 87 10000 8.7 10 18:55 18.10.2019
5729 Rain 12 1001 87 10000 8.7 10 18:37 18.10.2019
5730 Rain 12 1003 87 10000 8.7 20 18:19 18.10.2019
5731 Rain 12 1003 93 9000 8.7 360 17:39 18.10.2019
5732 Rain 12 1003 93 4700 8.7 360 17:20 18.10.2019
5733 Rain 13 1003 93 10000 7.7 10 16:56 18.10.2019
5734 Rain 13 1003 93 10000 7.7 10 16:37 18.10.2019
5735 Rain 13 1003 93 4000 12.3 10 16:19 18.10.2019
5736 Rain 13 1003 93 10000 10.8 360 15:40 18.10.2019
5737 Rain 13 1004 93 9000 10.8 360 15:21 18.10.2019
5738 Rain 13 1004 93 9000 10.8 360 15:21 18.10.2019
5739 Rain 13 1005 93 8000 10.3 360 14:59 18.10.2019
5740 Rain 13 1005 93 8000 10.3 360 14:40 18.10.2019
5741 Rain 13 1005 100 3300 11.3 360 14:22 18.10.2019
5742 Rain 13 1005 87 5000 12.3 360 13:59 18.10.2019
5743 Rain 13 1005 87 5000 12.3 360 13:41 18.10.2019
5744 Rain 14 1005 82 10000 12.3 360 13:23 18.10.2019
5745 Rain 14 1006 87 7000 12.3 360 12:56 18.10.2019
5746 Rain 14 1006 87 7000 12.3 360 12:38 18.10.2019
5747 Rain 14 1006 87 7000 12.3 360 12:38 18.10.2019
5748 Rain 14 1006 87 7000 12.3 360 12:38 18.10.2019
5749 Rain 14 1006 87 10000 11.3 10 12:20 18.10.2019
5750 Rain 14 1007 82 10000 8.7 20 11:56 18.10.2019
5751 Rain 14 1007 82 10000 8.7 20 11:37 18.10.2019
5752 Rain 14 1008 87 10000 10.8 10 11:19 18.10.2019
5753 Rain 14 1008 87 7000 10.8 360 10:43 18.10.2019
5754 -273 0 0 0 0 0 10:43 18.10.2019
5755 Rain 14 1008 82 10000 11.3 360 10:23 18.10.2019
5756 Rain 14 1007 87 10000 10.3 10 09:59 18.10.2019
5757 Rain 14 1007 87 10000 10.3 10 09:41 18.10.2019
5758 Rain 14 1007 87 10000 9.3 10 09:21 18.10.2019
5759 Rain 14 1007 87 10000 9.3 10 09:21 18.10.2019
5760 Rain 14 1007 87 10000 10.3 360 08:58 18.10.2019
5761 Rain 14 1007 87 10000 10.3 360 08:58 18.10.2019
5762 Rain 14 1007 87 10000 10.3 360 08:58 18.10.2019
5763 Rain 14 1007 87 10000 10.3 360 08:40 18.10.2019
5764 Rain 14 1008 93 10000 8.7 360 08:21 18.10.2019
5765 Rain 14 1008 87 10000 10.3 360 07:42 18.10.2019
5766 Rain 14 1009 87 10000 9.3 350 07:21 18.10.2019
5767 Rain 14 1009 87 10000 9.8 350 06:39 18.10.2019
5768 Rain 14 1009 93 10000 8.2 350 06:21 18.10.2019
5769 Rain 13 1010 87 10000 9.8 340 05:56 18.10.2019
5770 Rain 13 1010 87 6000 9.8 340 05:23 18.10.2019
5771 Rain 13 1011 87 6000 11.3 340 04:25 18.10.2019
5772 Rain 14 1011 93 7000 10.8 360 03:29 18.10.2019
5773 Rain 14 1011 93 10000 12.3 360 02:33 18.10.2019
5774 Rain 14 1012 93 9000 10.3 360 01:44 18.10.2019
5775 Rain 14 1012 87 10000 10.3 360 01:26 18.10.2019
5776 Rain 14 1013 87 7000 8.7 360 00:45 18.10.2019
5777 Rain 13 1013 93 7000 8.7 360 00:21 18.10.2019
5778 Rain 13 1013 93 8000 8.7 350 23:55 17.10.2019
5779 Rain 13 1013 93 8000 8.7 350 23:36 17.10.2019
5780 Rain 13 1012 93 6000 10.3 360 23:18 17.10.2019
5781 Rain 13 1012 93 9000 9.8 10 22:54 17.10.2019
5782 Rain 13 1012 93 9000 9.8 10 22:36 17.10.2019
5783 Rain 13 1012 93 5000 9.8 360 22:18 17.10.2019
5784 Rain 13 1012 93 5000 10.8 360 21:55 17.10.2019
5785 Rain 13 1012 93 5000 10.8 360 21:55 17.10.2019
5786 Rain 13 1012 93 5000 10.8 360 21:37 17.10.2019
5787 Rain 12 1012 90 0 3.13 353 21:19 17.10.2019
5788 Rain 13 1012 87 10000 8.7 360 20:56 17.10.2019
5789 Rain 13 1012 87 10000 8.7 360 20:56 17.10.2019
5790 Rain 13 1012 87 10000 8.7 360 20:56 17.10.2019
5791 Clouds 13 1012 87 10000 8.7 360 20:37 17.10.2019
5792 Clouds 13 1012 87 10000 9.3 360 20:18 17.10.2019
5793 Clouds 13 1012 87 10000 9.3 360 20:18 17.10.2019
5794 Rain 13 1012 87 10000 8.2 350 19:42 17.10.2019
5795 Rain 13 1012 87 9000 9.3 350 19:20 17.10.2019
5796 Rain 13 1012 87 10000 8.7 340 18:59 17.10.2019
5797 Rain 13 1012 87 10000 8.7 340 18:39 17.10.2019
5798 Rain 13 1012 82 10000 7.2 340 18:20 17.10.2019
5799 Clouds 13 1012 82 10000 7.2 340 17:44 17.10.2019
5800 Drizzle 13 1012 82 10000 6.7 340 17:25 17.10.2019
5801 Clouds 13 1012 71 10000 6.2 340 16:59 17.10.2019
5802 Clouds 13 1012 71 10000 6.2 340 16:41 17.10.2019
5803 Clouds 13 1012 82 10000 6.2 340 16:19 17.10.2019
5804 Clouds 13 1012 72 10000 5.1 340 15:57 17.10.2019
5805 Clouds 13 1012 72 10000 5.1 340 15:57 17.10.2019
5806 Clouds 14 1012 72 10000 5.1 340 15:38 17.10.2019
5807 Clouds 14 1007 82 0 0.45 145 15:20 17.10.2019
5808 Clouds 14 1012 77 10000 6.2 350 14:57 17.10.2019
5809 Clouds 14 1012 77 10000 6.2 350 14:38 17.10.2019
5810 Clouds 14 1012 77 10000 4.6 350 14:20 17.10.2019
5811 Clouds 14 1012 72 10000 4.1 350 13:41 17.10.2019
5812 Clouds 14 1012 76 10000 4.6 10 13:21 17.10.2019
5813 Clouds 14 1012 72 10000 5.1 10 12:58 17.10.2019
5814 Clouds 14 1012 72 10000 5.1 10 12:39 17.10.2019
5815 Clouds 14 1012 72 10000 5.7 40 12:19 17.10.2019
5816 Clouds 14 1012 77 10000 4.6 30 11:56 17.10.2019
5817 Clouds 14 1012 77 10000 4.6 30 11:37 17.10.2019
5818 Rain 14 1011 72 10000 4.6 30 11:18 17.10.2019
5819 Clouds 15 1011 67 10000 4.6 360 10:42 17.10.2019
5820 Clouds 14 1011 72 10000 5.1 30 10:20 17.10.2019
5821 Clouds 14 1010 72 10000 5.7 40 09:57 17.10.2019
5822 Clouds 14 1010 72 10000 5.7 40 09:57 17.10.2019
5823 Clouds 14 1010 72 10000 5.7 40 09:38 17.10.2019
5824 Clouds 14 1010 77 10000 5.1 30 09:20 17.10.2019
5825 Clouds 15 1010 77 10000 5.7 20 08:57 17.10.2019
5826 Clouds 15 1010 77 10000 5.7 20 08:38 17.10.2019
5827 Clouds 15 1010 77 10000 7.2 20 08:18 17.10.2019
5828 Clouds 15 1009 67 10000 7.2 30 07:43 17.10.2019
5829 Clouds 16 1009 63 10000 6.2 20 07:21 17.10.2019
5830 Clouds 16 1009 63 10000 6.2 20 07:21 17.10.2019
5831 Clouds 16 1009 63 10000 6.2 10 06:56 17.10.2019
5832 Clouds 17 1009 63 10000 6.2 10 06:38 17.10.2019
5833 Clouds 17 1009 63 10000 6.2 20 06:19 17.10.2019
5834 Clouds 18 1008 68 10000 6.2 10 05:41 17.10.2019
5835 Clouds 17 1008 63 10000 6.7 10 05:20 17.10.2019
5836 Clouds 18 1008 68 10000 5.7 40 04:48 17.10.2019
5837 Clouds 18 1009 63 10000 6.2 10 03:49 17.10.2019
5838 Clouds 18 1009 63 10000 6.2 10 03:49 17.10.2019
5839 Clouds 18 1009 68 10000 5.7 10 02:35 17.10.2019
5840 Clouds 18 1008 67 10000 6.7 360 00:43 17.10.2019
5841 Clear 17 1008 67 10000 6.7 10 00:21 17.10.2019
5842 Clear 16 1008 72 10000 7.2 10 23:59 16.10.2019
5843 Clear 16 1008 72 10000 7.2 10 23:41 16.10.2019
5844 Clear 16 1008 72 10000 5.7 20 23:19 16.10.2019
5845 Clear 16 1008 72 10000 5.7 20 23:19 16.10.2019
5846 Clear 15 1008 72 10000 6.2 10 22:55 16.10.2019
5847 Clear 15 1008 72 10000 6.2 10 22:36 16.10.2019
5848 Clear 15 1008 72 10000 6.2 10 22:36 16.10.2019
5849 Clear 15 1008 76 10000 5.7 30 22:18 16.10.2019
5850 Clear 14 1007 76 10000 5.7 30 21:55 16.10.2019
5851 -273 0 0 0 0 0 21:54 16.10.2019
5852 Clear 13 1007 76 10000 5.7 30 21:36 16.10.2019
5853 Clouds 12 1007 81 10000 5.7 20 21:18 16.10.2019
5854 Clouds 11 1007 81 10000 5.1 20 20:55 16.10.2019
5855 Clouds 11 1007 81 10000 5.1 20 20:55 16.10.2019
5856 Clouds 10 1007 81 10000 5.1 20 20:37 16.10.2019
5857 Clouds 10 1007 81 10000 5.1 20 20:37 16.10.2019
5858 Clouds 9 1006 87 10000 5.1 20 20:19 16.10.2019
5859 Clouds 9 1006 87 10000 5.1 20 19:40 16.10.2019
5860 Clouds 9 1006 87 10000 5.1 20 19:40 16.10.2019
5861 Clouds 10 1006 87 10000 5.1 30 19:21 16.10.2019
5862 Clouds 10 1006 87 10000 5.1 30 19:21 16.10.2019
5863 Clouds 10 1006 87 10000 5.1 30 19:21 16.10.2019
5864 Clouds 9 1006 93 10000 5.7 30 18:58 16.10.2019
5865 Clouds 9 1006 93 10000 5.7 30 18:37 16.10.2019
5866 Clouds 9 1006 87 10000 5.1 30 18:18 16.10.2019
5867 Clouds 9 1005 93 10000 5.1 10 17:55 16.10.2019
5868 -273 0 0 0 0 0 17:37 16.10.2019
5869 Clouds 9 1005 87 10000 4.6 20 17:19 16.10.2019
5870 Clouds 9 1005 93 10000 4.1 20 16:56 16.10.2019
5871 Clouds 9 1005 93 10000 4.1 20 16:37 16.10.2019
5872 Clouds 9 1005 100 10000 4.1 360 16:18 16.10.2019
5873 Clouds 8 1005 93 10000 3.6 10 15:40 16.10.2019
5874 -273 0 0 0 0 0 15:40 16.10.2019
5875 Clouds 8 1005 93 10000 2.1 30 15:19 16.10.2019
5876 Rain 9 1005 93 10000 2.1 30 14:59 16.10.2019
5877 Rain 9 1005 93 10000 2.1 30 14:40 16.10.2019
5878 Rain 9 1005 87 10000 1.5 30 14:21 16.10.2019
5879 Clouds 10 1005 87 9000 1 350 13:58 16.10.2019
5880 Clouds 10 1005 87 9000 1 350 13:40 16.10.2019
5881 Clouds 10 1005 87 10000 1 250 13:21 16.10.2019
5882 Clouds 10 1005 87 10000 1 200 12:44 16.10.2019
5883 Drizzle 10 1005 87 10000 2.6 190 12:20 16.10.2019
5884 Clouds 11 1005 87 10000 3.6 200 11:55 16.10.2019
5885 Clouds 11 1005 87 10000 3.6 200 11:37 16.10.2019
5886 Clouds 11 1005 87 10000 4.6 190 11:18 16.10.2019
5887 Clouds 11 1005 87 10000 4.6 190 11:18 16.10.2019
5888 Clouds 11 1005 81 10000 5.1 190 10:37 16.10.2019
5889 Clouds 11 1004 81 10000 5.1 190 10:18 16.10.2019
5890 Clouds 11 1004 81 10000 4.6 190 09:41 16.10.2019
5891 Clouds 11 1004 81 10000 5.1 180 09:22 16.10.2019
5892 Clouds 11 1004 81 10000 7.2 190 08:58 16.10.2019
5893 Clouds 11 1004 81 10000 7.2 190 08:40 16.10.2019
5894 Clouds 12 1004 87 10000 6.7 180 08:20 16.10.2019
5895 Clouds 12 1004 87 10000 6.7 180 08:20 16.10.2019
5896 Clouds 12 1003 87 10000 6.7 180 07:43 16.10.2019
5897 Clouds 12 1003 82 10000 7.7 180 07:24 16.10.2019
5898 Clouds 12 1003 76 10000 8.2 180 06:55 16.10.2019
5899 Rain 13 1003 87 10000 7.7 180 06:31 16.10.2019
5900 Rain 13 1003 87 10000 8.2 180 05:22 16.10.2019
5901 Rain 13 1003 93 10000 9.8 190 02:53 16.10.2019
5902 Rain 13 1003 93 6000 10.8 190 01:38 16.10.2019
5903 Rain 13 1003 100 8000 11.3 190 01:18 16.10.2019
5904 Rain 12 1003 93 3700 12.3 190 00:42 16.10.2019
5905 Drizzle 12 1003 93 3500 11.8 190 23:59 15.10.2019
5906 Drizzle 11 1003 93 3500 11.8 190 23:39 15.10.2019
5907 Rain 12 1003 93 3900 11.3 190 23:21 15.10.2019
5908 Rain 12 1003 100 4200 11.8 190 22:55 15.10.2019
5909 Rain 12 1003 100 4200 11.8 190 22:55 15.10.2019
5910 Rain 12 1003 100 4200 11.8 190 22:55 15.10.2019
5911 Rain 12 1003 100 4200 11.8 190 22:37 15.10.2019
5912 Rain 11 1003 93 5000 10.3 180 22:19 15.10.2019
5913 Rain 11 1003 93 7000 10.3 180 21:55 15.10.2019
5914 Rain 11 1003 93 7000 10.3 180 21:55 15.10.2019
5915 Rain 11 1003 93 7000 10.3 180 21:36 15.10.2019
5916 Rain 11 1003 93 9000 10.3 180 21:18 15.10.2019
5917 Rain 11 1002 93 10000 10.8 170 20:55 15.10.2019
5918 Rain 11 1002 93 10000 10.8 170 20:55 15.10.2019
5919 Rain 11 1002 93 10000 10.8 170 20:37 15.10.2019
5920 Rain 11 1002 93 10000 11.8 170 20:19 15.10.2019
5921 Drizzle 11 1002 93 10000 11.3 170 19:55 15.10.2019
5922 Drizzle 11 1002 93 10000 11.3 170 19:55 15.10.2019
5923 Drizzle 11 1002 93 10000 11.3 170 19:37 15.10.2019
5924 Drizzle 11 1002 93 10000 11.3 170 19:37 15.10.2019
5925 Rain 11 1002 93 10000 11.3 170 19:18 15.10.2019
5926 Rain 11 1002 93 9000 11.3 170 18:44 15.10.2019
5927 Drizzle 11 1002 93 8000 10.8 170 18:25 15.10.2019
5928 Drizzle 11 1002 93 10000 10.3 170 17:55 15.10.2019
5929 Drizzle 11 1002 93 10000 10.3 170 17:55 15.10.2019
5930 Drizzle 11 1002 93 10000 10.3 170 17:37 15.10.2019
5931 Drizzle 11 1003 93 10000 9.3 160 17:19 15.10.2019
5932 Drizzle 11 1003 93 10000 9.3 160 17:19 15.10.2019
5933 Rain 11 1003 93 10000 9.8 170 16:45 15.10.2019
5934 Rain 11 1003 93 10000 10.3 160 16:22 15.10.2019
5935 Rain 11 1003 93 10000 11.3 160 15:58 15.10.2019
5936 Rain 11 1003 93 10000 11.3 160 15:39 15.10.2019
5937 Rain 11 1003 93 10000 11.3 160 15:20 15.10.2019
5938 Rain 11 1003 93 10000 10.3 170 14:56 15.10.2019
5939 Rain 11 1003 93 10000 10.3 170 14:37 15.10.2019
5940 Rain 11 1003 93 10000 10.3 170 14:37 15.10.2019
5941 Rain 11 1004 93 10000 11.3 170 14:19 15.10.2019
5942 Rain 11 1004 93 10000 11.8 160 13:43 15.10.2019
5943 Rain 12 1005 87 10000 10.8 170 13:21 15.10.2019
5944 Rain 12 1004 87 10000 10.8 160 12:57 15.10.2019
5945 Rain 11 1004 87 10000 10.8 160 12:38 15.10.2019
5946 Rain 11 1005 87 10000 11.3 150 12:20 15.10.2019
5947 Rain 12 1005 81 10000 7.7 150 11:44 15.10.2019
5948 Rain 12 1005 76 10000 6.7 150 11:20 15.10.2019
5949 Rain 12 1006 76 10000 7.2 150 10:57 15.10.2019
5950 Rain 12 1006 76 10000 7.2 150 10:39 15.10.2019
5951 Rain 12 1006 93 10000 7.7 160 10:19 15.10.2019
5952 Rain 12 1005 87 10000 7.7 160 09:56 15.10.2019
5953 Rain 12 1005 87 10000 7.7 160 09:37 15.10.2019
5954 Rain 11 1005 93 10000 9.8 150 09:19 15.10.2019
5955 Rain 11 1005 87 10000 8.2 140 08:41 15.10.2019
5956 Rain 12 1005 87 10000 8.2 140 08:21 15.10.2019
5957 Rain 12 1005 87 10000 7.7 150 07:55 15.10.2019
5958 Rain 12 1005 87 10000 7.7 150 07:37 15.10.2019
5959 Rain 12 1006 87 10000 8.7 150 07:18 15.10.2019
5960 Rain 12 1005 87 10000 8.7 150 06:43 15.10.2019
5961 Rain 12 1006 82 10000 7.7 150 06:22 15.10.2019
5962 Rain 12 1006 87 8000 8.7 140 05:37 15.10.2019
5963 Rain 12 1007 87 9000 9.8 150 05:19 15.10.2019
5964 Drizzle 14 1007 82 8000 9.8 150 04:23 15.10.2019
5965 Rain 14 1007 71 10000 7.7 160 03:36 15.10.2019
5966 Rain 14 1007 71 10000 7.7 160 03:36 15.10.2019
5967 Rain 13 1008 87 8000 8.7 150 02:22 15.10.2019
5968 Rain 13 1009 82 10000 8.2 160 01:47 15.10.2019
5969 Rain 13 1009 87 9000 9.3 150 01:18 15.10.2019
5970 Rain 13 1009 76 10000 6.2 160 00:46 15.10.2019
5971 Rain 14 1009 71 10000 5.1 150 00:20 15.10.2019
5972 Clouds 13 1009 66 10000 5.7 150 23:39 14.10.2019
5973 Clouds 13 1009 58 10000 2.6 160 23:19 14.10.2019
5974 Clouds 13 1010 62 10000 2.1 150 22:40 14.10.2019
5975 Clouds 12 1010 62 10000 2.1 120 22:21 14.10.2019
5976 Clouds 12 1010 58 10000 2.6 150 21:59 14.10.2019
5977 Clouds 12 1010 58 10000 2.6 150 21:40 14.10.2019
5978 Clouds 12 1010 58 10000 2.1 110 21:21 14.10.2019
5979 Clouds 12 1010 58 10000 2.1 110 21:21 14.10.2019
5980 Clouds 12 1010 58 10000 6.2 90 20:58 14.10.2019
5981 Clouds 12 1010 58 10000 6.2 90 20:39 14.10.2019
5982 Clouds 12 1010 58 10000 4.1 90 20:20 14.10.2019
5983 Clouds 12 1010 62 10000 5.1 80 19:58 14.10.2019
5984 Clouds 11 1010 62 10000 5.1 80 19:40 14.10.2019
5985 Clouds 12 1010 58 10000 5.7 80 19:21 14.10.2019
5986 Clouds 12 1010 58 10000 5.1 90 18:57 14.10.2019
5987 Clouds 12 1010 58 10000 5.1 90 18:38 14.10.2019
5988 Rain 12 1010 62 10000 4.1 80 18:18 14.10.2019
5989 Rain 12 1010 66 10000 5.1 90 17:44 14.10.2019
5990 Rain 12 1010 71 10000 3.1 110 17:25 14.10.2019
5991 Rain 12 1011 76 10000 4.1 100 16:58 14.10.2019
5992 Rain 11 1011 76 10000 4.1 100 16:40 14.10.2019
5993 Rain 11 1011 76 10000 4.1 100 16:40 14.10.2019
5994 Rain 11 1011 71 10000 3.1 110 16:20 14.10.2019
5995 Rain 11 1009 80 0 0.89 66 15:41 14.10.2019
5996 Clouds 11 1005 77 0 0.45 18 15:22 14.10.2019
5997 Clouds 11 1012 66 10000 2.1 120 14:46 14.10.2019
5998 Clouds 11 1012 66 10000 2.1 170 14:26 14.10.2019
5999 -273 0 0 0 0 0 14:26 14.10.2019
6000 Clouds 12 1013 66 10000 2.6 130 13:59 14.10.2019
6001 Clouds 12 1013 66 10000 2.6 130 13:59 14.10.2019
6002 Clouds 12 1013 66 10000 2.6 130 13:41 14.10.2019
6003 Clouds 12 1013 66 10000 3.6 130 13:21 14.10.2019
6004 -273 0 0 0 0 0 12:43 14.10.2019
6005 Clouds 12 1014 66 10000 2.6 140 12:21 14.10.2019
6006 Clouds 12 1014 66 10000 3.1 100 12:00 14.10.2019
6007 Clouds 12 1014 66 10000 3.1 100 11:41 14.10.2019
6008 Clouds 12 1014 66 10000 2.1 130 11:22 14.10.2019
6009 Clouds 12 1014 66 10000 2.6 130 10:55 14.10.2019
6010 Clouds 12 1014 66 10000 2.6 130 10:37 14.10.2019
6011 Clouds 12 1014 62 10000 2.1 100 10:18 14.10.2019
6012 Clouds 12 1014 62 10000 2.1 110 09:41 14.10.2019
6013 -273 0 0 0 0 0 09:21 14.10.2019
6014 Clouds 12 1014 58 10000 4.1 80 08:50 14.10.2019
6015 Clouds 13 1014 58 10000 4.1 110 08:23 14.10.2019
6016 Clouds 13 1014 62 10000 4.6 100 07:47 14.10.2019
6017 Clouds 13 1014 58 10000 4.6 90 07:25 14.10.2019
6018 Clouds 14 1014 58 10000 4.1 100 06:58 14.10.2019
6019 Clouds 15 1014 51 10000 3.6 90 06:28 14.10.2019
6020 Clouds 16 1014 62 10000 4.1 170 05:57 14.10.2019
6021 Clouds 16 1014 71 10000 7.7 160 05:26 14.10.2019
6022 Clouds 16 1015 67 10000 5.7 150 03:50 14.10.2019
6023 Clouds 16 1015 51 10000 3.1 130 03:25 14.10.2019
6024 Clouds 17 1016 62 10000 3.1 190 02:31 14.10.2019
6025 Clouds 16 1017 71 10000 6.7 160 01:21 14.10.2019
6026 Clouds 15 1017 71 10000 5.1 160 00:42 14.10.2019
6027 Clouds 14 1018 76 10000 5.1 170 00:18 14.10.2019
6028 Clouds 13 1018 71 10000 4.6 160 23:41 13.10.2019
6029 Clouds 12 1018 76 10000 5.1 160 23:20 13.10.2019
6030 Clouds 13 1018 71 10000 5.7 160 22:57 13.10.2019
6031 Clouds 13 1018 71 10000 5.7 160 22:39 13.10.2019
6032 Clouds 13 1018 71 10000 5.7 160 22:39 13.10.2019
6033 Clouds 12 1018 71 10000 4.1 160 22:20 13.10.2019
6034 Clouds 12 1019 76 10000 3.1 150 21:57 13.10.2019
6035 Clouds 11 1019 76 10000 3.1 150 21:36 13.10.2019
6036 Clouds 10 1019 71 10000 3.1 150 21:18 13.10.2019
6037 Clouds 9 1019 76 10000 3.1 150 20:57 13.10.2019
6038 Clouds 9 1019 76 10000 3.1 150 20:56 13.10.2019
6039 Clouds 9 1019 76 10000 3.1 150 20:37 13.10.2019
6040 Clouds 8 1019 81 10000 2.1 120 20:19 13.10.2019
6041 Clouds 8 1019 87 10000 1.5 80 19:55 13.10.2019
6042 Clouds 8 1019 87 10000 1.5 80 19:55 13.10.2019
6043 Clouds 8 1019 87 10000 1.5 80 19:37 13.10.2019
6044 Clouds 8 1019 81 10000 1 360 19:19 13.10.2019
6045 Clouds 8 1019 76 10000 2.6 130 18:54 13.10.2019
6046 Clouds 8 1019 76 10000 2.6 130 18:36 13.10.2019
6047 Clouds 8 1019 76 10000 2.6 170 18:18 13.10.2019
6048 -273 0 0 0 0 0 17:42 13.10.2019
6049 Clouds 8 1019 87 10000 1 90 17:24 13.10.2019
6050 Clouds 8 1020 87 10000 1.5 50 16:44 13.10.2019
6051 Clouds 8 1020 87 10000 1.5 50 16:44 13.10.2019
6052 Clouds 8 1020 81 10000 2.1 150 16:20 13.10.2019
6053 Clouds 8 1020 81 10000 2.1 150 16:20 13.10.2019
6054 Clouds 9 1020 81 10000 3.1 150 15:59 13.10.2019
6055 Clouds 7 1020 81 10000 3.1 150 15:39 13.10.2019
6056 Clouds 9 1020 81 10000 4.1 140 15:21 13.10.2019
6057 Clouds 9 1020 87 10000 4.1 150 14:59 13.10.2019
6058 Clouds 9 1020 87 10000 4.1 150 14:40 13.10.2019
6059 Clouds 9 1020 76 10000 4.1 150 14:22 13.10.2019
6060 Clouds 9 1021 81 10000 5.1 160 13:59 13.10.2019
6061 Clouds 9 1021 81 10000 5.1 160 13:38 13.10.2019
6062 Clouds 9 1021 81 10000 5.7 170 13:20 13.10.2019
6063 Clouds 9 1021 81 10000 5.1 170 12:56 13.10.2019
6064 Clouds 9 1021 81 10000 5.1 170 12:38 13.10.2019
6065 Clear 9 1021 81 10000 4.1 170 12:18 13.10.2019
6066 Clear 9 1021 81 10000 4.1 170 11:55 13.10.2019
6067 Clear 9 1021 81 10000 4.1 170 11:55 13.10.2019
6068 Clear 10 1021 81 10000 4.1 170 11:37 13.10.2019
6069 Clear 10 1021 81 10000 4.1 170 11:37 13.10.2019
6070 Clear 9 1021 87 10000 4.6 170 11:18 13.10.2019
6071 Clear 9 1021 81 10000 4.6 170 10:41 13.10.2019
6072 Clear 10 1021 81 10000 5.1 170 10:23 13.10.2019
6073 Clear 10 1021 81 10000 5.1 170 10:23 13.10.2019
6074 Clear 10 1020 81 10000 4.6 170 09:41 13.10.2019
6075 Clear 10 1020 81 10000 5.1 180 09:22 13.10.2019
6076 Clear 11 1020 76 10000 5.1 170 08:59 13.10.2019
6077 Clear 11 1020 76 10000 5.1 170 08:40 13.10.2019
6078 Clear 12 1020 76 10000 5.7 180 08:21 13.10.2019
6079 Clear 12 1020 76 10000 5.1 180 07:46 13.10.2019
6080 Clear 13 1020 76 10000 6.2 180 07:21 13.10.2019
6081 Clear 13 1020 76 10000 6.2 170 06:41 13.10.2019
6082 Clear 14 1020 71 10000 5.7 170 05:46 13.10.2019
6083 Clear 14 1020 71 10000 5.7 170 04:49 13.10.2019
6084 Clear 14 1021 71 10000 5.1 180 04:29 13.10.2019
6085 Clouds 15 1021 71 10000 4.6 190 02:42 13.10.2019
6086 Clouds 15 1021 71 10000 5.7 180 01:54 13.10.2019
6087 Clouds 15 1021 71 10000 5.1 190 01:30 13.10.2019
6088 Clouds 14 1021 71 10000 5.7 180 00:49 13.10.2019
6089 Clear 13 1022 76 10000 5.1 180 00:22 13.10.2019
6090 Clear 13 1021 76 10000 5.1 180 23:57 12.10.2019
6091 Clear 13 1021 76 10000 5.1 180 23:39 12.10.2019
6092 Clear 13 1022 76 10000 4.1 180 23:19 12.10.2019
6093 Clear 13 1021 81 10000 4.1 180 22:57 12.10.2019
6094 Clear 12 1021 81 10000 4.1 180 22:38 12.10.2019
6095 Clear 12 1021 81 10000 3.6 190 22:20 12.10.2019
6096 Clear 12 1021 81 10000 3.6 180 21:55 12.10.2019
6097 Clear 11 1021 81 10000 3.6 180 21:36 12.10.2019
6098 Clouds 11 1021 81 10000 4.1 190 21:18 12.10.2019
6099 Clouds 10 1021 81 10000 4.1 180 20:40 12.10.2019
6100 Clouds 10 1020 81 10000 4.6 170 20:22 12.10.2019
6101 Clouds 10 1020 81 10000 4.6 160 19:38 12.10.2019
6102 Clouds 10 1020 87 10000 5.1 170 19:20 12.10.2019
6103 Clouds 10 1020 87 10000 6.2 180 18:57 12.10.2019
6104 Clouds 10 1020 87 10000 6.2 180 18:39 12.10.2019
6105 Clouds 10 1020 81 10000 5.1 170 18:20 12.10.2019
6106 Clouds 10 1020 76 10000 5.1 150 17:43 12.10.2019
6107 Clouds 10 1020 81 10000 6.2 160 17:19 12.10.2019
6108 Clouds 10 1020 81 10000 6.7 170 16:54 12.10.2019
6109 Clouds 10 1020 81 10000 6.7 170 16:54 12.10.2019
6110 Clouds 10 1020 81 10000 6.7 170 16:36 12.10.2019
6111 Clouds 10 1020 76 10000 5.7 170 16:18 12.10.2019
6112 Clouds 10 1020 76 10000 5.7 170 15:43 12.10.2019
6113 Clouds 11 1020 81 10000 5.1 150 15:23 12.10.2019
6114 Clouds 11 1020 81 10000 5.1 160 14:43 12.10.2019
6115 Clouds 11 1020 81 10000 5.7 180 14:22 12.10.2019
6116 Clouds 11 1020 81 10000 5.7 170 13:58 12.10.2019
6117 Clouds 11 1020 81 10000 5.7 170 13:40 12.10.2019
6118 Clouds 11 1020 81 10000 5.7 170 13:40 12.10.2019
6119 Clouds 11 1020 87 10000 5.1 160 13:21 12.10.2019
6120 Clouds 11 1020 81 10000 5.1 170 12:39 12.10.2019
6121 Clouds 11 1020 81 10000 5.7 160 12:21 12.10.2019
6122 Clouds 11 1019 87 10000 5.7 160 11:58 12.10.2019
6123 Clouds 11 1019 87 10000 5.7 160 11:39 12.10.2019
6124 Clouds 11 1019 87 10000 5.7 160 11:39 12.10.2019
6125 Clouds 11 1019 87 10000 6.2 160 11:20 12.10.2019
6126 Clouds 11 1019 81 10000 6.2 150 10:43 12.10.2019
6127 Clouds 11 1019 81 10000 6.2 150 10:23 12.10.2019
6128 Clouds 11 1018 81 10000 6.2 150 09:58 12.10.2019
6129 Clouds 11 1018 81 10000 6.2 150 09:39 12.10.2019
6130 Clouds 12 1018 81 10000 6.7 160 09:21 12.10.2019
6131 -273 0 0 0 0 0 08:57 12.10.2019
6132 Clouds 12 1018 87 10000 6.2 160 08:57 12.10.2019
6133 Clouds 12 1018 87 10000 6.2 160 08:38 12.10.2019
6134 Clouds 13 1017 87 10000 7.2 160 08:19 12.10.2019
6135 Clouds 13 1017 87 10000 6.2 170 07:34 12.10.2019
6136 Clouds 14 1017 87 10000 6.2 170 06:51 12.10.2019
6137 Clouds 15 1017 87 10000 5.7 180 05:47 12.10.2019
6138 Clouds 15 1017 87 10000 5.7 190 05:22 12.10.2019
6139 Rain 15 1017 82 10000 4.1 190 03:59 12.10.2019
6140 Clouds 15 1017 82 10000 3.6 180 03:30 12.10.2019
6141 Rain 15 1017 82 10000 4.1 180 01:38 12.10.2019
6142 Rain 15 1017 71 10000 3.6 200 01:19 12.10.2019
6143 Rain 16 1017 71 10000 4.1 210 00:40 12.10.2019
6144 Clouds 15 1017 71 10000 2.6 190 23:59 11.10.2019
6145 Clouds 15 1017 71 10000 2.6 190 23:40 11.10.2019
6146 Clouds 15 1017 76 10000 3.1 280 23:20 11.10.2019
6147 Clouds 15 1017 76 10000 3.1 280 23:20 11.10.2019
6148 Clouds 15 1016 67 10000 2.6 10 22:40 11.10.2019
6149 Clouds 15 1016 67 10000 2.6 10 22:40 11.10.2019
6150 Clouds 14 1016 71 10000 3.1 40 22:21 11.10.2019
6151 Clouds 14 1016 76 10000 2.6 50 21:56 11.10.2019
6152 Clouds 13 1016 76 10000 2.6 50 21:38 11.10.2019
6153 Clear 12 1016 82 10000 2.6 40 21:20 11.10.2019
6154 Clear 11 1016 87 10000 1.5 30 20:44 11.10.2019
6155 Clear 9 1015 87 10000 3.1 40 20:26 11.10.2019
6156 Clear 10 1015 87 10000 3.6 20 19:57 11.10.2019
6157 Clear 10 1015 87 10000 3.6 20 19:38 11.10.2019
6158 Clear 11 1015 87 10000 4.6 10 19:18 11.10.2019
6159 Clear 11 1015 81 10000 4.1 360 18:58 11.10.2019
6160 Clear 11 1015 81 10000 4.1 360 18:58 11.10.2019
6161 Clear 11 1015 81 10000 4.1 360 18:38 11.10.2019
6162 Clear 11 1015 76 10000 3.6 340 18:19 11.10.2019
6163 Clear 11 1014 76 10000 4.1 350 17:58 11.10.2019
6164 Clear 11 1014 76 10000 4.1 350 17:37 11.10.2019
6165 Clear 12 1014 76 10000 3.6 340 17:19 11.10.2019
6166 Clear 11 1014 87 10000 3.6 360 16:56 11.10.2019
6167 Clear 11 1014 87 10000 3.6 360 16:37 11.10.2019
6168 Clear 11 1014 82 10000 3.6 10 16:18 11.10.2019
6169 Clear 11 1014 82 10000 3.6 10 16:18 11.10.2019
6170 Clear 11 1014 82 10000 4.1 360 15:41 11.10.2019
6171 Clear 11 1014 82 10000 4.6 350 15:20 11.10.2019
6172 Clear 11 1014 82 9000 4.1 330 14:58 11.10.2019
6173 Clear 11 1014 82 9000 4.1 330 14:58 11.10.2019
6174 Clear 11 1014 82 9000 4.1 330 14:37 11.10.2019
6175 Clear 12 1014 82 10000 4.6 330 14:19 11.10.2019
6176 Clear 12 1014 76 10000 4.6 350 13:43 11.10.2019
6177 Clear 12 1014 76 10000 2.1 340 13:24 11.10.2019
6178 Clear 12 1014 82 10000 5.1 340 12:56 11.10.2019
6179 Clear 12 1014 82 10000 5.1 340 12:38 11.10.2019
6180 Clear 12 1014 82 10000 5.1 340 12:20 11.10.2019
6181 Clear 12 1013 82 10000 6.2 340 11:56 11.10.2019
6182 Clear 12 1013 82 10000 6.2 340 11:38 11.10.2019
6183 Clear 12 1013 76 10000 5.1 340 11:20 11.10.2019
6184 Clear 12 1013 82 10000 8.2 360 10:42 11.10.2019
6185 Clear 12 1013 82 10000 7.2 360 10:23 11.10.2019
6186 Clear 12 1012 82 10000 7.2 360 09:59 11.10.2019
6187 Clear 12 1012 82 10000 7.2 360 09:40 11.10.2019
6188 Clear 13 1012 82 10000 5.1 10 09:20 11.10.2019
6189 Clear 13 1012 76 10000 5.1 360 08:56 11.10.2019
6190 Clear 13 1012 76 10000 5.1 360 08:37 11.10.2019
6191 Clear 14 1011 76 10000 5.7 360 08:19 11.10.2019
6192 Clear 14 1011 72 10000 5.7 350 07:45 11.10.2019
6193 Clear 14 1011 72 10000 7.7 350 07:27 11.10.2019
6194 Clear 15 1010 72 10000 8.7 360 06:49 11.10.2019
6195 Clear 15 1010 67 10000 8.2 350 06:24 11.10.2019
6196 Clear 16 1010 72 10000 8.7 360 05:41 11.10.2019
6197 Clear 15 1010 77 10000 8.2 360 05:23 11.10.2019
6198 Clear 15 1010 72 10000 7.7 350 04:38 11.10.2019
6199 Clouds 16 1011 77 10000 7.7 360 02:47 11.10.2019
6200 Clouds 15 1011 77 10000 5.7 350 00:52 11.10.2019
6201 Clouds 15 1012 72 10000 5.7 350 00:30 11.10.2019
6202 Clouds 15 1011 77 10000 6.2 360 23:50 10.10.2019
6203 Clouds 14 1011 77 10000 4.6 340 23:24 10.10.2019
6204 Clouds 14 1011 87 10000 3.6 350 22:59 10.10.2019
6205 Clouds 14 1011 87 10000 3.6 350 22:40 10.10.2019
6206 Rain 13 1011 93 10000 4.1 360 22:21 10.10.2019
6207 Rain 13 1011 93 10000 4.1 360 22:21 10.10.2019
6208 Rain 13 1011 93 10000 4.1 360 22:21 10.10.2019
6209 Rain 13 1011 93 10000 4.1 360 22:21 10.10.2019
6210 Clouds 13 1011 93 10000 4.6 10 21:59 10.10.2019
6211 Clouds 13 1011 93 10000 4.6 10 21:40 10.10.2019
6212 Clouds 13 1011 93 10000 4.6 10 21:40 10.10.2019
6213 Rain 12 1011 93 10000 5.1 10 21:22 10.10.2019
6214 Rain 13 1011 93 10000 6.2 10 20:57 10.10.2019
6215 Rain 12 1011 93 10000 6.2 10 20:39 10.10.2019
6216 Rain 12 1011 93 10000 6.2 10 20:19 10.10.2019
6217 Rain 12 1010 93 10000 6.7 10 19:54 10.10.2019
6218 Rain 12 1010 93 10000 6.7 10 19:36 10.10.2019
6219 Rain 12 1010 93 10000 6.2 20 19:18 10.10.2019
6220 Rain 12 1010 93 10000 5.7 20 18:41 10.10.2019
6221 Rain 12 1010 100 10000 5.1 20 18:20 10.10.2019
6222 Rain 12 1010 93 10000 5.7 20 17:56 10.10.2019
6223 Rain 12 1010 93 10000 5.7 20 17:37 10.10.2019
6224 Rain 12 1010 100 10000 4.6 20 17:18 10.10.2019
6225 Rain 12 1011 93 9000 5.1 30 16:47 10.10.2019
6226 Rain 12 1011 93 10000 4.6 20 16:26 10.10.2019
6227 Rain 12 1011 93 10000 3.6 30 15:58 10.10.2019
6228 Rain 12 1011 93 10000 3.6 30 15:38 10.10.2019
6229 Rain 13 1011 87 10000 3.1 360 15:20 10.10.2019
6230 Rain 13 1011 87 10000 5.7 330 14:55 10.10.2019
6231 Rain 14 1011 87 10000 5.7 330 14:36 10.10.2019
6232 Rain 14 1011 87 10000 6.7 20 14:18 10.10.2019
6233 Rain 14 1011 93 10000 5.7 10 13:46 10.10.2019
6234 Rain 15 1011 87 10000 6.7 360 13:27 10.10.2019
6235 Rain 15 1011 82 10000 7.2 20 12:59 10.10.2019
6236 Rain 15 1011 82 10000 7.2 20 12:40 10.10.2019
6237 Rain 15 1011 82 10000 7.7 10 12:20 10.10.2019
6238 Rain 15 1011 87 10000 6.7 10 11:58 10.10.2019
6239 Rain 15 1011 87 10000 6.7 10 11:38 10.10.2019
6240 Rain 15 1011 87 10000 7.2 360 11:19 10.10.2019
6241 Rain 15 1011 93 6000 7.2 360 10:45 10.10.2019
6242 Rain 15 1012 82 10000 6.2 360 10:26 10.10.2019
6243 Rain 15 1012 82 10000 5.7 10 09:58 10.10.2019
6244 Rain 15 1012 82 10000 5.7 10 09:39 10.10.2019
6245 Rain 15 1011 82 10000 5.7 10 09:21 10.10.2019
6246 Rain 15 1011 82 10000 6.2 10 08:57 10.10.2019
6247 Rain 15 1011 82 10000 6.2 10 08:38 10.10.2019
6248 Rain 15 1011 82 10000 6.2 10 08:19 10.10.2019
6249 Rain 15 1011 82 10000 6.2 10 08:19 10.10.2019
6250 Rain 16 1012 82 10000 6.2 360 07:45 10.10.2019
6251 Rain 16 1012 87 10000 8.2 360 07:22 10.10.2019
6252 Rain 16 1011 77 10000 7.7 360 06:48 10.10.2019
6253 Rain 15 1011 82 10000 7.2 360 06:29 10.10.2019
6254 Rain 16 1012 82 10000 7.7 10 05:28 10.10.2019
6255 Rain 16 1012 82 10000 7.7 10 05:28 10.10.2019
6256 Rain 17 1012 82 10000 8.7 360 04:54 10.10.2019
6257 Rain 16 1013 82 10000 9.3 360 04:33 10.10.2019
6258 Rain 15 1014 93 8000 8.7 360 01:46 10.10.2019
6259 Rain 15 1014 93 8000 8.7 360 01:46 10.10.2019
6260 Rain 15 1014 93 6000 5.7 360 01:26 10.10.2019
6261 Rain 15 1014 87 5000 5.7 360 01:00 10.10.2019
6262 Rain 15 1014 87 10000 6.2 20 00:24 10.10.2019
6263 Rain 15 1015 87 10000 6.2 20 23:40 09.10.2019
6264 Rain 15 1015 87 10000 6.7 20 23:22 09.10.2019
6265 Rain 15 1014 87 10000 6.2 20 22:59 09.10.2019
6266 Rain 15 1014 87 10000 6.2 20 22:40 09.10.2019
6267 Rain 15 1015 82 10000 7.7 10 22:22 09.10.2019
6268 Rain 14 1015 77 10000 6.7 10 21:41 09.10.2019
6269 Rain 14 1015 77 10000 7.2 10 21:21 09.10.2019
6270 Rain 14 1015 72 10000 7.7 360 20:56 09.10.2019
6271 Clouds 14 1015 72 10000 7.7 360 20:38 09.10.2019
6272 Clouds 14 1015 76 10000 7.2 360 20:19 09.10.2019
6273 Clouds 14 1014 76 10000 7.7 360 19:58 09.10.2019
6274 Clouds 14 1014 76 10000 7.7 360 19:40 09.10.2019
6275 Clouds 14 1014 76 10000 6.7 360 19:22 09.10.2019
6276 Clouds 14 1014 76 10000 6.7 360 19:22 09.10.2019
6277 Clouds 13 1014 82 10000 6.2 360 18:38 09.10.2019
6278 Clouds 13 1015 82 10000 6.2 10 18:20 09.10.2019
6279 Clouds 13 1015 82 10000 5.7 10 17:58 09.10.2019
6280 Clouds 13 1015 82 10000 5.7 10 17:37 09.10.2019
6281 Clouds 13 1015 82 10000 5.7 10 17:37 09.10.2019
6282 Clouds 12 1015 87 10000 7.2 360 17:19 09.10.2019
6283 Clouds 12 1015 87 10000 7.7 360 16:56 09.10.2019
6284 Clouds 12 1015 87 10000 7.7 360 16:37 09.10.2019
6285 Clouds 12 1015 87 10000 8.2 360 16:18 09.10.2019
6286 Clouds 12 1015 87 10000 8.2 360 16:18 09.10.2019
6287 Clouds 12 1016 76 10000 7.7 350 15:55 09.10.2019
6288 Clouds 12 1016 76 10000 7.7 350 15:36 09.10.2019
6289 Clouds 12 1016 87 10000 8.7 360 15:18 09.10.2019
6290 Clouds 11 1017 87 10000 7.7 10 14:44 09.10.2019
6291 Clouds 11 1017 87 10000 7.7 10 14:19 09.10.2019
6292 Clouds 12 1017 87 10000 7.7 10 13:59 09.10.2019
6293 Clouds 12 1017 87 10000 7.7 10 13:37 09.10.2019
6294 Clouds 12 1017 87 10000 9.3 360 13:18 09.10.2019
6295 Clouds 12 1017 87 10000 8.7 10 12:43 09.10.2019
6296 Clouds 12 1017 87 10000 8.2 360 12:22 09.10.2019
6297 Clouds 13 1018 82 10000 7.2 360 11:58 09.10.2019
6298 Clouds 13 1018 82 10000 7.2 360 11:39 09.10.2019
6299 Clouds 13 1018 87 10000 6.7 360 11:20 09.10.2019
6300 Clouds 13 1018 82 10000 7.7 350 10:58 09.10.2019
6301 Clouds 13 1018 82 10000 7.7 350 10:40 09.10.2019
6302 Clouds 13 1018 82 10000 6.7 340 10:18 09.10.2019
6303 Clouds 13 1018 82 10000 9.3 330 09:43 09.10.2019
6304 Clouds 14 1017 82 10000 8.7 350 09:20 09.10.2019
6305 Clouds 14 1018 87 10000 9.8 10 08:57 09.10.2019
6306 Clouds 14 1018 87 10000 9.8 10 08:37 09.10.2019
6307 Clouds 14 1018 77 10000 7.7 350 08:19 09.10.2019
6308 Clouds 14 1018 82 10000 9.8 360 07:47 09.10.2019
6309 Clouds 14 1018 82 10000 9.3 350 07:24 09.10.2019
6310 Clouds 15 1018 82 10000 11.3 360 06:56 09.10.2019
6311 Clouds 15 1018 82 10000 11.3 360 06:25 09.10.2019
6312 Clouds 16 1018 77 10000 10.8 350 05:47 09.10.2019
6313 Clouds 16 1018 72 10000 10.3 350 04:41 09.10.2019
6314 Clouds 16 1018 77 10000 9.3 360 03:43 09.10.2019
6315 Clouds 16 1018 77 10000 9.3 360 03:43 09.10.2019
6316 Clouds 14 1019 82 10000 9.8 350 02:27 09.10.2019
6317 Clouds 14 1019 82 10000 11.8 350 01:22 09.10.2019
6318 Clouds 14 1019 82 10000 11.8 350 01:22 09.10.2019
6319 Clouds 14 1019 87 10000 11.3 350 00:59 09.10.2019
6320 Rain 14 1019 87 10000 11.3 350 00:40 09.10.2019
6321 Rain 14 1019 87 10000 11.3 340 00:22 09.10.2019
6322 Rain 14 1019 93 10000 10.3 350 23:58 08.10.2019
6323 Clouds 14 1019 93 10000 10.3 350 23:37 08.10.2019
6324 Clouds 14 1019 93 10000 10.8 350 23:18 08.10.2019
6325 Rain 13 1019 93 10000 12.3 360 22:41 08.10.2019
6326 Rain 13 1019 93 10000 12.3 360 22:41 08.10.2019
6327 Rain 13 1019 93 8000 9.8 20 22:21 08.10.2019
6328 Rain 13 1018 93 6000 8.7 20 21:58 08.10.2019
6329 Rain 13 1018 93 6000 8.7 20 21:39 08.10.2019
6330 Rain 13 1018 93 5000 10.8 10 21:20 08.10.2019
6331 Rain 13 1018 87 10000 10.3 10 20:58 08.10.2019
6332 Clear 14 1018 87 10000 10.3 10 20:39 08.10.2019
6333 Clear 13 1018 87 10000 9.3 20 20:21 08.10.2019
6334 Clear 13 1018 87 10000 8.7 20 19:59 08.10.2019
6335 Clear 13 1018 87 10000 8.7 20 19:41 08.10.2019
6336 Clear 13 1018 87 10000 10.8 10 19:23 08.10.2019
6337 Clear 13 1018 87 10000 8.7 10 18:57 08.10.2019
6338 Clear 13 1018 87 10000 8.7 10 18:39 08.10.2019
6339 Clear 13 1018 87 10000 9.8 10 18:19 08.10.2019
6340 Clear 13 1018 87 10000 8.7 20 17:55 08.10.2019
6341 Clear 13 1018 87 10000 8.7 20 17:36 08.10.2019
6342 Clear 13 1018 87 10000 8.7 20 17:18 08.10.2019
6343 Clear 13 1019 87 10000 10.3 20 16:41 08.10.2019
6344 Clear 13 1018 87 10000 9.8 10 16:22 08.10.2019
6345 Clear 13 1018 87 10000 11.8 350 15:57 08.10.2019
6346 Clear 13 1018 87 10000 11.8 350 15:37 08.10.2019
6347 Clear 13 1018 82 10000 11.3 340 15:19 08.10.2019
6348 Clear 13 1018 82 10000 11.3 340 15:19 08.10.2019
6349 Clear 13 1019 82 10000 10.8 350 14:42 08.10.2019
6350 Clear 13 1019 82 10000 9.3 350 14:21 08.10.2019
6351 Clear 13 1019 82 10000 7.7 350 13:58 08.10.2019
6352 Clear 13 1019 82 10000 7.7 350 13:39 08.10.2019
6353 Clear 13 1019 82 10000 7.7 350 13:39 08.10.2019
6354 Clear 13 1019 82 10000 9.8 350 13:20 08.10.2019
6355 Clear 13 1018 82 10000 7.7 360 12:59 08.10.2019
6356 Clear 13 1018 82 10000 7.7 360 12:39 08.10.2019
6357 Clear 13 1018 82 10000 7.2 10 12:19 08.10.2019
6358 Clear 13 1018 82 10000 8.7 10 11:43 08.10.2019
6359 Clear 14 1018 82 10000 9.3 360 11:24 08.10.2019
6360 Clear 13 1019 82 10000 10.3 360 10:59 08.10.2019
6361 Clear 13 1019 82 10000 10.3 360 10:40 08.10.2019
6362 Clear 13 1019 82 10000 10.3 360 10:21 08.10.2019
6363 Clear 13 1018 82 10000 10.3 10 09:58 08.10.2019
6364 Clear 13 1018 82 10000 10.3 10 09:39 08.10.2019
6365 Clouds 13 1018 87 10000 12.3 360 09:20 08.10.2019
6366 Clouds 13 1017 76 10000 11.8 350 08:43 08.10.2019
6367 Clouds 13 1016 82 10000 12.9 340 08:25 08.10.2019
6368 Clouds 14 1017 76 10000 8.7 340 07:46 08.10.2019
6369 Clouds 13 1017 76 10000 10.3 350 07:22 08.10.2019
6370 Clouds 14 1017 77 10000 8.7 350 06:56 08.10.2019
6371 Clouds 14 1017 72 10000 10.3 360 06:33 08.10.2019
6372 Clouds 14 1017 72 10000 12.9 10 05:57 08.10.2019
6373 Clouds 14 1017 72 10000 12.9 10 05:57 08.10.2019
6374 Clouds 14 1017 72 10000 12.9 10 05:36 08.10.2019
6375 Clouds 14 1017 72 10000 12.9 10 05:36 08.10.2019
6376 Clouds 15 1017 72 10000 12.3 360 04:36 08.10.2019
6377 Clouds 15 1018 62 10000 12.3 350 03:29 08.10.2019
6378 Clouds 15 1018 62 10000 12.3 340 02:39 08.10.2019
6379 Clouds 15 1018 67 10000 11.8 350 01:49 08.10.2019
6380 Clouds 15 1018 62 10000 11.3 360 01:31 08.10.2019
6381 Clouds 15 1018 62 10000 12.3 360 00:50 08.10.2019
6382 Clear 15 1018 58 10000 12.3 360 00:21 08.10.2019
6383 Clear 14 1018 62 10000 12.3 360 23:41 07.10.2019
6384 Clear 14 1018 62 10000 13.4 360 23:20 07.10.2019
6385 Clear 14 1018 62 10000 13.4 360 23:20 07.10.2019
6386 Clear 13 1017 66 10000 13.4 360 22:58 07.10.2019
6387 Clear 13 1017 66 10000 13.4 360 22:40 07.10.2019
6388 Clear 13 1017 66 10000 12.3 350 22:20 07.10.2019
6389 Clear 13 1017 62 10000 11.8 340 21:57 07.10.2019
6390 Clear 13 1017 62 10000 11.8 340 21:39 07.10.2019
6391 Clear 12 1017 66 10000 12.3 350 21:20 07.10.2019
6392 Clear 12 1017 66 10000 13.4 350 20:58 07.10.2019
6393 Clear 12 1017 66 10000 13.4 350 20:39 07.10.2019
6394 Clear 12 1017 66 10000 11.8 340 20:20 07.10.2019
6395 Clear 12 1017 66 10000 11.3 350 19:58 07.10.2019
6396 Clear 12 1017 66 10000 11.3 350 19:40 07.10.2019
6397 Clear 12 1017 71 10000 12.3 350 19:19 07.10.2019
6398 Clear 12 1017 71 10000 12.3 350 18:57 07.10.2019
6399 Clear 12 1017 71 10000 12.3 350 18:38 07.10.2019
6400 Clear 12 1017 76 10000 12.3 350 18:18 07.10.2019
6401 Clear 12 1017 81 10000 10.8 360 17:43 07.10.2019
6402 Clear 12 1017 81 10000 12.3 360 17:22 07.10.2019
6403 Clear 12 1017 81 10000 11.8 360 16:58 07.10.2019
6404 Clear 12 1017 81 10000 11.8 360 16:39 07.10.2019
6405 Clear 12 1017 81 10000 12.3 360 16:20 07.10.2019
6406 Clear 12 1017 87 10000 11.3 350 15:45 07.10.2019
6407 Clear 12 1018 81 10000 10.8 350 15:26 07.10.2019
6408 Clear 12 1018 76 10000 11.8 350 14:55 07.10.2019
6409 Clear 12 1018 76 10000 11.8 350 14:37 07.10.2019
6410 Clear 12 1018 82 10000 11.8 350 14:19 07.10.2019
6411 Clear 12 1018 76 10000 10.8 350 13:43 07.10.2019
6412 Clear 12 1018 76 10000 9.3 350 13:20 07.10.2019
6413 Clear 12 1017 82 10000 10.3 10 12:56 07.10.2019
6414 Clear 12 1017 82 10000 10.3 10 12:38 07.10.2019
6415 -273 0 0 0 0 0 12:19 07.10.2019
6416 Clear 12 1017 82 10000 10.3 10 11:57 07.10.2019
6417 Clear 12 1017 82 10000 10.3 10 11:37 07.10.2019
6418 Clear 12 1018 82 10000 10.3 10 11:18 07.10.2019
6419 Clear 12 1018 87 10000 10.3 10 10:41 07.10.2019
6420 Clear 12 1018 87 10000 10.3 10 10:41 07.10.2019
6421 Clear 12 1018 87 10000 10.3 10 10:20 07.10.2019
6422 Clear 12 1018 87 10000 10.3 10 10:20 07.10.2019
6423 Clear 12 1018 82 10000 10.3 10 09:42 07.10.2019
6424 Clear 12 1018 82 10000 9.3 10 09:23 07.10.2019
6425 Clear 12 1017 87 10000 9.8 360 08:57 07.10.2019
6426 Clear 13 1017 87 10000 9.8 360 08:39 07.10.2019
6427 Clear 13 1018 82 10000 9.8 360 08:19 07.10.2019
6428 Clear 14 1017 82 10000 11.3 10 07:41 07.10.2019
6429 Clear 14 1018 82 10000 10.8 10 07:23 07.10.2019
6430 Clear 13 1018 76 10000 9.8 360 06:54 07.10.2019
6431 Clear 14 1018 82 10000 10.3 360 06:34 07.10.2019
6432 Clear 14 1018 82 10000 9.8 360 05:49 07.10.2019
6433 Clear 14 1018 76 10000 8.7 350 05:23 07.10.2019
6434 Clear 15 1019 77 10000 9.3 350 04:28 07.10.2019
6435 Clear 14 1019 72 10000 8.7 350 03:45 07.10.2019
6436 Clear 15 1019 72 10000 8.2 350 03:21 07.10.2019
6437 Clear 14 1019 76 10000 10.8 350 02:22 07.10.2019
6438 Clear 14 1019 72 10000 11.3 350 01:52 07.10.2019
6439 Clear 15 1020 76 10000 9.8 350 01:22 07.10.2019
6440 Clear 14 1020 76 10000 10.3 360 00:41 07.10.2019
6441 Clear 14 1020 76 10000 10.8 360 00:22 07.10.2019
6442 Clear 14 1020 76 10000 10.3 360 23:54 06.10.2019
6443 Clear 14 1020 76 10000 10.3 360 23:36 06.10.2019
6444 Clear 14 1021 76 10000 8.7 360 23:18 06.10.2019
6445 Clear 13 1021 76 10000 6.2 10 22:41 06.10.2019
6446 Clear 12 1021 81 10000 6.7 10 22:22 06.10.2019
6447 Clear 11 1021 81 10000 5.1 20 21:58 06.10.2019
6448 Clear 11 1021 81 10000 5.1 20 21:38 06.10.2019
6449 Clear 9 1021 81 10000 4.6 30 21:19 06.10.2019
6450 Clear 7 1021 87 10000 4.6 40 20:58 06.10.2019
6451 Clear 7 1021 87 10000 4.6 40 20:58 06.10.2019
6452 Clear 6 1021 87 10000 4.6 40 20:40 06.10.2019
6453 Clear 5 1021 93 10000 3.1 20 20:21 06.10.2019
6454 Clear 5 1021 87 10000 4.6 20 19:58 06.10.2019
6455 Clear 3 1021 87 10000 4.6 20 19:38 06.10.2019
6456 Clear 3 1021 93 10000 4.6 30 19:19 06.10.2019
6457 Clear 3 1021 93 10000 4.6 40 18:57 06.10.2019
6458 Clear 3 1021 93 10000 4.6 40 18:39 06.10.2019
6459 Clear 5 1021 87 10000 3.6 30 18:19 06.10.2019
6460 Clear 5 1021 87 10000 3.1 30 17:58 06.10.2019
6461 Clear 4 1021 87 10000 3.1 30 17:39 06.10.2019
6462 Clear 4 1021 87 10000 3.1 30 17:19 06.10.2019
6463 Clear 4 1021 87 10000 3.1 30 16:42 06.10.2019
6464 Clear 4 1021 87 10000 2.6 20 16:24 06.10.2019
6465 Clear 4 1021 87 10000 2.6 10 15:59 06.10.2019
6466 Clear 4 1021 87 10000 2.6 10 15:41 06.10.2019
6467 Clear 4 1022 87 10000 2.6 30 15:18 06.10.2019
6468 Clear 5 1022 81 10000 2.6 50 14:43 06.10.2019
6469 Clear 5 1022 81 10000 1 30 14:24 06.10.2019
6470 Clear 5 1022 75 10000 3.1 10 13:58 06.10.2019
6471 Clear 5 1022 75 10000 3.1 10 13:39 06.10.2019
6472 Clear 5 1022 75 10000 3.1 10 13:39 06.10.2019
6473 Clear 5 1022 75 10000 3.6 10 13:21 06.10.2019
6474 Clear 5 1022 75 10000 3.6 10 13:21 06.10.2019
6475 Clear 6 1022 75 10000 4.1 10 12:57 06.10.2019
6476 Clear 6 1022 75 10000 4.1 10 12:39 06.10.2019
6477 Clear 7 1022 75 10000 2.6 20 12:20 06.10.2019
6478 Clear 7 1022 75 10000 2.6 20 12:20 06.10.2019
6479 Clear 7 1022 75 10000 2.1 360 11:57 06.10.2019
6480 Clear 7 1022 75 10000 2.1 360 11:38 06.10.2019
6481 Clear 7 1022 75 10000 2.1 360 11:20 06.10.2019
6482 Clear 7 1023 70 10000 3.1 10 10:44 06.10.2019
6483 Clear 8 1022 66 10000 2.6 20 10:25 06.10.2019
6484 Clear 8 1022 66 10000 1.5 20 09:58 06.10.2019
6485 Clear 8 1022 66 10000 1.5 20 09:39 06.10.2019
6486 Clear 10 1022 66 10000 2.1 320 09:18 06.10.2019
6487 Clear 10 1022 62 10000 2.6 210 08:43 06.10.2019
6488 Clear 10 1021 62 10000 3.6 170 08:21 06.10.2019
6489 Clear 11 1021 66 10000 5.7 170 07:44 06.10.2019
6490 Clear 12 1021 57 10000 6.7 170 07:19 06.10.2019
6491 Clear 13 1021 58 10000 8.2 170 06:20 06.10.2019
6492 Clear 13 1022 62 10000 8.2 160 05:34 06.10.2019
6493 Clear 13 1022 62 10000 7.7 170 03:42 06.10.2019
6494 Clear 13 1022 62 10000 7.2 170 02:43 06.10.2019
6495 Clear 14 1022 58 10000 6.7 170 02:21 06.10.2019
6496 Clear 14 1023 62 10000 6.7 170 01:44 06.10.2019
6497 Clear 14 1023 62 10000 6.7 170 01:26 06.10.2019
6498 Clear 13 1022 58 10000 6.7 170 00:52 06.10.2019
6499 Clear 12 1022 66 10000 6.2 170 00:26 06.10.2019
6500 Clear 11 1022 62 10000 5.7 170 23:45 05.10.2019
6501 Clear 12 1022 62 10000 5.1 160 23:22 05.10.2019
6502 Clear 11 1022 61 10000 5.1 160 22:58 05.10.2019
6503 Clear 11 1022 61 10000 5.1 160 22:40 05.10.2019
6504 Clear 11 1022 61 10000 5.1 160 22:40 05.10.2019
6505 Clear 10 1022 61 10000 5.7 160 22:20 05.10.2019
6506 Clear 10 1022 61 10000 5.7 160 22:20 05.10.2019
6507 Clear 9 1021 61 10000 5.1 160 21:57 05.10.2019
6508 Clear 9 1021 61 10000 5.1 160 21:38 05.10.2019
6509 Clouds 8 1021 66 10000 5.7 160 21:18 05.10.2019
6510 Clouds 7 1021 66 10000 6.2 170 20:56 05.10.2019
6511 Clear 7 1021 66 10000 6.2 170 20:37 05.10.2019
6512 Clear 6 1021 78 0 1.34 206 20:18 05.10.2019
6513 Clear 6 1020 79 0 1.34 210 19:38 05.10.2019
6514 Clear 6 1020 70 10000 6.7 170 19:19 05.10.2019
6515 Clear 7 1020 70 10000 6.7 170 18:55 05.10.2019
6516 Clear 7 1020 70 10000 6.7 170 18:55 05.10.2019
6517 Clear 6 1020 80 0 1.79 202 18:37 05.10.2019
6518 Rain 7 1020 80 0 1.79 202 18:19 05.10.2019
6519 Rain 7 1020 70 10000 6.7 170 17:43 05.10.2019
6520 Rain 7 1020 80 0 1.79 203 17:25 05.10.2019
6521 Rain 7 1019 81 9000 8.2 150 16:58 05.10.2019
6522 Drizzle 7 1019 81 9000 8.2 150 16:40 05.10.2019
6523 Rain 8 1019 70 10000 7.2 160 16:21 05.10.2019
6524 Rain 7 1019 70 10000 8.2 170 15:57 05.10.2019
6525 Rain 8 1019 70 10000 8.2 170 15:38 05.10.2019
6526 Clouds 8 1019 76 10000 8.2 170 15:20 05.10.2019
6527 Clouds 8 1018 70 10000 8.2 170 14:44 05.10.2019
6528 Clouds 8 1018 70 10000 8.7 160 14:26 05.10.2019
6529 Clouds 8 1018 70 10000 8.7 160 14:26 05.10.2019
6530 Clouds 8 1018 70 10000 9.3 170 13:59 05.10.2019
6531 Clouds 8 1018 70 10000 9.3 170 13:40 05.10.2019
6532 Clouds 8 1018 71 10000 9.8 170 13:20 05.10.2019
6533 Clouds 8 1018 76 10000 9.8 170 12:44 05.10.2019
6534 Clouds 8 1017 76 10000 9.8 180 12:20 05.10.2019
6535 Clouds 8 1017 81 10000 10.3 180 11:45 05.10.2019
6536 Rain 8 1017 76 10000 10.8 170 11:23 05.10.2019
6537 Rain 8 1016 81 10000 8.7 170 10:59 05.10.2019
6538 Rain 7 1016 81 10000 8.7 170 10:41 05.10.2019
6539 Rain 7 1015 87 10000 7.7 170 10:23 05.10.2019
6540 Rain 7 1015 81 7000 9.8 180 09:56 05.10.2019
6541 Rain 7 1015 91 0 1.79 206 09:38 05.10.2019
6542 Rain 7 1015 91 0 1.79 206 09:38 05.10.2019
6543 Rain 7 1015 81 10000 10.8 170 09:20 05.10.2019
6544 Rain 7 1014 81 9000 10.8 170 08:39 05.10.2019
6545 Rain 7 1014 93 0 4.02 205 08:19 05.10.2019
6546 Rain 7 1008 89 0 0.45 186 07:53 05.10.2019
6547 Rain 7 1012 87 8000 11.3 180 07:32 05.10.2019
6548 Rain 8 1011 93 5000 11.3 180 06:57 05.10.2019
6549 Rain 8 1011 93 2900 10.8 180 06:26 05.10.2019
6550 Rain 9 1010 93 5000 10.8 180 05:40 05.10.2019
6551 Rain 13 1008 87 9000 7.2 330 03:41 05.10.2019
6552 Rain 13 1008 82 10000 8.7 340 03:22 05.10.2019
6553 Clouds 13 1008 76 10000 10.8 340 01:30 05.10.2019
6554 Clouds 13 1008 76 10000 10.8 340 01:30 05.10.2019
6555 Clouds 14 1008 76 10000 9.3 340 00:58 05.10.2019
6556 Clouds 14 1008 76 10000 9.3 340 00:40 05.10.2019
6557 Clouds 14 1008 76 10000 8.7 340 00:22 05.10.2019
6558 Clouds 13 1008 76 10000 9.3 350 23:43 04.10.2019
6559 Clouds 13 1008 76 10000 9.3 350 23:24 04.10.2019
6560 Clouds 13 1008 71 10000 8.7 350 22:58 04.10.2019
6561 Clouds 13 1008 71 10000 8.7 350 22:38 04.10.2019
6562 Clouds 13 1008 71 10000 9.3 360 22:19 04.10.2019
6563 Clouds 13 1008 71 10000 9.3 360 22:19 04.10.2019
6564 Clouds 13 1008 76 10000 9.3 10 21:55 04.10.2019
6565 Clouds 13 1008 76 10000 9.3 10 21:36 04.10.2019
6566 Clear 12 1008 76 10000 9.8 360 21:18 04.10.2019
6567 Clouds 12 1007 71 10000 10.8 360 20:42 04.10.2019
6568 Clouds 11 1007 71 10000 11.8 360 20:23 04.10.2019
6569 Clouds 12 1006 71 10000 10.3 350 19:58 04.10.2019
6570 Clouds 12 1006 71 10000 10.3 350 19:39 04.10.2019
6571 Clouds 12 1006 71 10000 11.8 360 19:21 04.10.2019
6572 Clouds 12 1006 71 10000 11.3 350 18:56 04.10.2019
6573 Clouds 12 1006 71 10000 11.3 350 18:37 04.10.2019
6574 Clear 12 1006 71 10000 12.3 350 18:18 04.10.2019
6575 Clear 12 1006 71 10000 12.3 350 18:18 04.10.2019
6576 Clear 12 1006 71 10000 12.9 340 17:41 04.10.2019
6577 Clear 12 1006 71 10000 12.9 340 17:41 04.10.2019
6578 Clear 11 1007 71 10000 13.4 350 17:22 04.10.2019
6579 Clear 11 1006 71 10000 12.9 340 16:59 04.10.2019
6580 Clear 11 1006 71 10000 12.9 340 16:41 04.10.2019
6581 Clear 11 1007 76 10000 12.3 350 16:19 04.10.2019
6582 Clear 11 1007 76 10000 12.3 350 16:19 04.10.2019
6583 Clear 11 1008 76 10000 11.3 360 15:58 04.10.2019
6584 Clear 11 1008 76 10000 11.3 360 15:39 04.10.2019
6585 Clear 11 1008 76 10000 12.3 360 15:20 04.10.2019
6586 Clear 11 1008 81 10000 11.8 360 14:57 04.10.2019
6587 Clear 11 1008 81 10000 11.8 360 14:39 04.10.2019
6588 Clear 11 1009 81 10000 13.9 360 14:21 04.10.2019
6589 Clear 11 1009 76 10000 13.4 360 13:45 04.10.2019
6590 Clear 12 1009 76 10000 11.8 350 13:23 04.10.2019
6591 Clear 12 1009 76 10000 10.8 350 12:58 04.10.2019
6592 Clear 12 1009 76 10000 10.8 350 12:40 04.10.2019
6593 Clear 12 1010 81 10000 12.9 360 12:21 04.10.2019
6594 Clear 11 1010 81 10000 11.8 360 11:43 04.10.2019
6595 Clear 11 1010 81 10000 11.8 360 11:42 04.10.2019
6596 Clear 12 1010 81 10000 11.8 360 11:22 04.10.2019
6597 Clear 12 1010 81 10000 12.9 360 10:55 04.10.2019
6598 Clear 12 1010 81 10000 12.9 360 10:37 04.10.2019
6599 Clear 12 1010 76 10000 12.3 350 10:18 04.10.2019
6600 Clear 12 1011 76 10000 12.3 350 09:41 04.10.2019
6601 Clear 12 1011 76 10000 11.3 350 09:23 04.10.2019
6602 Clear 12 1011 76 10000 11.8 360 08:45 04.10.2019
6603 Clear 12 1011 71 10000 10.8 360 08:26 04.10.2019
6604 Clear 12 1011 71 10000 11.8 10 07:47 04.10.2019
6605 Clear 12 1012 71 10000 11.8 10 07:26 04.10.2019
6606 Clear 13 1012 66 10000 11.3 360 06:59 04.10.2019
6607 Clear 13 1012 66 10000 11.3 360 06:39 04.10.2019
6608 Clear 13 1012 71 10000 10.3 360 06:20 04.10.2019
6609 Clear 13 1012 71 10000 10.3 360 06:20 04.10.2019
6610 Clear 13 1013 66 10000 10.8 360 05:21 04.10.2019
6611 Clear 13 1013 58 10000 10.3 360 04:38 04.10.2019
6612 Clear 13 1014 67 10000 9.3 350 03:18 04.10.2019
6613 Clear 13 1014 71 10000 10.3 360 02:43 04.10.2019
6614 Clear 13 1015 66 10000 10.3 360 01:53 04.10.2019
6615 Clear 13 1015 66 10000 10.3 360 01:53 04.10.2019
6616 Clear 13 1016 66 10000 8.7 350 01:26 04.10.2019
6617 Clear 13 1016 71 10000 7.2 360 00:33 04.10.2019
6618 Clear 11 1016 66 10000 6.2 20 23:40 03.10.2019
6619 Clear 11 1017 71 10000 6.2 30 23:21 03.10.2019
6620 Clear 10 1017 76 10000 6.2 30 22:57 03.10.2019
6621 Clear 10 1017 76 10000 6.2 30 22:39 03.10.2019
6622 Clear 10 1017 76 10000 6.2 30 22:39 03.10.2019
6623 Clear 10 1017 76 10000 6.2 30 22:39 03.10.2019
6624 Clear 9 1017 75 10000 5.1 30 22:21 03.10.2019
6625 Clear 8 1017 81 10000 4.1 20 21:58 03.10.2019
6626 Clear 7 1017 81 10000 4.1 20 21:39 03.10.2019
6627 Clear 6 1017 87 10000 2.6 20 21:19 03.10.2019
6628 Clear 4 1016 86 10000 3.1 20 20:58 03.10.2019
6629 Clear 4 1016 86 10000 3.1 20 20:58 03.10.2019
6630 Clear 3 1016 86 10000 3.1 20 20:38 03.10.2019
6631 Clear 3 1016 93 10000 2.6 30 20:20 03.10.2019
6632 Clear 3 1016 86 10000 2.6 30 19:56 03.10.2019
6633 Clear 3 1016 86 10000 2.6 30 19:37 03.10.2019
6634 Clear 3 1016 86 10000 3.1 30 19:19 03.10.2019
6635 Clear 3 1016 93 10000 2.1 40 18:55 03.10.2019
6636 Clear 3 1016 93 10000 2.1 40 18:37 03.10.2019
6637 Clear 3 1016 93 10000 2.1 30 18:18 03.10.2019
6638 Clear 3 1016 86 10000 1.5 20 17:42 03.10.2019
6639 Clear 3 1016 86 10000 1.5 20 17:42 03.10.2019
6640 Clear 3 1016 86 10000 2.1 40 17:21 03.10.2019
6641 Clear 4 1016 86 10000 2.1 20 16:55 03.10.2019
6642 Clear 4 1016 86 10000 2.1 20 16:37 03.10.2019
6643 Clear 3 1016 86 10000 1.5 20 16:19 03.10.2019
6644 Clear 6 1016 87 10000 2.1 50 15:43 03.10.2019
6645 Clear 6 1016 87 10000 2.1 50 15:43 03.10.2019
6646 Clouds 4 1016 81 10000 1 70 15:23 03.10.2019
6647 Clouds 4 1016 81 10000 1.5 50 14:57 03.10.2019
6648 Clouds 4 1016 81 10000 1.5 50 14:36 03.10.2019
6649 -273 0 0 0 0 0 14:36 03.10.2019
6650 Clouds 4 1016 81 10000 1.5 50 14:36 03.10.2019
6651 Clouds 4 1016 75 10000 1.5 10 14:18 03.10.2019
6652 Clouds 4 1015 65 10000 2.1 150 13:43 03.10.2019
6653 -273 0 0 0 0 0 13:43 03.10.2019
6654 Clouds 5 1015 70 10000 3.6 170 13:22 03.10.2019
6655 Clouds 5 1015 66 10000 4.1 170 12:58 03.10.2019
6656 Clouds 6 1015 66 10000 4.1 170 12:39 03.10.2019
6657 Clouds 6 1015 66 10000 4.1 170 12:39 03.10.2019
6658 Clouds 6 1015 66 10000 4.1 170 12:19 03.10.2019
6659 Clouds 7 1015 70 10000 2.6 180 11:57 03.10.2019
6660 Clouds 7 1015 70 10000 2.6 180 11:38 03.10.2019
6661 Clouds 8 1015 66 10000 3.6 170 11:20 03.10.2019
6662 Clouds 8 1015 66 10000 4.1 160 10:56 03.10.2019
6663 Clouds 8 1015 66 10000 4.1 160 10:38 03.10.2019
6664 Clouds 8 1015 66 10000 4.6 170 10:18 03.10.2019
6665 Clouds 8 1015 70 10000 4.6 160 09:56 03.10.2019
6666 Clouds 8 1015 70 10000 4.6 160 09:37 03.10.2019
6667 Clouds 9 1015 70 10000 4.6 170 09:19 03.10.2019
6668 Clouds 9 1014 70 10000 5.1 160 08:42 03.10.2019
6669 Clouds 9 1014 61 10000 4.6 160 08:23 03.10.2019
6670 Clouds 9 1014 66 10000 5.1 150 07:42 03.10.2019
6671 Clouds 10 1014 61 10000 5.1 160 07:20 03.10.2019
6672 Clouds 10 1014 61 10000 5.1 160 07:20 03.10.2019
6673 Clouds 10 1014 61 10000 5.7 160 06:52 03.10.2019
6674 Clouds 11 1014